<?xml version="1.0" encoding="utf-8"?>
<gpx xmlns:xsi="http://www.w3.org/2001/XMLSchema-instance" xmlns:xsd="http://www.w3.org/2001/XMLSchema" version="1.1" creator="Shapelink.com" xmlns="http://www.topografix.com/GPX/1/1" xmlns:gpxtpx="http://www.garmin.com/xmlschemas/TrackPointExtension/v1">
  <metadata>
    <name>Cykling - Trainer 13.28 km, 2026-05-06</name>
    <desc></desc>
    <author><name>Håkan Andersson</name></author> 
    <time>2026-05-06T13:36:27Z</time>
  </metadata>
  <trk>
    <name>Cykling - Trainer 13.28 km, 2026-05-06</name>
    <trkseg>
      <trkpt lat="-11.649536692541" lon="166.99825106341">
        <ele>13</ele>
        <time>2026-05-06T13:36:27Z</time>
      </trkpt>
      <trkpt lat="-11.649535435256" lon="166.99817286028">
        <ele>13</ele>
        <time>2026-05-06T13:36:28Z</time>
      </trkpt>
      <trkpt lat="-11.649535686713" lon="166.99809448951">
        <ele>13</ele>
        <time>2026-05-06T13:36:29Z</time>
      </trkpt>
      <trkpt lat="-11.649537363093" lon="166.99801637021">
        <ele>13</ele>
        <time>2026-05-06T13:36:30Z</time>
      </trkpt>
      <trkpt lat="-11.64954012912" lon="166.9979382509">
        <ele>13</ele>
        <time>2026-05-06T13:36:31Z</time>
      </trkpt>
      <trkpt lat="-11.649543565699" lon="166.99786021541">
        <ele>13</ele>
        <time>2026-05-06T13:36:32Z</time>
      </trkpt>
      <trkpt lat="-11.649547169916" lon="166.99778234756">
        <ele>13.2</ele>
        <time>2026-05-06T13:36:33Z</time>
      </trkpt>
      <trkpt lat="-11.649551109409" lon="166.99770464734">
        <ele>13.2</ele>
        <time>2026-05-06T13:36:34Z</time>
      </trkpt>
      <trkpt lat="-11.649555132721" lon="166.99762552221">
        <ele>13.2</ele>
        <time>2026-05-06T13:36:35Z</time>
      </trkpt>
      <trkpt lat="-11.649558653119" lon="166.99754958219">
        <ele>13.2</ele>
        <time>2026-05-06T13:36:36Z</time>
      </trkpt>
      <trkpt lat="-11.649562089698" lon="166.9974719658">
        <ele>13.2</ele>
        <time>2026-05-06T13:36:37Z</time>
      </trkpt>
      <trkpt lat="-11.649565442458" lon="166.99739418177">
        <ele>13.2</ele>
        <time>2026-05-06T13:36:38Z</time>
      </trkpt>
      <trkpt lat="-11.649568292304" lon="166.99731631392">
        <ele>13.2</ele>
        <time>2026-05-06T13:36:39Z</time>
      </trkpt>
      <trkpt lat="-11.649570555417" lon="166.99723844607">
        <ele>13.2</ele>
        <time>2026-05-06T13:36:40Z</time>
      </trkpt>
      <trkpt lat="-11.649572147978" lon="166.99716074585">
        <ele>13.2</ele>
        <time>2026-05-06T13:36:41Z</time>
      </trkpt>
      <trkpt lat="-11.649573405263" lon="166.99708296182">
        <ele>13.2</ele>
        <time>2026-05-06T13:36:42Z</time>
      </trkpt>
      <trkpt lat="-11.649573991996" lon="166.99700501015">
        <ele>13.2</ele>
        <time>2026-05-06T13:36:43Z</time>
      </trkpt>
      <trkpt lat="-11.649573489082" lon="166.99692705848">
        <ele>13.2</ele>
        <time>2026-05-06T13:36:44Z</time>
      </trkpt>
      <trkpt lat="-11.649571225969" lon="166.99684885535">
        <ele>13.2</ele>
        <time>2026-05-06T13:36:45Z</time>
        <extensions><gpxtpx:TrackPointExtension><gpxtpx:hr>95</gpxtpx:hr></gpxtpx:TrackPointExtension></extensions>
      </trkpt>
      <trkpt lat="-11.64956862758" lon="166.99677073605">
        <ele>13.2</ele>
        <time>2026-05-06T13:36:46Z</time>
        <extensions><gpxtpx:TrackPointExtension><gpxtpx:hr>97</gpxtpx:hr></gpxtpx:TrackPointExtension></extensions>
      </trkpt>
      <trkpt lat="-11.649565610096" lon="166.99669177855">
        <ele>13.2</ele>
        <time>2026-05-06T13:36:47Z</time>
        <extensions><gpxtpx:TrackPointExtension><gpxtpx:hr>98</gpxtpx:hr></gpxtpx:TrackPointExtension></extensions>
      </trkpt>
      <trkpt lat="-11.649559910404" lon="166.99661240196">
        <ele>13.2</ele>
        <time>2026-05-06T13:36:48Z</time>
        <extensions><gpxtpx:TrackPointExtension><gpxtpx:hr>100</gpxtpx:hr></gpxtpx:TrackPointExtension></extensions>
      </trkpt>
      <trkpt lat="-11.649552115237" lon="166.99653336064">
        <ele>13.2</ele>
        <time>2026-05-06T13:36:49Z</time>
        <extensions><gpxtpx:TrackPointExtension><gpxtpx:hr>100</gpxtpx:hr></gpxtpx:TrackPointExtension></extensions>
      </trkpt>
      <trkpt lat="-11.649544571527" lon="166.9964546546">
        <ele>13.2</ele>
        <time>2026-05-06T13:36:50Z</time>
        <extensions><gpxtpx:TrackPointExtension><gpxtpx:hr>101</gpxtpx:hr></gpxtpx:TrackPointExtension></extensions>
      </trkpt>
      <trkpt lat="-11.649536021989" lon="166.99637628383">
        <ele>13.2</ele>
        <time>2026-05-06T13:36:51Z</time>
        <extensions><gpxtpx:TrackPointExtension><gpxtpx:hr>103</gpxtpx:hr></gpxtpx:TrackPointExtension></extensions>
      </trkpt>
      <trkpt lat="-11.649526885718" lon="166.99629749397">
        <ele>13.2</ele>
        <time>2026-05-06T13:36:52Z</time>
        <extensions><gpxtpx:TrackPointExtension><gpxtpx:hr>104</gpxtpx:hr></gpxtpx:TrackPointExtension></extensions>
      </trkpt>
      <trkpt lat="-11.649516492162" lon="166.99621836884">
        <ele>13.2</ele>
        <time>2026-05-06T13:36:53Z</time>
        <extensions><gpxtpx:TrackPointExtension><gpxtpx:hr>105</gpxtpx:hr></gpxtpx:TrackPointExtension></extensions>
      </trkpt>
      <trkpt lat="-11.649506517701" lon="166.99613848933">
        <ele>13.2</ele>
        <time>2026-05-06T13:36:54Z</time>
        <extensions><gpxtpx:TrackPointExtension><gpxtpx:hr>106</gpxtpx:hr></gpxtpx:TrackPointExtension></extensions>
      </trkpt>
      <trkpt lat="-11.649495788869" lon="166.99605835837">
        <ele>13.2</ele>
        <time>2026-05-06T13:36:55Z</time>
        <extensions><gpxtpx:TrackPointExtension><gpxtpx:hr>108</gpxtpx:hr></gpxtpx:TrackPointExtension></extensions>
      </trkpt>
      <trkpt lat="-11.649483299838" lon="166.9959782274">
        <ele>13.2</ele>
        <time>2026-05-06T13:36:56Z</time>
        <extensions><gpxtpx:TrackPointExtension><gpxtpx:hr>108</gpxtpx:hr></gpxtpx:TrackPointExtension></extensions>
      </trkpt>
      <trkpt lat="-11.649470140255" lon="166.99589826408">
        <ele>13.2</ele>
        <time>2026-05-06T13:36:57Z</time>
        <extensions><gpxtpx:TrackPointExtension><gpxtpx:hr>110</gpxtpx:hr></gpxtpx:TrackPointExtension></extensions>
      </trkpt>
      <trkpt lat="-11.649457735043" lon="166.99581813311">
        <ele>13.2</ele>
        <time>2026-05-06T13:36:58Z</time>
        <extensions><gpxtpx:TrackPointExtension><gpxtpx:hr>111</gpxtpx:hr></gpxtpx:TrackPointExtension></extensions>
      </trkpt>
      <trkpt lat="-11.64944457546" lon="166.99573858888">
        <ele>13.2</ele>
        <time>2026-05-06T13:36:59Z</time>
        <extensions><gpxtpx:TrackPointExtension><gpxtpx:hr>112</gpxtpx:hr></gpxtpx:TrackPointExtension></extensions>
      </trkpt>
      <trkpt lat="-11.649431248239" lon="166.99565963138">
        <ele>13.2</ele>
        <time>2026-05-06T13:37:00Z</time>
        <extensions><gpxtpx:TrackPointExtension><gpxtpx:hr>112</gpxtpx:hr></gpxtpx:TrackPointExtension></extensions>
      </trkpt>
      <trkpt lat="-11.649418004837" lon="166.99558151207">
        <ele>13.2</ele>
        <time>2026-05-06T13:37:01Z</time>
        <extensions><gpxtpx:TrackPointExtension><gpxtpx:hr>113</gpxtpx:hr></gpxtpx:TrackPointExtension></extensions>
      </trkpt>
      <trkpt lat="-11.649405012892" lon="166.99550439859">
        <ele>13.2</ele>
        <time>2026-05-06T13:37:02Z</time>
        <extensions><gpxtpx:TrackPointExtension><gpxtpx:hr>113</gpxtpx:hr></gpxtpx:TrackPointExtension></extensions>
      </trkpt>
      <trkpt lat="-11.64939260768" lon="166.99542787185">
        <ele>13.2</ele>
        <time>2026-05-06T13:37:03Z</time>
        <extensions><gpxtpx:TrackPointExtension><gpxtpx:hr>114</gpxtpx:hr></gpxtpx:TrackPointExtension></extensions>
      </trkpt>
      <trkpt lat="-11.649380453925" lon="166.99535168038">
        <ele>13.2</ele>
        <time>2026-05-06T13:37:04Z</time>
        <extensions><gpxtpx:TrackPointExtension><gpxtpx:hr>114</gpxtpx:hr></gpxtpx:TrackPointExtension></extensions>
      </trkpt>
      <trkpt lat="-11.649368719265" lon="166.99527582418">
        <ele>13.2</ele>
        <time>2026-05-06T13:37:05Z</time>
        <extensions><gpxtpx:TrackPointExtension><gpxtpx:hr>115</gpxtpx:hr></gpxtpx:TrackPointExtension></extensions>
      </trkpt>
      <trkpt lat="-11.649358912442" lon="166.99519946507">
        <ele>13.2</ele>
        <time>2026-05-06T13:37:06Z</time>
        <extensions><gpxtpx:TrackPointExtension><gpxtpx:hr>115</gpxtpx:hr></gpxtpx:TrackPointExtension></extensions>
      </trkpt>
      <trkpt lat="-11.649348602705" lon="166.99512335742">
        <ele>13.2</ele>
        <time>2026-05-06T13:37:07Z</time>
        <extensions><gpxtpx:TrackPointExtension><gpxtpx:hr>115</gpxtpx:hr></gpxtpx:TrackPointExtension></extensions>
      </trkpt>
      <trkpt lat="-11.649337203321" lon="166.99504724977">
        <ele>13.2</ele>
        <time>2026-05-06T13:37:08Z</time>
        <extensions><gpxtpx:TrackPointExtension><gpxtpx:hr>116</gpxtpx:hr></gpxtpx:TrackPointExtension></extensions>
      </trkpt>
      <trkpt lat="-11.649325803937" lon="166.99497114212">
        <ele>13.2</ele>
        <time>2026-05-06T13:37:09Z</time>
        <extensions><gpxtpx:TrackPointExtension><gpxtpx:hr>116</gpxtpx:hr></gpxtpx:TrackPointExtension></extensions>
      </trkpt>
      <trkpt lat="-11.649314320734" lon="166.99489478301">
        <ele>13.2</ele>
        <time>2026-05-06T13:37:10Z</time>
        <extensions><gpxtpx:TrackPointExtension><gpxtpx:hr>116</gpxtpx:hr></gpxtpx:TrackPointExtension></extensions>
      </trkpt>
      <trkpt lat="-11.649302418436" lon="166.99481884299">
        <ele>13.2</ele>
        <time>2026-05-06T13:37:11Z</time>
        <extensions><gpxtpx:TrackPointExtension><gpxtpx:hr>116</gpxtpx:hr></gpxtpx:TrackPointExtension></extensions>
      </trkpt>
      <trkpt lat="-11.64928867212" lon="166.99474273534">
        <ele>13.2</ele>
        <time>2026-05-06T13:37:12Z</time>
        <extensions><gpxtpx:TrackPointExtension><gpxtpx:hr>116</gpxtpx:hr></gpxtpx:TrackPointExtension></extensions>
      </trkpt>
      <trkpt lat="-11.649274758166" lon="166.99466830407">
        <ele>13.2</ele>
        <time>2026-05-06T13:37:13Z</time>
        <extensions><gpxtpx:TrackPointExtension><gpxtpx:hr>116</gpxtpx:hr></gpxtpx:TrackPointExtension></extensions>
      </trkpt>
      <trkpt lat="-11.649261514764" lon="166.99459353752">
        <ele>13.2</ele>
        <time>2026-05-06T13:37:14Z</time>
        <extensions><gpxtpx:TrackPointExtension><gpxtpx:hr>117</gpxtpx:hr></gpxtpx:TrackPointExtension></extensions>
      </trkpt>
      <trkpt lat="-11.649248690457" lon="166.9945184357">
        <ele>13.2</ele>
        <time>2026-05-06T13:37:15Z</time>
        <extensions><gpxtpx:TrackPointExtension><gpxtpx:hr>117</gpxtpx:hr></gpxtpx:TrackPointExtension></extensions>
      </trkpt>
      <trkpt lat="-11.649235949969" lon="166.99444325005">
        <ele>13.2</ele>
        <time>2026-05-06T13:37:16Z</time>
        <extensions><gpxtpx:TrackPointExtension><gpxtpx:hr>117</gpxtpx:hr></gpxtpx:TrackPointExtension></extensions>
      </trkpt>
      <trkpt lat="-11.649223796214" lon="166.99436781295">
        <ele>13.2</ele>
        <time>2026-05-06T13:37:17Z</time>
        <extensions><gpxtpx:TrackPointExtension><gpxtpx:hr>117</gpxtpx:hr></gpxtpx:TrackPointExtension></extensions>
      </trkpt>
      <trkpt lat="-11.64921407321" lon="166.99429019656">
        <ele>13.2</ele>
        <time>2026-05-06T13:37:18Z</time>
        <extensions><gpxtpx:TrackPointExtension><gpxtpx:hr>117</gpxtpx:hr></gpxtpx:TrackPointExtension></extensions>
      </trkpt>
      <trkpt lat="-11.649206278043" lon="166.99421534619">
        <ele>13.2</ele>
        <time>2026-05-06T13:37:19Z</time>
        <extensions><gpxtpx:TrackPointExtension><gpxtpx:hr>117</gpxtpx:hr></gpxtpx:TrackPointExtension></extensions>
      </trkpt>
      <trkpt lat="-11.649198482876" lon="166.99413881945">
        <ele>13.2</ele>
        <time>2026-05-06T13:37:20Z</time>
        <extensions><gpxtpx:TrackPointExtension><gpxtpx:hr>116</gpxtpx:hr></gpxtpx:TrackPointExtension></extensions>
      </trkpt>
      <trkpt lat="-11.649189346605" lon="166.9940622927">
        <ele>13.2</ele>
        <time>2026-05-06T13:37:21Z</time>
        <extensions><gpxtpx:TrackPointExtension><gpxtpx:hr>117</gpxtpx:hr></gpxtpx:TrackPointExtension></extensions>
      </trkpt>
      <trkpt lat="-11.649179875058" lon="166.99398559831">
        <ele>13.2</ele>
        <time>2026-05-06T13:37:22Z</time>
        <extensions><gpxtpx:TrackPointExtension><gpxtpx:hr>117</gpxtpx:hr></gpxtpx:TrackPointExtension></extensions>
      </trkpt>
      <trkpt lat="-11.649170403511" lon="166.99390873629">
        <ele>13.2</ele>
        <time>2026-05-06T13:37:23Z</time>
        <extensions><gpxtpx:TrackPointExtension><gpxtpx:hr>117</gpxtpx:hr></gpxtpx:TrackPointExtension></extensions>
      </trkpt>
      <trkpt lat="-11.64916126724" lon="166.99383204191">
        <ele>13.2</ele>
        <time>2026-05-06T13:37:24Z</time>
        <extensions><gpxtpx:TrackPointExtension><gpxtpx:hr>117</gpxtpx:hr></gpxtpx:TrackPointExtension></extensions>
      </trkpt>
      <trkpt lat="-11.649153304435" lon="166.99375492843">
        <ele>13.2</ele>
        <time>2026-05-06T13:37:25Z</time>
        <extensions><gpxtpx:TrackPointExtension><gpxtpx:hr>117</gpxtpx:hr></gpxtpx:TrackPointExtension></extensions>
      </trkpt>
      <trkpt lat="-11.64914617982" lon="166.99367991042">
        <ele>13.2</ele>
        <time>2026-05-06T13:37:26Z</time>
        <extensions><gpxtpx:TrackPointExtension><gpxtpx:hr>117</gpxtpx:hr></gpxtpx:TrackPointExtension></extensions>
      </trkpt>
      <trkpt lat="-11.649139055205" lon="166.99360447332">
        <ele>13.2</ele>
        <time>2026-05-06T13:37:27Z</time>
        <extensions><gpxtpx:TrackPointExtension><gpxtpx:hr>117</gpxtpx:hr></gpxtpx:TrackPointExtension></extensions>
      </trkpt>
      <trkpt lat="-11.649133187875" lon="166.99352928768">
        <ele>13</ele>
        <time>2026-05-06T13:37:28Z</time>
        <extensions><gpxtpx:TrackPointExtension><gpxtpx:hr>117</gpxtpx:hr></gpxtpx:TrackPointExtension></extensions>
      </trkpt>
      <trkpt lat="-11.649132936418" lon="166.99345376676">
        <ele>13</ele>
        <time>2026-05-06T13:37:29Z</time>
        <extensions><gpxtpx:TrackPointExtension><gpxtpx:hr>117</gpxtpx:hr></gpxtpx:TrackPointExtension></extensions>
      </trkpt>
      <trkpt lat="-11.649145090173" lon="166.99337866494">
        <ele>13</ele>
        <time>2026-05-06T13:37:30Z</time>
        <extensions><gpxtpx:TrackPointExtension><gpxtpx:hr>116</gpxtpx:hr></gpxtpx:TrackPointExtension></extensions>
      </trkpt>
      <trkpt lat="-11.649170571149" lon="166.9933092628">
        <ele>13</ele>
        <time>2026-05-06T13:37:31Z</time>
        <extensions><gpxtpx:TrackPointExtension><gpxtpx:hr>115</gpxtpx:hr></gpxtpx:TrackPointExtension></extensions>
      </trkpt>
      <trkpt lat="-11.649204517844" lon="166.99324321343">
        <ele>13</ele>
        <time>2026-05-06T13:37:32Z</time>
        <extensions><gpxtpx:TrackPointExtension><gpxtpx:hr>115</gpxtpx:hr></gpxtpx:TrackPointExtension></extensions>
      </trkpt>
      <trkpt lat="-11.649241062928" lon="166.99317875662">
        <ele>13</ele>
        <time>2026-05-06T13:37:33Z</time>
        <extensions><gpxtpx:TrackPointExtension><gpxtpx:hr>115</gpxtpx:hr></gpxtpx:TrackPointExtension></extensions>
      </trkpt>
      <trkpt lat="-11.649277691831" lon="166.99311429981">
        <ele>13.2</ele>
        <time>2026-05-06T13:37:34Z</time>
        <extensions><gpxtpx:TrackPointExtension><gpxtpx:hr>114</gpxtpx:hr></gpxtpx:TrackPointExtension></extensions>
      </trkpt>
      <trkpt lat="-11.649315326562" lon="166.99305068119">
        <ele>13.2</ele>
        <time>2026-05-06T13:37:35Z</time>
        <extensions><gpxtpx:TrackPointExtension><gpxtpx:hr>114</gpxtpx:hr></gpxtpx:TrackPointExtension></extensions>
      </trkpt>
      <trkpt lat="-11.649357990433" lon="166.99299100206">
        <ele>13.2</ele>
        <time>2026-05-06T13:37:36Z</time>
        <extensions><gpxtpx:TrackPointExtension><gpxtpx:hr>115</gpxtpx:hr></gpxtpx:TrackPointExtension></extensions>
      </trkpt>
      <trkpt lat="-11.649403420331" lon="166.99293366986">
        <ele>13.2</ele>
        <time>2026-05-06T13:37:37Z</time>
        <extensions><gpxtpx:TrackPointExtension><gpxtpx:hr>115</gpxtpx:hr></gpxtpx:TrackPointExtension></extensions>
      </trkpt>
      <trkpt lat="-11.649450275152" lon="166.99287751113">
        <ele>13.2</ele>
        <time>2026-05-06T13:37:38Z</time>
        <extensions><gpxtpx:TrackPointExtension><gpxtpx:hr>116</gpxtpx:hr></gpxtpx:TrackPointExtension></extensions>
      </trkpt>
      <trkpt lat="-11.64949821962" lon="166.99282252587">
        <ele>13.2</ele>
        <time>2026-05-06T13:37:39Z</time>
        <extensions><gpxtpx:TrackPointExtension><gpxtpx:hr>116</gpxtpx:hr></gpxtpx:TrackPointExtension></extensions>
      </trkpt>
      <trkpt lat="-11.649547421373" lon="166.99276879789">
        <ele>13.2</ele>
        <time>2026-05-06T13:37:40Z</time>
        <extensions><gpxtpx:TrackPointExtension><gpxtpx:hr>116</gpxtpx:hr></gpxtpx:TrackPointExtension></extensions>
      </trkpt>
      <trkpt lat="-11.649597545135" lon="166.9927163272">
        <ele>13.2</ele>
        <time>2026-05-06T13:37:41Z</time>
        <extensions><gpxtpx:TrackPointExtension><gpxtpx:hr>116</gpxtpx:hr></gpxtpx:TrackPointExtension></extensions>
      </trkpt>
      <trkpt lat="-11.649649512915" lon="166.99266394032">
        <ele>13.2</ele>
        <time>2026-05-06T13:37:42Z</time>
        <extensions><gpxtpx:TrackPointExtension><gpxtpx:hr>116</gpxtpx:hr></gpxtpx:TrackPointExtension></extensions>
      </trkpt>
      <trkpt lat="-11.649699552858" lon="166.99261457093">
        <ele>13.4</ele>
        <time>2026-05-06T13:37:43Z</time>
        <extensions><gpxtpx:TrackPointExtension><gpxtpx:hr>115</gpxtpx:hr></gpxtpx:TrackPointExtension></extensions>
      </trkpt>
      <trkpt lat="-11.649750598629" lon="166.99256461481">
        <ele>13.4</ele>
        <time>2026-05-06T13:37:44Z</time>
        <extensions><gpxtpx:TrackPointExtension><gpxtpx:hr>114</gpxtpx:hr></gpxtpx:TrackPointExtension></extensions>
      </trkpt>
      <trkpt lat="-11.649801309124" lon="166.99251449105">
        <ele>13.4</ele>
        <time>2026-05-06T13:37:45Z</time>
        <extensions><gpxtpx:TrackPointExtension><gpxtpx:hr>114</gpxtpx:hr></gpxtpx:TrackPointExtension></extensions>
      </trkpt>
      <trkpt lat="-11.649852019619" lon="166.99246419965">
        <ele>13.4</ele>
        <time>2026-05-06T13:37:46Z</time>
        <extensions><gpxtpx:TrackPointExtension><gpxtpx:hr>113</gpxtpx:hr></gpxtpx:TrackPointExtension></extensions>
      </trkpt>
      <trkpt lat="-11.649902981571" lon="166.99241449498">
        <ele>13.4</ele>
        <time>2026-05-06T13:37:47Z</time>
        <extensions><gpxtpx:TrackPointExtension><gpxtpx:hr>111</gpxtpx:hr></gpxtpx:TrackPointExtension></extensions>
      </trkpt>
      <trkpt lat="-11.649953692066" lon="166.9923642874">
        <ele>13.4</ele>
        <time>2026-05-06T13:37:48Z</time>
        <extensions><gpxtpx:TrackPointExtension><gpxtpx:hr>111</gpxtpx:hr></gpxtpx:TrackPointExtension></extensions>
      </trkpt>
      <trkpt lat="-11.650003312914" lon="166.99231257107">
        <ele>13.4</ele>
        <time>2026-05-06T13:37:49Z</time>
        <extensions><gpxtpx:TrackPointExtension><gpxtpx:hr>111</gpxtpx:hr></gpxtpx:TrackPointExtension></extensions>
      </trkpt>
      <trkpt lat="-11.650052430848" lon="166.99225800491">
        <ele>13.4</ele>
        <time>2026-05-06T13:37:50Z</time>
        <extensions><gpxtpx:TrackPointExtension><gpxtpx:hr>112</gpxtpx:hr></gpxtpx:TrackPointExtension></extensions>
      </trkpt>
      <trkpt lat="-11.650097441651" lon="166.992202852">
        <ele>13.4</ele>
        <time>2026-05-06T13:37:51Z</time>
        <extensions><gpxtpx:TrackPointExtension><gpxtpx:hr>112</gpxtpx:hr></gpxtpx:TrackPointExtension></extensions>
      </trkpt>
      <trkpt lat="-11.650137674771" lon="166.99214325669">
        <ele>13.6</ele>
        <time>2026-05-06T13:37:52Z</time>
        <extensions><gpxtpx:TrackPointExtension><gpxtpx:hr>112</gpxtpx:hr></gpxtpx:TrackPointExtension></extensions>
      </trkpt>
      <trkpt lat="-11.650171202371" lon="166.99207695587">
        <ele>13.6</ele>
        <time>2026-05-06T13:37:53Z</time>
        <extensions><gpxtpx:TrackPointExtension><gpxtpx:hr>112</gpxtpx:hr></gpxtpx:TrackPointExtension></extensions>
      </trkpt>
      <trkpt lat="-11.650193665863" lon="166.99200923011">
        <ele>13.6</ele>
        <time>2026-05-06T13:37:54Z</time>
        <extensions><gpxtpx:TrackPointExtension><gpxtpx:hr>113</gpxtpx:hr></gpxtpx:TrackPointExtension></extensions>
      </trkpt>
      <trkpt lat="-11.650206573989" lon="166.99193630758">
        <ele>13.6</ele>
        <time>2026-05-06T13:37:55Z</time>
        <extensions><gpxtpx:TrackPointExtension><gpxtpx:hr>113</gpxtpx:hr></gpxtpx:TrackPointExtension></extensions>
      </trkpt>
      <trkpt lat="-11.650212692776" lon="166.99186346887">
        <ele>13.4</ele>
        <time>2026-05-06T13:37:56Z</time>
        <extensions><gpxtpx:TrackPointExtension><gpxtpx:hr>112</gpxtpx:hr></gpxtpx:TrackPointExtension></extensions>
      </trkpt>
      <trkpt lat="-11.650218895382" lon="166.99178937288">
        <ele>13.4</ele>
        <time>2026-05-06T13:37:57Z</time>
        <extensions><gpxtpx:TrackPointExtension><gpxtpx:hr>112</gpxtpx:hr></gpxtpx:TrackPointExtension></extensions>
      </trkpt>
      <trkpt lat="-11.650242616159" lon="166.9917188811">
        <ele>13.4</ele>
        <time>2026-05-06T13:37:58Z</time>
        <extensions><gpxtpx:TrackPointExtension><gpxtpx:hr>112</gpxtpx:hr></gpxtpx:TrackPointExtension></extensions>
      </trkpt>
      <trkpt lat="-11.650293242835" lon="166.99166289001">
        <ele>13.4</ele>
        <time>2026-05-06T13:37:59Z</time>
        <extensions><gpxtpx:TrackPointExtension><gpxtpx:hr>112</gpxtpx:hr></gpxtpx:TrackPointExtension></extensions>
      </trkpt>
      <trkpt lat="-11.65035904075" lon="166.99162835658">
        <ele>13.4</ele>
        <time>2026-05-06T13:38:00Z</time>
        <extensions><gpxtpx:TrackPointExtension><gpxtpx:hr>111</gpxtpx:hr></gpxtpx:TrackPointExtension></extensions>
      </trkpt>
      <trkpt lat="-11.650432298556" lon="166.99160916203">
        <ele>13.4</ele>
        <time>2026-05-06T13:38:01Z</time>
        <extensions><gpxtpx:TrackPointExtension><gpxtpx:hr>111</gpxtpx:hr></gpxtpx:TrackPointExtension></extensions>
      </trkpt>
      <trkpt lat="-11.650508070932" lon="166.99160069631">
        <ele>13.2</ele>
        <time>2026-05-06T13:38:02Z</time>
        <extensions><gpxtpx:TrackPointExtension><gpxtpx:hr>111</gpxtpx:hr></gpxtpx:TrackPointExtension></extensions>
      </trkpt>
      <trkpt lat="-11.650585100593" lon="166.99159918757">
        <ele>13.2</ele>
        <time>2026-05-06T13:38:03Z</time>
        <extensions><gpxtpx:TrackPointExtension><gpxtpx:hr>111</gpxtpx:hr></gpxtpx:TrackPointExtension></extensions>
      </trkpt>
      <trkpt lat="-11.650662884625" lon="166.99160228887">
        <ele>13.2</ele>
        <time>2026-05-06T13:38:04Z</time>
        <extensions><gpxtpx:TrackPointExtension><gpxtpx:hr>111</gpxtpx:hr></gpxtpx:TrackPointExtension></extensions>
      </trkpt>
      <trkpt lat="-11.650741087752" lon="166.99160631218">
        <ele>13.2</ele>
        <time>2026-05-06T13:38:05Z</time>
        <extensions><gpxtpx:TrackPointExtension><gpxtpx:hr>111</gpxtpx:hr></gpxtpx:TrackPointExtension></extensions>
      </trkpt>
      <trkpt lat="-11.650819793793" lon="166.99160782092">
        <ele>13.2</ele>
        <time>2026-05-06T13:38:06Z</time>
        <extensions><gpxtpx:TrackPointExtension><gpxtpx:hr>111</gpxtpx:hr></gpxtpx:TrackPointExtension></extensions>
      </trkpt>
      <trkpt lat="-11.650900427671" lon="166.99160513871">
        <ele>13.2</ele>
        <time>2026-05-06T13:38:07Z</time>
        <extensions><gpxtpx:TrackPointExtension><gpxtpx:hr>111</gpxtpx:hr></gpxtpx:TrackPointExtension></extensions>
      </trkpt>
      <trkpt lat="-11.650977457332" lon="166.99159734355">
        <ele>13.2</ele>
        <time>2026-05-06T13:38:08Z</time>
        <extensions><gpxtpx:TrackPointExtension><gpxtpx:hr>111</gpxtpx:hr></gpxtpx:TrackPointExtension></extensions>
      </trkpt>
      <trkpt lat="-11.651054486993" lon="166.99157957392">
        <ele>13.2</ele>
        <time>2026-05-06T13:38:09Z</time>
        <extensions><gpxtpx:TrackPointExtension><gpxtpx:hr>111</gpxtpx:hr></gpxtpx:TrackPointExtension></extensions>
      </trkpt>
      <trkpt lat="-11.651128080075" lon="166.99155157837">
        <ele>13.2</ele>
        <time>2026-05-06T13:38:10Z</time>
        <extensions><gpxtpx:TrackPointExtension><gpxtpx:hr>111</gpxtpx:hr></gpxtpx:TrackPointExtension></extensions>
      </trkpt>
      <trkpt lat="-11.651197817483" lon="166.99151897278">
        <ele>13.2</ele>
        <time>2026-05-06T13:38:11Z</time>
        <extensions><gpxtpx:TrackPointExtension><gpxtpx:hr>111</gpxtpx:hr></gpxtpx:TrackPointExtension></extensions>
      </trkpt>
      <trkpt lat="-11.651267219615" lon="166.99148544518">
        <ele>13.2</ele>
        <time>2026-05-06T13:38:12Z</time>
        <extensions><gpxtpx:TrackPointExtension><gpxtpx:hr>111</gpxtpx:hr></gpxtpx:TrackPointExtension></extensions>
      </trkpt>
      <trkpt lat="-11.651338381946" lon="166.99145409688">
        <ele>13.2</ele>
        <time>2026-05-06T13:38:13Z</time>
        <extensions><gpxtpx:TrackPointExtension><gpxtpx:hr>111</gpxtpx:hr></gpxtpx:TrackPointExtension></extensions>
      </trkpt>
      <trkpt lat="-11.651412394123" lon="166.99143113047">
        <ele>13.2</ele>
        <time>2026-05-06T13:38:14Z</time>
        <extensions><gpxtpx:TrackPointExtension><gpxtpx:hr>110</gpxtpx:hr></gpxtpx:TrackPointExtension></extensions>
      </trkpt>
      <trkpt lat="-11.651488669413" lon="166.99141813853">
        <ele>13.2</ele>
        <time>2026-05-06T13:38:15Z</time>
        <extensions><gpxtpx:TrackPointExtension><gpxtpx:hr>110</gpxtpx:hr></gpxtpx:TrackPointExtension></extensions>
      </trkpt>
      <trkpt lat="-11.65156603435" lon="166.99141411521">
        <ele>13.2</ele>
        <time>2026-05-06T13:38:16Z</time>
        <extensions><gpxtpx:TrackPointExtension><gpxtpx:hr>110</gpxtpx:hr></gpxtpx:TrackPointExtension></extensions>
      </trkpt>
      <trkpt lat="-11.651643483106" lon="166.99141730034">
        <ele>13.2</ele>
        <time>2026-05-06T13:38:17Z</time>
        <extensions><gpxtpx:TrackPointExtension><gpxtpx:hr>111</gpxtpx:hr></gpxtpx:TrackPointExtension></extensions>
      </trkpt>
      <trkpt lat="-11.651720512767" lon="166.99142744243">
        <ele>13.2</ele>
        <time>2026-05-06T13:38:18Z</time>
        <extensions><gpxtpx:TrackPointExtension><gpxtpx:hr>111</gpxtpx:hr></gpxtpx:TrackPointExtension></extensions>
      </trkpt>
      <trkpt lat="-11.651796452781" lon="166.99144286513">
        <ele>13.2</ele>
        <time>2026-05-06T13:38:19Z</time>
        <extensions><gpxtpx:TrackPointExtension><gpxtpx:hr>111</gpxtpx:hr></gpxtpx:TrackPointExtension></extensions>
      </trkpt>
      <trkpt lat="-11.651874236813" lon="166.99146298169">
        <ele>13.2</ele>
        <time>2026-05-06T13:38:20Z</time>
        <extensions><gpxtpx:TrackPointExtension><gpxtpx:hr>111</gpxtpx:hr></gpxtpx:TrackPointExtension></extensions>
      </trkpt>
      <trkpt lat="-11.651946656429" lon="166.99148452317">
        <ele>13.2</ele>
        <time>2026-05-06T13:38:21Z</time>
        <extensions><gpxtpx:TrackPointExtension><gpxtpx:hr>111</gpxtpx:hr></gpxtpx:TrackPointExtension></extensions>
      </trkpt>
      <trkpt lat="-11.652018573131" lon="166.99150774104">
        <ele>13.2</ele>
        <time>2026-05-06T13:38:22Z</time>
        <extensions><gpxtpx:TrackPointExtension><gpxtpx:hr>110</gpxtpx:hr></gpxtpx:TrackPointExtension></extensions>
      </trkpt>
      <trkpt lat="-11.652091747118" lon="166.99153288674">
        <ele>13.2</ele>
        <time>2026-05-06T13:38:23Z</time>
        <extensions><gpxtpx:TrackPointExtension><gpxtpx:hr>109</gpxtpx:hr></gpxtpx:TrackPointExtension></extensions>
      </trkpt>
      <trkpt lat="-11.652164669648" lon="166.99155853535">
        <ele>13.2</ele>
        <time>2026-05-06T13:38:24Z</time>
        <extensions><gpxtpx:TrackPointExtension><gpxtpx:hr>108</gpxtpx:hr></gpxtpx:TrackPointExtension></extensions>
      </trkpt>
      <trkpt lat="-11.652237089264" lon="166.99158460306">
        <ele>13.2</ele>
        <time>2026-05-06T13:38:25Z</time>
        <extensions><gpxtpx:TrackPointExtension><gpxtpx:hr>108</gpxtpx:hr></gpxtpx:TrackPointExtension></extensions>
      </trkpt>
      <trkpt lat="-11.652311771993" lon="166.99161259861">
        <ele>13.2</ele>
        <time>2026-05-06T13:38:26Z</time>
        <extensions><gpxtpx:TrackPointExtension><gpxtpx:hr>107</gpxtpx:hr></gpxtpx:TrackPointExtension></extensions>
      </trkpt>
      <trkpt lat="-11.652383185781" lon="166.99164059415">
        <ele>13.2</ele>
        <time>2026-05-06T13:38:27Z</time>
        <extensions><gpxtpx:TrackPointExtension><gpxtpx:hr>107</gpxtpx:hr></gpxtpx:TrackPointExtension></extensions>
      </trkpt>
      <trkpt lat="-11.652451833542" lon="166.99166758387">
        <ele>13.2</ele>
        <time>2026-05-06T13:38:28Z</time>
        <extensions><gpxtpx:TrackPointExtension><gpxtpx:hr>107</gpxtpx:hr></gpxtpx:TrackPointExtension></extensions>
      </trkpt>
      <trkpt lat="-11.652526348633" lon="166.99169675288">
        <ele>13.2</ele>
        <time>2026-05-06T13:38:29Z</time>
        <extensions><gpxtpx:TrackPointExtension><gpxtpx:hr>108</gpxtpx:hr></gpxtpx:TrackPointExtension></extensions>
      </trkpt>
      <trkpt lat="-11.652597930059" lon="166.99172441315">
        <ele>13.2</ele>
        <time>2026-05-06T13:38:30Z</time>
        <extensions><gpxtpx:TrackPointExtension><gpxtpx:hr>108</gpxtpx:hr></gpxtpx:TrackPointExtension></extensions>
      </trkpt>
      <trkpt lat="-11.652665907268" lon="166.99175173815">
        <ele>13.2</ele>
        <time>2026-05-06T13:38:31Z</time>
        <extensions><gpxtpx:TrackPointExtension><gpxtpx:hr>107</gpxtpx:hr></gpxtpx:TrackPointExtension></extensions>
      </trkpt>
      <trkpt lat="-11.652738745979" lon="166.99178182917">
        <ele>13.2</ele>
        <time>2026-05-06T13:38:32Z</time>
        <extensions><gpxtpx:TrackPointExtension><gpxtpx:hr>107</gpxtpx:hr></gpxtpx:TrackPointExtension></extensions>
      </trkpt>
      <trkpt lat="-11.652805633541" lon="166.99180940562">
        <ele>13.2</ele>
        <time>2026-05-06T13:38:33Z</time>
        <extensions><gpxtpx:TrackPointExtension><gpxtpx:hr>107</gpxtpx:hr></gpxtpx:TrackPointExtension></extensions>
      </trkpt>
      <trkpt lat="-11.652878388433" lon="166.99183815553">
        <ele>13.2</ele>
        <time>2026-05-06T13:38:34Z</time>
        <extensions><gpxtpx:TrackPointExtension><gpxtpx:hr>107</gpxtpx:hr></gpxtpx:TrackPointExtension></extensions>
      </trkpt>
      <trkpt lat="-11.652948125841" lon="166.99186564817">
        <ele>13.2</ele>
        <time>2026-05-06T13:38:35Z</time>
        <extensions><gpxtpx:TrackPointExtension><gpxtpx:hr>107</gpxtpx:hr></gpxtpx:TrackPointExtension></extensions>
      </trkpt>
      <trkpt lat="-11.653017276516" lon="166.99189364371">
        <ele>13.2</ele>
        <time>2026-05-06T13:38:36Z</time>
        <extensions><gpxtpx:TrackPointExtension><gpxtpx:hr>107</gpxtpx:hr></gpxtpx:TrackPointExtension></extensions>
      </trkpt>
      <trkpt lat="-11.653084331716" lon="166.99192071725">
        <ele>13.2</ele>
        <time>2026-05-06T13:38:37Z</time>
        <extensions><gpxtpx:TrackPointExtension><gpxtpx:hr>107</gpxtpx:hr></gpxtpx:TrackPointExtension></extensions>
      </trkpt>
      <trkpt lat="-11.653153147115" lon="166.99194820988">
        <ele>13.2</ele>
        <time>2026-05-06T13:38:38Z</time>
        <extensions><gpxtpx:TrackPointExtension><gpxtpx:hr>106</gpxtpx:hr></gpxtpx:TrackPointExtension></extensions>
      </trkpt>
      <trkpt lat="-11.653222716885" lon="166.9919738585">
        <ele>13.2</ele>
        <time>2026-05-06T13:38:39Z</time>
        <extensions><gpxtpx:TrackPointExtension><gpxtpx:hr>106</gpxtpx:hr></gpxtpx:TrackPointExtension></extensions>
      </trkpt>
      <trkpt lat="-11.653292454293" lon="166.99199741163">
        <ele>13.2</ele>
        <time>2026-05-06T13:38:40Z</time>
        <extensions><gpxtpx:TrackPointExtension><gpxtpx:hr>106</gpxtpx:hr></gpxtpx:TrackPointExtension></extensions>
      </trkpt>
      <trkpt lat="-11.653365125366" lon="166.99202121623">
        <ele>13.2</ele>
        <time>2026-05-06T13:38:41Z</time>
        <extensions><gpxtpx:TrackPointExtension><gpxtpx:hr>106</gpxtpx:hr></gpxtpx:TrackPointExtension></extensions>
      </trkpt>
      <trkpt lat="-11.653435030412" lon="166.99204418264">
        <ele>13.2</ele>
        <time>2026-05-06T13:38:42Z</time>
        <extensions><gpxtpx:TrackPointExtension><gpxtpx:hr>106</gpxtpx:hr></gpxtpx:TrackPointExtension></extensions>
      </trkpt>
      <trkpt lat="-11.653505019277" lon="166.99206748432">
        <ele>13.2</ele>
        <time>2026-05-06T13:38:43Z</time>
        <extensions><gpxtpx:TrackPointExtension><gpxtpx:hr>106</gpxtpx:hr></gpxtpx:TrackPointExtension></extensions>
      </trkpt>
      <trkpt lat="-11.653574672866" lon="166.99209154037">
        <ele>13.2</ele>
        <time>2026-05-06T13:38:44Z</time>
        <extensions><gpxtpx:TrackPointExtension><gpxtpx:hr>106</gpxtpx:hr></gpxtpx:TrackPointExtension></extensions>
      </trkpt>
      <trkpt lat="-11.653644326455" lon="166.9921159317">
        <ele>13.2</ele>
        <time>2026-05-06T13:38:45Z</time>
        <extensions><gpxtpx:TrackPointExtension><gpxtpx:hr>107</gpxtpx:hr></gpxtpx:TrackPointExtension></extensions>
      </trkpt>
      <trkpt lat="-11.653713980044" lon="166.99214032303">
        <ele>13.2</ele>
        <time>2026-05-06T13:38:46Z</time>
        <extensions><gpxtpx:TrackPointExtension><gpxtpx:hr>108</gpxtpx:hr></gpxtpx:TrackPointExtension></extensions>
      </trkpt>
      <trkpt lat="-11.65378137052" lon="166.99216178069">
        <ele>13.2</ele>
        <time>2026-05-06T13:38:47Z</time>
        <extensions><gpxtpx:TrackPointExtension><gpxtpx:hr>109</gpxtpx:hr></gpxtpx:TrackPointExtension></extensions>
      </trkpt>
      <trkpt lat="-11.653855634154" lon="166.99218047233">
        <ele>13.2</ele>
        <time>2026-05-06T13:38:48Z</time>
        <extensions><gpxtpx:TrackPointExtension><gpxtpx:hr>110</gpxtpx:hr></gpxtpx:TrackPointExtension></extensions>
      </trkpt>
      <trkpt lat="-11.653928389046" lon="166.99219128498">
        <ele>13.2</ele>
        <time>2026-05-06T13:38:49Z</time>
        <extensions><gpxtpx:TrackPointExtension><gpxtpx:hr>110</gpxtpx:hr></gpxtpx:TrackPointExtension></extensions>
      </trkpt>
      <trkpt lat="-11.654001898309" lon="166.99219053061">
        <ele>13.2</ele>
        <time>2026-05-06T13:38:50Z</time>
        <extensions><gpxtpx:TrackPointExtension><gpxtpx:hr>110</gpxtpx:hr></gpxtpx:TrackPointExtension></extensions>
      </trkpt>
      <trkpt lat="-11.65407138426" lon="166.99217544319">
        <ele>13.2</ele>
        <time>2026-05-06T13:38:51Z</time>
        <extensions><gpxtpx:TrackPointExtension><gpxtpx:hr>110</gpxtpx:hr></gpxtpx:TrackPointExtension></extensions>
      </trkpt>
      <trkpt lat="-11.654139696745" lon="166.99214518453">
        <ele>13.2</ele>
        <time>2026-05-06T13:38:52Z</time>
        <extensions><gpxtpx:TrackPointExtension><gpxtpx:hr>109</gpxtpx:hr></gpxtpx:TrackPointExtension></extensions>
      </trkpt>
      <trkpt lat="-11.654203399185" lon="166.99210897472">
        <ele>13.2</ele>
        <time>2026-05-06T13:38:53Z</time>
        <extensions><gpxtpx:TrackPointExtension><gpxtpx:hr>109</gpxtpx:hr></gpxtpx:TrackPointExtension></extensions>
      </trkpt>
      <trkpt lat="-11.654263748865" lon="166.99206714904">
        <ele>13.2</ele>
        <time>2026-05-06T13:38:54Z</time>
        <extensions><gpxtpx:TrackPointExtension><gpxtpx:hr>109</gpxtpx:hr></gpxtpx:TrackPointExtension></extensions>
      </trkpt>
      <trkpt lat="-11.654319404681" lon="166.992015768">
        <ele>13.2</ele>
        <time>2026-05-06T13:38:55Z</time>
        <extensions><gpxtpx:TrackPointExtension><gpxtpx:hr>108</gpxtpx:hr></gpxtpx:TrackPointExtension></extensions>
      </trkpt>
      <trkpt lat="-11.654365086036" lon="166.99195835198">
        <ele>13.2</ele>
        <time>2026-05-06T13:38:56Z</time>
        <extensions><gpxtpx:TrackPointExtension><gpxtpx:hr>109</gpxtpx:hr></gpxtpx:TrackPointExtension></extensions>
      </trkpt>
      <trkpt lat="-11.654403475138" lon="166.99189406281">
        <ele>13.2</ele>
        <time>2026-05-06T13:38:57Z</time>
        <extensions><gpxtpx:TrackPointExtension><gpxtpx:hr>109</gpxtpx:hr></gpxtpx:TrackPointExtension></extensions>
      </trkpt>
      <trkpt lat="-11.654434571987" lon="166.99182759434">
        <ele>13.2</ele>
        <time>2026-05-06T13:38:58Z</time>
        <extensions><gpxtpx:TrackPointExtension><gpxtpx:hr>108</gpxtpx:hr></gpxtpx:TrackPointExtension></extensions>
      </trkpt>
      <trkpt lat="-11.654461394067" lon="166.99175777311">
        <ele>13.2</ele>
        <time>2026-05-06T13:38:59Z</time>
        <extensions><gpxtpx:TrackPointExtension><gpxtpx:hr>108</gpxtpx:hr></gpxtpx:TrackPointExtension></extensions>
      </trkpt>
      <trkpt lat="-11.654484695749" lon="166.99168811952">
        <ele>13.2</ele>
        <time>2026-05-06T13:39:00Z</time>
        <extensions><gpxtpx:TrackPointExtension><gpxtpx:hr>108</gpxtpx:hr></gpxtpx:TrackPointExtension></extensions>
      </trkpt>
      <trkpt lat="-11.654506823965" lon="166.991616119">
        <ele>13.2</ele>
        <time>2026-05-06T13:39:01Z</time>
        <extensions><gpxtpx:TrackPointExtension><gpxtpx:hr>108</gpxtpx:hr></gpxtpx:TrackPointExtension></extensions>
      </trkpt>
      <trkpt lat="-11.654526689068" lon="166.99154470522">
        <ele>13.2</ele>
        <time>2026-05-06T13:39:02Z</time>
        <extensions><gpxtpx:TrackPointExtension><gpxtpx:hr>107</gpxtpx:hr></gpxtpx:TrackPointExtension></extensions>
      </trkpt>
      <trkpt lat="-11.654542866135" lon="166.99147144741">
        <ele>13.2</ele>
        <time>2026-05-06T13:39:03Z</time>
        <extensions><gpxtpx:TrackPointExtension><gpxtpx:hr>107</gpxtpx:hr></gpxtpx:TrackPointExtension></extensions>
      </trkpt>
      <trkpt lat="-11.654558121193" lon="166.99139911161">
        <ele>13.2</ele>
        <time>2026-05-06T13:39:04Z</time>
        <extensions><gpxtpx:TrackPointExtension><gpxtpx:hr>107</gpxtpx:hr></gpxtpx:TrackPointExtension></extensions>
      </trkpt>
      <trkpt lat="-11.654572873337" lon="166.99132535089">
        <ele>13.2</ele>
        <time>2026-05-06T13:39:05Z</time>
        <extensions><gpxtpx:TrackPointExtension><gpxtpx:hr>106</gpxtpx:hr></gpxtpx:TrackPointExtension></extensions>
      </trkpt>
      <trkpt lat="-11.654585613825" lon="166.99125133872">
        <ele>13.2</ele>
        <time>2026-05-06T13:39:06Z</time>
        <extensions><gpxtpx:TrackPointExtension><gpxtpx:hr>107</gpxtpx:hr></gpxtpx:TrackPointExtension></extensions>
      </trkpt>
      <trkpt lat="-11.654597180847" lon="166.99117422523">
        <ele>13.2</ele>
        <time>2026-05-06T13:39:07Z</time>
        <extensions><gpxtpx:TrackPointExtension><gpxtpx:hr>107</gpxtpx:hr></gpxtpx:TrackPointExtension></extensions>
      </trkpt>
      <trkpt lat="-11.654607993498" lon="166.99109962632">
        <ele>13.2</ele>
        <time>2026-05-06T13:39:08Z</time>
        <extensions><gpxtpx:TrackPointExtension><gpxtpx:hr>107</gpxtpx:hr></gpxtpx:TrackPointExtension></extensions>
      </trkpt>
      <trkpt lat="-11.654618806149" lon="166.99102477596">
        <ele>13.2</ele>
        <time>2026-05-06T13:39:09Z</time>
        <extensions><gpxtpx:TrackPointExtension><gpxtpx:hr>107</gpxtpx:hr></gpxtpx:TrackPointExtension></extensions>
      </trkpt>
      <trkpt lat="-11.654629283524" lon="166.9909495065">
        <ele>13.2</ele>
        <time>2026-05-06T13:39:10Z</time>
        <extensions><gpxtpx:TrackPointExtension><gpxtpx:hr>107</gpxtpx:hr></gpxtpx:TrackPointExtension></extensions>
      </trkpt>
      <trkpt lat="-11.654639425623" lon="166.99087708688">
        <ele>13.2</ele>
        <time>2026-05-06T13:39:11Z</time>
        <extensions><gpxtpx:TrackPointExtension><gpxtpx:hr>108</gpxtpx:hr></gpxtpx:TrackPointExtension></extensions>
      </trkpt>
      <trkpt lat="-11.654649986817" lon="166.99080081159">
        <ele>13.2</ele>
        <time>2026-05-06T13:39:12Z</time>
        <extensions><gpxtpx:TrackPointExtension><gpxtpx:hr>108</gpxtpx:hr></gpxtpx:TrackPointExtension></extensions>
      </trkpt>
      <trkpt lat="-11.654660128916" lon="166.99072478776">
        <ele>13.2</ele>
        <time>2026-05-06T13:39:13Z</time>
        <extensions><gpxtpx:TrackPointExtension><gpxtpx:hr>108</gpxtpx:hr></gpxtpx:TrackPointExtension></extensions>
      </trkpt>
      <trkpt lat="-11.65466985192" lon="166.99065027267">
        <ele>13.2</ele>
        <time>2026-05-06T13:39:14Z</time>
        <extensions><gpxtpx:TrackPointExtension><gpxtpx:hr>108</gpxtpx:hr></gpxtpx:TrackPointExtension></extensions>
      </trkpt>
      <trkpt lat="-11.654679826381" lon="166.99057441647">
        <ele>13.2</ele>
        <time>2026-05-06T13:39:15Z</time>
        <extensions><gpxtpx:TrackPointExtension><gpxtpx:hr>107</gpxtpx:hr></gpxtpx:TrackPointExtension></extensions>
      </trkpt>
      <trkpt lat="-11.654689633204" lon="166.99049939847">
        <ele>13.2</ele>
        <time>2026-05-06T13:39:16Z</time>
        <extensions><gpxtpx:TrackPointExtension><gpxtpx:hr>106</gpxtpx:hr></gpxtpx:TrackPointExtension></extensions>
      </trkpt>
      <trkpt lat="-11.654699020932" lon="166.99042287172">
        <ele>13.2</ele>
        <time>2026-05-06T13:39:17Z</time>
        <extensions><gpxtpx:TrackPointExtension><gpxtpx:hr>106</gpxtpx:hr></gpxtpx:TrackPointExtension></extensions>
      </trkpt>
      <trkpt lat="-11.65470840866" lon="166.9903455906">
        <ele>13.2</ele>
        <time>2026-05-06T13:39:18Z</time>
        <extensions><gpxtpx:TrackPointExtension><gpxtpx:hr>105</gpxtpx:hr></gpxtpx:TrackPointExtension></extensions>
      </trkpt>
      <trkpt lat="-11.654717544931" lon="166.99026998586">
        <ele>13.2</ele>
        <time>2026-05-06T13:39:19Z</time>
        <extensions><gpxtpx:TrackPointExtension><gpxtpx:hr>104</gpxtpx:hr></gpxtpx:TrackPointExtension></extensions>
      </trkpt>
      <trkpt lat="-11.65472601065" lon="166.99019706333">
        <ele>13.2</ele>
        <time>2026-05-06T13:39:20Z</time>
        <extensions><gpxtpx:TrackPointExtension><gpxtpx:hr>104</gpxtpx:hr></gpxtpx:TrackPointExtension></extensions>
      </trkpt>
      <trkpt lat="-11.654734811645" lon="166.99012045277">
        <ele>13.2</ele>
        <time>2026-05-06T13:39:21Z</time>
        <extensions><gpxtpx:TrackPointExtension><gpxtpx:hr>104</gpxtpx:hr></gpxtpx:TrackPointExtension></extensions>
      </trkpt>
      <trkpt lat="-11.654743528821" lon="166.99004367456">
        <ele>13.2</ele>
        <time>2026-05-06T13:39:22Z</time>
        <extensions><gpxtpx:TrackPointExtension><gpxtpx:hr>105</gpxtpx:hr></gpxtpx:TrackPointExtension></extensions>
      </trkpt>
      <trkpt lat="-11.654750737255" lon="166.98996639345">
        <ele>13.2</ele>
        <time>2026-05-06T13:39:23Z</time>
        <extensions><gpxtpx:TrackPointExtension><gpxtpx:hr>105</gpxtpx:hr></gpxtpx:TrackPointExtension></extensions>
      </trkpt>
      <trkpt lat="-11.654756520766" lon="166.98988978288">
        <ele>13.2</ele>
        <time>2026-05-06T13:39:24Z</time>
        <extensions><gpxtpx:TrackPointExtension><gpxtpx:hr>105</gpxtpx:hr></gpxtpx:TrackPointExtension></extensions>
      </trkpt>
      <trkpt lat="-11.654762639553" lon="166.98981392668">
        <ele>13.2</ele>
        <time>2026-05-06T13:39:25Z</time>
        <extensions><gpxtpx:TrackPointExtension><gpxtpx:hr>105</gpxtpx:hr></gpxtpx:TrackPointExtension></extensions>
      </trkpt>
      <trkpt lat="-11.65476959653" lon="166.98973765139">
        <ele>13.2</ele>
        <time>2026-05-06T13:39:26Z</time>
        <extensions><gpxtpx:TrackPointExtension><gpxtpx:hr>105</gpxtpx:hr></gpxtpx:TrackPointExtension></extensions>
      </trkpt>
      <trkpt lat="-11.654776385869" lon="166.98966070555">
        <ele>13.2</ele>
        <time>2026-05-06T13:39:27Z</time>
        <extensions><gpxtpx:TrackPointExtension><gpxtpx:hr>105</gpxtpx:hr></gpxtpx:TrackPointExtension></extensions>
      </trkpt>
      <trkpt lat="-11.654781666466" lon="166.98958493318">
        <ele>13.2</ele>
        <time>2026-05-06T13:39:28Z</time>
        <extensions><gpxtpx:TrackPointExtension><gpxtpx:hr>105</gpxtpx:hr></gpxtpx:TrackPointExtension></extensions>
      </trkpt>
      <trkpt lat="-11.654787114701" lon="166.98950664623">
        <ele>13.2</ele>
        <time>2026-05-06T13:39:29Z</time>
        <extensions><gpxtpx:TrackPointExtension><gpxtpx:hr>105</gpxtpx:hr></gpxtpx:TrackPointExtension></extensions>
      </trkpt>
      <trkpt lat="-11.654791473289" lon="166.98943213114">
        <ele>13.2</ele>
        <time>2026-05-06T13:39:30Z</time>
        <extensions><gpxtpx:TrackPointExtension><gpxtpx:hr>105</gpxtpx:hr></gpxtpx:TrackPointExtension></extensions>
      </trkpt>
      <trkpt lat="-11.654796167153" lon="166.98935686168">
        <ele>13.2</ele>
        <time>2026-05-06T13:39:31Z</time>
        <extensions><gpxtpx:TrackPointExtension><gpxtpx:hr>104</gpxtpx:hr></gpxtpx:TrackPointExtension></extensions>
      </trkpt>
      <trkpt lat="-11.654800777198" lon="166.98927991583">
        <ele>13.2</ele>
        <time>2026-05-06T13:39:32Z</time>
        <extensions><gpxtpx:TrackPointExtension><gpxtpx:hr>105</gpxtpx:hr></gpxtpx:TrackPointExtension></extensions>
      </trkpt>
      <trkpt lat="-11.654805219605" lon="166.98920481401">
        <ele>13.2</ele>
        <time>2026-05-06T13:39:33Z</time>
        <extensions><gpxtpx:TrackPointExtension><gpxtpx:hr>105</gpxtpx:hr></gpxtpx:TrackPointExtension></extensions>
      </trkpt>
      <trkpt lat="-11.654809494374" lon="166.98912803581">
        <ele>13.2</ele>
        <time>2026-05-06T13:39:34Z</time>
        <extensions><gpxtpx:TrackPointExtension><gpxtpx:hr>105</gpxtpx:hr></gpxtpx:TrackPointExtension></extensions>
      </trkpt>
      <trkpt lat="-11.654813098591" lon="166.98905368835">
        <ele>13.2</ele>
        <time>2026-05-06T13:39:35Z</time>
        <extensions><gpxtpx:TrackPointExtension><gpxtpx:hr>105</gpxtpx:hr></gpxtpx:TrackPointExtension></extensions>
      </trkpt>
      <trkpt lat="-11.654815613161" lon="166.98897808362">
        <ele>13.2</ele>
        <time>2026-05-06T13:39:36Z</time>
        <extensions><gpxtpx:TrackPointExtension><gpxtpx:hr>105</gpxtpx:hr></gpxtpx:TrackPointExtension></extensions>
      </trkpt>
      <trkpt lat="-11.654816618989" lon="166.98890373616">
        <ele>13.2</ele>
        <time>2026-05-06T13:39:37Z</time>
        <extensions><gpxtpx:TrackPointExtension><gpxtpx:hr>105</gpxtpx:hr></gpxtpx:TrackPointExtension></extensions>
      </trkpt>
      <trkpt lat="-11.654816786627" lon="166.98882796379">
        <ele>13.2</ele>
        <time>2026-05-06T13:39:38Z</time>
        <extensions><gpxtpx:TrackPointExtension><gpxtpx:hr>105</gpxtpx:hr></gpxtpx:TrackPointExtension></extensions>
      </trkpt>
      <trkpt lat="-11.65481821155" lon="166.9887530296">
        <ele>13.2</ele>
        <time>2026-05-06T13:39:39Z</time>
        <extensions><gpxtpx:TrackPointExtension><gpxtpx:hr>105</gpxtpx:hr></gpxtpx:TrackPointExtension></extensions>
      </trkpt>
      <trkpt lat="-11.654818882102" lon="166.98867608376">
        <ele>13.2</ele>
        <time>2026-05-06T13:39:40Z</time>
        <extensions><gpxtpx:TrackPointExtension><gpxtpx:hr>105</gpxtpx:hr></gpxtpx:TrackPointExtension></extensions>
      </trkpt>
      <trkpt lat="-11.654818965921" lon="166.98859980847">
        <ele>13.2</ele>
        <time>2026-05-06T13:39:41Z</time>
        <extensions><gpxtpx:TrackPointExtension><gpxtpx:hr>104</gpxtpx:hr></gpxtpx:TrackPointExtension></extensions>
      </trkpt>
      <trkpt lat="-11.654818043912" lon="166.9885249581">
        <ele>13.2</ele>
        <time>2026-05-06T13:39:42Z</time>
        <extensions><gpxtpx:TrackPointExtension><gpxtpx:hr>104</gpxtpx:hr></gpxtpx:TrackPointExtension></extensions>
      </trkpt>
      <trkpt lat="-11.65481569698" lon="166.9884464197">
        <ele>13.2</ele>
        <time>2026-05-06T13:39:43Z</time>
        <extensions><gpxtpx:TrackPointExtension><gpxtpx:hr>104</gpxtpx:hr></gpxtpx:TrackPointExtension></extensions>
      </trkpt>
      <trkpt lat="-11.654811757487" lon="166.98837307807">
        <ele>13.2</ele>
        <time>2026-05-06T13:39:44Z</time>
        <extensions><gpxtpx:TrackPointExtension><gpxtpx:hr>103</gpxtpx:hr></gpxtpx:TrackPointExtension></extensions>
      </trkpt>
      <trkpt lat="-11.654803543225" lon="166.98829370148">
        <ele>13.2</ele>
        <time>2026-05-06T13:39:45Z</time>
        <extensions><gpxtpx:TrackPointExtension><gpxtpx:hr>104</gpxtpx:hr></gpxtpx:TrackPointExtension></extensions>
      </trkpt>
      <trkpt lat="-11.654791138013" lon="166.98821801292">
        <ele>13.2</ele>
        <time>2026-05-06T13:39:46Z</time>
        <extensions><gpxtpx:TrackPointExtension><gpxtpx:hr>104</gpxtpx:hr></gpxtpx:TrackPointExtension></extensions>
      </trkpt>
      <trkpt lat="-11.654772865471" lon="166.98814358165">
        <ele>13.2</ele>
        <time>2026-05-06T13:39:47Z</time>
        <extensions><gpxtpx:TrackPointExtension><gpxtpx:hr>105</gpxtpx:hr></gpxtpx:TrackPointExtension></extensions>
      </trkpt>
      <trkpt lat="-11.654748222685" lon="166.98807250314">
        <ele>13.2</ele>
        <time>2026-05-06T13:39:48Z</time>
        <extensions><gpxtpx:TrackPointExtension><gpxtpx:hr>106</gpxtpx:hr></gpxtpx:TrackPointExtension></extensions>
      </trkpt>
      <trkpt lat="-11.654715030361" lon="166.98800201136">
        <ele>13.2</ele>
        <time>2026-05-06T13:39:49Z</time>
        <extensions><gpxtpx:TrackPointExtension><gpxtpx:hr>106</gpxtpx:hr></gpxtpx:TrackPointExtension></extensions>
      </trkpt>
      <trkpt lat="-11.654673372318" lon="166.98793629727">
        <ele>13.2</ele>
        <time>2026-05-06T13:39:50Z</time>
        <extensions><gpxtpx:TrackPointExtension><gpxtpx:hr>108</gpxtpx:hr></gpxtpx:TrackPointExtension></extensions>
      </trkpt>
      <trkpt lat="-11.65462375147" lon="166.98788055763">
        <ele>13.2</ele>
        <time>2026-05-06T13:39:51Z</time>
        <extensions><gpxtpx:TrackPointExtension><gpxtpx:hr>108</gpxtpx:hr></gpxtpx:TrackPointExtension></extensions>
      </trkpt>
      <trkpt lat="-11.654568682387" lon="166.98782808694">
        <ele>13.2</ele>
        <time>2026-05-06T13:39:52Z</time>
        <extensions><gpxtpx:TrackPointExtension><gpxtpx:hr>109</gpxtpx:hr></gpxtpx:TrackPointExtension></extensions>
      </trkpt>
      <trkpt lat="-11.654509003259" lon="166.98778047774">
        <ele>13.2</ele>
        <time>2026-05-06T13:39:53Z</time>
        <extensions><gpxtpx:TrackPointExtension><gpxtpx:hr>109</gpxtpx:hr></gpxtpx:TrackPointExtension></extensions>
      </trkpt>
      <trkpt lat="-11.654447312475" lon="166.98773504785">
        <ele>13.2</ele>
        <time>2026-05-06T13:39:54Z</time>
        <extensions><gpxtpx:TrackPointExtension><gpxtpx:hr>110</gpxtpx:hr></gpxtpx:TrackPointExtension></extensions>
      </trkpt>
      <trkpt lat="-11.654383945311" lon="166.98769246779">
        <ele>13.2</ele>
        <time>2026-05-06T13:39:55Z</time>
        <extensions><gpxtpx:TrackPointExtension><gpxtpx:hr>110</gpxtpx:hr></gpxtpx:TrackPointExtension></extensions>
      </trkpt>
      <trkpt lat="-11.654320661966" lon="166.9876497201">
        <ele>13.2</ele>
        <time>2026-05-06T13:39:56Z</time>
        <extensions><gpxtpx:TrackPointExtension><gpxtpx:hr>110</gpxtpx:hr></gpxtpx:TrackPointExtension></extensions>
      </trkpt>
      <trkpt lat="-11.654259390277" lon="166.98760387111">
        <ele>13.2</ele>
        <time>2026-05-06T13:39:57Z</time>
        <extensions><gpxtpx:TrackPointExtension><gpxtpx:hr>111</gpxtpx:hr></gpxtpx:TrackPointExtension></extensions>
      </trkpt>
      <trkpt lat="-11.654205410841" lon="166.9875491373">
        <ele>13.2</ele>
        <time>2026-05-06T13:39:58Z</time>
        <extensions><gpxtpx:TrackPointExtension><gpxtpx:hr>111</gpxtpx:hr></gpxtpx:TrackPointExtension></extensions>
      </trkpt>
      <trkpt lat="-11.654161322047" lon="166.98748577014">
        <ele>13.2</ele>
        <time>2026-05-06T13:39:59Z</time>
        <extensions><gpxtpx:TrackPointExtension><gpxtpx:hr>111</gpxtpx:hr></gpxtpx:TrackPointExtension></extensions>
      </trkpt>
      <trkpt lat="-11.654128800275" lon="166.987415446">
        <ele>13.2</ele>
        <time>2026-05-06T13:40:00Z</time>
        <extensions><gpxtpx:TrackPointExtension><gpxtpx:hr>110</gpxtpx:hr></gpxtpx:TrackPointExtension></extensions>
      </trkpt>
      <trkpt lat="-11.654108180801" lon="166.98734243965">
        <ele>13.2</ele>
        <time>2026-05-06T13:40:01Z</time>
        <extensions><gpxtpx:TrackPointExtension><gpxtpx:hr>110</gpxtpx:hr></gpxtpx:TrackPointExtension></extensions>
      </trkpt>
      <trkpt lat="-11.65409569177" lon="166.98726725401">
        <ele>13.2</ele>
        <time>2026-05-06T13:40:02Z</time>
        <extensions><gpxtpx:TrackPointExtension><gpxtpx:hr>111</gpxtpx:hr></gpxtpx:TrackPointExtension></extensions>
      </trkpt>
      <trkpt lat="-11.654087226051" lon="166.98718997289">
        <ele>13.2</ele>
        <time>2026-05-06T13:40:03Z</time>
        <extensions><gpxtpx:TrackPointExtension><gpxtpx:hr>111</gpxtpx:hr></gpxtpx:TrackPointExtension></extensions>
      </trkpt>
      <trkpt lat="-11.654080771988" lon="166.98711394906">
        <ele>13.2</ele>
        <time>2026-05-06T13:40:04Z</time>
        <extensions><gpxtpx:TrackPointExtension><gpxtpx:hr>111</gpxtpx:hr></gpxtpx:TrackPointExtension></extensions>
      </trkpt>
      <trkpt lat="-11.654076581038" lon="166.98703725467">
        <ele>13.2</ele>
        <time>2026-05-06T13:40:05Z</time>
        <extensions><gpxtpx:TrackPointExtension><gpxtpx:hr>111</gpxtpx:hr></gpxtpx:TrackPointExtension></extensions>
      </trkpt>
      <trkpt lat="-11.654074485563" lon="166.9869597221">
        <ele>13.2</ele>
        <time>2026-05-06T13:40:06Z</time>
        <extensions><gpxtpx:TrackPointExtension><gpxtpx:hr>111</gpxtpx:hr></gpxtpx:TrackPointExtension></extensions>
      </trkpt>
      <trkpt lat="-11.654074234106" lon="166.98688336299">
        <ele>13.2</ele>
        <time>2026-05-06T13:40:07Z</time>
        <extensions><gpxtpx:TrackPointExtension><gpxtpx:hr>111</gpxtpx:hr></gpxtpx:TrackPointExtension></extensions>
      </trkpt>
      <trkpt lat="-11.654075742848" lon="166.98680566277">
        <ele>13.2</ele>
        <time>2026-05-06T13:40:08Z</time>
        <extensions><gpxtpx:TrackPointExtension><gpxtpx:hr>111</gpxtpx:hr></gpxtpx:TrackPointExtension></extensions>
      </trkpt>
      <trkpt lat="-11.65407892797" lon="166.98672603472">
        <ele>13.2</ele>
        <time>2026-05-06T13:40:09Z</time>
        <extensions><gpxtpx:TrackPointExtension><gpxtpx:hr>111</gpxtpx:hr></gpxtpx:TrackPointExtension></extensions>
      </trkpt>
      <trkpt lat="-11.654083202739" lon="166.98664850215">
        <ele>13.2</ele>
        <time>2026-05-06T13:40:10Z</time>
        <extensions><gpxtpx:TrackPointExtension><gpxtpx:hr>111</gpxtpx:hr></gpxtpx:TrackPointExtension></extensions>
      </trkpt>
      <trkpt lat="-11.654087728965" lon="166.98657331651">
        <ele>13.2</ele>
        <time>2026-05-06T13:40:11Z</time>
        <extensions><gpxtpx:TrackPointExtension><gpxtpx:hr>111</gpxtpx:hr></gpxtpx:TrackPointExtension></extensions>
      </trkpt>
      <trkpt lat="-11.654093931571" lon="166.98649511338">
        <ele>13.2</ele>
        <time>2026-05-06T13:40:12Z</time>
        <extensions><gpxtpx:TrackPointExtension><gpxtpx:hr>111</gpxtpx:hr></gpxtpx:TrackPointExtension></extensions>
      </trkpt>
      <trkpt lat="-11.654101391462" lon="166.98641900573">
        <ele>13.2</ele>
        <time>2026-05-06T13:40:13Z</time>
        <extensions><gpxtpx:TrackPointExtension><gpxtpx:hr>110</gpxtpx:hr></gpxtpx:TrackPointExtension></extensions>
      </trkpt>
      <trkpt lat="-11.654110192457" lon="166.98634164079">
        <ele>13.2</ele>
        <time>2026-05-06T13:40:14Z</time>
        <extensions><gpxtpx:TrackPointExtension><gpxtpx:hr>110</gpxtpx:hr></gpxtpx:TrackPointExtension></extensions>
      </trkpt>
      <trkpt lat="-11.654120418375" lon="166.9862640244">
        <ele>13.2</ele>
        <time>2026-05-06T13:40:15Z</time>
        <extensions><gpxtpx:TrackPointExtension><gpxtpx:hr>110</gpxtpx:hr></gpxtpx:TrackPointExtension></extensions>
      </trkpt>
      <trkpt lat="-11.654131566302" lon="166.98618749765">
        <ele>13.2</ele>
        <time>2026-05-06T13:40:16Z</time>
        <extensions><gpxtpx:TrackPointExtension><gpxtpx:hr>110</gpxtpx:hr></gpxtpx:TrackPointExtension></extensions>
      </trkpt>
      <trkpt lat="-11.654143552419" lon="166.98611256346">
        <ele>13.2</ele>
        <time>2026-05-06T13:40:17Z</time>
        <extensions><gpxtpx:TrackPointExtension><gpxtpx:hr>110</gpxtpx:hr></gpxtpx:TrackPointExtension></extensions>
      </trkpt>
      <trkpt lat="-11.654156460545" lon="166.98603779692">
        <ele>13.2</ele>
        <time>2026-05-06T13:40:18Z</time>
        <extensions><gpxtpx:TrackPointExtension><gpxtpx:hr>110</gpxtpx:hr></gpxtpx:TrackPointExtension></extensions>
      </trkpt>
      <trkpt lat="-11.654170542137" lon="166.98595842032">
        <ele>13.2</ele>
        <time>2026-05-06T13:40:19Z</time>
        <extensions><gpxtpx:TrackPointExtension><gpxtpx:hr>109</gpxtpx:hr></gpxtpx:TrackPointExtension></extensions>
      </trkpt>
      <trkpt lat="-11.654184959005" lon="166.98588197739">
        <ele>13.2</ele>
        <time>2026-05-06T13:40:20Z</time>
        <extensions><gpxtpx:TrackPointExtension><gpxtpx:hr>109</gpxtpx:hr></gpxtpx:TrackPointExtension></extensions>
      </trkpt>
      <trkpt lat="-11.654199208235" lon="166.98580712703">
        <ele>13.2</ele>
        <time>2026-05-06T13:40:21Z</time>
        <extensions><gpxtpx:TrackPointExtension><gpxtpx:hr>109</gpxtpx:hr></gpxtpx:TrackPointExtension></extensions>
      </trkpt>
      <trkpt lat="-11.654214295655" lon="166.98572900772">
        <ele>13.2</ele>
        <time>2026-05-06T13:40:22Z</time>
        <extensions><gpxtpx:TrackPointExtension><gpxtpx:hr>110</gpxtpx:hr></gpxtpx:TrackPointExtension></extensions>
      </trkpt>
      <trkpt lat="-11.654232149102" lon="166.98565306771">
        <ele>13.2</ele>
        <time>2026-05-06T13:40:23Z</time>
        <extensions><gpxtpx:TrackPointExtension><gpxtpx:hr>110</gpxtpx:hr></gpxtpx:TrackPointExtension></extensions>
      </trkpt>
      <trkpt lat="-11.654253103852" lon="166.98557754679">
        <ele>13.2</ele>
        <time>2026-05-06T13:40:24Z</time>
        <extensions><gpxtpx:TrackPointExtension><gpxtpx:hr>110</gpxtpx:hr></gpxtpx:TrackPointExtension></extensions>
      </trkpt>
      <trkpt lat="-11.654276154077" lon="166.98550269642">
        <ele>13.2</ele>
        <time>2026-05-06T13:40:25Z</time>
        <extensions><gpxtpx:TrackPointExtension><gpxtpx:hr>110</gpxtpx:hr></gpxtpx:TrackPointExtension></extensions>
      </trkpt>
      <trkpt lat="-11.654302389424" lon="166.98543119881">
        <ele>13.2</ele>
        <time>2026-05-06T13:40:26Z</time>
        <extensions><gpxtpx:TrackPointExtension><gpxtpx:hr>109</gpxtpx:hr></gpxtpx:TrackPointExtension></extensions>
      </trkpt>
      <trkpt lat="-11.65433457592" lon="166.9853601203">
        <ele>13.2</ele>
        <time>2026-05-06T13:40:27Z</time>
        <extensions><gpxtpx:TrackPointExtension><gpxtpx:hr>109</gpxtpx:hr></gpxtpx:TrackPointExtension></extensions>
      </trkpt>
      <trkpt lat="-11.654372965022" lon="166.98529180782">
        <ele>13.2</ele>
        <time>2026-05-06T13:40:28Z</time>
        <extensions><gpxtpx:TrackPointExtension><gpxtpx:hr>109</gpxtpx:hr></gpxtpx:TrackPointExtension></extensions>
      </trkpt>
      <trkpt lat="-11.654418562558" lon="166.98522718337">
        <ele>13.2</ele>
        <time>2026-05-06T13:40:29Z</time>
        <extensions><gpxtpx:TrackPointExtension><gpxtpx:hr>109</gpxtpx:hr></gpxtpx:TrackPointExtension></extensions>
      </trkpt>
      <trkpt lat="-11.654469943605" lon="166.9851690968">
        <ele>13.2</ele>
        <time>2026-05-06T13:40:30Z</time>
        <extensions><gpxtpx:TrackPointExtension><gpxtpx:hr>109</gpxtpx:hr></gpxtpx:TrackPointExtension></extensions>
      </trkpt>
      <trkpt lat="-11.654528449267" lon="166.98511612319">
        <ele>13.2</ele>
        <time>2026-05-06T13:40:31Z</time>
        <extensions><gpxtpx:TrackPointExtension><gpxtpx:hr>109</gpxtpx:hr></gpxtpx:TrackPointExtension></extensions>
      </trkpt>
      <trkpt lat="-11.65459106206" lon="166.98507102857">
        <ele>13.2</ele>
        <time>2026-05-06T13:40:32Z</time>
        <extensions><gpxtpx:TrackPointExtension><gpxtpx:hr>109</gpxtpx:hr></gpxtpx:TrackPointExtension></extensions>
      </trkpt>
      <trkpt lat="-11.654659290726" lon="166.98503121454">
        <ele>13.2</ele>
        <time>2026-05-06T13:40:33Z</time>
        <extensions><gpxtpx:TrackPointExtension><gpxtpx:hr>109</gpxtpx:hr></gpxtpx:TrackPointExtension></extensions>
      </trkpt>
      <trkpt lat="-11.654729614867" lon="166.98499710021">
        <ele>13.2</ele>
        <time>2026-05-06T13:40:34Z</time>
        <extensions><gpxtpx:TrackPointExtension><gpxtpx:hr>110</gpxtpx:hr></gpxtpx:TrackPointExtension></extensions>
      </trkpt>
      <trkpt lat="-11.654800525741" lon="166.98496692537">
        <ele>13.2</ele>
        <time>2026-05-06T13:40:35Z</time>
        <extensions><gpxtpx:TrackPointExtension><gpxtpx:hr>110</gpxtpx:hr></gpxtpx:TrackPointExtension></extensions>
      </trkpt>
      <trkpt lat="-11.654873280633" lon="166.98493809164">
        <ele>13.2</ele>
        <time>2026-05-06T13:40:36Z</time>
        <extensions><gpxtpx:TrackPointExtension><gpxtpx:hr>111</gpxtpx:hr></gpxtpx:TrackPointExtension></extensions>
      </trkpt>
      <trkpt lat="-11.654947460448" lon="166.9849158796">
        <ele>13.2</ele>
        <time>2026-05-06T13:40:37Z</time>
        <extensions><gpxtpx:TrackPointExtension><gpxtpx:hr>111</gpxtpx:hr></gpxtpx:TrackPointExtension></extensions>
      </trkpt>
      <trkpt lat="-11.655023735738" lon="166.98490691097">
        <ele>13.2</ele>
        <time>2026-05-06T13:40:38Z</time>
        <extensions><gpxtpx:TrackPointExtension><gpxtpx:hr>112</gpxtpx:hr></gpxtpx:TrackPointExtension></extensions>
      </trkpt>
      <trkpt lat="-11.655101938865" lon="166.98490825207">
        <ele>13.2</ele>
        <time>2026-05-06T13:40:39Z</time>
        <extensions><gpxtpx:TrackPointExtension><gpxtpx:hr>112</gpxtpx:hr></gpxtpx:TrackPointExtension></extensions>
      </trkpt>
      <trkpt lat="-11.655178214155" lon="166.98491747216">
        <ele>13.2</ele>
        <time>2026-05-06T13:40:40Z</time>
        <extensions><gpxtpx:TrackPointExtension><gpxtpx:hr>113</gpxtpx:hr></gpxtpx:TrackPointExtension></extensions>
      </trkpt>
      <trkpt lat="-11.655254154169" lon="166.98493146993">
        <ele>13.2</ele>
        <time>2026-05-06T13:40:41Z</time>
        <extensions><gpxtpx:TrackPointExtension><gpxtpx:hr>112</gpxtpx:hr></gpxtpx:TrackPointExtension></extensions>
      </trkpt>
      <trkpt lat="-11.655328166346" lon="166.98494706027">
        <ele>13.2</ele>
        <time>2026-05-06T13:40:42Z</time>
        <extensions><gpxtpx:TrackPointExtension><gpxtpx:hr>112</gpxtpx:hr></gpxtpx:TrackPointExtension></extensions>
      </trkpt>
      <trkpt lat="-11.655403687265" lon="166.9849626506">
        <ele>13.2</ele>
        <time>2026-05-06T13:40:43Z</time>
        <extensions><gpxtpx:TrackPointExtension><gpxtpx:hr>111</gpxtpx:hr></gpxtpx:TrackPointExtension></extensions>
      </trkpt>
      <trkpt lat="-11.655478369994" lon="166.98497530727">
        <ele>13.2</ele>
        <time>2026-05-06T13:40:44Z</time>
        <extensions><gpxtpx:TrackPointExtension><gpxtpx:hr>111</gpxtpx:hr></gpxtpx:TrackPointExtension></extensions>
      </trkpt>
      <trkpt lat="-11.655552968904" lon="166.98497991732">
        <ele>13.2</ele>
        <time>2026-05-06T13:40:45Z</time>
        <extensions><gpxtpx:TrackPointExtension><gpxtpx:hr>110</gpxtpx:hr></gpxtpx:TrackPointExtension></extensions>
      </trkpt>
      <trkpt lat="-11.655627819271" lon="166.98496902085">
        <ele>13.4</ele>
        <time>2026-05-06T13:40:46Z</time>
        <extensions><gpxtpx:TrackPointExtension><gpxtpx:hr>110</gpxtpx:hr></gpxtpx:TrackPointExtension></extensions>
      </trkpt>
      <trkpt lat="-11.655697221403" lon="166.98494429424">
        <ele>13.4</ele>
        <time>2026-05-06T13:40:47Z</time>
        <extensions><gpxtpx:TrackPointExtension><gpxtpx:hr>110</gpxtpx:hr></gpxtpx:TrackPointExtension></extensions>
      </trkpt>
      <trkpt lat="-11.655762684042" lon="166.9849088388">
        <ele>13.4</ele>
        <time>2026-05-06T13:40:48Z</time>
        <extensions><gpxtpx:TrackPointExtension><gpxtpx:hr>110</gpxtpx:hr></gpxtpx:TrackPointExtension></extensions>
      </trkpt>
      <trkpt lat="-11.655822866084" lon="166.98486885714">
        <ele>13.6</ele>
        <time>2026-05-06T13:40:49Z</time>
        <extensions><gpxtpx:TrackPointExtension><gpxtpx:hr>110</gpxtpx:hr></gpxtpx:TrackPointExtension></extensions>
      </trkpt>
      <trkpt lat="-11.655882461393" lon="166.98482661236">
        <ele>13.6</ele>
        <time>2026-05-06T13:40:50Z</time>
        <extensions><gpxtpx:TrackPointExtension><gpxtpx:hr>110</gpxtpx:hr></gpxtpx:TrackPointExtension></extensions>
      </trkpt>
      <trkpt lat="-11.65594222434" lon="166.98478721744">
        <ele>13.8</ele>
        <time>2026-05-06T13:40:51Z</time>
        <extensions><gpxtpx:TrackPointExtension><gpxtpx:hr>110</gpxtpx:hr></gpxtpx:TrackPointExtension></extensions>
      </trkpt>
      <trkpt lat="-11.656006178237" lon="166.98475436039">
        <ele>13.8</ele>
        <time>2026-05-06T13:40:52Z</time>
        <extensions><gpxtpx:TrackPointExtension><gpxtpx:hr>110</gpxtpx:hr></gpxtpx:TrackPointExtension></extensions>
      </trkpt>
      <trkpt lat="-11.656072898161" lon="166.98473047197">
        <ele>13.8</ele>
        <time>2026-05-06T13:40:53Z</time>
        <extensions><gpxtpx:TrackPointExtension><gpxtpx:hr>111</gpxtpx:hr></gpxtpx:TrackPointExtension></extensions>
      </trkpt>
      <trkpt lat="-11.656143809035" lon="166.98471546837">
        <ele>13.8</ele>
        <time>2026-05-06T13:40:54Z</time>
        <extensions><gpxtpx:TrackPointExtension><gpxtpx:hr>111</gpxtpx:hr></gpxtpx:TrackPointExtension></extensions>
      </trkpt>
      <trkpt lat="-11.656214719909" lon="166.98470515863">
        <ele>13.6</ele>
        <time>2026-05-06T13:40:55Z</time>
        <extensions><gpxtpx:TrackPointExtension><gpxtpx:hr>111</gpxtpx:hr></gpxtpx:TrackPointExtension></extensions>
      </trkpt>
      <trkpt lat="-11.656287977715" lon="166.98469686055">
        <ele>13.6</ele>
        <time>2026-05-06T13:40:56Z</time>
        <extensions><gpxtpx:TrackPointExtension><gpxtpx:hr>111</gpxtpx:hr></gpxtpx:TrackPointExtension></extensions>
      </trkpt>
      <trkpt lat="-11.656360732607" lon="166.9846899874">
        <ele>13.6</ele>
        <time>2026-05-06T13:40:57Z</time>
        <extensions><gpxtpx:TrackPointExtension><gpxtpx:hr>111</gpxtpx:hr></gpxtpx:TrackPointExtension></extensions>
      </trkpt>
      <trkpt lat="-11.656435750612" lon="166.98468462298">
        <ele>13.4</ele>
        <time>2026-05-06T13:40:58Z</time>
        <extensions><gpxtpx:TrackPointExtension><gpxtpx:hr>110</gpxtpx:hr></gpxtpx:TrackPointExtension></extensions>
      </trkpt>
      <trkpt lat="-11.656510181884" lon="166.98468026439">
        <ele>13.4</ele>
        <time>2026-05-06T13:40:59Z</time>
        <extensions><gpxtpx:TrackPointExtension><gpxtpx:hr>110</gpxtpx:hr></gpxtpx:TrackPointExtension></extensions>
      </trkpt>
      <trkpt lat="-11.656586457174" lon="166.98467263686">
        <ele>13.4</ele>
        <time>2026-05-06T13:41:00Z</time>
        <extensions><gpxtpx:TrackPointExtension><gpxtpx:hr>110</gpxtpx:hr></gpxtpx:TrackPointExtension></extensions>
      </trkpt>
      <trkpt lat="-11.656661726636" lon="166.98466098602">
        <ele>13.2</ele>
        <time>2026-05-06T13:41:01Z</time>
        <extensions><gpxtpx:TrackPointExtension><gpxtpx:hr>110</gpxtpx:hr></gpxtpx:TrackPointExtension></extensions>
      </trkpt>
      <trkpt lat="-11.656737582831" lon="166.98464313257">
        <ele>13.2</ele>
        <time>2026-05-06T13:41:02Z</time>
        <extensions><gpxtpx:TrackPointExtension><gpxtpx:hr>111</gpxtpx:hr></gpxtpx:TrackPointExtension></extensions>
      </trkpt>
      <trkpt lat="-11.656810756818" lon="166.98461740014">
        <ele>13.2</ele>
        <time>2026-05-06T13:41:03Z</time>
        <extensions><gpxtpx:TrackPointExtension><gpxtpx:hr>110</gpxtpx:hr></gpxtpx:TrackPointExtension></extensions>
      </trkpt>
      <trkpt lat="-11.656881080959" lon="166.9845858842">
        <ele>13.2</ele>
        <time>2026-05-06T13:41:04Z</time>
        <extensions><gpxtpx:TrackPointExtension><gpxtpx:hr>110</gpxtpx:hr></gpxtpx:TrackPointExtension></extensions>
      </trkpt>
      <trkpt lat="-11.656949896358" lon="166.98454950675">
        <ele>13.2</ele>
        <time>2026-05-06T13:41:05Z</time>
        <extensions><gpxtpx:TrackPointExtension><gpxtpx:hr>111</gpxtpx:hr></gpxtpx:TrackPointExtension></extensions>
      </trkpt>
      <trkpt lat="-11.65701594573" lon="166.984510028">
        <ele>13.4</ele>
        <time>2026-05-06T13:41:06Z</time>
        <extensions><gpxtpx:TrackPointExtension><gpxtpx:hr>111</gpxtpx:hr></gpxtpx:TrackPointExtension></extensions>
      </trkpt>
      <trkpt lat="-11.657079480532" lon="166.98446862142">
        <ele>13.4</ele>
        <time>2026-05-06T13:41:07Z</time>
        <extensions><gpxtpx:TrackPointExtension><gpxtpx:hr>112</gpxtpx:hr></gpxtpx:TrackPointExtension></extensions>
      </trkpt>
      <trkpt lat="-11.65714251242" lon="166.98442503554">
        <ele>13.4</ele>
        <time>2026-05-06T13:41:08Z</time>
        <extensions><gpxtpx:TrackPointExtension><gpxtpx:hr>112</gpxtpx:hr></gpxtpx:TrackPointExtension></extensions>
      </trkpt>
      <trkpt lat="-11.657203448833" lon="166.98438128202">
        <ele>13.6</ele>
        <time>2026-05-06T13:41:09Z</time>
        <extensions><gpxtpx:TrackPointExtension><gpxtpx:hr>112</gpxtpx:hr></gpxtpx:TrackPointExtension></extensions>
      </trkpt>
      <trkpt lat="-11.657264636703" lon="166.98433677413">
        <ele>13.6</ele>
        <time>2026-05-06T13:41:10Z</time>
        <extensions><gpxtpx:TrackPointExtension><gpxtpx:hr>111</gpxtpx:hr></gpxtpx:TrackPointExtension></extensions>
      </trkpt>
      <trkpt lat="-11.657323477641" lon="166.9842920986">
        <ele>13.6</ele>
        <time>2026-05-06T13:41:11Z</time>
        <extensions><gpxtpx:TrackPointExtension><gpxtpx:hr>111</gpxtpx:hr></gpxtpx:TrackPointExtension></extensions>
      </trkpt>
      <trkpt lat="-11.657378798181" lon="166.98424231012">
        <ele>13.8</ele>
        <time>2026-05-06T13:41:12Z</time>
        <extensions><gpxtpx:TrackPointExtension><gpxtpx:hr>110</gpxtpx:hr></gpxtpx:TrackPointExtension></extensions>
      </trkpt>
      <trkpt lat="-11.657426072097" lon="166.98418782777">
        <ele>14</ele>
        <time>2026-05-06T13:41:13Z</time>
        <extensions><gpxtpx:TrackPointExtension><gpxtpx:hr>110</gpxtpx:hr></gpxtpx:TrackPointExtension></extensions>
      </trkpt>
      <trkpt lat="-11.657469657977" lon="166.98413032793">
        <ele>14</ele>
        <time>2026-05-06T13:41:14Z</time>
        <extensions><gpxtpx:TrackPointExtension><gpxtpx:hr>110</gpxtpx:hr></gpxtpx:TrackPointExtension></extensions>
      </trkpt>
      <trkpt lat="-11.65750293412" lon="166.98406838569">
        <ele>14.2</ele>
        <time>2026-05-06T13:41:15Z</time>
        <extensions><gpxtpx:TrackPointExtension><gpxtpx:hr>111</gpxtpx:hr></gpxtpx:TrackPointExtension></extensions>
      </trkpt>
      <trkpt lat="-11.657523385956" lon="166.98400141431">
        <ele>14.4</ele>
        <time>2026-05-06T13:41:16Z</time>
        <extensions><gpxtpx:TrackPointExtension><gpxtpx:hr>112</gpxtpx:hr></gpxtpx:TrackPointExtension></extensions>
      </trkpt>
      <trkpt lat="-11.657538808652" lon="166.98393377238">
        <ele>14.4</ele>
        <time>2026-05-06T13:41:17Z</time>
        <extensions><gpxtpx:TrackPointExtension><gpxtpx:hr>112</gpxtpx:hr></gpxtpx:TrackPointExtension></extensions>
      </trkpt>
      <trkpt lat="-11.657549118389" lon="166.98386562753">
        <ele>14.6</ele>
        <time>2026-05-06T13:41:18Z</time>
        <extensions><gpxtpx:TrackPointExtension><gpxtpx:hr>113</gpxtpx:hr></gpxtpx:TrackPointExtension></extensions>
      </trkpt>
      <trkpt lat="-11.657556494461" lon="166.98379832087">
        <ele>14.6</ele>
        <time>2026-05-06T13:41:19Z</time>
        <extensions><gpxtpx:TrackPointExtension><gpxtpx:hr>112</gpxtpx:hr></gpxtpx:TrackPointExtension></extensions>
      </trkpt>
      <trkpt lat="-11.657563619076" lon="166.98372908638">
        <ele>14.8</ele>
        <time>2026-05-06T13:41:20Z</time>
        <extensions><gpxtpx:TrackPointExtension><gpxtpx:hr>112</gpxtpx:hr></gpxtpx:TrackPointExtension></extensions>
      </trkpt>
      <trkpt lat="-11.657570408415" lon="166.9836638752">
        <ele>14.8</ele>
        <time>2026-05-06T13:41:21Z</time>
        <extensions><gpxtpx:TrackPointExtension><gpxtpx:hr>112</gpxtpx:hr></gpxtpx:TrackPointExtension></extensions>
      </trkpt>
      <trkpt lat="-11.65757920941" lon="166.98359707145">
        <ele>15</ele>
        <time>2026-05-06T13:41:22Z</time>
        <extensions><gpxtpx:TrackPointExtension><gpxtpx:hr>113</gpxtpx:hr></gpxtpx:TrackPointExtension></extensions>
      </trkpt>
      <trkpt lat="-11.657591195527" lon="166.98353144118">
        <ele>15</ele>
        <time>2026-05-06T13:41:23Z</time>
        <extensions><gpxtpx:TrackPointExtension><gpxtpx:hr>113</gpxtpx:hr></gpxtpx:TrackPointExtension></extensions>
      </trkpt>
      <trkpt lat="-11.657608043146" lon="166.98346731964">
        <ele>15</ele>
        <time>2026-05-06T13:41:24Z</time>
        <extensions><gpxtpx:TrackPointExtension><gpxtpx:hr>113</gpxtpx:hr></gpxtpx:TrackPointExtension></extensions>
      </trkpt>
      <trkpt lat="-11.657632183018" lon="166.98340646705">
        <ele>15.2</ele>
        <time>2026-05-06T13:41:25Z</time>
        <extensions><gpxtpx:TrackPointExtension><gpxtpx:hr>113</gpxtpx:hr></gpxtpx:TrackPointExtension></extensions>
      </trkpt>
      <trkpt lat="-11.657667386998" lon="166.98335097887">
        <ele>15.2</ele>
        <time>2026-05-06T13:41:26Z</time>
        <extensions><gpxtpx:TrackPointExtension><gpxtpx:hr>113</gpxtpx:hr></gpxtpx:TrackPointExtension></extensions>
      </trkpt>
      <trkpt lat="-11.657709547955" lon="166.98330211239">
        <ele>15.2</ele>
        <time>2026-05-06T13:41:27Z</time>
        <extensions><gpxtpx:TrackPointExtension><gpxtpx:hr>113</gpxtpx:hr></gpxtpx:TrackPointExtension></extensions>
      </trkpt>
      <trkpt lat="-11.657754055844" lon="166.98325291064">
        <ele>15.2</ele>
        <time>2026-05-06T13:41:28Z</time>
        <extensions><gpxtpx:TrackPointExtension><gpxtpx:hr>113</gpxtpx:hr></gpxtpx:TrackPointExtension></extensions>
      </trkpt>
      <trkpt lat="-11.657799821018" lon="166.98320345743">
        <ele>15.2</ele>
        <time>2026-05-06T13:41:29Z</time>
        <extensions><gpxtpx:TrackPointExtension><gpxtpx:hr>114</gpxtpx:hr></gpxtpx:TrackPointExtension></extensions>
      </trkpt>
      <trkpt lat="-11.657845921468" lon="166.98315836281">
        <ele>15.2</ele>
        <time>2026-05-06T13:41:30Z</time>
        <extensions><gpxtpx:TrackPointExtension><gpxtpx:hr>114</gpxtpx:hr></gpxtpx:TrackPointExtension></extensions>
      </trkpt>
      <trkpt lat="-11.65790023618" lon="166.98311561512">
        <ele>15.2</ele>
        <time>2026-05-06T13:41:31Z</time>
        <extensions><gpxtpx:TrackPointExtension><gpxtpx:hr>115</gpxtpx:hr></gpxtpx:TrackPointExtension></extensions>
      </trkpt>
      <trkpt lat="-11.657959496213" lon="166.98308292571">
        <ele>15.2</ele>
        <time>2026-05-06T13:41:32Z</time>
        <extensions><gpxtpx:TrackPointExtension><gpxtpx:hr>115</gpxtpx:hr></gpxtpx:TrackPointExtension></extensions>
      </trkpt>
      <trkpt lat="-11.658025294128" lon="166.98306465317">
        <ele>15.2</ele>
        <time>2026-05-06T13:41:33Z</time>
        <extensions><gpxtpx:TrackPointExtension><gpxtpx:hr>115</gpxtpx:hr></gpxtpx:TrackPointExtension></extensions>
      </trkpt>
      <trkpt lat="-11.65809469626" lon="166.98306741919">
        <ele>15.2</ele>
        <time>2026-05-06T13:41:34Z</time>
        <extensions><gpxtpx:TrackPointExtension><gpxtpx:hr>116</gpxtpx:hr></gpxtpx:TrackPointExtension></extensions>
      </trkpt>
      <trkpt lat="-11.65816091327" lon="166.98309139143">
        <ele>15.2</ele>
        <time>2026-05-06T13:41:35Z</time>
        <extensions><gpxtpx:TrackPointExtension><gpxtpx:hr>116</gpxtpx:hr></gpxtpx:TrackPointExtension></extensions>
      </trkpt>
      <trkpt lat="-11.658220508579" lon="166.98313028344">
        <ele>15.2</ele>
        <time>2026-05-06T13:41:36Z</time>
        <extensions><gpxtpx:TrackPointExtension><gpxtpx:hr>116</gpxtpx:hr></gpxtpx:TrackPointExtension></extensions>
      </trkpt>
      <trkpt lat="-11.658273314549" lon="166.9831794852">
        <ele>15</ele>
        <time>2026-05-06T13:41:37Z</time>
        <extensions><gpxtpx:TrackPointExtension><gpxtpx:hr>116</gpxtpx:hr></gpxtpx:TrackPointExtension></extensions>
      </trkpt>
      <trkpt lat="-11.658319582637" lon="166.9832359792">
        <ele>15</ele>
        <time>2026-05-06T13:41:38Z</time>
        <extensions><gpxtpx:TrackPointExtension><gpxtpx:hr>117</gpxtpx:hr></gpxtpx:TrackPointExtension></extensions>
      </trkpt>
      <trkpt lat="-11.658359312843" lon="166.98329649652">
        <ele>15</ele>
        <time>2026-05-06T13:41:39Z</time>
        <extensions><gpxtpx:TrackPointExtension><gpxtpx:hr>117</gpxtpx:hr></gpxtpx:TrackPointExtension></extensions>
      </trkpt>
      <trkpt lat="-11.658397618126" lon="166.98336221062">
        <ele>14.8</ele>
        <time>2026-05-06T13:41:40Z</time>
        <extensions><gpxtpx:TrackPointExtension><gpxtpx:hr>117</gpxtpx:hr></gpxtpx:TrackPointExtension></extensions>
      </trkpt>
      <trkpt lat="-11.658433073563" lon="166.98342809235">
        <ele>14.8</ele>
        <time>2026-05-06T13:41:41Z</time>
        <extensions><gpxtpx:TrackPointExtension><gpxtpx:hr>116</gpxtpx:hr></gpxtpx:TrackPointExtension></extensions>
      </trkpt>
      <trkpt lat="-11.658466265887" lon="166.98349531519">
        <ele>14.8</ele>
        <time>2026-05-06T13:41:42Z</time>
        <extensions><gpxtpx:TrackPointExtension><gpxtpx:hr>116</gpxtpx:hr></gpxtpx:TrackPointExtension></extensions>
      </trkpt>
      <trkpt lat="-11.65849786565" lon="166.98356354385">
        <ele>14.8</ele>
        <time>2026-05-06T13:41:43Z</time>
        <extensions><gpxtpx:TrackPointExtension><gpxtpx:hr>116</gpxtpx:hr></gpxtpx:TrackPointExtension></extensions>
      </trkpt>
      <trkpt lat="-11.658528543404" lon="166.98363252689">
        <ele>14.6</ele>
        <time>2026-05-06T13:41:44Z</time>
        <extensions><gpxtpx:TrackPointExtension><gpxtpx:hr>116</gpxtpx:hr></gpxtpx:TrackPointExtension></extensions>
      </trkpt>
      <trkpt lat="-11.658558634425" lon="166.9837022643">
        <ele>14.6</ele>
        <time>2026-05-06T13:41:45Z</time>
        <extensions><gpxtpx:TrackPointExtension><gpxtpx:hr>116</gpxtpx:hr></gpxtpx:TrackPointExtension></extensions>
      </trkpt>
      <trkpt lat="-11.658588306351" lon="166.98377258844">
        <ele>14.6</ele>
        <time>2026-05-06T13:41:46Z</time>
        <extensions><gpxtpx:TrackPointExtension><gpxtpx:hr>116</gpxtpx:hr></gpxtpx:TrackPointExtension></extensions>
      </trkpt>
      <trkpt lat="-11.658617810639" lon="166.9838434155">
        <ele>14.6</ele>
        <time>2026-05-06T13:41:47Z</time>
        <extensions><gpxtpx:TrackPointExtension><gpxtpx:hr>115</gpxtpx:hr></gpxtpx:TrackPointExtension></extensions>
      </trkpt>
      <trkpt lat="-11.658646895832" lon="166.98391474546">
        <ele>14.4</ele>
        <time>2026-05-06T13:41:48Z</time>
        <extensions><gpxtpx:TrackPointExtension><gpxtpx:hr>115</gpxtpx:hr></gpxtpx:TrackPointExtension></extensions>
      </trkpt>
      <trkpt lat="-11.658675645749" lon="166.98398649453">
        <ele>14.4</ele>
        <time>2026-05-06T13:41:49Z</time>
        <extensions><gpxtpx:TrackPointExtension><gpxtpx:hr>115</gpxtpx:hr></gpxtpx:TrackPointExtension></extensions>
      </trkpt>
      <trkpt lat="-11.6587032222" lon="166.98405639957">
        <ele>14.4</ele>
        <time>2026-05-06T13:41:50Z</time>
        <extensions><gpxtpx:TrackPointExtension><gpxtpx:hr>115</gpxtpx:hr></gpxtpx:TrackPointExtension></extensions>
      </trkpt>
      <trkpt lat="-11.658732977945" lon="166.98413175286">
        <ele>14.2</ele>
        <time>2026-05-06T13:41:51Z</time>
        <extensions><gpxtpx:TrackPointExtension><gpxtpx:hr>114</gpxtpx:hr></gpxtpx:TrackPointExtension></extensions>
      </trkpt>
      <trkpt lat="-11.658761644043" lon="166.98420501066">
        <ele>14.2</ele>
        <time>2026-05-06T13:41:52Z</time>
        <extensions><gpxtpx:TrackPointExtension><gpxtpx:hr>114</gpxtpx:hr></gpxtpx:TrackPointExtension></extensions>
      </trkpt>
      <trkpt lat="-11.658789388132" lon="166.98427659209">
        <ele>14.2</ele>
        <time>2026-05-06T13:41:53Z</time>
        <extensions><gpxtpx:TrackPointExtension><gpxtpx:hr>114</gpxtpx:hr></gpxtpx:TrackPointExtension></extensions>
      </trkpt>
      <trkpt lat="-11.658819143877" lon="166.98435236446">
        <ele>14.2</ele>
        <time>2026-05-06T13:41:54Z</time>
        <extensions><gpxtpx:TrackPointExtension><gpxtpx:hr>114</gpxtpx:hr></gpxtpx:TrackPointExtension></extensions>
      </trkpt>
      <trkpt lat="-11.658847809975" lon="166.98442654428">
        <ele>14</ele>
        <time>2026-05-06T13:41:55Z</time>
        <extensions><gpxtpx:TrackPointExtension><gpxtpx:hr>114</gpxtpx:hr></gpxtpx:TrackPointExtension></extensions>
      </trkpt>
      <trkpt lat="-11.658876895168" lon="166.98450080791">
        <ele>14</ele>
        <time>2026-05-06T13:41:56Z</time>
        <extensions><gpxtpx:TrackPointExtension><gpxtpx:hr>114</gpxtpx:hr></gpxtpx:TrackPointExtension></extensions>
      </trkpt>
      <trkpt lat="-11.65890690237" lon="166.984575323">
        <ele>14</ele>
        <time>2026-05-06T13:41:57Z</time>
        <extensions><gpxtpx:TrackPointExtension><gpxtpx:hr>114</gpxtpx:hr></gpxtpx:TrackPointExtension></extensions>
      </trkpt>
      <trkpt lat="-11.6589379154" lon="166.98465000573">
        <ele>13.8</ele>
        <time>2026-05-06T13:41:58Z</time>
        <extensions><gpxtpx:TrackPointExtension><gpxtpx:hr>114</gpxtpx:hr></gpxtpx:TrackPointExtension></extensions>
      </trkpt>
      <trkpt lat="-11.658970101896" lon="166.98472460464">
        <ele>13.8</ele>
        <time>2026-05-06T13:41:59Z</time>
        <extensions><gpxtpx:TrackPointExtension><gpxtpx:hr>114</gpxtpx:hr></gpxtpx:TrackPointExtension></extensions>
      </trkpt>
      <trkpt lat="-11.65900245603" lon="166.98479911973">
        <ele>13.8</ele>
        <time>2026-05-06T13:42:00Z</time>
        <extensions><gpxtpx:TrackPointExtension><gpxtpx:hr>114</gpxtpx:hr></gpxtpx:TrackPointExtension></extensions>
      </trkpt>
      <trkpt lat="-11.659034810164" lon="166.98487388628">
        <ele>13.8</ele>
        <time>2026-05-06T13:42:01Z</time>
        <extensions><gpxtpx:TrackPointExtension><gpxtpx:hr>114</gpxtpx:hr></gpxtpx:TrackPointExtension></extensions>
      </trkpt>
      <trkpt lat="-11.659067918669" lon="166.98494840137">
        <ele>13.6</ele>
        <time>2026-05-06T13:42:02Z</time>
        <extensions><gpxtpx:TrackPointExtension><gpxtpx:hr>114</gpxtpx:hr></gpxtpx:TrackPointExtension></extensions>
      </trkpt>
      <trkpt lat="-11.659102955011" lon="166.98502207827">
        <ele>13.6</ele>
        <time>2026-05-06T13:42:03Z</time>
        <extensions><gpxtpx:TrackPointExtension><gpxtpx:hr>113</gpxtpx:hr></gpxtpx:TrackPointExtension></extensions>
      </trkpt>
      <trkpt lat="-11.659141344113" lon="166.98509441407">
        <ele>13.6</ele>
        <time>2026-05-06T13:42:04Z</time>
        <extensions><gpxtpx:TrackPointExtension><gpxtpx:hr>113</gpxtpx:hr></gpxtpx:TrackPointExtension></extensions>
      </trkpt>
      <trkpt lat="-11.659183924165" lon="166.98516473821">
        <ele>13.6</ele>
        <time>2026-05-06T13:42:05Z</time>
        <extensions><gpxtpx:TrackPointExtension><gpxtpx:hr>113</gpxtpx:hr></gpxtpx:TrackPointExtension></extensions>
      </trkpt>
      <trkpt lat="-11.65922960552" lon="166.98523288306">
        <ele>13.4</ele>
        <time>2026-05-06T13:42:06Z</time>
        <extensions><gpxtpx:TrackPointExtension><gpxtpx:hr>114</gpxtpx:hr></gpxtpx:TrackPointExtension></extensions>
      </trkpt>
      <trkpt lat="-11.659280986567" lon="166.98529683696">
        <ele>13.4</ele>
        <time>2026-05-06T13:42:07Z</time>
        <extensions><gpxtpx:TrackPointExtension><gpxtpx:hr>114</gpxtpx:hr></gpxtpx:TrackPointExtension></extensions>
      </trkpt>
      <trkpt lat="-11.659342006799" lon="166.98535140312">
        <ele>13.4</ele>
        <time>2026-05-06T13:42:08Z</time>
        <extensions><gpxtpx:TrackPointExtension><gpxtpx:hr>114</gpxtpx:hr></gpxtpx:TrackPointExtension></extensions>
      </trkpt>
      <trkpt lat="-11.65941233094" lon="166.98539297735">
        <ele>13.4</ele>
        <time>2026-05-06T13:42:09Z</time>
        <extensions><gpxtpx:TrackPointExtension><gpxtpx:hr>114</gpxtpx:hr></gpxtpx:TrackPointExtension></extensions>
      </trkpt>
      <trkpt lat="-11.659490114972" lon="166.98541678194">
        <ele>13.4</ele>
        <time>2026-05-06T13:42:10Z</time>
        <extensions><gpxtpx:TrackPointExtension><gpxtpx:hr>114</gpxtpx:hr></gpxtpx:TrackPointExtension></extensions>
      </trkpt>
      <trkpt lat="-11.659569156289" lon="166.98542323601">
        <ele>13.4</ele>
        <time>2026-05-06T13:42:11Z</time>
        <extensions><gpxtpx:TrackPointExtension><gpxtpx:hr>115</gpxtpx:hr></gpxtpx:TrackPointExtension></extensions>
      </trkpt>
      <trkpt lat="-11.659649454891" lon="166.98541435119">
        <ele>13.6</ele>
        <time>2026-05-06T13:42:12Z</time>
        <extensions><gpxtpx:TrackPointExtension><gpxtpx:hr>115</gpxtpx:hr></gpxtpx:TrackPointExtension></extensions>
      </trkpt>
      <trkpt lat="-11.65972832857" lon="166.9853923068">
        <ele>13.6</ele>
        <time>2026-05-06T13:42:13Z</time>
        <extensions><gpxtpx:TrackPointExtension><gpxtpx:hr>115</gpxtpx:hr></gpxtpx:TrackPointExtension></extensions>
      </trkpt>
      <trkpt lat="-11.659802508385" lon="166.98536255105">
        <ele>13.8</ele>
        <time>2026-05-06T13:42:14Z</time>
        <extensions><gpxtpx:TrackPointExtension><gpxtpx:hr>116</gpxtpx:hr></gpxtpx:TrackPointExtension></extensions>
      </trkpt>
      <trkpt lat="-11.659872664888" lon="166.98532877199">
        <ele>13.8</ele>
        <time>2026-05-06T13:42:15Z</time>
        <extensions><gpxtpx:TrackPointExtension><gpxtpx:hr>116</gpxtpx:hr></gpxtpx:TrackPointExtension></extensions>
      </trkpt>
      <trkpt lat="-11.659940725916" lon="166.98529071817">
        <ele>13.8</ele>
        <time>2026-05-06T13:42:16Z</time>
        <extensions><gpxtpx:TrackPointExtension><gpxtpx:hr>117</gpxtpx:hr></gpxtpx:TrackPointExtension></extensions>
      </trkpt>
      <trkpt lat="-11.660007278202" lon="166.98524822193">
        <ele>14</ele>
        <time>2026-05-06T13:42:17Z</time>
        <extensions><gpxtpx:TrackPointExtension><gpxtpx:hr>118</gpxtpx:hr></gpxtpx:TrackPointExtension></extensions>
      </trkpt>
      <trkpt lat="-11.660070393909" lon="166.9852039655">
        <ele>14</ele>
        <time>2026-05-06T13:42:18Z</time>
        <extensions><gpxtpx:TrackPointExtension><gpxtpx:hr>118</gpxtpx:hr></gpxtpx:TrackPointExtension></extensions>
      </trkpt>
      <trkpt lat="-11.660131665598" lon="166.98515736214">
        <ele>14</ele>
        <time>2026-05-06T13:42:19Z</time>
        <extensions><gpxtpx:TrackPointExtension><gpxtpx:hr>118</gpxtpx:hr></gpxtpx:TrackPointExtension></extensions>
      </trkpt>
      <trkpt lat="-11.660193021106" lon="166.98510707074">
        <ele>14</ele>
        <time>2026-05-06T13:42:20Z</time>
        <extensions><gpxtpx:TrackPointExtension><gpxtpx:hr>119</gpxtpx:hr></gpxtpx:TrackPointExtension></extensions>
      </trkpt>
      <trkpt lat="-11.660250772397" lon="166.9850566117">
        <ele>14.2</ele>
        <time>2026-05-06T13:42:21Z</time>
        <extensions><gpxtpx:TrackPointExtension><gpxtpx:hr>120</gpxtpx:hr></gpxtpx:TrackPointExtension></extensions>
      </trkpt>
      <trkpt lat="-11.660302656358" lon="166.98500254845">
        <ele>14</ele>
        <time>2026-05-06T13:42:22Z</time>
        <extensions><gpxtpx:TrackPointExtension><gpxtpx:hr>120</gpxtpx:hr></gpxtpx:TrackPointExtension></extensions>
      </trkpt>
      <trkpt lat="-11.660340710184" lon="166.98493549325">
        <ele>14</ele>
        <time>2026-05-06T13:42:23Z</time>
        <extensions><gpxtpx:TrackPointExtension><gpxtpx:hr>120</gpxtpx:hr></gpxtpx:TrackPointExtension></extensions>
      </trkpt>
      <trkpt lat="-11.660363760409" lon="166.98485871504">
        <ele>14</ele>
        <time>2026-05-06T13:42:24Z</time>
        <extensions><gpxtpx:TrackPointExtension><gpxtpx:hr>121</gpxtpx:hr></gpxtpx:TrackPointExtension></extensions>
      </trkpt>
      <trkpt lat="-11.660375243612" lon="166.98477984136">
        <ele>13.8</ele>
        <time>2026-05-06T13:42:25Z</time>
        <extensions><gpxtpx:TrackPointExtension><gpxtpx:hr>121</gpxtpx:hr></gpxtpx:TrackPointExtension></extensions>
      </trkpt>
      <trkpt lat="-11.660380188933" lon="166.98469954276">
        <ele>13.8</ele>
        <time>2026-05-06T13:42:26Z</time>
        <extensions><gpxtpx:TrackPointExtension><gpxtpx:hr>121</gpxtpx:hr></gpxtpx:TrackPointExtension></extensions>
      </trkpt>
      <trkpt lat="-11.660382200589" lon="166.98461832215">
        <ele>13.6</ele>
        <time>2026-05-06T13:42:27Z</time>
        <extensions><gpxtpx:TrackPointExtension><gpxtpx:hr>121</gpxtpx:hr></gpxtpx:TrackPointExtension></extensions>
      </trkpt>
      <trkpt lat="-11.660383541693" lon="166.98453643099">
        <ele>13.4</ele>
        <time>2026-05-06T13:42:28Z</time>
        <extensions><gpxtpx:TrackPointExtension><gpxtpx:hr>121</gpxtpx:hr></gpxtpx:TrackPointExtension></extensions>
      </trkpt>
      <trkpt lat="-11.660387816462" lon="166.98445370163">
        <ele>13.4</ele>
        <time>2026-05-06T13:42:29Z</time>
        <extensions><gpxtpx:TrackPointExtension><gpxtpx:hr>121</gpxtpx:hr></gpxtpx:TrackPointExtension></extensions>
      </trkpt>
      <trkpt lat="-11.660402317149" lon="166.98437113992">
        <ele>13.2</ele>
        <time>2026-05-06T13:42:30Z</time>
        <extensions><gpxtpx:TrackPointExtension><gpxtpx:hr>121</gpxtpx:hr></gpxtpx:TrackPointExtension></extensions>
      </trkpt>
      <trkpt lat="-11.660436515301" lon="166.98429360734">
        <ele>13</ele>
        <time>2026-05-06T13:42:31Z</time>
        <extensions><gpxtpx:TrackPointExtension><gpxtpx:hr>120</gpxtpx:hr></gpxtpx:TrackPointExtension></extensions>
      </trkpt>
      <trkpt lat="-11.660499128094" lon="166.98423602369">
        <ele>13</ele>
        <time>2026-05-06T13:42:32Z</time>
        <extensions><gpxtpx:TrackPointExtension><gpxtpx:hr>120</gpxtpx:hr></gpxtpx:TrackPointExtension></extensions>
      </trkpt>
      <trkpt lat="-11.660579175239" lon="166.98420576503">
        <ele>13</ele>
        <time>2026-05-06T13:42:33Z</time>
        <extensions><gpxtpx:TrackPointExtension><gpxtpx:hr>119</gpxtpx:hr></gpxtpx:TrackPointExtension></extensions>
      </trkpt>
      <trkpt lat="-11.660664335343" lon="166.98419444947">
        <ele>12.8</ele>
        <time>2026-05-06T13:42:34Z</time>
        <extensions><gpxtpx:TrackPointExtension><gpxtpx:hr>118</gpxtpx:hr></gpxtpx:TrackPointExtension></extensions>
      </trkpt>
      <trkpt lat="-11.660750417456" lon="166.98419436565">
        <ele>12.8</ele>
        <time>2026-05-06T13:42:35Z</time>
        <extensions><gpxtpx:TrackPointExtension><gpxtpx:hr>118</gpxtpx:hr></gpxtpx:TrackPointExtension></extensions>
      </trkpt>
      <trkpt lat="-11.66083641575" lon="166.98420040062">
        <ele>12.8</ele>
        <time>2026-05-06T13:42:36Z</time>
        <extensions><gpxtpx:TrackPointExtension><gpxtpx:hr>118</gpxtpx:hr></gpxtpx:TrackPointExtension></extensions>
      </trkpt>
      <trkpt lat="-11.660922246406" lon="166.98420970453">
        <ele>12.8</ele>
        <time>2026-05-06T13:42:37Z</time>
        <extensions><gpxtpx:TrackPointExtension><gpxtpx:hr>118</gpxtpx:hr></gpxtpx:TrackPointExtension></extensions>
      </trkpt>
      <trkpt lat="-11.661007993243" lon="166.98421984662">
        <ele>12.8</ele>
        <time>2026-05-06T13:42:38Z</time>
        <extensions><gpxtpx:TrackPointExtension><gpxtpx:hr>117</gpxtpx:hr></gpxtpx:TrackPointExtension></extensions>
      </trkpt>
      <trkpt lat="-11.661093153347" lon="166.98422982108">
        <ele>12.8</ele>
        <time>2026-05-06T13:42:39Z</time>
        <extensions><gpxtpx:TrackPointExtension><gpxtpx:hr>117</gpxtpx:hr></gpxtpx:TrackPointExtension></extensions>
      </trkpt>
      <trkpt lat="-11.661177894356" lon="166.98423535314">
        <ele>12.8</ele>
        <time>2026-05-06T13:42:40Z</time>
        <extensions><gpxtpx:TrackPointExtension><gpxtpx:hr>118</gpxtpx:hr></gpxtpx:TrackPointExtension></extensions>
      </trkpt>
      <trkpt lat="-11.661262300089" lon="166.98423250329">
        <ele>12.8</ele>
        <time>2026-05-06T13:42:41Z</time>
        <extensions><gpxtpx:TrackPointExtension><gpxtpx:hr>118</gpxtpx:hr></gpxtpx:TrackPointExtension></extensions>
      </trkpt>
      <trkpt lat="-11.661345364718" lon="166.9842184217">
        <ele>12.6</ele>
        <time>2026-05-06T13:42:42Z</time>
        <extensions><gpxtpx:TrackPointExtension><gpxtpx:hr>118</gpxtpx:hr></gpxtpx:TrackPointExtension></extensions>
      </trkpt>
      <trkpt lat="-11.661425328044" lon="166.98420232845">
        <ele>12.6</ele>
        <time>2026-05-06T13:42:43Z</time>
        <extensions><gpxtpx:TrackPointExtension><gpxtpx:hr>118</gpxtpx:hr></gpxtpx:TrackPointExtension></extensions>
      </trkpt>
      <trkpt lat="-11.661506716293" lon="166.98418237953">
        <ele>12.6</ele>
        <time>2026-05-06T13:42:44Z</time>
        <extensions><gpxtpx:TrackPointExtension><gpxtpx:hr>118</gpxtpx:hr></gpxtpx:TrackPointExtension></extensions>
      </trkpt>
      <trkpt lat="-11.66158575761" lon="166.98415421635">
        <ele>12.6</ele>
        <time>2026-05-06T13:42:45Z</time>
        <extensions><gpxtpx:TrackPointExtension><gpxtpx:hr>117</gpxtpx:hr></gpxtpx:TrackPointExtension></extensions>
      </trkpt>
      <trkpt lat="-11.66165868014" lon="166.98411666544">
        <ele>12.6</ele>
        <time>2026-05-06T13:42:46Z</time>
        <extensions><gpxtpx:TrackPointExtension><gpxtpx:hr>118</gpxtpx:hr></gpxtpx:TrackPointExtension></extensions>
      </trkpt>
      <trkpt lat="-11.661725651521" lon="166.98406737986">
        <ele>12.8</ele>
        <time>2026-05-06T13:42:47Z</time>
        <extensions><gpxtpx:TrackPointExtension><gpxtpx:hr>118</gpxtpx:hr></gpxtpx:TrackPointExtension></extensions>
      </trkpt>
      <trkpt lat="-11.661785665925" lon="166.98400895802">
        <ele>12.8</ele>
        <time>2026-05-06T13:42:48Z</time>
        <extensions><gpxtpx:TrackPointExtension><gpxtpx:hr>118</gpxtpx:hr></gpxtpx:TrackPointExtension></extensions>
      </trkpt>
      <trkpt lat="-11.66183721461" lon="166.98394894362">
        <ele>12.8</ele>
        <time>2026-05-06T13:42:49Z</time>
        <extensions><gpxtpx:TrackPointExtension><gpxtpx:hr>118</gpxtpx:hr></gpxtpx:TrackPointExtension></extensions>
      </trkpt>
      <trkpt lat="-11.661886332544" lon="166.98388255897">
        <ele>12.8</ele>
        <time>2026-05-06T13:42:50Z</time>
        <extensions><gpxtpx:TrackPointExtension><gpxtpx:hr>118</gpxtpx:hr></gpxtpx:TrackPointExtension></extensions>
      </trkpt>
      <trkpt lat="-11.661933103546" lon="166.98381332447">
        <ele>12.6</ele>
        <time>2026-05-06T13:42:51Z</time>
        <extensions><gpxtpx:TrackPointExtension><gpxtpx:hr>118</gpxtpx:hr></gpxtpx:TrackPointExtension></extensions>
      </trkpt>
      <trkpt lat="-11.661979036358" lon="166.98374492817">
        <ele>12.6</ele>
        <time>2026-05-06T13:42:52Z</time>
        <extensions><gpxtpx:TrackPointExtension><gpxtpx:hr>119</gpxtpx:hr></gpxtpx:TrackPointExtension></extensions>
      </trkpt>
      <trkpt lat="-11.662023208971" lon="166.98367510694">
        <ele>12.6</ele>
        <time>2026-05-06T13:42:53Z</time>
        <extensions><gpxtpx:TrackPointExtension><gpxtpx:hr>119</gpxtpx:hr></gpxtpx:TrackPointExtension></extensions>
      </trkpt>
      <trkpt lat="-11.662063861186" lon="166.98360335788">
        <ele>12.6</ele>
        <time>2026-05-06T13:42:54Z</time>
        <extensions><gpxtpx:TrackPointExtension><gpxtpx:hr>119</gpxtpx:hr></gpxtpx:TrackPointExtension></extensions>
      </trkpt>
      <trkpt lat="-11.662101579736" lon="166.98353010007">
        <ele>12.6</ele>
        <time>2026-05-06T13:42:55Z</time>
        <extensions><gpxtpx:TrackPointExtension><gpxtpx:hr>119</gpxtpx:hr></gpxtpx:TrackPointExtension></extensions>
      </trkpt>
      <trkpt lat="-11.662137454268" lon="166.98345583644">
        <ele>12.8</ele>
        <time>2026-05-06T13:42:56Z</time>
        <extensions><gpxtpx:TrackPointExtension><gpxtpx:hr>120</gpxtpx:hr></gpxtpx:TrackPointExtension></extensions>
      </trkpt>
      <trkpt lat="-11.662187410392" lon="166.98339054144">
        <ele>12.8</ele>
        <time>2026-05-06T13:42:57Z</time>
        <extensions><gpxtpx:TrackPointExtension><gpxtpx:hr>120</gpxtpx:hr></gpxtpx:TrackPointExtension></extensions>
      </trkpt>
      <trkpt lat="-11.662249855547" lon="166.98333765165">
        <ele>12.8</ele>
        <time>2026-05-06T13:42:58Z</time>
        <extensions><gpxtpx:TrackPointExtension><gpxtpx:hr>120</gpxtpx:hr></gpxtpx:TrackPointExtension></extensions>
      </trkpt>
      <trkpt lat="-11.662321856068" lon="166.98330026838">
        <ele>12.8</ele>
        <time>2026-05-06T13:42:59Z</time>
        <extensions><gpxtpx:TrackPointExtension><gpxtpx:hr>121</gpxtpx:hr></gpxtpx:TrackPointExtension></extensions>
      </trkpt>
      <trkpt lat="-11.662399472462" lon="166.98327889453">
        <ele>12.8</ele>
        <time>2026-05-06T13:43:00Z</time>
        <extensions><gpxtpx:TrackPointExtension><gpxtpx:hr>122</gpxtpx:hr></gpxtpx:TrackPointExtension></extensions>
      </trkpt>
      <trkpt lat="-11.662479184331" lon="166.98326942298">
        <ele>12.8</ele>
        <time>2026-05-06T13:43:01Z</time>
        <extensions><gpxtpx:TrackPointExtension><gpxtpx:hr>122</gpxtpx:hr></gpxtpx:TrackPointExtension></extensions>
      </trkpt>
      <trkpt lat="-11.6625588962" lon="166.98326707605">
        <ele>12.8</ele>
        <time>2026-05-06T13:43:02Z</time>
        <extensions><gpxtpx:TrackPointExtension><gpxtpx:hr>123</gpxtpx:hr></gpxtpx:TrackPointExtension></extensions>
      </trkpt>
      <trkpt lat="-11.662638859526" lon="166.98327059645">
        <ele>12.6</ele>
        <time>2026-05-06T13:43:03Z</time>
        <extensions><gpxtpx:TrackPointExtension><gpxtpx:hr>124</gpxtpx:hr></gpxtpx:TrackPointExtension></extensions>
      </trkpt>
      <trkpt lat="-11.662719241947" lon="166.98327855925">
        <ele>12.6</ele>
        <time>2026-05-06T13:43:04Z</time>
        <extensions><gpxtpx:TrackPointExtension><gpxtpx:hr>124</gpxtpx:hr></gpxtpx:TrackPointExtension></extensions>
      </trkpt>
      <trkpt lat="-11.66279945673" lon="166.98329088065">
        <ele>12.6</ele>
        <time>2026-05-06T13:43:05Z</time>
        <extensions><gpxtpx:TrackPointExtension><gpxtpx:hr>123</gpxtpx:hr></gpxtpx:TrackPointExtension></extensions>
      </trkpt>
      <trkpt lat="-11.662879420056" lon="166.98330647098">
        <ele>12.6</ele>
        <time>2026-05-06T13:43:06Z</time>
        <extensions><gpxtpx:TrackPointExtension><gpxtpx:hr>123</gpxtpx:hr></gpxtpx:TrackPointExtension></extensions>
      </trkpt>
      <trkpt lat="-11.662958293735" lon="166.98332700664">
        <ele>12.6</ele>
        <time>2026-05-06T13:43:07Z</time>
        <extensions><gpxtpx:TrackPointExtension><gpxtpx:hr>122</gpxtpx:hr></gpxtpx:TrackPointExtension></extensions>
      </trkpt>
      <trkpt lat="-11.66303414993" lon="166.98335667856">
        <ele>12.8</ele>
        <time>2026-05-06T13:43:08Z</time>
        <extensions><gpxtpx:TrackPointExtension><gpxtpx:hr>122</gpxtpx:hr></gpxtpx:TrackPointExtension></extensions>
      </trkpt>
      <trkpt lat="-11.663106737184" lon="166.98339431329">
        <ele>12.8</ele>
        <time>2026-05-06T13:43:09Z</time>
        <extensions><gpxtpx:TrackPointExtension><gpxtpx:hr>121</gpxtpx:hr></gpxtpx:TrackPointExtension></extensions>
      </trkpt>
      <trkpt lat="-11.663177145144" lon="166.98343563606">
        <ele>12.8</ele>
        <time>2026-05-06T13:43:10Z</time>
        <extensions><gpxtpx:TrackPointExtension><gpxtpx:hr>121</gpxtpx:hr></gpxtpx:TrackPointExtension></extensions>
      </trkpt>
      <trkpt lat="-11.663243278335" lon="166.98348249088">
        <ele>12.8</ele>
        <time>2026-05-06T13:43:11Z</time>
        <extensions><gpxtpx:TrackPointExtension><gpxtpx:hr>121</gpxtpx:hr></gpxtpx:TrackPointExtension></extensions>
      </trkpt>
      <trkpt lat="-11.663305052938" lon="166.98353362047">
        <ele>13</ele>
        <time>2026-05-06T13:43:12Z</time>
        <extensions><gpxtpx:TrackPointExtension><gpxtpx:hr>121</gpxtpx:hr></gpxtpx:TrackPointExtension></extensions>
      </trkpt>
      <trkpt lat="-11.663363893876" lon="166.98358692935">
        <ele>13</ele>
        <time>2026-05-06T13:43:13Z</time>
        <extensions><gpxtpx:TrackPointExtension><gpxtpx:hr>122</gpxtpx:hr></gpxtpx:TrackPointExtension></extensions>
      </trkpt>
      <trkpt lat="-11.663416783665" lon="166.98364501592">
        <ele>13</ele>
        <time>2026-05-06T13:43:14Z</time>
        <extensions><gpxtpx:TrackPointExtension><gpxtpx:hr>122</gpxtpx:hr></gpxtpx:TrackPointExtension></extensions>
      </trkpt>
      <trkpt lat="-11.663462632658" lon="166.98370804781">
        <ele>13</ele>
        <time>2026-05-06T13:43:15Z</time>
        <extensions><gpxtpx:TrackPointExtension><gpxtpx:hr>122</gpxtpx:hr></gpxtpx:TrackPointExtension></extensions>
      </trkpt>
      <trkpt lat="-11.66350102176" lon="166.98377560592">
        <ele>13.2</ele>
        <time>2026-05-06T13:43:16Z</time>
        <extensions><gpxtpx:TrackPointExtension><gpxtpx:hr>122</gpxtpx:hr></gpxtpx:TrackPointExtension></extensions>
      </trkpt>
      <trkpt lat="-11.663533459713" lon="166.9838465168">
        <ele>13.2</ele>
        <time>2026-05-06T13:43:17Z</time>
        <extensions><gpxtpx:TrackPointExtension><gpxtpx:hr>123</gpxtpx:hr></gpxtpx:TrackPointExtension></extensions>
      </trkpt>
      <trkpt lat="-11.663560449431" lon="166.98392027752">
        <ele>13.2</ele>
        <time>2026-05-06T13:43:18Z</time>
        <extensions><gpxtpx:TrackPointExtension><gpxtpx:hr>123</gpxtpx:hr></gpxtpx:TrackPointExtension></extensions>
      </trkpt>
      <trkpt lat="-11.663582493828" lon="166.98399596608">
        <ele>13.2</ele>
        <time>2026-05-06T13:43:19Z</time>
        <extensions><gpxtpx:TrackPointExtension><gpxtpx:hr>124</gpxtpx:hr></gpxtpx:TrackPointExtension></extensions>
      </trkpt>
      <trkpt lat="-11.66359992818" lon="166.98407341483">
        <ele>13.2</ele>
        <time>2026-05-06T13:43:20Z</time>
        <extensions><gpxtpx:TrackPointExtension><gpxtpx:hr>124</gpxtpx:hr></gpxtpx:TrackPointExtension></extensions>
      </trkpt>
      <trkpt lat="-11.663613674496" lon="166.98415195323">
        <ele>13.2</ele>
        <time>2026-05-06T13:43:21Z</time>
        <extensions><gpxtpx:TrackPointExtension><gpxtpx:hr>124</gpxtpx:hr></gpxtpx:TrackPointExtension></extensions>
      </trkpt>
      <trkpt lat="-11.663621469663" lon="166.9842316651">
        <ele>13.2</ele>
        <time>2026-05-06T13:43:22Z</time>
        <extensions><gpxtpx:TrackPointExtension><gpxtpx:hr>124</gpxtpx:hr></gpxtpx:TrackPointExtension></extensions>
      </trkpt>
      <trkpt lat="-11.663622307853" lon="166.98431204752">
        <ele>13.2</ele>
        <time>2026-05-06T13:43:23Z</time>
        <extensions><gpxtpx:TrackPointExtension><gpxtpx:hr>124</gpxtpx:hr></gpxtpx:TrackPointExtension></extensions>
      </trkpt>
      <trkpt lat="-11.663615434695" lon="166.98439192703">
        <ele>13.2</ele>
        <time>2026-05-06T13:43:24Z</time>
        <extensions><gpxtpx:TrackPointExtension><gpxtpx:hr>124</gpxtpx:hr></gpxtpx:TrackPointExtension></extensions>
      </trkpt>
      <trkpt lat="-11.663598167981" lon="166.98446971106">
        <ele>13.2</ele>
        <time>2026-05-06T13:43:25Z</time>
        <extensions><gpxtpx:TrackPointExtension><gpxtpx:hr>123</gpxtpx:hr></gpxtpx:TrackPointExtension></extensions>
      </trkpt>
      <trkpt lat="-11.663568831331" lon="166.98454322033">
        <ele>13.2</ele>
        <time>2026-05-06T13:43:26Z</time>
        <extensions><gpxtpx:TrackPointExtension><gpxtpx:hr>123</gpxtpx:hr></gpxtpx:TrackPointExtension></extensions>
      </trkpt>
      <trkpt lat="-11.663528430573" lon="166.98461077844">
        <ele>13.2</ele>
        <time>2026-05-06T13:43:27Z</time>
        <extensions><gpxtpx:TrackPointExtension><gpxtpx:hr>123</gpxtpx:hr></gpxtpx:TrackPointExtension></extensions>
      </trkpt>
      <trkpt lat="-11.66348006701" lon="166.98467221777">
        <ele>13.2</ele>
        <time>2026-05-06T13:43:28Z</time>
        <extensions><gpxtpx:TrackPointExtension><gpxtpx:hr>122</gpxtpx:hr></gpxtpx:TrackPointExtension></extensions>
      </trkpt>
      <trkpt lat="-11.663428518325" lon="166.98473055579">
        <ele>13.2</ele>
        <time>2026-05-06T13:43:29Z</time>
        <extensions><gpxtpx:TrackPointExtension><gpxtpx:hr>122</gpxtpx:hr></gpxtpx:TrackPointExtension></extensions>
      </trkpt>
      <trkpt lat="-11.663375125622" lon="166.98478671452">
        <ele>13.2</ele>
        <time>2026-05-06T13:43:30Z</time>
        <extensions><gpxtpx:TrackPointExtension><gpxtpx:hr>122</gpxtpx:hr></gpxtpx:TrackPointExtension></extensions>
      </trkpt>
      <trkpt lat="-11.663316368503" lon="166.98483658683">
        <ele>13.2</ele>
        <time>2026-05-06T13:43:31Z</time>
        <extensions><gpxtpx:TrackPointExtension><gpxtpx:hr>122</gpxtpx:hr></gpxtpx:TrackPointExtension></extensions>
      </trkpt>
      <trkpt lat="-11.663256018823" lon="166.98488386074">
        <ele>13.2</ele>
        <time>2026-05-06T13:43:32Z</time>
        <extensions><gpxtpx:TrackPointExtension><gpxtpx:hr>122</gpxtpx:hr></gpxtpx:TrackPointExtension></extensions>
      </trkpt>
      <trkpt lat="-11.663194328039" lon="166.9849295421">
        <ele>13.2</ele>
        <time>2026-05-06T13:43:33Z</time>
        <extensions><gpxtpx:TrackPointExtension><gpxtpx:hr>122</gpxtpx:hr></gpxtpx:TrackPointExtension></extensions>
      </trkpt>
      <trkpt lat="-11.663130038866" lon="166.9849710325">
        <ele>13.2</ele>
        <time>2026-05-06T13:43:34Z</time>
        <extensions><gpxtpx:TrackPointExtension><gpxtpx:hr>122</gpxtpx:hr></gpxtpx:TrackPointExtension></extensions>
      </trkpt>
      <trkpt lat="-11.663063738037" lon="166.98500841578">
        <ele>13.2</ele>
        <time>2026-05-06T13:43:35Z</time>
        <extensions><gpxtpx:TrackPointExtension><gpxtpx:hr>121</gpxtpx:hr></gpxtpx:TrackPointExtension></extensions>
      </trkpt>
      <trkpt lat="-11.66299559319" lon="166.98504194338">
        <ele>13.2</ele>
        <time>2026-05-06T13:43:36Z</time>
        <extensions><gpxtpx:TrackPointExtension><gpxtpx:hr>121</gpxtpx:hr></gpxtpx:TrackPointExtension></extensions>
      </trkpt>
      <trkpt lat="-11.662924514678" lon="166.98506859782">
        <ele>13.2</ele>
        <time>2026-05-06T13:43:37Z</time>
        <extensions><gpxtpx:TrackPointExtension><gpxtpx:hr>121</gpxtpx:hr></gpxtpx:TrackPointExtension></extensions>
      </trkpt>
      <trkpt lat="-11.66285058632" lon="166.98508628363">
        <ele>13.2</ele>
        <time>2026-05-06T13:43:38Z</time>
        <extensions><gpxtpx:TrackPointExtension><gpxtpx:hr>121</gpxtpx:hr></gpxtpx:TrackPointExtension></extensions>
      </trkpt>
      <trkpt lat="-11.662774813944" lon="166.98509240241">
        <ele>13.2</ele>
        <time>2026-05-06T13:43:39Z</time>
        <extensions><gpxtpx:TrackPointExtension><gpxtpx:hr>121</gpxtpx:hr></gpxtpx:TrackPointExtension></extensions>
      </trkpt>
      <trkpt lat="-11.662698957749" lon="166.98508787619">
        <ele>13.2</ele>
        <time>2026-05-06T13:43:40Z</time>
        <extensions><gpxtpx:TrackPointExtension><gpxtpx:hr>121</gpxtpx:hr></gpxtpx:TrackPointExtension></extensions>
      </trkpt>
      <trkpt lat="-11.662626370495" lon="166.9850747166">
        <ele>13.2</ele>
        <time>2026-05-06T13:43:41Z</time>
        <extensions><gpxtpx:TrackPointExtension><gpxtpx:hr>122</gpxtpx:hr></gpxtpx:TrackPointExtension></extensions>
      </trkpt>
      <trkpt lat="-11.662552777413" lon="166.98505552205">
        <ele>13.2</ele>
        <time>2026-05-06T13:43:42Z</time>
        <extensions><gpxtpx:TrackPointExtension><gpxtpx:hr>122</gpxtpx:hr></gpxtpx:TrackPointExtension></extensions>
      </trkpt>
      <trkpt lat="-11.66248010634" lon="166.98502987344">
        <ele>13.2</ele>
        <time>2026-05-06T13:43:43Z</time>
        <extensions><gpxtpx:TrackPointExtension><gpxtpx:hr>122</gpxtpx:hr></gpxtpx:TrackPointExtension></extensions>
      </trkpt>
      <trkpt lat="-11.662410201294" lon="166.98500053679">
        <ele>13.2</ele>
        <time>2026-05-06T13:43:44Z</time>
        <extensions><gpxtpx:TrackPointExtension><gpxtpx:hr>123</gpxtpx:hr></gpxtpx:TrackPointExtension></extensions>
      </trkpt>
      <trkpt lat="-11.66234264318" lon="166.98496583572">
        <ele>13.2</ele>
        <time>2026-05-06T13:43:45Z</time>
        <extensions><gpxtpx:TrackPointExtension><gpxtpx:hr>124</gpxtpx:hr></gpxtpx:TrackPointExtension></extensions>
      </trkpt>
      <trkpt lat="-11.662279359835" lon="166.98492719516">
        <ele>13.2</ele>
        <time>2026-05-06T13:43:46Z</time>
        <extensions><gpxtpx:TrackPointExtension><gpxtpx:hr>124</gpxtpx:hr></gpxtpx:TrackPointExtension></extensions>
      </trkpt>
      <trkpt lat="-11.662216747042" lon="166.98488461511">
        <ele>13.2</ele>
        <time>2026-05-06T13:43:47Z</time>
        <extensions><gpxtpx:TrackPointExtension><gpxtpx:hr>124</gpxtpx:hr></gpxtpx:TrackPointExtension></extensions>
      </trkpt>
      <trkpt lat="-11.662157989923" lon="166.98483776029">
        <ele>13</ele>
        <time>2026-05-06T13:43:48Z</time>
        <extensions><gpxtpx:TrackPointExtension><gpxtpx:hr>125</gpxtpx:hr></gpxtpx:TrackPointExtension></extensions>
      </trkpt>
      <trkpt lat="-11.662104932496" lon="166.98478143392">
        <ele>13</ele>
        <time>2026-05-06T13:43:49Z</time>
        <extensions><gpxtpx:TrackPointExtension><gpxtpx:hr>125</gpxtpx:hr></gpxtpx:TrackPointExtension></extensions>
      </trkpt>
      <trkpt lat="-11.66206017315" lon="166.98471924023">
        <ele>13</ele>
        <time>2026-05-06T13:43:50Z</time>
        <extensions><gpxtpx:TrackPointExtension><gpxtpx:hr>126</gpxtpx:hr></gpxtpx:TrackPointExtension></extensions>
      </trkpt>
      <trkpt lat="-11.662018850383" lon="166.98465277176">
        <ele>13</ele>
        <time>2026-05-06T13:43:51Z</time>
        <extensions><gpxtpx:TrackPointExtension><gpxtpx:hr>126</gpxtpx:hr></gpxtpx:TrackPointExtension></extensions>
      </trkpt>
      <trkpt lat="-11.661980042186" lon="166.98458320199">
        <ele>12.8</ele>
        <time>2026-05-06T13:43:52Z</time>
        <extensions><gpxtpx:TrackPointExtension><gpxtpx:hr>126</gpxtpx:hr></gpxtpx:TrackPointExtension></extensions>
      </trkpt>
      <trkpt lat="-11.661944251473" lon="166.98451296167">
        <ele>12.8</ele>
        <time>2026-05-06T13:43:53Z</time>
        <extensions><gpxtpx:TrackPointExtension><gpxtpx:hr>126</gpxtpx:hr></gpxtpx:TrackPointExtension></extensions>
      </trkpt>
      <trkpt lat="-11.661908796036" lon="166.98444196697">
        <ele>12.8</ele>
        <time>2026-05-06T13:43:54Z</time>
        <extensions><gpxtpx:TrackPointExtension><gpxtpx:hr>126</gpxtpx:hr></gpxtpx:TrackPointExtension></extensions>
      </trkpt>
      <trkpt lat="-11.661869652563" lon="166.98437264866">
        <ele>12.8</ele>
        <time>2026-05-06T13:43:55Z</time>
        <extensions><gpxtpx:TrackPointExtension><gpxtpx:hr>125</gpxtpx:hr></gpxtpx:TrackPointExtension></extensions>
      </trkpt>
      <trkpt lat="-11.661820115534" lon="166.98431037114">
        <ele>12.6</ele>
        <time>2026-05-06T13:43:56Z</time>
        <extensions><gpxtpx:TrackPointExtension><gpxtpx:hr>125</gpxtpx:hr></gpxtpx:TrackPointExtension></extensions>
      </trkpt>
      <trkpt lat="-11.661761442234" lon="166.98425630789">
        <ele>12.6</ele>
        <time>2026-05-06T13:43:57Z</time>
        <extensions><gpxtpx:TrackPointExtension><gpxtpx:hr>125</gpxtpx:hr></gpxtpx:TrackPointExtension></extensions>
      </trkpt>
      <trkpt lat="-11.66169136955" lon="166.98421984662">
        <ele>12.6</ele>
        <time>2026-05-06T13:43:58Z</time>
        <extensions><gpxtpx:TrackPointExtension><gpxtpx:hr>123</gpxtpx:hr></gpxtpx:TrackPointExtension></extensions>
      </trkpt>
      <trkpt lat="-11.661613836975" lon="166.98420459157">
        <ele>12.8</ele>
        <time>2026-05-06T13:43:59Z</time>
        <extensions><gpxtpx:TrackPointExtension><gpxtpx:hr>122</gpxtpx:hr></gpxtpx:TrackPointExtension></extensions>
      </trkpt>
      <trkpt lat="-11.66153462802" lon="166.98420794433">
        <ele>12.8</ele>
        <time>2026-05-06T13:44:00Z</time>
        <extensions><gpxtpx:TrackPointExtension><gpxtpx:hr>121</gpxtpx:hr></gpxtpx:TrackPointExtension></extensions>
      </trkpt>
      <trkpt lat="-11.661456508712" lon="166.98422462431">
        <ele>12.8</ele>
        <time>2026-05-06T13:44:01Z</time>
        <extensions><gpxtpx:TrackPointExtension><gpxtpx:hr>120</gpxtpx:hr></gpxtpx:TrackPointExtension></extensions>
      </trkpt>
      <trkpt lat="-11.661378389404" lon="166.98424348358">
        <ele>12.6</ele>
        <time>2026-05-06T13:44:02Z</time>
        <extensions><gpxtpx:TrackPointExtension><gpxtpx:hr>120</gpxtpx:hr></gpxtpx:TrackPointExtension></extensions>
      </trkpt>
      <trkpt lat="-11.661299767182" lon="166.98426183994">
        <ele>12.8</ele>
        <time>2026-05-06T13:44:03Z</time>
        <extensions><gpxtpx:TrackPointExtension><gpxtpx:hr>120</gpxtpx:hr></gpxtpx:TrackPointExtension></extensions>
      </trkpt>
      <trkpt lat="-11.66121946858" lon="166.98427064094">
        <ele>12.8</ele>
        <time>2026-05-06T13:44:04Z</time>
        <extensions><gpxtpx:TrackPointExtension><gpxtpx:hr>120</gpxtpx:hr></gpxtpx:TrackPointExtension></extensions>
      </trkpt>
      <trkpt lat="-11.661148390068" lon="166.98427131149">
        <ele>12.8</ele>
        <time>2026-05-06T13:44:05Z</time>
        <extensions><gpxtpx:TrackPointExtension><gpxtpx:hr>120</gpxtpx:hr></gpxtpx:TrackPointExtension></extensions>
      </trkpt>
      <trkpt lat="-11.661068259104" lon="166.98426678526">
        <ele>12.8</ele>
        <time>2026-05-06T13:44:06Z</time>
        <extensions><gpxtpx:TrackPointExtension><gpxtpx:hr>120</gpxtpx:hr></gpxtpx:TrackPointExtension></extensions>
      </trkpt>
      <trkpt lat="-11.660988798692" lon="166.98425873864">
        <ele>12.8</ele>
        <time>2026-05-06T13:44:07Z</time>
        <extensions><gpxtpx:TrackPointExtension><gpxtpx:hr>120</gpxtpx:hr></gpxtpx:TrackPointExtension></extensions>
      </trkpt>
      <trkpt lat="-11.660909925013" lon="166.98425010528">
        <ele>12.8</ele>
        <time>2026-05-06T13:44:08Z</time>
        <extensions><gpxtpx:TrackPointExtension><gpxtpx:hr>120</gpxtpx:hr></gpxtpx:TrackPointExtension></extensions>
      </trkpt>
      <trkpt lat="-11.660831554248" lon="166.98424163956">
        <ele>12.8</ele>
        <time>2026-05-06T13:44:09Z</time>
        <extensions><gpxtpx:TrackPointExtension><gpxtpx:hr>120</gpxtpx:hr></gpxtpx:TrackPointExtension></extensions>
      </trkpt>
      <trkpt lat="-11.66075343494" lon="166.98423485023">
        <ele>12.8</ele>
        <time>2026-05-06T13:44:10Z</time>
        <extensions><gpxtpx:TrackPointExtension><gpxtpx:hr>121</gpxtpx:hr></gpxtpx:TrackPointExtension></extensions>
      </trkpt>
      <trkpt lat="-11.660675567089" lon="166.98423367676">
        <ele>12.8</ele>
        <time>2026-05-06T13:44:11Z</time>
        <extensions><gpxtpx:TrackPointExtension><gpxtpx:hr>120</gpxtpx:hr></gpxtpx:TrackPointExtension></extensions>
      </trkpt>
      <trkpt lat="-11.660598788885" lon="166.98424172338">
        <ele>13</ele>
        <time>2026-05-06T13:44:12Z</time>
        <extensions><gpxtpx:TrackPointExtension><gpxtpx:hr>120</gpxtpx:hr></gpxtpx:TrackPointExtension></extensions>
      </trkpt>
      <trkpt lat="-11.660526620726" lon="166.98426360014">
        <ele>13</ele>
        <time>2026-05-06T13:44:13Z</time>
        <extensions><gpxtpx:TrackPointExtension><gpxtpx:hr>120</gpxtpx:hr></gpxtpx:TrackPointExtension></extensions>
      </trkpt>
      <trkpt lat="-11.660467528331" lon="166.98431389154">
        <ele>13.2</ele>
        <time>2026-05-06T13:44:14Z</time>
        <extensions><gpxtpx:TrackPointExtension><gpxtpx:hr>120</gpxtpx:hr></gpxtpx:TrackPointExtension></extensions>
      </trkpt>
      <trkpt lat="-11.660439448966" lon="166.98438446714">
        <ele>13.2</ele>
        <time>2026-05-06T13:44:15Z</time>
        <extensions><gpxtpx:TrackPointExtension><gpxtpx:hr>119</gpxtpx:hr></gpxtpx:TrackPointExtension></extensions>
      </trkpt>
      <trkpt lat="-11.660425618831" lon="166.98445856314">
        <ele>13.4</ele>
        <time>2026-05-06T13:44:16Z</time>
        <extensions><gpxtpx:TrackPointExtension><gpxtpx:hr>119</gpxtpx:hr></gpxtpx:TrackPointExtension></extensions>
      </trkpt>
      <trkpt lat="-11.660418326578" lon="166.98453274295">
        <ele>13.4</ele>
        <time>2026-05-06T13:44:17Z</time>
        <extensions><gpxtpx:TrackPointExtension><gpxtpx:hr>118</gpxtpx:hr></gpxtpx:TrackPointExtension></extensions>
      </trkpt>
      <trkpt lat="-11.660414889999" lon="166.98460692277">
        <ele>13.6</ele>
        <time>2026-05-06T13:44:18Z</time>
        <extensions><gpxtpx:TrackPointExtension><gpxtpx:hr>118</gpxtpx:hr></gpxtpx:TrackPointExtension></extensions>
      </trkpt>
      <trkpt lat="-11.660412040153" lon="166.98468085112">
        <ele>13.8</ele>
        <time>2026-05-06T13:44:19Z</time>
        <extensions><gpxtpx:TrackPointExtension><gpxtpx:hr>118</gpxtpx:hr></gpxtpx:TrackPointExtension></extensions>
      </trkpt>
      <trkpt lat="-11.660406591918" lon="166.98475452803">
        <ele>13.8</ele>
        <time>2026-05-06T13:44:20Z</time>
        <extensions><gpxtpx:TrackPointExtension><gpxtpx:hr>119</gpxtpx:hr></gpxtpx:TrackPointExtension></extensions>
      </trkpt>
      <trkpt lat="-11.660398293837" lon="166.98482778583">
        <ele>13.8</ele>
        <time>2026-05-06T13:44:21Z</time>
        <extensions><gpxtpx:TrackPointExtension><gpxtpx:hr>120</gpxtpx:hr></gpxtpx:TrackPointExtension></extensions>
      </trkpt>
      <trkpt lat="-11.660382703503" lon="166.98489987017">
        <ele>14</ele>
        <time>2026-05-06T13:44:22Z</time>
        <extensions><gpxtpx:TrackPointExtension><gpxtpx:hr>120</gpxtpx:hr></gpxtpx:TrackPointExtension></extensions>
      </trkpt>
      <trkpt lat="-11.660357306346" lon="166.98496910466">
        <ele>14</ele>
        <time>2026-05-06T13:44:23Z</time>
        <extensions><gpxtpx:TrackPointExtension><gpxtpx:hr>120</gpxtpx:hr></gpxtpx:TrackPointExtension></extensions>
      </trkpt>
      <trkpt lat="-11.660317324683" lon="166.98503079545">
        <ele>14</ele>
        <time>2026-05-06T13:44:24Z</time>
        <extensions><gpxtpx:TrackPointExtension><gpxtpx:hr>120</gpxtpx:hr></gpxtpx:TrackPointExtension></extensions>
      </trkpt>
      <trkpt lat="-11.66026644655" lon="166.98508376906">
        <ele>14.2</ele>
        <time>2026-05-06T13:44:25Z</time>
        <extensions><gpxtpx:TrackPointExtension><gpxtpx:hr>120</gpxtpx:hr></gpxtpx:TrackPointExtension></extensions>
      </trkpt>
      <trkpt lat="-11.660211545105" lon="166.98513255171">
        <ele>14</ele>
        <time>2026-05-06T13:44:26Z</time>
        <extensions><gpxtpx:TrackPointExtension><gpxtpx:hr>120</gpxtpx:hr></gpxtpx:TrackPointExtension></extensions>
      </trkpt>
      <trkpt lat="-11.660154548185" lon="166.98517940654">
        <ele>14</ele>
        <time>2026-05-06T13:44:27Z</time>
        <extensions><gpxtpx:TrackPointExtension><gpxtpx:hr>119</gpxtpx:hr></gpxtpx:TrackPointExtension></extensions>
      </trkpt>
      <trkpt lat="-11.660095371971" lon="166.9852246688">
        <ele>14</ele>
        <time>2026-05-06T13:44:28Z</time>
        <extensions><gpxtpx:TrackPointExtension><gpxtpx:hr>119</gpxtpx:hr></gpxtpx:TrackPointExtension></extensions>
      </trkpt>
      <trkpt lat="-11.660033848825" lon="166.98526850613">
        <ele>14</ele>
        <time>2026-05-06T13:44:29Z</time>
        <extensions><gpxtpx:TrackPointExtension><gpxtpx:hr>119</gpxtpx:hr></gpxtpx:TrackPointExtension></extensions>
      </trkpt>
      <trkpt lat="-11.659970816937" lon="166.98531184056">
        <ele>13.8</ele>
        <time>2026-05-06T13:44:30Z</time>
        <extensions><gpxtpx:TrackPointExtension><gpxtpx:hr>119</gpxtpx:hr></gpxtpx:TrackPointExtension></extensions>
      </trkpt>
      <trkpt lat="-11.659904935203" lon="166.98535274423">
        <ele>13.8</ele>
        <time>2026-05-06T13:44:31Z</time>
        <extensions><gpxtpx:TrackPointExtension><gpxtpx:hr>119</gpxtpx:hr></gpxtpx:TrackPointExtension></extensions>
      </trkpt>
      <trkpt lat="-11.659835868347" lon="166.98538995986">
        <ele>13.8</ele>
        <time>2026-05-06T13:44:32Z</time>
        <extensions><gpxtpx:TrackPointExtension><gpxtpx:hr>119</gpxtpx:hr></gpxtpx:TrackPointExtension></extensions>
      </trkpt>
      <trkpt lat="-11.659763364912" lon="166.98542214636">
        <ele>13.6</ele>
        <time>2026-05-06T13:44:33Z</time>
        <extensions><gpxtpx:TrackPointExtension><gpxtpx:hr>120</gpxtpx:hr></gpxtpx:TrackPointExtension></extensions>
      </trkpt>
      <trkpt lat="-11.659687089622" lon="166.98544687297">
        <ele>13.6</ele>
        <time>2026-05-06T13:44:34Z</time>
        <extensions><gpxtpx:TrackPointExtension><gpxtpx:hr>119</gpxtpx:hr></gpxtpx:TrackPointExtension></extensions>
      </trkpt>
      <trkpt lat="-11.65960762921" lon="166.9854611222">
        <ele>13.6</ele>
        <time>2026-05-06T13:44:35Z</time>
        <extensions><gpxtpx:TrackPointExtension><gpxtpx:hr>119</gpxtpx:hr></gpxtpx:TrackPointExtension></extensions>
      </trkpt>
      <trkpt lat="-11.659526911513" lon="166.98546229566">
        <ele>13.4</ele>
        <time>2026-05-06T13:44:36Z</time>
        <extensions><gpxtpx:TrackPointExtension><gpxtpx:hr>119</gpxtpx:hr></gpxtpx:TrackPointExtension></extensions>
      </trkpt>
      <trkpt lat="-11.659448959843" lon="166.9854488008">
        <ele>13.4</ele>
        <time>2026-05-06T13:44:37Z</time>
        <extensions><gpxtpx:TrackPointExtension><gpxtpx:hr>119</gpxtpx:hr></gpxtpx:TrackPointExtension></extensions>
      </trkpt>
      <trkpt lat="-11.659373941838" lon="166.9854201347">
        <ele>13.4</ele>
        <time>2026-05-06T13:44:38Z</time>
        <extensions><gpxtpx:TrackPointExtension><gpxtpx:hr>120</gpxtpx:hr></gpxtpx:TrackPointExtension></extensions>
      </trkpt>
      <trkpt lat="-11.659303282421" lon="166.98537579445">
        <ele>13.4</ele>
        <time>2026-05-06T13:44:39Z</time>
        <extensions><gpxtpx:TrackPointExtension><gpxtpx:hr>120</gpxtpx:hr></gpxtpx:TrackPointExtension></extensions>
      </trkpt>
      <trkpt lat="-11.659245112035" lon="166.98532365904">
        <ele>13.4</ele>
        <time>2026-05-06T13:44:40Z</time>
        <extensions><gpxtpx:TrackPointExtension><gpxtpx:hr>120</gpxtpx:hr></gpxtpx:TrackPointExtension></extensions>
      </trkpt>
      <trkpt lat="-11.65919272516" lon="166.98526221971">
        <ele>13.4</ele>
        <time>2026-05-06T13:44:41Z</time>
        <extensions><gpxtpx:TrackPointExtension><gpxtpx:hr>121</gpxtpx:hr></gpxtpx:TrackPointExtension></extensions>
      </trkpt>
      <trkpt lat="-11.659147211443" lon="166.9851995231">
        <ele>13.6</ele>
        <time>2026-05-06T13:44:42Z</time>
        <extensions><gpxtpx:TrackPointExtension><gpxtpx:hr>121</gpxtpx:hr></gpxtpx:TrackPointExtension></extensions>
      </trkpt>
      <trkpt lat="-11.659106475409" lon="166.98513179734">
        <ele>13.6</ele>
        <time>2026-05-06T13:44:43Z</time>
        <extensions><gpxtpx:TrackPointExtension><gpxtpx:hr>122</gpxtpx:hr></gpxtpx:TrackPointExtension></extensions>
      </trkpt>
      <trkpt lat="-11.659068756859" lon="166.98506264667">
        <ele>13.6</ele>
        <time>2026-05-06T13:44:44Z</time>
        <extensions><gpxtpx:TrackPointExtension><gpxtpx:hr>123</gpxtpx:hr></gpxtpx:TrackPointExtension></extensions>
      </trkpt>
      <trkpt lat="-11.659031289766" lon="166.98499332836">
        <ele>13.6</ele>
        <time>2026-05-06T13:44:45Z</time>
        <extensions><gpxtpx:TrackPointExtension><gpxtpx:hr>123</gpxtpx:hr></gpxtpx:TrackPointExtension></extensions>
      </trkpt>
      <trkpt lat="-11.658996169605" lon="166.98492518351">
        <ele>13.8</ele>
        <time>2026-05-06T13:44:46Z</time>
        <extensions><gpxtpx:TrackPointExtension><gpxtpx:hr>123</gpxtpx:hr></gpxtpx:TrackPointExtension></extensions>
      </trkpt>
      <trkpt lat="-11.658961636177" lon="166.98485335063">
        <ele>13.8</ele>
        <time>2026-05-06T13:44:47Z</time>
        <extensions><gpxtpx:TrackPointExtension><gpxtpx:hr>123</gpxtpx:hr></gpxtpx:TrackPointExtension></extensions>
      </trkpt>
      <trkpt lat="-11.658931042242" lon="166.98478143392">
        <ele>13.8</ele>
        <time>2026-05-06T13:44:48Z</time>
        <extensions><gpxtpx:TrackPointExtension><gpxtpx:hr>123</gpxtpx:hr></gpxtpx:TrackPointExtension></extensions>
      </trkpt>
      <trkpt lat="-11.658900615945" lon="166.9847080923">
        <ele>13.8</ele>
        <time>2026-05-06T13:44:49Z</time>
        <extensions><gpxtpx:TrackPointExtension><gpxtpx:hr>123</gpxtpx:hr></gpxtpx:TrackPointExtension></extensions>
      </trkpt>
      <trkpt lat="-11.658871782209" lon="166.9846375167">
        <ele>14</ele>
        <time>2026-05-06T13:44:50Z</time>
        <extensions><gpxtpx:TrackPointExtension><gpxtpx:hr>123</gpxtpx:hr></gpxtpx:TrackPointExtension></extensions>
      </trkpt>
      <trkpt lat="-11.658842110283" lon="166.98456551618">
        <ele>14</ele>
        <time>2026-05-06T13:44:51Z</time>
        <extensions><gpxtpx:TrackPointExtension><gpxtpx:hr>124</gpxtpx:hr></gpxtpx:TrackPointExtension></extensions>
      </trkpt>
      <trkpt lat="-11.65881134871" lon="166.98449401857">
        <ele>14</ele>
        <time>2026-05-06T13:44:52Z</time>
        <extensions><gpxtpx:TrackPointExtension><gpxtpx:hr>124</gpxtpx:hr></gpxtpx:TrackPointExtension></extensions>
      </trkpt>
      <trkpt lat="-11.658780754775" lon="166.9844226886">
        <ele>14</ele>
        <time>2026-05-06T13:44:53Z</time>
        <extensions><gpxtpx:TrackPointExtension><gpxtpx:hr>124</gpxtpx:hr></gpxtpx:TrackPointExtension></extensions>
      </trkpt>
      <trkpt lat="-11.658752340134" lon="166.98435244828">
        <ele>14.2</ele>
        <time>2026-05-06T13:44:54Z</time>
        <extensions><gpxtpx:TrackPointExtension><gpxtpx:hr>124</gpxtpx:hr></gpxtpx:TrackPointExtension></extensions>
      </trkpt>
      <trkpt lat="-11.658723757855" lon="166.98427893902">
        <ele>14.2</ele>
        <time>2026-05-06T13:44:55Z</time>
        <extensions><gpxtpx:TrackPointExtension><gpxtpx:hr>125</gpxtpx:hr></gpxtpx:TrackPointExtension></extensions>
      </trkpt>
      <trkpt lat="-11.658695846128" lon="166.98420685468">
        <ele>14.2</ele>
        <time>2026-05-06T13:44:56Z</time>
        <extensions><gpxtpx:TrackPointExtension><gpxtpx:hr>125</gpxtpx:hr></gpxtpx:TrackPointExtension></extensions>
      </trkpt>
      <trkpt lat="-11.65866801822" lon="166.98413468652">
        <ele>14.4</ele>
        <time>2026-05-06T13:44:57Z</time>
        <extensions><gpxtpx:TrackPointExtension><gpxtpx:hr>125</gpxtpx:hr></gpxtpx:TrackPointExtension></extensions>
      </trkpt>
      <trkpt lat="-11.658640106493" lon="166.98406243454">
        <ele>14.4</ele>
        <time>2026-05-06T13:44:58Z</time>
        <extensions><gpxtpx:TrackPointExtension><gpxtpx:hr>125</gpxtpx:hr></gpxtpx:TrackPointExtension></extensions>
      </trkpt>
      <trkpt lat="-11.658612194766" lon="166.9839903502">
        <ele>14.4</ele>
        <time>2026-05-06T13:44:59Z</time>
        <extensions><gpxtpx:TrackPointExtension><gpxtpx:hr>125</gpxtpx:hr></gpxtpx:TrackPointExtension></extensions>
      </trkpt>
      <trkpt lat="-11.658584366858" lon="166.98391826586">
        <ele>14.4</ele>
        <time>2026-05-06T13:45:00Z</time>
        <extensions><gpxtpx:TrackPointExtension><gpxtpx:hr>124</gpxtpx:hr></gpxtpx:TrackPointExtension></extensions>
      </trkpt>
      <trkpt lat="-11.658556958045" lon="166.98384777408">
        <ele>14.6</ele>
        <time>2026-05-06T13:45:01Z</time>
        <extensions><gpxtpx:TrackPointExtension><gpxtpx:hr>124</gpxtpx:hr></gpxtpx:TrackPointExtension></extensions>
      </trkpt>
      <trkpt lat="-11.658526950843" lon="166.9837746001">
        <ele>14.6</ele>
        <time>2026-05-06T13:45:02Z</time>
        <extensions><gpxtpx:TrackPointExtension><gpxtpx:hr>124</gpxtpx:hr></gpxtpx:TrackPointExtension></extensions>
      </trkpt>
      <trkpt lat="-11.658499039116" lon="166.98370553324">
        <ele>14.6</ele>
        <time>2026-05-06T13:45:03Z</time>
        <extensions><gpxtpx:TrackPointExtension><gpxtpx:hr>124</gpxtpx:hr></gpxtpx:TrackPointExtension></extensions>
      </trkpt>
      <trkpt lat="-11.658471378846" lon="166.98363487382">
        <ele>14.6</ele>
        <time>2026-05-06T13:45:04Z</time>
        <extensions><gpxtpx:TrackPointExtension><gpxtpx:hr>124</gpxtpx:hr></gpxtpx:TrackPointExtension></extensions>
      </trkpt>
      <trkpt lat="-11.658444640585" lon="166.98356396295">
        <ele>14.8</ele>
        <time>2026-05-06T13:45:05Z</time>
        <extensions><gpxtpx:TrackPointExtension><gpxtpx:hr>124</gpxtpx:hr></gpxtpx:TrackPointExtension></extensions>
      </trkpt>
      <trkpt lat="-11.658416058306" lon="166.9834940579">
        <ele>14.8</ele>
        <time>2026-05-06T13:45:06Z</time>
        <extensions><gpxtpx:TrackPointExtension><gpxtpx:hr>124</gpxtpx:hr></gpxtpx:TrackPointExtension></extensions>
      </trkpt>
      <trkpt lat="-11.65838387181" lon="166.98342591306">
        <ele>14.8</ele>
        <time>2026-05-06T13:45:07Z</time>
        <extensions><gpxtpx:TrackPointExtension><gpxtpx:hr>124</gpxtpx:hr></gpxtpx:TrackPointExtension></extensions>
      </trkpt>
      <trkpt lat="-11.658349757477" lon="166.98335885786">
        <ele>15</ele>
        <time>2026-05-06T13:45:08Z</time>
        <extensions><gpxtpx:TrackPointExtension><gpxtpx:hr>124</gpxtpx:hr></gpxtpx:TrackPointExtension></extensions>
      </trkpt>
      <trkpt lat="-11.658312709479" lon="166.98329347904">
        <ele>15</ele>
        <time>2026-05-06T13:45:09Z</time>
        <extensions><gpxtpx:TrackPointExtension><gpxtpx:hr>123</gpxtpx:hr></gpxtpx:TrackPointExtension></extensions>
      </trkpt>
      <trkpt lat="-11.658270297065" lon="166.98323178825">
        <ele>15</ele>
        <time>2026-05-06T13:45:10Z</time>
        <extensions><gpxtpx:TrackPointExtension><gpxtpx:hr>123</gpxtpx:hr></gpxtpx:TrackPointExtension></extensions>
      </trkpt>
      <trkpt lat="-11.658220340941" lon="166.98317680299">
        <ele>15</ele>
        <time>2026-05-06T13:45:11Z</time>
        <extensions><gpxtpx:TrackPointExtension><gpxtpx:hr>123</gpxtpx:hr></gpxtpx:TrackPointExtension></extensions>
      </trkpt>
      <trkpt lat="-11.658161164727" lon="166.98313296565">
        <ele>15.2</ele>
        <time>2026-05-06T13:45:12Z</time>
        <extensions><gpxtpx:TrackPointExtension><gpxtpx:hr>123</gpxtpx:hr></gpxtpx:TrackPointExtension></extensions>
      </trkpt>
      <trkpt lat="-11.658093103699" lon="166.98310740086">
        <ele>15.2</ele>
        <time>2026-05-06T13:45:13Z</time>
        <extensions><gpxtpx:TrackPointExtension><gpxtpx:hr>122</gpxtpx:hr></gpxtpx:TrackPointExtension></extensions>
      </trkpt>
      <trkpt lat="-11.658021270816" lon="166.98310647885">
        <ele>15.2</ele>
        <time>2026-05-06T13:45:14Z</time>
        <extensions><gpxtpx:TrackPointExtension><gpxtpx:hr>122</gpxtpx:hr></gpxtpx:TrackPointExtension></extensions>
      </trkpt>
      <trkpt lat="-11.657952287779" lon="166.98312651159">
        <ele>15.2</ele>
        <time>2026-05-06T13:45:15Z</time>
        <extensions><gpxtpx:TrackPointExtension><gpxtpx:hr>122</gpxtpx:hr></gpxtpx:TrackPointExtension></extensions>
      </trkpt>
      <trkpt lat="-11.657890345538" lon="166.98316339195">
        <ele>15.2</ele>
        <time>2026-05-06T13:45:16Z</time>
        <extensions><gpxtpx:TrackPointExtension><gpxtpx:hr>122</gpxtpx:hr></gpxtpx:TrackPointExtension></extensions>
      </trkpt>
      <trkpt lat="-11.657833264799" lon="166.98320848657">
        <ele>15.2</ele>
        <time>2026-05-06T13:45:17Z</time>
        <extensions><gpxtpx:TrackPointExtension><gpxtpx:hr>122</gpxtpx:hr></gpxtpx:TrackPointExtension></extensions>
      </trkpt>
      <trkpt lat="-11.657780626467" lon="166.9832593647">
        <ele>15.2</ele>
        <time>2026-05-06T13:45:18Z</time>
        <extensions><gpxtpx:TrackPointExtension><gpxtpx:hr>122</gpxtpx:hr></gpxtpx:TrackPointExtension></extensions>
      </trkpt>
      <trkpt lat="-11.657731173257" lon="166.98331418233">
        <ele>15.2</ele>
        <time>2026-05-06T13:45:19Z</time>
        <extensions><gpxtpx:TrackPointExtension><gpxtpx:hr>122</gpxtpx:hr></gpxtpx:TrackPointExtension></extensions>
      </trkpt>
      <trkpt lat="-11.657684569893" lon="166.9833722689">
        <ele>15.2</ele>
        <time>2026-05-06T13:45:20Z</time>
        <extensions><gpxtpx:TrackPointExtension><gpxtpx:hr>122</gpxtpx:hr></gpxtpx:TrackPointExtension></extensions>
      </trkpt>
      <trkpt lat="-11.657649533551" lon="166.98343915646">
        <ele>15.2</ele>
        <time>2026-05-06T13:45:21Z</time>
        <extensions><gpxtpx:TrackPointExtension><gpxtpx:hr>123</gpxtpx:hr></gpxtpx:TrackPointExtension></extensions>
      </trkpt>
      <trkpt lat="-11.657623549661" lon="166.98351149226">
        <ele>15</ele>
        <time>2026-05-06T13:45:22Z</time>
        <extensions><gpxtpx:TrackPointExtension><gpxtpx:hr>123</gpxtpx:hr></gpxtpx:TrackPointExtension></extensions>
      </trkpt>
      <trkpt lat="-11.65760603149" lon="166.98358793518">
        <ele>15</ele>
        <time>2026-05-06T13:45:23Z</time>
        <extensions><gpxtpx:TrackPointExtension><gpxtpx:hr>123</gpxtpx:hr></gpxtpx:TrackPointExtension></extensions>
      </trkpt>
      <trkpt lat="-11.657591698441" lon="166.98366706032">
        <ele>14.8</ele>
        <time>2026-05-06T13:45:24Z</time>
        <extensions><gpxtpx:TrackPointExtension><gpxtpx:hr>123</gpxtpx:hr></gpxtpx:TrackPointExtension></extensions>
      </trkpt>
      <trkpt lat="-11.65758088579" lon="166.98374811329">
        <ele>14.6</ele>
        <time>2026-05-06T13:45:25Z</time>
        <extensions><gpxtpx:TrackPointExtension><gpxtpx:hr>124</gpxtpx:hr></gpxtpx:TrackPointExtension></extensions>
      </trkpt>
      <trkpt lat="-11.657572671528" lon="166.98383033973">
        <ele>14.6</ele>
        <time>2026-05-06T13:45:26Z</time>
        <extensions><gpxtpx:TrackPointExtension><gpxtpx:hr>124</gpxtpx:hr></gpxtpx:TrackPointExtension></extensions>
      </trkpt>
      <trkpt lat="-11.657564373447" lon="166.98391306908">
        <ele>14.4</ele>
        <time>2026-05-06T13:45:27Z</time>
        <extensions><gpxtpx:TrackPointExtension><gpxtpx:hr>123</gpxtpx:hr></gpxtpx:TrackPointExtension></extensions>
      </trkpt>
      <trkpt lat="-11.657549788941" lon="166.98399571462">
        <ele>14.4</ele>
        <time>2026-05-06T13:45:28Z</time>
        <extensions><gpxtpx:TrackPointExtension><gpxtpx:hr>123</gpxtpx:hr></gpxtpx:TrackPointExtension></extensions>
      </trkpt>
      <trkpt lat="-11.657524978517" lon="166.98407651613">
        <ele>14.2</ele>
        <time>2026-05-06T13:45:29Z</time>
        <extensions><gpxtpx:TrackPointExtension><gpxtpx:hr>122</gpxtpx:hr></gpxtpx:TrackPointExtension></extensions>
      </trkpt>
      <trkpt lat="-11.657481392637" lon="166.98414927103">
        <ele>14</ele>
        <time>2026-05-06T13:45:30Z</time>
        <extensions><gpxtpx:TrackPointExtension><gpxtpx:hr>122</gpxtpx:hr></gpxtpx:TrackPointExtension></extensions>
      </trkpt>
      <trkpt lat="-11.657430598323" lon="166.9842184217">
        <ele>13.8</ele>
        <time>2026-05-06T13:45:31Z</time>
        <extensions><gpxtpx:TrackPointExtension><gpxtpx:hr>122</gpxtpx:hr></gpxtpx:TrackPointExtension></extensions>
      </trkpt>
      <trkpt lat="-11.657374104317" lon="166.98428405198">
        <ele>13.8</ele>
        <time>2026-05-06T13:45:32Z</time>
        <extensions><gpxtpx:TrackPointExtension><gpxtpx:hr>121</gpxtpx:hr></gpxtpx:TrackPointExtension></extensions>
      </trkpt>
      <trkpt lat="-11.657308976954" lon="166.98434163563">
        <ele>13.6</ele>
        <time>2026-05-06T13:45:33Z</time>
        <extensions><gpxtpx:TrackPointExtension><gpxtpx:hr>120</gpxtpx:hr></gpxtpx:TrackPointExtension></extensions>
      </trkpt>
      <trkpt lat="-11.657239993917" lon="166.98439519597">
        <ele>13.6</ele>
        <time>2026-05-06T13:45:34Z</time>
        <extensions><gpxtpx:TrackPointExtension><gpxtpx:hr>120</gpxtpx:hr></gpxtpx:TrackPointExtension></extensions>
      </trkpt>
      <trkpt lat="-11.657170591785" lon="166.98444800194">
        <ele>13.4</ele>
        <time>2026-05-06T13:45:35Z</time>
        <extensions><gpxtpx:TrackPointExtension><gpxtpx:hr>120</gpxtpx:hr></gpxtpx:TrackPointExtension></extensions>
      </trkpt>
      <trkpt lat="-11.657100435282" lon="166.9844998859">
        <ele>13.4</ele>
        <time>2026-05-06T13:45:36Z</time>
        <extensions><gpxtpx:TrackPointExtension><gpxtpx:hr>119</gpxtpx:hr></gpxtpx:TrackPointExtension></extensions>
      </trkpt>
      <trkpt lat="-11.657028853856" lon="166.98454975821">
        <ele>13.2</ele>
        <time>2026-05-06T13:45:37Z</time>
        <extensions><gpxtpx:TrackPointExtension><gpxtpx:hr>119</gpxtpx:hr></gpxtpx:TrackPointExtension></extensions>
      </trkpt>
      <trkpt lat="-11.656955009317" lon="166.98459636157">
        <ele>13.2</ele>
        <time>2026-05-06T13:45:38Z</time>
        <extensions><gpxtpx:TrackPointExtension><gpxtpx:hr>119</gpxtpx:hr></gpxtpx:TrackPointExtension></extensions>
      </trkpt>
      <trkpt lat="-11.65687848257" lon="166.98463835489">
        <ele>13.2</ele>
        <time>2026-05-06T13:45:39Z</time>
        <extensions><gpxtpx:TrackPointExtension><gpxtpx:hr>118</gpxtpx:hr></gpxtpx:TrackPointExtension></extensions>
      </trkpt>
      <trkpt lat="-11.656799022158" lon="166.98467448088">
        <ele>13.2</ele>
        <time>2026-05-06T13:45:40Z</time>
        <extensions><gpxtpx:TrackPointExtension><gpxtpx:hr>117</gpxtpx:hr></gpxtpx:TrackPointExtension></extensions>
      </trkpt>
      <trkpt lat="-11.6567167119" lon="166.98470272788">
        <ele>13.2</ele>
        <time>2026-05-06T13:45:41Z</time>
        <extensions><gpxtpx:TrackPointExtension><gpxtpx:hr>117</gpxtpx:hr></gpxtpx:TrackPointExtension></extensions>
      </trkpt>
      <trkpt lat="-11.656632473805" lon="166.98472225771">
        <ele>13.2</ele>
        <time>2026-05-06T13:45:42Z</time>
        <extensions><gpxtpx:TrackPointExtension><gpxtpx:hr>116</gpxtpx:hr></gpxtpx:TrackPointExtension></extensions>
      </trkpt>
      <trkpt lat="-11.656547900434" lon="166.98473541729">
        <ele>13.4</ele>
        <time>2026-05-06T13:45:43Z</time>
        <extensions><gpxtpx:TrackPointExtension><gpxtpx:hr>115</gpxtpx:hr></gpxtpx:TrackPointExtension></extensions>
      </trkpt>
      <trkpt lat="-11.656463829977" lon="166.98474480502">
        <ele>13.4</ele>
        <time>2026-05-06T13:45:44Z</time>
        <extensions><gpxtpx:TrackPointExtension><gpxtpx:hr>115</gpxtpx:hr></gpxtpx:TrackPointExtension></extensions>
      </trkpt>
      <trkpt lat="-11.656380430072" lon="166.98475192964">
        <ele>13.6</ele>
        <time>2026-05-06T13:45:45Z</time>
        <extensions><gpxtpx:TrackPointExtension><gpxtpx:hr>114</gpxtpx:hr></gpxtpx:TrackPointExtension></extensions>
      </trkpt>
      <trkpt lat="-11.656298119814" lon="166.9847579646">
        <ele>13.6</ele>
        <time>2026-05-06T13:45:46Z</time>
        <extensions><gpxtpx:TrackPointExtension><gpxtpx:hr>114</gpxtpx:hr></gpxtpx:TrackPointExtension></extensions>
      </trkpt>
      <trkpt lat="-11.656216899203" lon="166.98476383193">
        <ele>13.6</ele>
        <time>2026-05-06T13:45:47Z</time>
        <extensions><gpxtpx:TrackPointExtension><gpxtpx:hr>114</gpxtpx:hr></gpxtpx:TrackPointExtension></extensions>
      </trkpt>
      <trkpt lat="-11.656137103515" lon="166.98477321966">
        <ele>13.8</ele>
        <time>2026-05-06T13:45:48Z</time>
        <extensions><gpxtpx:TrackPointExtension><gpxtpx:hr>114</gpxtpx:hr></gpxtpx:TrackPointExtension></extensions>
      </trkpt>
      <trkpt lat="-11.656059068026" lon="166.98479040256">
        <ele>13.8</ele>
        <time>2026-05-06T13:45:49Z</time>
        <extensions><gpxtpx:TrackPointExtension><gpxtpx:hr>114</gpxtpx:hr></gpxtpx:TrackPointExtension></extensions>
      </trkpt>
      <trkpt lat="-11.655984720573" lon="166.98481940393">
        <ele>13.8</ele>
        <time>2026-05-06T13:45:50Z</time>
        <extensions><gpxtpx:TrackPointExtension><gpxtpx:hr>114</gpxtpx:hr></gpxtpx:TrackPointExtension></extensions>
      </trkpt>
      <trkpt lat="-11.655915569898" lon="166.98486005615">
        <ele>13.6</ele>
        <time>2026-05-06T13:45:51Z</time>
        <extensions><gpxtpx:TrackPointExtension><gpxtpx:hr>114</gpxtpx:hr></gpxtpx:TrackPointExtension></extensions>
      </trkpt>
      <trkpt lat="-11.65585002344" lon="166.98490766534">
        <ele>13.6</ele>
        <time>2026-05-06T13:45:52Z</time>
        <extensions><gpxtpx:TrackPointExtension><gpxtpx:hr>115</gpxtpx:hr></gpxtpx:TrackPointExtension></extensions>
      </trkpt>
      <trkpt lat="-11.655784393163" lon="166.984956448">
        <ele>13.4</ele>
        <time>2026-05-06T13:45:53Z</time>
        <extensions><gpxtpx:TrackPointExtension><gpxtpx:hr>116</gpxtpx:hr></gpxtpx:TrackPointExtension></extensions>
      </trkpt>
      <trkpt lat="-11.655713566108" lon="166.98499844132">
        <ele>13.4</ele>
        <time>2026-05-06T13:45:54Z</time>
        <extensions><gpxtpx:TrackPointExtension><gpxtpx:hr>117</gpxtpx:hr></gpxtpx:TrackPointExtension></extensions>
      </trkpt>
      <trkpt lat="-11.655635698257" lon="166.98502702359">
        <ele>13.4</ele>
        <time>2026-05-06T13:45:55Z</time>
        <extensions><gpxtpx:TrackPointExtension><gpxtpx:hr>118</gpxtpx:hr></gpxtpx:TrackPointExtension></extensions>
      </trkpt>
      <trkpt lat="-11.655553723275" lon="166.98503926117">
        <ele>13.2</ele>
        <time>2026-05-06T13:45:56Z</time>
        <extensions><gpxtpx:TrackPointExtension><gpxtpx:hr>118</gpxtpx:hr></gpxtpx:TrackPointExtension></extensions>
      </trkpt>
      <trkpt lat="-11.655470993922" lon="166.98503641132">
        <ele>13.2</ele>
        <time>2026-05-06T13:45:57Z</time>
        <extensions><gpxtpx:TrackPointExtension><gpxtpx:hr>118</gpxtpx:hr></gpxtpx:TrackPointExtension></extensions>
      </trkpt>
      <trkpt lat="-11.65538901894" lon="166.98502467666">
        <ele>13.2</ele>
        <time>2026-05-06T13:45:58Z</time>
        <extensions><gpxtpx:TrackPointExtension><gpxtpx:hr>118</gpxtpx:hr></gpxtpx:TrackPointExtension></extensions>
      </trkpt>
      <trkpt lat="-11.655307798329" lon="166.98500900251">
        <ele>13.2</ele>
        <time>2026-05-06T13:45:59Z</time>
        <extensions><gpxtpx:TrackPointExtension><gpxtpx:hr>117</gpxtpx:hr></gpxtpx:TrackPointExtension></extensions>
      </trkpt>
      <trkpt lat="-11.655226996813" lon="166.98499165198">
        <ele>13.2</ele>
        <time>2026-05-06T13:46:00Z</time>
        <extensions><gpxtpx:TrackPointExtension><gpxtpx:hr>117</gpxtpx:hr></gpxtpx:TrackPointExtension></extensions>
      </trkpt>
      <trkpt lat="-11.655146111478" lon="166.98497505581">
        <ele>13.2</ele>
        <time>2026-05-06T13:46:01Z</time>
        <extensions><gpxtpx:TrackPointExtension><gpxtpx:hr>116</gpxtpx:hr></gpxtpx:TrackPointExtension></extensions>
      </trkpt>
      <trkpt lat="-11.655064136496" lon="166.98496524899">
        <ele>13.2</ele>
        <time>2026-05-06T13:46:02Z</time>
        <extensions><gpxtpx:TrackPointExtension><gpxtpx:hr>116</gpxtpx:hr></gpxtpx:TrackPointExtension></extensions>
      </trkpt>
      <trkpt lat="-11.654981910057" lon="166.98496709301">
        <ele>13.2</ele>
        <time>2026-05-06T13:46:03Z</time>
        <extensions><gpxtpx:TrackPointExtension><gpxtpx:hr>117</gpxtpx:hr></gpxtpx:TrackPointExtension></extensions>
      </trkpt>
      <trkpt lat="-11.654902114369" lon="166.98498561701">
        <ele>13.2</ele>
        <time>2026-05-06T13:46:04Z</time>
        <extensions><gpxtpx:TrackPointExtension><gpxtpx:hr>117</gpxtpx:hr></gpxtpx:TrackPointExtension></extensions>
      </trkpt>
      <trkpt lat="-11.654825000889" lon="166.98501461838">
        <ele>13.2</ele>
        <time>2026-05-06T13:46:05Z</time>
        <extensions><gpxtpx:TrackPointExtension><gpxtpx:hr>117</gpxtpx:hr></gpxtpx:TrackPointExtension></extensions>
      </trkpt>
      <trkpt lat="-11.654748893237" lon="166.98504680488">
        <ele>13.2</ele>
        <time>2026-05-06T13:46:06Z</time>
        <extensions><gpxtpx:TrackPointExtension><gpxtpx:hr>117</gpxtpx:hr></gpxtpx:TrackPointExtension></extensions>
      </trkpt>
      <trkpt lat="-11.654674629603" lon="166.98508326614">
        <ele>13.2</ele>
        <time>2026-05-06T13:46:07Z</time>
        <extensions><gpxtpx:TrackPointExtension><gpxtpx:hr>116</gpxtpx:hr></gpxtpx:TrackPointExtension></extensions>
      </trkpt>
      <trkpt lat="-11.654603467272" lon="166.9851258462">
        <ele>13.2</ele>
        <time>2026-05-06T13:46:08Z</time>
        <extensions><gpxtpx:TrackPointExtension><gpxtpx:hr>117</gpxtpx:hr></gpxtpx:TrackPointExtension></extensions>
      </trkpt>
      <trkpt lat="-11.654536998805" lon="166.98517622141">
        <ele>13.2</ele>
        <time>2026-05-06T13:46:09Z</time>
        <extensions><gpxtpx:TrackPointExtension><gpxtpx:hr>117</gpxtpx:hr></gpxtpx:TrackPointExtension></extensions>
      </trkpt>
      <trkpt lat="-11.65447539184" lon="166.98523397271">
        <ele>13.2</ele>
        <time>2026-05-06T13:46:10Z</time>
        <extensions><gpxtpx:TrackPointExtension><gpxtpx:hr>117</gpxtpx:hr></gpxtpx:TrackPointExtension></extensions>
      </trkpt>
      <trkpt lat="-11.654419652205" lon="166.98529960298">
        <ele>13.2</ele>
        <time>2026-05-06T13:46:11Z</time>
        <extensions><gpxtpx:TrackPointExtension><gpxtpx:hr>116</gpxtpx:hr></gpxtpx:TrackPointExtension></extensions>
      </trkpt>
      <trkpt lat="-11.654372629746" lon="166.9853733637">
        <ele>13.2</ele>
        <time>2026-05-06T13:46:12Z</time>
        <extensions><gpxtpx:TrackPointExtension><gpxtpx:hr>114</gpxtpx:hr></gpxtpx:TrackPointExtension></extensions>
      </trkpt>
      <trkpt lat="-11.654336839033" lon="166.98545374612">
        <ele>13.2</ele>
        <time>2026-05-06T13:46:13Z</time>
        <extensions><gpxtpx:TrackPointExtension><gpxtpx:hr>113</gpxtpx:hr></gpxtpx:TrackPointExtension></extensions>
      </trkpt>
      <trkpt lat="-11.654307502383" lon="166.98553697839">
        <ele>13.2</ele>
        <time>2026-05-06T13:46:14Z</time>
        <extensions><gpxtpx:TrackPointExtension><gpxtpx:hr>113</gpxtpx:hr></gpxtpx:TrackPointExtension></extensions>
      </trkpt>
      <trkpt lat="-11.65428260814" lon="166.98562188704">
        <ele>13.2</ele>
        <time>2026-05-06T13:46:15Z</time>
        <extensions><gpxtpx:TrackPointExtension><gpxtpx:hr>113</gpxtpx:hr></gpxtpx:TrackPointExtension></extensions>
      </trkpt>
      <trkpt lat="-11.654260563743" lon="166.98570813679">
        <ele>13.2</ele>
        <time>2026-05-06T13:46:16Z</time>
        <extensions><gpxtpx:TrackPointExtension><gpxtpx:hr>114</gpxtpx:hr></gpxtpx:TrackPointExtension></extensions>
      </trkpt>
      <trkpt lat="-11.654239106079" lon="166.98579488945">
        <ele>13.2</ele>
        <time>2026-05-06T13:46:17Z</time>
        <extensions><gpxtpx:TrackPointExtension><gpxtpx:hr>114</gpxtpx:hr></gpxtpx:TrackPointExtension></extensions>
      </trkpt>
      <trkpt lat="-11.65422142027" lon="166.98588222885">
        <ele>13.2</ele>
        <time>2026-05-06T13:46:18Z</time>
        <extensions><gpxtpx:TrackPointExtension><gpxtpx:hr>114</gpxtpx:hr></gpxtpx:TrackPointExtension></extensions>
      </trkpt>
      <trkpt lat="-11.654204991746" lon="166.98596906534">
        <ele>13.2</ele>
        <time>2026-05-06T13:46:19Z</time>
        <extensions><gpxtpx:TrackPointExtension><gpxtpx:hr>114</gpxtpx:hr></gpxtpx:TrackPointExtension></extensions>
      </trkpt>
      <trkpt lat="-11.654188814679" lon="166.98605523127">
        <ele>13.2</ele>
        <time>2026-05-06T13:46:20Z</time>
        <extensions><gpxtpx:TrackPointExtension><gpxtpx:hr>114</gpxtpx:hr></gpxtpx:TrackPointExtension></extensions>
      </trkpt>
      <trkpt lat="-11.654173559621" lon="166.98614106192">
        <ele>13.2</ele>
        <time>2026-05-06T13:46:21Z</time>
        <extensions><gpxtpx:TrackPointExtension><gpxtpx:hr>114</gpxtpx:hr></gpxtpx:TrackPointExtension></extensions>
      </trkpt>
      <trkpt lat="-11.654159478029" lon="166.98622664112">
        <ele>13.2</ele>
        <time>2026-05-06T13:46:22Z</time>
        <extensions><gpxtpx:TrackPointExtension><gpxtpx:hr>115</gpxtpx:hr></gpxtpx:TrackPointExtension></extensions>
      </trkpt>
      <trkpt lat="-11.654149168292" lon="166.98631230414">
        <ele>13.2</ele>
        <time>2026-05-06T13:46:23Z</time>
        <extensions><gpxtpx:TrackPointExtension><gpxtpx:hr>115</gpxtpx:hr></gpxtpx:TrackPointExtension></extensions>
      </trkpt>
      <trkpt lat="-11.654140451116" lon="166.98639729661">
        <ele>13.2</ele>
        <time>2026-05-06T13:46:24Z</time>
        <extensions><gpxtpx:TrackPointExtension><gpxtpx:hr>115</gpxtpx:hr></gpxtpx:TrackPointExtension></extensions>
      </trkpt>
      <trkpt lat="-11.654131147207" lon="166.98648161852">
        <ele>13.2</ele>
        <time>2026-05-06T13:46:25Z</time>
        <extensions><gpxtpx:TrackPointExtension><gpxtpx:hr>114</gpxtpx:hr></gpxtpx:TrackPointExtension></extensions>
      </trkpt>
      <trkpt lat="-11.654121927117" lon="166.98656493461">
        <ele>13.2</ele>
        <time>2026-05-06T13:46:26Z</time>
        <extensions><gpxtpx:TrackPointExtension><gpxtpx:hr>114</gpxtpx:hr></gpxtpx:TrackPointExtension></extensions>
      </trkpt>
      <trkpt lat="-11.654113964312" lon="166.9866474125">
        <ele>13.2</ele>
        <time>2026-05-06T13:46:27Z</time>
        <extensions><gpxtpx:TrackPointExtension><gpxtpx:hr>113</gpxtpx:hr></gpxtpx:TrackPointExtension></extensions>
      </trkpt>
      <trkpt lat="-11.654108599896" lon="166.98672930367">
        <ele>13.2</ele>
        <time>2026-05-06T13:46:28Z</time>
        <extensions><gpxtpx:TrackPointExtension><gpxtpx:hr>113</gpxtpx:hr></gpxtpx:TrackPointExtension></extensions>
      </trkpt>
      <trkpt lat="-11.654105498593" lon="166.986810189">
        <ele>13.2</ele>
        <time>2026-05-06T13:46:29Z</time>
        <extensions><gpxtpx:TrackPointExtension><gpxtpx:hr>113</gpxtpx:hr></gpxtpx:TrackPointExtension></extensions>
      </trkpt>
      <trkpt lat="-11.654103403118" lon="166.98689031996">
        <ele>13.2</ele>
        <time>2026-05-06T13:46:30Z</time>
        <extensions><gpxtpx:TrackPointExtension><gpxtpx:hr>112</gpxtpx:hr></gpxtpx:TrackPointExtension></extensions>
      </trkpt>
      <trkpt lat="-11.654102481109" lon="166.98696978038">
        <ele>13.2</ele>
        <time>2026-05-06T13:46:31Z</time>
        <extensions><gpxtpx:TrackPointExtension><gpxtpx:hr>111</gpxtpx:hr></gpxtpx:TrackPointExtension></extensions>
      </trkpt>
      <trkpt lat="-11.654103067842" lon="166.98704848642">
        <ele>13.2</ele>
        <time>2026-05-06T13:46:32Z</time>
        <extensions><gpxtpx:TrackPointExtension><gpxtpx:hr>111</gpxtpx:hr></gpxtpx:TrackPointExtension></extensions>
      </trkpt>
      <trkpt lat="-11.654106001507" lon="166.98712635427">
        <ele>13.2</ele>
        <time>2026-05-06T13:46:33Z</time>
        <extensions><gpxtpx:TrackPointExtension><gpxtpx:hr>111</gpxtpx:hr></gpxtpx:TrackPointExtension></extensions>
      </trkpt>
      <trkpt lat="-11.654111449742" lon="166.98720355157">
        <ele>13.2</ele>
        <time>2026-05-06T13:46:34Z</time>
        <extensions><gpxtpx:TrackPointExtension><gpxtpx:hr>112</gpxtpx:hr></gpxtpx:TrackPointExtension></extensions>
      </trkpt>
      <trkpt lat="-11.654119747823" lon="166.98727991068">
        <ele>13.2</ele>
        <time>2026-05-06T13:46:35Z</time>
        <extensions><gpxtpx:TrackPointExtension><gpxtpx:hr>113</gpxtpx:hr></gpxtpx:TrackPointExtension></extensions>
      </trkpt>
      <trkpt lat="-11.654133577958" lon="166.98735476104">
        <ele>13.2</ele>
        <time>2026-05-06T13:46:36Z</time>
        <extensions><gpxtpx:TrackPointExtension><gpxtpx:hr>113</gpxtpx:hr></gpxtpx:TrackPointExtension></extensions>
      </trkpt>
      <trkpt lat="-11.654156209088" lon="166.98742684538">
        <ele>13.2</ele>
        <time>2026-05-06T13:46:37Z</time>
        <extensions><gpxtpx:TrackPointExtension><gpxtpx:hr>113</gpxtpx:hr></gpxtpx:TrackPointExtension></extensions>
      </trkpt>
      <trkpt lat="-11.654191664525" lon="166.98749281094">
        <ele>13.2</ele>
        <time>2026-05-06T13:46:38Z</time>
        <extensions><gpxtpx:TrackPointExtension><gpxtpx:hr>112</gpxtpx:hr></gpxtpx:TrackPointExtension></extensions>
      </trkpt>
      <trkpt lat="-11.654238770803" lon="166.98755022695">
        <ele>13.2</ele>
        <time>2026-05-06T13:46:39Z</time>
        <extensions><gpxtpx:TrackPointExtension><gpxtpx:hr>112</gpxtpx:hr></gpxtpx:TrackPointExtension></extensions>
      </trkpt>
      <trkpt lat="-11.654292079687" lon="166.98760135654">
        <ele>13.2</ele>
        <time>2026-05-06T13:46:40Z</time>
        <extensions><gpxtpx:TrackPointExtension><gpxtpx:hr>111</gpxtpx:hr></gpxtpx:TrackPointExtension></extensions>
      </trkpt>
      <trkpt lat="-11.654351507358" lon="166.98764460715">
        <ele>13.2</ele>
        <time>2026-05-06T13:46:41Z</time>
        <extensions><gpxtpx:TrackPointExtension><gpxtpx:hr>111</gpxtpx:hr></gpxtpx:TrackPointExtension></extensions>
      </trkpt>
      <trkpt lat="-11.654411521762" lon="166.98768651664">
        <ele>13.2</ele>
        <time>2026-05-06T13:46:42Z</time>
        <extensions><gpxtpx:TrackPointExtension><gpxtpx:hr>110</gpxtpx:hr></gpxtpx:TrackPointExtension></extensions>
      </trkpt>
      <trkpt lat="-11.654471787623" lon="166.98772792323">
        <ele>13.2</ele>
        <time>2026-05-06T13:46:43Z</time>
        <extensions><gpxtpx:TrackPointExtension><gpxtpx:hr>110</gpxtpx:hr></gpxtpx:TrackPointExtension></extensions>
      </trkpt>
      <trkpt lat="-11.654531802027" lon="166.987769246">
        <ele>13.2</ele>
        <time>2026-05-06T13:46:44Z</time>
        <extensions><gpxtpx:TrackPointExtension><gpxtpx:hr>110</gpxtpx:hr></gpxtpx:TrackPointExtension></extensions>
      </trkpt>
      <trkpt lat="-11.65458938568" lon="166.98781375389">
        <ele>13.2</ele>
        <time>2026-05-06T13:46:45Z</time>
        <extensions><gpxtpx:TrackPointExtension><gpxtpx:hr>110</gpxtpx:hr></gpxtpx:TrackPointExtension></extensions>
      </trkpt>
      <trkpt lat="-11.65464302984" lon="166.98786303946">
        <ele>13.2</ele>
        <time>2026-05-06T13:46:46Z</time>
        <extensions><gpxtpx:TrackPointExtension><gpxtpx:hr>110</gpxtpx:hr></gpxtpx:TrackPointExtension></extensions>
      </trkpt>
      <trkpt lat="-11.654690722851" lon="166.98791810854">
        <ele>13.2</ele>
        <time>2026-05-06T13:46:47Z</time>
        <extensions><gpxtpx:TrackPointExtension><gpxtpx:hr>110</gpxtpx:hr></gpxtpx:TrackPointExtension></extensions>
      </trkpt>
      <trkpt lat="-11.65473103979" lon="166.98797870968">
        <ele>13.2</ele>
        <time>2026-05-06T13:46:48Z</time>
        <extensions><gpxtpx:TrackPointExtension><gpxtpx:hr>110</gpxtpx:hr></gpxtpx:TrackPointExtension></extensions>
      </trkpt>
      <trkpt lat="-11.6547637292" lon="166.98804333413">
        <ele>13.2</ele>
        <time>2026-05-06T13:46:49Z</time>
        <extensions><gpxtpx:TrackPointExtension><gpxtpx:hr>110</gpxtpx:hr></gpxtpx:TrackPointExtension></extensions>
      </trkpt>
      <trkpt lat="-11.654789461633" lon="166.98811055697">
        <ele>13.2</ele>
        <time>2026-05-06T13:46:50Z</time>
        <extensions><gpxtpx:TrackPointExtension><gpxtpx:hr>109</gpxtpx:hr></gpxtpx:TrackPointExtension></extensions>
      </trkpt>
      <trkpt lat="-11.654808907641" lon="166.98817962382">
        <ele>13.2</ele>
        <time>2026-05-06T13:46:51Z</time>
        <extensions><gpxtpx:TrackPointExtension><gpxtpx:hr>109</gpxtpx:hr></gpxtpx:TrackPointExtension></extensions>
      </trkpt>
      <trkpt lat="-11.654822570138" lon="166.98825036706">
        <ele>13.2</ele>
        <time>2026-05-06T13:46:52Z</time>
        <extensions><gpxtpx:TrackPointExtension><gpxtpx:hr>109</gpxtpx:hr></gpxtpx:TrackPointExtension></extensions>
      </trkpt>
      <trkpt lat="-11.654831790228" lon="166.98832219994">
        <ele>13.2</ele>
        <time>2026-05-06T13:46:53Z</time>
        <extensions><gpxtpx:TrackPointExtension><gpxtpx:hr>108</gpxtpx:hr></gpxtpx:TrackPointExtension></extensions>
      </trkpt>
      <trkpt lat="-11.654838244291" lon="166.98839470338">
        <ele>13.2</ele>
        <time>2026-05-06T13:46:54Z</time>
        <extensions><gpxtpx:TrackPointExtension><gpxtpx:hr>108</gpxtpx:hr></gpxtpx:TrackPointExtension></extensions>
      </trkpt>
      <trkpt lat="-11.654843943983" lon="166.98846754209">
        <ele>13.2</ele>
        <time>2026-05-06T13:46:55Z</time>
        <extensions><gpxtpx:TrackPointExtension><gpxtpx:hr>108</gpxtpx:hr></gpxtpx:TrackPointExtension></extensions>
      </trkpt>
      <trkpt lat="-11.654849476037" lon="166.98854021316">
        <ele>13.2</ele>
        <time>2026-05-06T13:46:56Z</time>
        <extensions><gpxtpx:TrackPointExtension><gpxtpx:hr>108</gpxtpx:hr></gpxtpx:TrackPointExtension></extensions>
      </trkpt>
      <trkpt lat="-11.654853080254" lon="166.98861288423">
        <ele>13.2</ele>
        <time>2026-05-06T13:46:57Z</time>
        <extensions><gpxtpx:TrackPointExtension><gpxtpx:hr>107</gpxtpx:hr></gpxtpx:TrackPointExtension></extensions>
      </trkpt>
      <trkpt lat="-11.654854169901" lon="166.98868538767">
        <ele>13.2</ele>
        <time>2026-05-06T13:46:58Z</time>
        <extensions><gpxtpx:TrackPointExtension><gpxtpx:hr>107</gpxtpx:hr></gpxtpx:TrackPointExtension></extensions>
      </trkpt>
      <trkpt lat="-11.654854169901" lon="166.98875772346">
        <ele>13.2</ele>
        <time>2026-05-06T13:46:59Z</time>
        <extensions><gpxtpx:TrackPointExtension><gpxtpx:hr>107</gpxtpx:hr></gpxtpx:TrackPointExtension></extensions>
      </trkpt>
      <trkpt lat="-11.654853331711" lon="166.98882997544">
        <ele>13.2</ele>
        <time>2026-05-06T13:47:00Z</time>
        <extensions><gpxtpx:TrackPointExtension><gpxtpx:hr>106</gpxtpx:hr></gpxtpx:TrackPointExtension></extensions>
      </trkpt>
      <trkpt lat="-11.654852074426" lon="166.98890231124">
        <ele>13.2</ele>
        <time>2026-05-06T13:47:01Z</time>
        <extensions><gpxtpx:TrackPointExtension><gpxtpx:hr>105</gpxtpx:hr></gpxtpx:TrackPointExtension></extensions>
      </trkpt>
      <trkpt lat="-11.654849476037" lon="166.9889744794">
        <ele>13.2</ele>
        <time>2026-05-06T13:47:02Z</time>
        <extensions><gpxtpx:TrackPointExtension><gpxtpx:hr>105</gpxtpx:hr></gpxtpx:TrackPointExtension></extensions>
      </trkpt>
      <trkpt lat="-11.654845536544" lon="166.98904647992">
        <ele>13.2</ele>
        <time>2026-05-06T13:47:03Z</time>
        <extensions><gpxtpx:TrackPointExtension><gpxtpx:hr>105</gpxtpx:hr></gpxtpx:TrackPointExtension></extensions>
      </trkpt>
      <trkpt lat="-11.654841345594" lon="166.98911839662">
        <ele>13.2</ele>
        <time>2026-05-06T13:47:04Z</time>
        <extensions><gpxtpx:TrackPointExtension><gpxtpx:hr>104</gpxtpx:hr></gpxtpx:TrackPointExtension></extensions>
      </trkpt>
      <trkpt lat="-11.654837238463" lon="166.98919014569">
        <ele>13.2</ele>
        <time>2026-05-06T13:47:05Z</time>
        <extensions><gpxtpx:TrackPointExtension><gpxtpx:hr>104</gpxtpx:hr></gpxtpx:TrackPointExtension></extensions>
      </trkpt>
      <trkpt lat="-11.654833131332" lon="166.98926164329">
        <ele>13.2</ele>
        <time>2026-05-06T13:47:06Z</time>
        <extensions><gpxtpx:TrackPointExtension><gpxtpx:hr>104</gpxtpx:hr></gpxtpx:TrackPointExtension></extensions>
      </trkpt>
      <trkpt lat="-11.654829024201" lon="166.98933297326">
        <ele>13.2</ele>
        <time>2026-05-06T13:47:07Z</time>
        <extensions><gpxtpx:TrackPointExtension><gpxtpx:hr>103</gpxtpx:hr></gpxtpx:TrackPointExtension></extensions>
      </trkpt>
      <trkpt lat="-11.65482491707" lon="166.98940413559">
        <ele>13.2</ele>
        <time>2026-05-06T13:47:08Z</time>
        <extensions><gpxtpx:TrackPointExtension><gpxtpx:hr>103</gpxtpx:hr></gpxtpx:TrackPointExtension></extensions>
      </trkpt>
      <trkpt lat="-11.654820809939" lon="166.98947504647">
        <ele>13.2</ele>
        <time>2026-05-06T13:47:09Z</time>
        <extensions><gpxtpx:TrackPointExtension><gpxtpx:hr>103</gpxtpx:hr></gpxtpx:TrackPointExtension></extensions>
      </trkpt>
      <trkpt lat="-11.654816618989" lon="166.9895457897">
        <ele>13.2</ele>
        <time>2026-05-06T13:47:10Z</time>
        <extensions><gpxtpx:TrackPointExtension><gpxtpx:hr>103</gpxtpx:hr></gpxtpx:TrackPointExtension></extensions>
      </trkpt>
      <trkpt lat="-11.654811254573" lon="166.9896163653">
        <ele>13.2</ele>
        <time>2026-05-06T13:47:11Z</time>
        <extensions><gpxtpx:TrackPointExtension><gpxtpx:hr>103</gpxtpx:hr></gpxtpx:TrackPointExtension></extensions>
      </trkpt>
      <trkpt lat="-11.654806141614" lon="166.98968677326">
        <ele>13.2</ele>
        <time>2026-05-06T13:47:12Z</time>
        <extensions><gpxtpx:TrackPointExtension><gpxtpx:hr>103</gpxtpx:hr></gpxtpx:TrackPointExtension></extensions>
      </trkpt>
      <trkpt lat="-11.654800274284" lon="166.98975701358">
        <ele>13.2</ele>
        <time>2026-05-06T13:47:13Z</time>
        <extensions><gpxtpx:TrackPointExtension><gpxtpx:hr>103</gpxtpx:hr></gpxtpx:TrackPointExtension></extensions>
      </trkpt>
      <trkpt lat="-11.654793401126" lon="166.98982717009">
        <ele>13.2</ele>
        <time>2026-05-06T13:47:14Z</time>
        <extensions><gpxtpx:TrackPointExtension><gpxtpx:hr>103</gpxtpx:hr></gpxtpx:TrackPointExtension></extensions>
      </trkpt>
      <trkpt lat="-11.654785605959" lon="166.98989724277">
        <ele>13.2</ele>
        <time>2026-05-06T13:47:15Z</time>
        <extensions><gpxtpx:TrackPointExtension><gpxtpx:hr>104</gpxtpx:hr></gpxtpx:TrackPointExtension></extensions>
      </trkpt>
      <trkpt lat="-11.654777726973" lon="166.98996731545">
        <ele>13.2</ele>
        <time>2026-05-06T13:47:16Z</time>
        <extensions><gpxtpx:TrackPointExtension><gpxtpx:hr>104</gpxtpx:hr></gpxtpx:TrackPointExtension></extensions>
      </trkpt>
      <trkpt lat="-11.654770686177" lon="166.99003738814">
        <ele>13.2</ele>
        <time>2026-05-06T13:47:17Z</time>
        <extensions><gpxtpx:TrackPointExtension><gpxtpx:hr>103</gpxtpx:hr></gpxtpx:TrackPointExtension></extensions>
      </trkpt>
      <trkpt lat="-11.654764064476" lon="166.99010720937">
        <ele>13.2</ele>
        <time>2026-05-06T13:47:18Z</time>
        <extensions><gpxtpx:TrackPointExtension><gpxtpx:hr>103</gpxtpx:hr></gpxtpx:TrackPointExtension></extensions>
      </trkpt>
      <trkpt lat="-11.654756017852" lon="166.99017669532">
        <ele>13.2</ele>
        <time>2026-05-06T13:47:19Z</time>
        <extensions><gpxtpx:TrackPointExtension><gpxtpx:hr>103</gpxtpx:hr></gpxtpx:TrackPointExtension></extensions>
      </trkpt>
      <trkpt lat="-11.654747133038" lon="166.99024601363">
        <ele>13.2</ele>
        <time>2026-05-06T13:47:20Z</time>
        <extensions><gpxtpx:TrackPointExtension><gpxtpx:hr>102</gpxtpx:hr></gpxtpx:TrackPointExtension></extensions>
      </trkpt>
      <trkpt lat="-11.654738164405" lon="166.99031524812">
        <ele>13.2</ele>
        <time>2026-05-06T13:47:21Z</time>
        <extensions><gpxtpx:TrackPointExtension><gpxtpx:hr>102</gpxtpx:hr></gpxtpx:TrackPointExtension></extensions>
      </trkpt>
      <trkpt lat="-11.654730033962" lon="166.99038456644">
        <ele>13.2</ele>
        <time>2026-05-06T13:47:22Z</time>
        <extensions><gpxtpx:TrackPointExtension><gpxtpx:hr>101</gpxtpx:hr></gpxtpx:TrackPointExtension></extensions>
      </trkpt>
      <trkpt lat="-11.654722574071" lon="166.9904549744">
        <ele>13.2</ele>
        <time>2026-05-06T13:47:23Z</time>
        <extensions><gpxtpx:TrackPointExtension><gpxtpx:hr>101</gpxtpx:hr></gpxtpx:TrackPointExtension></extensions>
      </trkpt>
      <trkpt lat="-11.65471679056" lon="166.99052697492">
        <ele>13.2</ele>
        <time>2026-05-06T13:47:24Z</time>
        <extensions><gpxtpx:TrackPointExtension><gpxtpx:hr>100</gpxtpx:hr></gpxtpx:TrackPointExtension></extensions>
      </trkpt>
      <trkpt lat="-11.654711090868" lon="166.99060031654">
        <ele>13.2</ele>
        <time>2026-05-06T13:47:25Z</time>
        <extensions><gpxtpx:TrackPointExtension><gpxtpx:hr>100</gpxtpx:hr></gpxtpx:TrackPointExtension></extensions>
      </trkpt>
      <trkpt lat="-11.654703714796" lon="166.99067416108">
        <ele>13.2</ele>
        <time>2026-05-06T13:47:26Z</time>
        <extensions><gpxtpx:TrackPointExtension><gpxtpx:hr>100</gpxtpx:hr></gpxtpx:TrackPointExtension></extensions>
      </trkpt>
      <trkpt lat="-11.654694075611" lon="166.99074817326">
        <ele>13.2</ele>
        <time>2026-05-06T13:47:27Z</time>
        <extensions><gpxtpx:TrackPointExtension><gpxtpx:hr>100</gpxtpx:hr></gpxtpx:TrackPointExtension></extensions>
      </trkpt>
      <trkpt lat="-11.654683598236" lon="166.99082210162">
        <ele>13.2</ele>
        <time>2026-05-06T13:47:28Z</time>
        <extensions><gpxtpx:TrackPointExtension><gpxtpx:hr>100</gpxtpx:hr></gpxtpx:TrackPointExtension></extensions>
      </trkpt>
      <trkpt lat="-11.65467320468" lon="166.99089602997">
        <ele>13.2</ele>
        <time>2026-05-06T13:47:29Z</time>
        <extensions><gpxtpx:TrackPointExtension><gpxtpx:hr>101</gpxtpx:hr></gpxtpx:TrackPointExtension></extensions>
      </trkpt>
      <trkpt lat="-11.654662727305" lon="166.99097004215">
        <ele>13.2</ele>
        <time>2026-05-06T13:47:30Z</time>
        <extensions><gpxtpx:TrackPointExtension><gpxtpx:hr>100</gpxtpx:hr></gpxtpx:TrackPointExtension></extensions>
      </trkpt>
      <trkpt lat="-11.654652333749" lon="166.99104371905">
        <ele>13.2</ele>
        <time>2026-05-06T13:47:31Z</time>
        <extensions><gpxtpx:TrackPointExtension><gpxtpx:hr>101</gpxtpx:hr></gpxtpx:TrackPointExtension></extensions>
      </trkpt>
      <trkpt lat="-11.65464135346" lon="166.99111680922">
        <ele>13.2</ele>
        <time>2026-05-06T13:47:32Z</time>
        <extensions><gpxtpx:TrackPointExtension><gpxtpx:hr>100</gpxtpx:hr></gpxtpx:TrackPointExtension></extensions>
      </trkpt>
      <trkpt lat="-11.654629786438" lon="166.99118889356">
        <ele>13.2</ele>
        <time>2026-05-06T13:47:33Z</time>
        <extensions><gpxtpx:TrackPointExtension><gpxtpx:hr>100</gpxtpx:hr></gpxtpx:TrackPointExtension></extensions>
      </trkpt>
      <trkpt lat="-11.654618219416" lon="166.99125980443">
        <ele>13.2</ele>
        <time>2026-05-06T13:47:34Z</time>
        <extensions><gpxtpx:TrackPointExtension><gpxtpx:hr>100</gpxtpx:hr></gpxtpx:TrackPointExtension></extensions>
      </trkpt>
      <trkpt lat="-11.654606820032" lon="166.99132920657">
        <ele>13.2</ele>
        <time>2026-05-06T13:47:35Z</time>
        <extensions><gpxtpx:TrackPointExtension><gpxtpx:hr>99</gpxtpx:hr></gpxtpx:TrackPointExtension></extensions>
      </trkpt>
      <trkpt lat="-11.654595504467" lon="166.99139743523">
        <ele>13.2</ele>
        <time>2026-05-06T13:47:36Z</time>
        <extensions><gpxtpx:TrackPointExtension><gpxtpx:hr>98</gpxtpx:hr></gpxtpx:TrackPointExtension></extensions>
      </trkpt>
      <trkpt lat="-11.654583769807" lon="166.99146490953">
        <ele>13.2</ele>
        <time>2026-05-06T13:47:37Z</time>
        <extensions><gpxtpx:TrackPointExtension><gpxtpx:hr>98</gpxtpx:hr></gpxtpx:TrackPointExtension></extensions>
      </trkpt>
      <trkpt lat="-11.6545709455" lon="166.99153179709">
        <ele>13.2</ele>
        <time>2026-05-06T13:47:38Z</time>
        <extensions><gpxtpx:TrackPointExtension><gpxtpx:hr>98</gpxtpx:hr></gpxtpx:TrackPointExtension></extensions>
      </trkpt>
      <trkpt lat="-11.654556612451" lon="166.99159776264">
        <ele>13.2</ele>
        <time>2026-05-06T13:47:39Z</time>
        <extensions><gpxtpx:TrackPointExtension><gpxtpx:hr>97</gpxtpx:hr></gpxtpx:TrackPointExtension></extensions>
      </trkpt>
      <trkpt lat="-11.65454077066" lon="166.99166289001">
        <ele>13.2</ele>
        <time>2026-05-06T13:47:40Z</time>
        <extensions><gpxtpx:TrackPointExtension><gpxtpx:hr>97</gpxtpx:hr></gpxtpx:TrackPointExtension></extensions>
      </trkpt>
      <trkpt lat="-11.654523671584" lon="166.99172734682">
        <ele>13.2</ele>
        <time>2026-05-06T13:47:41Z</time>
        <extensions><gpxtpx:TrackPointExtension><gpxtpx:hr>98</gpxtpx:hr></gpxtpx:TrackPointExtension></extensions>
      </trkpt>
      <trkpt lat="-11.654503638843" lon="166.99179096544">
        <ele>13.2</ele>
        <time>2026-05-06T13:47:42Z</time>
        <extensions><gpxtpx:TrackPointExtension><gpxtpx:hr>98</gpxtpx:hr></gpxtpx:TrackPointExtension></extensions>
      </trkpt>
      <trkpt lat="-11.654480253342" lon="166.99185374587">
        <ele>13.2</ele>
        <time>2026-05-06T13:47:43Z</time>
        <extensions><gpxtpx:TrackPointExtension><gpxtpx:hr>99</gpxtpx:hr></gpxtpx:TrackPointExtension></extensions>
      </trkpt>
      <trkpt lat="-11.654453095986" lon="166.99191552047">
        <ele>13.2</ele>
        <time>2026-05-06T13:47:44Z</time>
        <extensions><gpxtpx:TrackPointExtension><gpxtpx:hr>100</gpxtpx:hr></gpxtpx:TrackPointExtension></extensions>
      </trkpt>
      <trkpt lat="-11.6544200713" lon="166.99197545106">
        <ele>13.2</ele>
        <time>2026-05-06T13:47:45Z</time>
        <extensions><gpxtpx:TrackPointExtension><gpxtpx:hr>101</gpxtpx:hr></gpxtpx:TrackPointExtension></extensions>
      </trkpt>
      <trkpt lat="-11.654379670542" lon="166.99203186124">
        <ele>13.2</ele>
        <time>2026-05-06T13:47:46Z</time>
        <extensions><gpxtpx:TrackPointExtension><gpxtpx:hr>101</gpxtpx:hr></gpxtpx:TrackPointExtension></extensions>
      </trkpt>
      <trkpt lat="-11.654333486273" lon="166.99208391284">
        <ele>13.2</ele>
        <time>2026-05-06T13:47:47Z</time>
        <extensions><gpxtpx:TrackPointExtension><gpxtpx:hr>101</gpxtpx:hr></gpxtpx:TrackPointExtension></extensions>
      </trkpt>
      <trkpt lat="-11.654282021407" lon="166.99213085148">
        <ele>13.2</ele>
        <time>2026-05-06T13:47:48Z</time>
        <extensions><gpxtpx:TrackPointExtension><gpxtpx:hr>101</gpxtpx:hr></gpxtpx:TrackPointExtension></extensions>
      </trkpt>
      <trkpt lat="-11.654225108306" lon="166.99217100078">
        <ele>13.2</ele>
        <time>2026-05-06T13:47:49Z</time>
        <extensions><gpxtpx:TrackPointExtension><gpxtpx:hr>101</gpxtpx:hr></gpxtpx:TrackPointExtension></extensions>
      </trkpt>
      <trkpt lat="-11.654164842445" lon="166.99220612094">
        <ele>13.2</ele>
        <time>2026-05-06T13:47:50Z</time>
        <extensions><gpxtpx:TrackPointExtension><gpxtpx:hr>101</gpxtpx:hr></gpxtpx:TrackPointExtension></extensions>
      </trkpt>
      <trkpt lat="-11.654100972367" lon="166.99223420031">
        <ele>13.2</ele>
        <time>2026-05-06T13:47:51Z</time>
        <extensions><gpxtpx:TrackPointExtension><gpxtpx:hr>101</gpxtpx:hr></gpxtpx:TrackPointExtension></extensions>
      </trkpt>
      <trkpt lat="-11.654033749529" lon="166.99225406541">
        <ele>13.2</ele>
        <time>2026-05-06T13:47:52Z</time>
        <extensions><gpxtpx:TrackPointExtension><gpxtpx:hr>101</gpxtpx:hr></gpxtpx:TrackPointExtension></extensions>
      </trkpt>
      <trkpt lat="-11.653963593026" lon="166.99225934601">
        <ele>13.2</ele>
        <time>2026-05-06T13:47:53Z</time>
        <extensions><gpxtpx:TrackPointExtension><gpxtpx:hr>102</gpxtpx:hr></gpxtpx:TrackPointExtension></extensions>
      </trkpt>
      <trkpt lat="-11.653892933609" lon="166.99225616089">
        <ele>13.2</ele>
        <time>2026-05-06T13:47:54Z</time>
        <extensions><gpxtpx:TrackPointExtension><gpxtpx:hr>102</gpxtpx:hr></gpxtpx:TrackPointExtension></extensions>
      </trkpt>
      <trkpt lat="-11.653823028563" lon="166.99224350422">
        <ele>13.2</ele>
        <time>2026-05-06T13:47:55Z</time>
        <extensions><gpxtpx:TrackPointExtension><gpxtpx:hr>102</gpxtpx:hr></gpxtpx:TrackPointExtension></extensions>
      </trkpt>
      <trkpt lat="-11.653753458793" lon="166.99222657278">
        <ele>13.2</ele>
        <time>2026-05-06T13:47:56Z</time>
        <extensions><gpxtpx:TrackPointExtension><gpxtpx:hr>104</gpxtpx:hr></gpxtpx:TrackPointExtension></extensions>
      </trkpt>
      <trkpt lat="-11.653684811032" lon="166.99220528275">
        <ele>13.2</ele>
        <time>2026-05-06T13:47:57Z</time>
        <extensions><gpxtpx:TrackPointExtension><gpxtpx:hr>104</gpxtpx:hr></gpxtpx:TrackPointExtension></extensions>
      </trkpt>
      <trkpt lat="-11.653616666185" lon="166.99218105906">
        <ele>13.2</ele>
        <time>2026-05-06T13:47:58Z</time>
        <extensions><gpxtpx:TrackPointExtension><gpxtpx:hr>104</gpxtpx:hr></gpxtpx:TrackPointExtension></extensions>
      </trkpt>
      <trkpt lat="-11.653548688976" lon="166.99215507517">
        <ele>13.2</ele>
        <time>2026-05-06T13:47:59Z</time>
        <extensions><gpxtpx:TrackPointExtension><gpxtpx:hr>104</gpxtpx:hr></gpxtpx:TrackPointExtension></extensions>
      </trkpt>
      <trkpt lat="-11.653479286844" lon="166.99213252786">
        <ele>13.2</ele>
        <time>2026-05-06T13:48:00Z</time>
        <extensions><gpxtpx:TrackPointExtension><gpxtpx:hr>103</gpxtpx:hr></gpxtpx:TrackPointExtension></extensions>
      </trkpt>
      <trkpt lat="-11.65341005235" lon="166.99210863945">
        <ele>13.2</ele>
        <time>2026-05-06T13:48:01Z</time>
        <extensions><gpxtpx:TrackPointExtension><gpxtpx:hr>103</gpxtpx:hr></gpxtpx:TrackPointExtension></extensions>
      </trkpt>
      <trkpt lat="-11.653340901675" lon="166.9920837452">
        <ele>13.2</ele>
        <time>2026-05-06T13:48:02Z</time>
        <extensions><gpxtpx:TrackPointExtension><gpxtpx:hr>103</gpxtpx:hr></gpxtpx:TrackPointExtension></extensions>
      </trkpt>
      <trkpt lat="-11.653271331905" lon="166.99205918624">
        <ele>13.2</ele>
        <time>2026-05-06T13:48:03Z</time>
        <extensions><gpxtpx:TrackPointExtension><gpxtpx:hr>102</gpxtpx:hr></gpxtpx:TrackPointExtension></extensions>
      </trkpt>
      <trkpt lat="-11.653201007764" lon="166.99203580074">
        <ele>13.2</ele>
        <time>2026-05-06T13:48:04Z</time>
        <extensions><gpxtpx:TrackPointExtension><gpxtpx:hr>102</gpxtpx:hr></gpxtpx:TrackPointExtension></extensions>
      </trkpt>
      <trkpt lat="-11.653130264528" lon="166.99201275051">
        <ele>13.2</ele>
        <time>2026-05-06T13:48:05Z</time>
        <extensions><gpxtpx:TrackPointExtension><gpxtpx:hr>101</gpxtpx:hr></gpxtpx:TrackPointExtension></extensions>
      </trkpt>
      <trkpt lat="-11.653059605111" lon="166.991988443">
        <ele>13.2</ele>
        <time>2026-05-06T13:48:06Z</time>
        <extensions><gpxtpx:TrackPointExtension><gpxtpx:hr>100</gpxtpx:hr></gpxtpx:TrackPointExtension></extensions>
      </trkpt>
      <trkpt lat="-11.652989532427" lon="166.99196178856">
        <ele>13.2</ele>
        <time>2026-05-06T13:48:07Z</time>
        <extensions><gpxtpx:TrackPointExtension><gpxtpx:hr>100</gpxtpx:hr></gpxtpx:TrackPointExtension></extensions>
      </trkpt>
      <trkpt lat="-11.6529197112" lon="166.99193387683">
        <ele>13.2</ele>
        <time>2026-05-06T13:48:08Z</time>
        <extensions><gpxtpx:TrackPointExtension><gpxtpx:hr>99</gpxtpx:hr></gpxtpx:TrackPointExtension></extensions>
      </trkpt>
      <trkpt lat="-11.652849889973" lon="166.99190529455">
        <ele>13.2</ele>
        <time>2026-05-06T13:48:09Z</time>
        <extensions><gpxtpx:TrackPointExtension><gpxtpx:hr>98</gpxtpx:hr></gpxtpx:TrackPointExtension></extensions>
      </trkpt>
      <trkpt lat="-11.652779984927" lon="166.991876377">
        <ele>13.2</ele>
        <time>2026-05-06T13:48:10Z</time>
        <extensions><gpxtpx:TrackPointExtension><gpxtpx:hr>98</gpxtpx:hr></gpxtpx:TrackPointExtension></extensions>
      </trkpt>
      <trkpt lat="-11.652710079881" lon="166.99184720799">
        <ele>13.2</ele>
        <time>2026-05-06T13:48:11Z</time>
        <extensions><gpxtpx:TrackPointExtension><gpxtpx:hr>98</gpxtpx:hr></gpxtpx:TrackPointExtension></extensions>
      </trkpt>
      <trkpt lat="-11.652639839559" lon="166.99181803897">
        <ele>13.2</ele>
        <time>2026-05-06T13:48:12Z</time>
        <extensions><gpxtpx:TrackPointExtension><gpxtpx:hr>100</gpxtpx:hr></gpxtpx:TrackPointExtension></extensions>
      </trkpt>
      <trkpt lat="-11.652569515418" lon="166.99178870232">
        <ele>13.2</ele>
        <time>2026-05-06T13:48:13Z</time>
        <extensions><gpxtpx:TrackPointExtension><gpxtpx:hr>100</gpxtpx:hr></gpxtpx:TrackPointExtension></extensions>
      </trkpt>
      <trkpt lat="-11.652499191277" lon="166.9917590304">
        <ele>13.2</ele>
        <time>2026-05-06T13:48:14Z</time>
        <extensions><gpxtpx:TrackPointExtension><gpxtpx:hr>101</gpxtpx:hr></gpxtpx:TrackPointExtension></extensions>
      </trkpt>
      <trkpt lat="-11.652428783317" lon="166.9917290232">
        <ele>13.2</ele>
        <time>2026-05-06T13:48:15Z</time>
        <extensions><gpxtpx:TrackPointExtension><gpxtpx:hr>103</gpxtpx:hr></gpxtpx:TrackPointExtension></extensions>
      </trkpt>
      <trkpt lat="-11.652358626814" lon="166.9916985969">
        <ele>13.2</ele>
        <time>2026-05-06T13:48:16Z</time>
        <extensions><gpxtpx:TrackPointExtension><gpxtpx:hr>104</gpxtpx:hr></gpxtpx:TrackPointExtension></extensions>
      </trkpt>
      <trkpt lat="-11.652287967397" lon="166.99166884115">
        <ele>13.2</ele>
        <time>2026-05-06T13:48:17Z</time>
        <extensions><gpxtpx:TrackPointExtension><gpxtpx:hr>104</gpxtpx:hr></gpxtpx:TrackPointExtension></extensions>
      </trkpt>
      <trkpt lat="-11.652216972704" lon="166.99163933687">
        <ele>13.2</ele>
        <time>2026-05-06T13:48:18Z</time>
        <extensions><gpxtpx:TrackPointExtension><gpxtpx:hr>105</gpxtpx:hr></gpxtpx:TrackPointExtension></extensions>
      </trkpt>
      <trkpt lat="-11.652145810373" lon="166.99160983258">
        <ele>13.2</ele>
        <time>2026-05-06T13:48:19Z</time>
        <extensions><gpxtpx:TrackPointExtension><gpxtpx:hr>106</gpxtpx:hr></gpxtpx:TrackPointExtension></extensions>
      </trkpt>
      <trkpt lat="-11.652074145128" lon="166.99158108266">
        <ele>13.2</ele>
        <time>2026-05-06T13:48:20Z</time>
        <extensions><gpxtpx:TrackPointExtension><gpxtpx:hr>107</gpxtpx:hr></gpxtpx:TrackPointExtension></extensions>
      </trkpt>
      <trkpt lat="-11.652002060788" lon="166.99155400912">
        <ele>13.2</ele>
        <time>2026-05-06T13:48:21Z</time>
        <extensions><gpxtpx:TrackPointExtension><gpxtpx:hr>108</gpxtpx:hr></gpxtpx:TrackPointExtension></extensions>
      </trkpt>
      <trkpt lat="-11.651929222077" lon="166.99152869579">
        <ele>13.2</ele>
        <time>2026-05-06T13:48:22Z</time>
        <extensions><gpxtpx:TrackPointExtension><gpxtpx:hr>108</gpxtpx:hr></gpxtpx:TrackPointExtension></extensions>
      </trkpt>
      <trkpt lat="-11.651855545176" lon="166.99150522647">
        <ele>13.2</ele>
        <time>2026-05-06T13:48:23Z</time>
        <extensions><gpxtpx:TrackPointExtension><gpxtpx:hr>108</gpxtpx:hr></gpxtpx:TrackPointExtension></extensions>
      </trkpt>
      <trkpt lat="-11.651781113904" lon="166.99148460699">
        <ele>13.2</ele>
        <time>2026-05-06T13:48:24Z</time>
        <extensions><gpxtpx:TrackPointExtension><gpxtpx:hr>109</gpxtpx:hr></gpxtpx:TrackPointExtension></extensions>
      </trkpt>
      <trkpt lat="-11.65170601208" lon="166.99146792701">
        <ele>13.2</ele>
        <time>2026-05-06T13:48:25Z</time>
        <extensions><gpxtpx:TrackPointExtension><gpxtpx:hr>109</gpxtpx:hr></gpxtpx:TrackPointExtension></extensions>
      </trkpt>
      <trkpt lat="-11.651629988247" lon="166.99145703054">
        <ele>13.2</ele>
        <time>2026-05-06T13:48:26Z</time>
        <extensions><gpxtpx:TrackPointExtension><gpxtpx:hr>109</gpxtpx:hr></gpxtpx:TrackPointExtension></extensions>
      </trkpt>
      <trkpt lat="-11.651553377681" lon="166.99145342632">
        <ele>13.2</ele>
        <time>2026-05-06T13:48:27Z</time>
        <extensions><gpxtpx:TrackPointExtension><gpxtpx:hr>108</gpxtpx:hr></gpxtpx:TrackPointExtension></extensions>
      </trkpt>
      <trkpt lat="-11.651476767115" lon="166.99145820401">
        <ele>13.2</ele>
        <time>2026-05-06T13:48:28Z</time>
        <extensions><gpxtpx:TrackPointExtension><gpxtpx:hr>108</gpxtpx:hr></gpxtpx:TrackPointExtension></extensions>
      </trkpt>
      <trkpt lat="-11.651401330015" lon="166.99147270469">
        <ele>13.2</ele>
        <time>2026-05-06T13:48:29Z</time>
        <extensions><gpxtpx:TrackPointExtension><gpxtpx:hr>109</gpxtpx:hr></gpxtpx:TrackPointExtension></extensions>
      </trkpt>
      <trkpt lat="-11.651328072209" lon="166.99149609019">
        <ele>13.2</ele>
        <time>2026-05-06T13:48:30Z</time>
        <extensions><gpxtpx:TrackPointExtension><gpxtpx:hr>109</gpxtpx:hr></gpxtpx:TrackPointExtension></extensions>
      </trkpt>
      <trkpt lat="-11.651257496611" lon="166.99152668413">
        <ele>13.2</ele>
        <time>2026-05-06T13:48:31Z</time>
        <extensions><gpxtpx:TrackPointExtension><gpxtpx:hr>109</gpxtpx:hr></gpxtpx:TrackPointExtension></extensions>
      </trkpt>
      <trkpt lat="-11.651188597393" lon="166.99156113374">
        <ele>13.2</ele>
        <time>2026-05-06T13:48:32Z</time>
        <extensions><gpxtpx:TrackPointExtension><gpxtpx:hr>110</gpxtpx:hr></gpxtpx:TrackPointExtension></extensions>
      </trkpt>
      <trkpt lat="-11.651119698175" lon="166.9915958348">
        <ele>13.2</ele>
        <time>2026-05-06T13:48:33Z</time>
        <extensions><gpxtpx:TrackPointExtension><gpxtpx:hr>110</gpxtpx:hr></gpxtpx:TrackPointExtension></extensions>
      </trkpt>
      <trkpt lat="-11.651048116749" lon="166.9916245009">
        <ele>13.2</ele>
        <time>2026-05-06T13:48:34Z</time>
        <extensions><gpxtpx:TrackPointExtension><gpxtpx:hr>111</gpxtpx:hr></gpxtpx:TrackPointExtension></extensions>
      </trkpt>
      <trkpt lat="-11.650972931106" lon="166.99164185144">
        <ele>13.2</ele>
        <time>2026-05-06T13:48:35Z</time>
        <extensions><gpxtpx:TrackPointExtension><gpxtpx:hr>111</gpxtpx:hr></gpxtpx:TrackPointExtension></extensions>
      </trkpt>
      <trkpt lat="-11.650896404359" lon="166.99165040097">
        <ele>13.2</ele>
        <time>2026-05-06T13:48:36Z</time>
        <extensions><gpxtpx:TrackPointExtension><gpxtpx:hr>112</gpxtpx:hr></gpxtpx:TrackPointExtension></extensions>
      </trkpt>
      <trkpt lat="-11.650819793793" lon="166.99165375373">
        <ele>13.2</ele>
        <time>2026-05-06T13:48:37Z</time>
        <extensions><gpxtpx:TrackPointExtension><gpxtpx:hr>112</gpxtpx:hr></gpxtpx:TrackPointExtension></extensions>
      </trkpt>
      <trkpt lat="-11.650743434684" lon="166.99165400519">
        <ele>13.2</ele>
        <time>2026-05-06T13:48:38Z</time>
        <extensions><gpxtpx:TrackPointExtension><gpxtpx:hr>112</gpxtpx:hr></gpxtpx:TrackPointExtension></extensions>
      </trkpt>
      <trkpt lat="-11.650667243213" lon="166.99165274791">
        <ele>13.2</ele>
        <time>2026-05-06T13:48:39Z</time>
        <extensions><gpxtpx:TrackPointExtension><gpxtpx:hr>113</gpxtpx:hr></gpxtpx:TrackPointExtension></extensions>
      </trkpt>
      <trkpt lat="-11.65059121938" lon="166.99165123916">
        <ele>13.2</ele>
        <time>2026-05-06T13:48:40Z</time>
        <extensions><gpxtpx:TrackPointExtension><gpxtpx:hr>113</gpxtpx:hr></gpxtpx:TrackPointExtension></extensions>
      </trkpt>
      <trkpt lat="-11.650515447004" lon="166.99165090389">
        <ele>13.2</ele>
        <time>2026-05-06T13:48:41Z</time>
        <extensions><gpxtpx:TrackPointExtension><gpxtpx:hr>113</gpxtpx:hr></gpxtpx:TrackPointExtension></extensions>
      </trkpt>
      <trkpt lat="-11.650440093723" lon="166.99165710649">
        <ele>13.4</ele>
        <time>2026-05-06T13:48:42Z</time>
        <extensions><gpxtpx:TrackPointExtension><gpxtpx:hr>113</gpxtpx:hr></gpxtpx:TrackPointExtension></extensions>
      </trkpt>
      <trkpt lat="-11.650367506469" lon="166.9916765525">
        <ele>13.4</ele>
        <time>2026-05-06T13:48:43Z</time>
        <extensions><gpxtpx:TrackPointExtension><gpxtpx:hr>112</gpxtpx:hr></gpxtpx:TrackPointExtension></extensions>
      </trkpt>
      <trkpt lat="-11.650305899504" lon="166.9917188811">
        <ele>13.4</ele>
        <time>2026-05-06T13:48:44Z</time>
        <extensions><gpxtpx:TrackPointExtension><gpxtpx:hr>112</gpxtpx:hr></gpxtpx:TrackPointExtension></extensions>
      </trkpt>
      <trkpt lat="-11.650274048284" lon="166.99178643921">
        <ele>13.4</ele>
        <time>2026-05-06T13:48:45Z</time>
        <extensions><gpxtpx:TrackPointExtension><gpxtpx:hr>112</gpxtpx:hr></gpxtpx:TrackPointExtension></extensions>
      </trkpt>
      <trkpt lat="-11.650265582565" lon="166.99186187631">
        <ele>13.4</ele>
        <time>2026-05-06T13:48:46Z</time>
        <extensions><gpxtpx:TrackPointExtension><gpxtpx:hr>112</gpxtpx:hr></gpxtpx:TrackPointExtension></extensions>
      </trkpt>
      <trkpt lat="-11.650260804882" lon="166.99193781633">
        <ele>13.6</ele>
        <time>2026-05-06T13:48:47Z</time>
        <extensions><gpxtpx:TrackPointExtension><gpxtpx:hr>112</gpxtpx:hr></gpxtpx:TrackPointExtension></extensions>
      </trkpt>
      <trkpt lat="-11.65025091424" lon="166.99201333724">
        <ele>13.6</ele>
        <time>2026-05-06T13:48:48Z</time>
        <extensions><gpxtpx:TrackPointExtension><gpxtpx:hr>112</gpxtpx:hr></gpxtpx:TrackPointExtension></extensions>
      </trkpt>
      <trkpt lat="-11.650229624214" lon="166.99208667887">
        <ele>13.6</ele>
        <time>2026-05-06T13:48:49Z</time>
        <extensions><gpxtpx:TrackPointExtension><gpxtpx:hr>112</gpxtpx:hr></gpxtpx:TrackPointExtension></extensions>
      </trkpt>
      <trkpt lat="-11.65019894646" lon="166.99215700301">
        <ele>13.6</ele>
        <time>2026-05-06T13:48:50Z</time>
        <extensions><gpxtpx:TrackPointExtension><gpxtpx:hr>112</gpxtpx:hr></gpxtpx:TrackPointExtension></extensions>
      </trkpt>
      <trkpt lat="-11.650158042788" lon="166.99222229801">
        <ele>13.4</ele>
        <time>2026-05-06T13:48:51Z</time>
        <extensions><gpxtpx:TrackPointExtension><gpxtpx:hr>113</gpxtpx:hr></gpxtpx:TrackPointExtension></extensions>
      </trkpt>
      <trkpt lat="-11.65011009832" lon="166.99228298297">
        <ele>13.4</ele>
        <time>2026-05-06T13:48:52Z</time>
        <extensions><gpxtpx:TrackPointExtension><gpxtpx:hr>113</gpxtpx:hr></gpxtpx:TrackPointExtension></extensions>
      </trkpt>
      <trkpt lat="-11.650059471644" lon="166.99234165627">
        <ele>13.4</ele>
        <time>2026-05-06T13:48:53Z</time>
        <extensions><gpxtpx:TrackPointExtension><gpxtpx:hr>113</gpxtpx:hr></gpxtpx:TrackPointExtension></extensions>
      </trkpt>
      <trkpt lat="-11.650008006778" lon="166.99239974283">
        <ele>13.4</ele>
        <time>2026-05-06T13:48:54Z</time>
        <extensions><gpxtpx:TrackPointExtension><gpxtpx:hr>113</gpxtpx:hr></gpxtpx:TrackPointExtension></extensions>
      </trkpt>
      <trkpt lat="-11.64995503317" lon="166.99245690739">
        <ele>13.4</ele>
        <time>2026-05-06T13:48:55Z</time>
        <extensions><gpxtpx:TrackPointExtension><gpxtpx:hr>114</gpxtpx:hr></gpxtpx:TrackPointExtension></extensions>
      </trkpt>
      <trkpt lat="-11.649899880268" lon="166.9925129823">
        <ele>13.4</ele>
        <time>2026-05-06T13:48:56Z</time>
        <extensions><gpxtpx:TrackPointExtension><gpxtpx:hr>114</gpxtpx:hr></gpxtpx:TrackPointExtension></extensions>
      </trkpt>
      <trkpt lat="-11.649843805357" lon="166.99256821902">
        <ele>13.4</ele>
        <time>2026-05-06T13:48:57Z</time>
        <extensions><gpxtpx:TrackPointExtension><gpxtpx:hr>115</gpxtpx:hr></gpxtpx:TrackPointExtension></extensions>
      </trkpt>
      <trkpt lat="-11.649787898084" lon="166.99262379102">
        <ele>13.4</ele>
        <time>2026-05-06T13:48:58Z</time>
        <extensions><gpxtpx:TrackPointExtension><gpxtpx:hr>115</gpxtpx:hr></gpxtpx:TrackPointExtension></extensions>
      </trkpt>
      <trkpt lat="-11.64973123644" lon="166.99267944684">
        <ele>13.4</ele>
        <time>2026-05-06T13:48:59Z</time>
        <extensions><gpxtpx:TrackPointExtension><gpxtpx:hr>115</gpxtpx:hr></gpxtpx:TrackPointExtension></extensions>
      </trkpt>
      <trkpt lat="-11.649674323339" lon="166.99273560557">
        <ele>13.2</ele>
        <time>2026-05-06T13:49:00Z</time>
        <extensions><gpxtpx:TrackPointExtension><gpxtpx:hr>116</gpxtpx:hr></gpxtpx:TrackPointExtension></extensions>
      </trkpt>
      <trkpt lat="-11.649617326419" lon="166.99279235103">
        <ele>13.2</ele>
        <time>2026-05-06T13:49:01Z</time>
        <extensions><gpxtpx:TrackPointExtension><gpxtpx:hr>116</gpxtpx:hr></gpxtpx:TrackPointExtension></extensions>
      </trkpt>
      <trkpt lat="-11.649560832413" lon="166.9928504376">
        <ele>13.2</ele>
        <time>2026-05-06T13:49:02Z</time>
        <extensions><gpxtpx:TrackPointExtension><gpxtpx:hr>115</gpxtpx:hr></gpxtpx:TrackPointExtension></extensions>
      </trkpt>
      <trkpt lat="-11.649504422226" lon="166.99290944617">
        <ele>13.2</ele>
        <time>2026-05-06T13:49:03Z</time>
        <extensions><gpxtpx:TrackPointExtension><gpxtpx:hr>116</gpxtpx:hr></gpxtpx:TrackPointExtension></extensions>
      </trkpt>
      <trkpt lat="-11.649449017867" lon="166.99297013113">
        <ele>13.2</ele>
        <time>2026-05-06T13:49:04Z</time>
        <extensions><gpxtpx:TrackPointExtension><gpxtpx:hr>115</gpxtpx:hr></gpxtpx:TrackPointExtension></extensions>
      </trkpt>
      <trkpt lat="-11.649395457526" lon="166.9930330792">
        <ele>13.2</ele>
        <time>2026-05-06T13:49:05Z</time>
        <extensions><gpxtpx:TrackPointExtension><gpxtpx:hr>115</gpxtpx:hr></gpxtpx:TrackPointExtension></extensions>
      </trkpt>
      <trkpt lat="-11.649345082307" lon="166.99309879329">
        <ele>13.2</ele>
        <time>2026-05-06T13:49:06Z</time>
        <extensions><gpxtpx:TrackPointExtension><gpxtpx:hr>116</gpxtpx:hr></gpxtpx:TrackPointExtension></extensions>
      </trkpt>
      <trkpt lat="-11.649299987685" lon="166.99316786015">
        <ele>13</ele>
        <time>2026-05-06T13:49:07Z</time>
        <extensions><gpxtpx:TrackPointExtension><gpxtpx:hr>116</gpxtpx:hr></gpxtpx:TrackPointExtension></extensions>
      </trkpt>
      <trkpt lat="-11.649259167832" lon="166.99323919012">
        <ele>13</ele>
        <time>2026-05-06T13:49:08Z</time>
        <extensions><gpxtpx:TrackPointExtension><gpxtpx:hr>116</gpxtpx:hr></gpxtpx:TrackPointExtension></extensions>
      </trkpt>
      <trkpt lat="-11.649220275816" lon="166.9933114421">
        <ele>13</ele>
        <time>2026-05-06T13:49:09Z</time>
        <extensions><gpxtpx:TrackPointExtension><gpxtpx:hr>116</gpxtpx:hr></gpxtpx:TrackPointExtension></extensions>
      </trkpt>
      <trkpt lat="-11.649188843691" lon="166.9933868792">
        <ele>13</ele>
        <time>2026-05-06T13:49:10Z</time>
        <extensions><gpxtpx:TrackPointExtension><gpxtpx:hr>117</gpxtpx:hr></gpxtpx:TrackPointExtension></extensions>
      </trkpt>
      <trkpt lat="-11.649174762099" lon="166.99346692634">
        <ele>13</ele>
        <time>2026-05-06T13:49:11Z</time>
        <extensions><gpxtpx:TrackPointExtension><gpxtpx:hr>117</gpxtpx:hr></gpxtpx:TrackPointExtension></extensions>
      </trkpt>
      <trkpt lat="-11.649173337176" lon="166.99354806313">
        <ele>13</ele>
        <time>2026-05-06T13:49:12Z</time>
        <extensions><gpxtpx:TrackPointExtension><gpxtpx:hr>118</gpxtpx:hr></gpxtpx:TrackPointExtension></extensions>
      </trkpt>
      <trkpt lat="-11.649176773755" lon="166.99362844556">
        <ele>13.2</ele>
        <time>2026-05-06T13:49:13Z</time>
        <extensions><gpxtpx:TrackPointExtension><gpxtpx:hr>118</gpxtpx:hr></gpxtpx:TrackPointExtension></extensions>
      </trkpt>
      <trkpt lat="-11.649183730732" lon="166.99370782215">
        <ele>13.2</ele>
        <time>2026-05-06T13:49:14Z</time>
        <extensions><gpxtpx:TrackPointExtension><gpxtpx:hr>118</gpxtpx:hr></gpxtpx:TrackPointExtension></extensions>
      </trkpt>
      <trkpt lat="-11.649192447908" lon="166.99378669583">
        <ele>13.2</ele>
        <time>2026-05-06T13:49:15Z</time>
        <extensions><gpxtpx:TrackPointExtension><gpxtpx:hr>118</gpxtpx:hr></gpxtpx:TrackPointExtension></extensions>
      </trkpt>
      <trkpt lat="-11.64920066217" lon="166.99386548569">
        <ele>13.2</ele>
        <time>2026-05-06T13:49:16Z</time>
        <extensions><gpxtpx:TrackPointExtension><gpxtpx:hr>118</gpxtpx:hr></gpxtpx:TrackPointExtension></extensions>
      </trkpt>
      <trkpt lat="-11.649208541156" lon="166.99394427555">
        <ele>13.2</ele>
        <time>2026-05-06T13:49:17Z</time>
        <extensions><gpxtpx:TrackPointExtension><gpxtpx:hr>119</gpxtpx:hr></gpxtpx:TrackPointExtension></extensions>
      </trkpt>
      <trkpt lat="-11.649216336323" lon="166.99402306541">
        <ele>13.2</ele>
        <time>2026-05-06T13:49:18Z</time>
        <extensions><gpxtpx:TrackPointExtension><gpxtpx:hr>120</gpxtpx:hr></gpxtpx:TrackPointExtension></extensions>
      </trkpt>
      <trkpt lat="-11.649224634404" lon="166.99410151999">
        <ele>13.2</ele>
        <time>2026-05-06T13:49:19Z</time>
        <extensions><gpxtpx:TrackPointExtension><gpxtpx:hr>120</gpxtpx:hr></gpxtpx:TrackPointExtension></extensions>
      </trkpt>
      <trkpt lat="-11.649235363236" lon="166.99417938784">
        <ele>13.2</ele>
        <time>2026-05-06T13:49:20Z</time>
        <extensions><gpxtpx:TrackPointExtension><gpxtpx:hr>121</gpxtpx:hr></gpxtpx:TrackPointExtension></extensions>
      </trkpt>
      <trkpt lat="-11.649247852267" lon="166.99425700424">
        <ele>13.2</ele>
        <time>2026-05-06T13:49:21Z</time>
        <extensions><gpxtpx:TrackPointExtension><gpxtpx:hr>122</gpxtpx:hr></gpxtpx:TrackPointExtension></extensions>
      </trkpt>
      <trkpt lat="-11.649259754565" lon="166.99433445299">
        <ele>13.2</ele>
        <time>2026-05-06T13:49:22Z</time>
        <extensions><gpxtpx:TrackPointExtension><gpxtpx:hr>122</gpxtpx:hr></gpxtpx:TrackPointExtension></extensions>
      </trkpt>
      <trkpt lat="-11.649271153949" lon="166.9944112312">
        <ele>13.2</ele>
        <time>2026-05-06T13:49:23Z</time>
        <extensions><gpxtpx:TrackPointExtension><gpxtpx:hr>123</gpxtpx:hr></gpxtpx:TrackPointExtension></extensions>
      </trkpt>
      <trkpt lat="-11.649281882781" lon="166.9944875903">
        <ele>13.2</ele>
        <time>2026-05-06T13:49:24Z</time>
        <extensions><gpxtpx:TrackPointExtension><gpxtpx:hr>124</gpxtpx:hr></gpxtpx:TrackPointExtension></extensions>
      </trkpt>
      <trkpt lat="-11.649292779251" lon="166.99456327886">
        <ele>13.2</ele>
        <time>2026-05-06T13:49:25Z</time>
        <extensions><gpxtpx:TrackPointExtension><gpxtpx:hr>124</gpxtpx:hr></gpxtpx:TrackPointExtension></extensions>
      </trkpt>
      <trkpt lat="-11.649304010997" lon="166.99463838069">
        <ele>13.2</ele>
        <time>2026-05-06T13:49:26Z</time>
        <extensions><gpxtpx:TrackPointExtension><gpxtpx:hr>124</gpxtpx:hr></gpxtpx:TrackPointExtension></extensions>
      </trkpt>
      <trkpt lat="-11.6493154942" lon="166.99471306342">
        <ele>13.2</ele>
        <time>2026-05-06T13:49:27Z</time>
        <extensions><gpxtpx:TrackPointExtension><gpxtpx:hr>125</gpxtpx:hr></gpxtpx:TrackPointExtension></extensions>
      </trkpt>
      <trkpt lat="-11.649327312679" lon="166.99478741087">
        <ele>13.2</ele>
        <time>2026-05-06T13:49:28Z</time>
        <extensions><gpxtpx:TrackPointExtension><gpxtpx:hr>124</gpxtpx:hr></gpxtpx:TrackPointExtension></extensions>
      </trkpt>
      <trkpt lat="-11.649339131158" lon="166.99486175832">
        <ele>13.2</ele>
        <time>2026-05-06T13:49:29Z</time>
        <extensions><gpxtpx:TrackPointExtension><gpxtpx:hr>124</gpxtpx:hr></gpxtpx:TrackPointExtension></extensions>
      </trkpt>
      <trkpt lat="-11.649350027628" lon="166.99493618959">
        <ele>13.2</ele>
        <time>2026-05-06T13:49:30Z</time>
        <extensions><gpxtpx:TrackPointExtension><gpxtpx:hr>124</gpxtpx:hr></gpxtpx:TrackPointExtension></extensions>
      </trkpt>
      <trkpt lat="-11.649360924098" lon="166.9950107885">
        <ele>13.2</ele>
        <time>2026-05-06T13:49:31Z</time>
        <extensions><gpxtpx:TrackPointExtension><gpxtpx:hr>123</gpxtpx:hr></gpxtpx:TrackPointExtension></extensions>
      </trkpt>
      <trkpt lat="-11.649372323482" lon="166.99508547123">
        <ele>13.2</ele>
        <time>2026-05-06T13:49:32Z</time>
        <extensions><gpxtpx:TrackPointExtension><gpxtpx:hr>123</gpxtpx:hr></gpxtpx:TrackPointExtension></extensions>
      </trkpt>
      <trkpt lat="-11.649383890504" lon="166.99516023778">
        <ele>13.2</ele>
        <time>2026-05-06T13:49:33Z</time>
        <extensions><gpxtpx:TrackPointExtension><gpxtpx:hr>122</gpxtpx:hr></gpxtpx:TrackPointExtension></extensions>
      </trkpt>
      <trkpt lat="-11.649395625164" lon="166.99523500433">
        <ele>13.2</ele>
        <time>2026-05-06T13:49:34Z</time>
        <extensions><gpxtpx:TrackPointExtension><gpxtpx:hr>122</gpxtpx:hr></gpxtpx:TrackPointExtension></extensions>
      </trkpt>
      <trkpt lat="-11.649407443643" lon="166.99530993851">
        <ele>13.2</ele>
        <time>2026-05-06T13:49:35Z</time>
        <extensions><gpxtpx:TrackPointExtension><gpxtpx:hr>122</gpxtpx:hr></gpxtpx:TrackPointExtension></extensions>
      </trkpt>
      <trkpt lat="-11.649418843027" lon="166.99538495652">
        <ele>13.2</ele>
        <time>2026-05-06T13:49:36Z</time>
        <extensions><gpxtpx:TrackPointExtension><gpxtpx:hr>122</gpxtpx:hr></gpxtpx:TrackPointExtension></extensions>
      </trkpt>
      <trkpt lat="-11.64943116442" lon="166.99545980689">
        <ele>13.2</ele>
        <time>2026-05-06T13:49:37Z</time>
        <extensions><gpxtpx:TrackPointExtension><gpxtpx:hr>122</gpxtpx:hr></gpxtpx:TrackPointExtension></extensions>
      </trkpt>
      <trkpt lat="-11.649444491641" lon="166.99553457343">
        <ele>13.2</ele>
        <time>2026-05-06T13:49:38Z</time>
        <extensions><gpxtpx:TrackPointExtension><gpxtpx:hr>123</gpxtpx:hr></gpxtpx:TrackPointExtension></extensions>
      </trkpt>
      <trkpt lat="-11.649457567405" lon="166.99560950762">
        <ele>13.2</ele>
        <time>2026-05-06T13:49:39Z</time>
        <extensions><gpxtpx:TrackPointExtension><gpxtpx:hr>123</gpxtpx:hr></gpxtpx:TrackPointExtension></extensions>
      </trkpt>
      <trkpt lat="-11.649470810807" lon="166.99568477708">
        <ele>13.2</ele>
        <time>2026-05-06T13:49:40Z</time>
        <extensions><gpxtpx:TrackPointExtension><gpxtpx:hr>124</gpxtpx:hr></gpxtpx:TrackPointExtension></extensions>
      </trkpt>
      <trkpt lat="-11.649483383657" lon="166.99576054946">
        <ele>13.2</ele>
        <time>2026-05-06T13:49:41Z</time>
        <extensions><gpxtpx:TrackPointExtension><gpxtpx:hr>125</gpxtpx:hr></gpxtpx:TrackPointExtension></extensions>
      </trkpt>
      <trkpt lat="-11.649495956507" lon="166.99583657329">
        <ele>13.2</ele>
        <time>2026-05-06T13:49:42Z</time>
        <extensions><gpxtpx:TrackPointExtension><gpxtpx:hr>125</gpxtpx:hr></gpxtpx:TrackPointExtension></extensions>
      </trkpt>
      <trkpt lat="-11.649508194081" lon="166.9959129324">
        <ele>13.2</ele>
        <time>2026-05-06T13:49:43Z</time>
        <extensions><gpxtpx:TrackPointExtension><gpxtpx:hr>124</gpxtpx:hr></gpxtpx:TrackPointExtension></extensions>
      </trkpt>
      <trkpt lat="-11.649520180198" lon="166.99598929151">
        <ele>13.2</ele>
        <time>2026-05-06T13:49:44Z</time>
        <extensions><gpxtpx:TrackPointExtension><gpxtpx:hr>124</gpxtpx:hr></gpxtpx:TrackPointExtension></extensions>
      </trkpt>
      <trkpt lat="-11.649531914858" lon="166.99606565062">
        <ele>13.2</ele>
        <time>2026-05-06T13:49:45Z</time>
        <extensions><gpxtpx:TrackPointExtension><gpxtpx:hr>123</gpxtpx:hr></gpxtpx:TrackPointExtension></extensions>
      </trkpt>
      <trkpt lat="-11.649542895147" lon="166.99614217737">
        <ele>13.2</ele>
        <time>2026-05-06T13:49:46Z</time>
        <extensions><gpxtpx:TrackPointExtension><gpxtpx:hr>123</gpxtpx:hr></gpxtpx:TrackPointExtension></extensions>
      </trkpt>
      <trkpt lat="-11.649554210712" lon="166.99621845266">
        <ele>13.2</ele>
        <time>2026-05-06T13:49:47Z</time>
        <extensions><gpxtpx:TrackPointExtension><gpxtpx:hr>122</gpxtpx:hr></gpxtpx:TrackPointExtension></extensions>
      </trkpt>
      <trkpt lat="-11.649565526277" lon="166.99629439267">
        <ele>13.2</ele>
        <time>2026-05-06T13:49:48Z</time>
        <extensions><gpxtpx:TrackPointExtension><gpxtpx:hr>121</gpxtpx:hr></gpxtpx:TrackPointExtension></extensions>
      </trkpt>
      <trkpt lat="-11.649575584557" lon="166.99637033268">
        <ele>13.2</ele>
        <time>2026-05-06T13:49:49Z</time>
        <extensions><gpxtpx:TrackPointExtension><gpxtpx:hr>121</gpxtpx:hr></gpxtpx:TrackPointExtension></extensions>
      </trkpt>
      <trkpt lat="-11.649584888466" lon="166.99644618888">
        <ele>13.2</ele>
        <time>2026-05-06T13:49:50Z</time>
        <extensions><gpxtpx:TrackPointExtension><gpxtpx:hr>120</gpxtpx:hr></gpxtpx:TrackPointExtension></extensions>
      </trkpt>
      <trkpt lat="-11.64959377328" lon="166.99652196125">
        <ele>13.2</ele>
        <time>2026-05-06T13:49:51Z</time>
        <extensions><gpxtpx:TrackPointExtension><gpxtpx:hr>119</gpxtpx:hr></gpxtpx:TrackPointExtension></extensions>
      </trkpt>
      <trkpt lat="-11.64960215518" lon="166.99659781745">
        <ele>13.2</ele>
        <time>2026-05-06T13:49:52Z</time>
        <extensions><gpxtpx:TrackPointExtension><gpxtpx:hr>119</gpxtpx:hr></gpxtpx:TrackPointExtension></extensions>
      </trkpt>
      <trkpt lat="-11.649609782709" lon="166.9966739251">
        <ele>13.2</ele>
        <time>2026-05-06T13:49:53Z</time>
        <extensions><gpxtpx:TrackPointExtension><gpxtpx:hr>119</gpxtpx:hr></gpxtpx:TrackPointExtension></extensions>
      </trkpt>
      <trkpt lat="-11.649616152953" lon="166.99675028421">
        <ele>13.2</ele>
        <time>2026-05-06T13:49:54Z</time>
        <extensions><gpxtpx:TrackPointExtension><gpxtpx:hr>119</gpxtpx:hr></gpxtpx:TrackPointExtension></extensions>
      </trkpt>
      <trkpt lat="-11.649621098274" lon="166.99682689478">
        <ele>13.2</ele>
        <time>2026-05-06T13:49:55Z</time>
        <extensions><gpxtpx:TrackPointExtension><gpxtpx:hr>118</gpxtpx:hr></gpxtpx:TrackPointExtension></extensions>
      </trkpt>
      <trkpt lat="-11.649624702491" lon="166.99690367298">
        <ele>13.2</ele>
        <time>2026-05-06T13:49:56Z</time>
        <extensions><gpxtpx:TrackPointExtension><gpxtpx:hr>117</gpxtpx:hr></gpxtpx:TrackPointExtension></extensions>
      </trkpt>
      <trkpt lat="-11.64962730088" lon="166.99698070264">
        <ele>13.2</ele>
        <time>2026-05-06T13:49:57Z</time>
        <extensions><gpxtpx:TrackPointExtension><gpxtpx:hr>117</gpxtpx:hr></gpxtpx:TrackPointExtension></extensions>
      </trkpt>
      <trkpt lat="-11.649628725803" lon="166.9970577323">
        <ele>13.2</ele>
        <time>2026-05-06T13:49:58Z</time>
        <extensions><gpxtpx:TrackPointExtension><gpxtpx:hr>117</gpxtpx:hr></gpxtpx:TrackPointExtension></extensions>
      </trkpt>
      <trkpt lat="-11.649628641984" lon="166.99713476196">
        <ele>13.2</ele>
        <time>2026-05-06T13:49:59Z</time>
        <extensions><gpxtpx:TrackPointExtension><gpxtpx:hr>116</gpxtpx:hr></gpxtpx:TrackPointExtension></extensions>
      </trkpt>
      <trkpt lat="-11.649627636156" lon="166.99721128871">
        <ele>13.2</ele>
        <time>2026-05-06T13:50:00Z</time>
        <extensions><gpxtpx:TrackPointExtension><gpxtpx:hr>116</gpxtpx:hr></gpxtpx:TrackPointExtension></extensions>
      </trkpt>
      <trkpt lat="-11.649625959776" lon="166.99728731254">
        <ele>13.2</ele>
        <time>2026-05-06T13:50:01Z</time>
        <extensions><gpxtpx:TrackPointExtension><gpxtpx:hr>116</gpxtpx:hr></gpxtpx:TrackPointExtension></extensions>
      </trkpt>
      <trkpt lat="-11.649624199577" lon="166.9973634202">
        <ele>13.2</ele>
        <time>2026-05-06T13:50:02Z</time>
        <extensions><gpxtpx:TrackPointExtension><gpxtpx:hr>115</gpxtpx:hr></gpxtpx:TrackPointExtension></extensions>
      </trkpt>
      <trkpt lat="-11.64962227174" lon="166.99743944403">
        <ele>13.2</ele>
        <time>2026-05-06T13:50:03Z</time>
        <extensions><gpxtpx:TrackPointExtension><gpxtpx:hr>115</gpxtpx:hr></gpxtpx:TrackPointExtension></extensions>
      </trkpt>
      <trkpt lat="-11.649620176265" lon="166.99751571932">
        <ele>13.2</ele>
        <time>2026-05-06T13:50:04Z</time>
        <extensions><gpxtpx:TrackPointExtension><gpxtpx:hr>115</gpxtpx:hr></gpxtpx:TrackPointExtension></extensions>
      </trkpt>
      <trkpt lat="-11.649617074962" lon="166.99759216225">
        <ele>13.2</ele>
        <time>2026-05-06T13:50:05Z</time>
        <extensions><gpxtpx:TrackPointExtension><gpxtpx:hr>115</gpxtpx:hr></gpxtpx:TrackPointExtension></extensions>
      </trkpt>
      <trkpt lat="-11.649613806021" lon="166.99766885663">
        <ele>13.2</ele>
        <time>2026-05-06T13:50:06Z</time>
        <extensions><gpxtpx:TrackPointExtension><gpxtpx:hr>116</gpxtpx:hr></gpxtpx:TrackPointExtension></extensions>
      </trkpt>
      <trkpt lat="-11.649610285623" lon="166.99774580247">
        <ele>13.2</ele>
        <time>2026-05-06T13:50:07Z</time>
        <extensions><gpxtpx:TrackPointExtension><gpxtpx:hr>116</gpxtpx:hr></gpxtpx:TrackPointExtension></extensions>
      </trkpt>
      <trkpt lat="-11.649606681406" lon="166.99782291595">
        <ele>13</ele>
        <time>2026-05-06T13:50:08Z</time>
        <extensions><gpxtpx:TrackPointExtension><gpxtpx:hr>116</gpxtpx:hr></gpxtpx:TrackPointExtension></extensions>
      </trkpt>
      <trkpt lat="-11.649603496284" lon="166.99790002943">
        <ele>13</ele>
        <time>2026-05-06T13:50:09Z</time>
        <extensions><gpxtpx:TrackPointExtension><gpxtpx:hr>117</gpxtpx:hr></gpxtpx:TrackPointExtension></extensions>
      </trkpt>
      <trkpt lat="-11.649599892067" lon="166.99797731055">
        <ele>13</ele>
        <time>2026-05-06T13:50:10Z</time>
        <extensions><gpxtpx:TrackPointExtension><gpxtpx:hr>117</gpxtpx:hr></gpxtpx:TrackPointExtension></extensions>
      </trkpt>
      <trkpt lat="-11.649595868755" lon="166.99805475931">
        <ele>13</ele>
        <time>2026-05-06T13:50:11Z</time>
        <extensions><gpxtpx:TrackPointExtension><gpxtpx:hr>117</gpxtpx:hr></gpxtpx:TrackPointExtension></extensions>
      </trkpt>
      <trkpt lat="-11.649592767452" lon="166.99813245952">
        <ele>13</ele>
        <time>2026-05-06T13:50:12Z</time>
        <extensions><gpxtpx:TrackPointExtension><gpxtpx:hr>117</gpxtpx:hr></gpxtpx:TrackPointExtension></extensions>
      </trkpt>
      <trkpt lat="-11.649590839615" lon="166.99821024355">
        <ele>13</ele>
        <time>2026-05-06T13:50:13Z</time>
        <extensions><gpxtpx:TrackPointExtension><gpxtpx:hr>118</gpxtpx:hr></gpxtpx:TrackPointExtension></extensions>
      </trkpt>
      <trkpt lat="-11.649591007253" lon="166.9982881114">
        <ele>13</ele>
        <time>2026-05-06T13:50:14Z</time>
        <extensions><gpxtpx:TrackPointExtension><gpxtpx:hr>117</gpxtpx:hr></gpxtpx:TrackPointExtension></extensions>
      </trkpt>
      <trkpt lat="-11.649591845443" lon="166.99836597925">
        <ele>13</ele>
        <time>2026-05-06T13:50:15Z</time>
        <extensions><gpxtpx:TrackPointExtension><gpxtpx:hr>118</gpxtpx:hr></gpxtpx:TrackPointExtension></extensions>
      </trkpt>
      <trkpt lat="-11.649595198203" lon="166.99844367947">
        <ele>13.2</ele>
        <time>2026-05-06T13:50:16Z</time>
        <extensions><gpxtpx:TrackPointExtension><gpxtpx:hr>118</gpxtpx:hr></gpxtpx:TrackPointExtension></extensions>
      </trkpt>
      <trkpt lat="-11.649601484628" lon="166.9985210444">
        <ele>13.2</ele>
        <time>2026-05-06T13:50:17Z</time>
        <extensions><gpxtpx:TrackPointExtension><gpxtpx:hr>118</gpxtpx:hr></gpxtpx:TrackPointExtension></extensions>
      </trkpt>
      <trkpt lat="-11.649610788537" lon="166.99859773879">
        <ele>13.2</ele>
        <time>2026-05-06T13:50:18Z</time>
        <extensions><gpxtpx:TrackPointExtension><gpxtpx:hr>117</gpxtpx:hr></gpxtpx:TrackPointExtension></extensions>
      </trkpt>
      <trkpt lat="-11.649624618672" lon="166.99867342735">
        <ele>13.2</ele>
        <time>2026-05-06T13:50:19Z</time>
        <extensions><gpxtpx:TrackPointExtension><gpxtpx:hr>118</gpxtpx:hr></gpxtpx:TrackPointExtension></extensions>
      </trkpt>
      <trkpt lat="-11.649643645585" lon="166.99874752334">
        <ele>13.2</ele>
        <time>2026-05-06T13:50:20Z</time>
        <extensions><gpxtpx:TrackPointExtension><gpxtpx:hr>118</gpxtpx:hr></gpxtpx:TrackPointExtension></extensions>
      </trkpt>
      <trkpt lat="-11.649671976407" lon="166.99881818276">
        <ele>13.2</ele>
        <time>2026-05-06T13:50:21Z</time>
        <extensions><gpxtpx:TrackPointExtension><gpxtpx:hr>118</gpxtpx:hr></gpxtpx:TrackPointExtension></extensions>
      </trkpt>
      <trkpt lat="-11.64971028169" lon="166.99888356158">
        <ele>13.2</ele>
        <time>2026-05-06T13:50:22Z</time>
        <extensions><gpxtpx:TrackPointExtension><gpxtpx:hr>118</gpxtpx:hr></gpxtpx:TrackPointExtension></extensions>
      </trkpt>
      <trkpt lat="-11.649757723244" lon="166.99894240252">
        <ele>13.2</ele>
        <time>2026-05-06T13:50:23Z</time>
        <extensions><gpxtpx:TrackPointExtension><gpxtpx:hr>119</gpxtpx:hr></gpxtpx:TrackPointExtension></extensions>
      </trkpt>
      <trkpt lat="-11.649813211422" lon="166.99899344829">
        <ele>13.2</ele>
        <time>2026-05-06T13:50:24Z</time>
        <extensions><gpxtpx:TrackPointExtension><gpxtpx:hr>119</gpxtpx:hr></gpxtpx:TrackPointExtension></extensions>
      </trkpt>
      <trkpt lat="-11.649874399292" lon="166.99903678271">
        <ele>13.2</ele>
        <time>2026-05-06T13:50:25Z</time>
        <extensions><gpxtpx:TrackPointExtension><gpxtpx:hr>120</gpxtpx:hr></gpxtpx:TrackPointExtension></extensions>
      </trkpt>
      <trkpt lat="-11.649939778112" lon="166.99907299252">
        <ele>13.4</ele>
        <time>2026-05-06T13:50:26Z</time>
        <extensions><gpxtpx:TrackPointExtension><gpxtpx:hr>119</gpxtpx:hr></gpxtpx:TrackPointExtension></extensions>
      </trkpt>
      <trkpt lat="-11.650007336226" lon="166.99910417319">
        <ele>13.4</ele>
        <time>2026-05-06T13:50:27Z</time>
        <extensions><gpxtpx:TrackPointExtension><gpxtpx:hr>119</gpxtpx:hr></gpxtpx:TrackPointExtension></extensions>
      </trkpt>
      <trkpt lat="-11.650075983987" lon="166.999131582">
        <ele>13.4</ele>
        <time>2026-05-06T13:50:28Z</time>
        <extensions><gpxtpx:TrackPointExtension><gpxtpx:hr>119</gpxtpx:hr></gpxtpx:TrackPointExtension></extensions>
      </trkpt>
      <trkpt lat="-11.650144547929" lon="166.99915614097">
        <ele>13.4</ele>
        <time>2026-05-06T13:50:29Z</time>
        <extensions><gpxtpx:TrackPointExtension><gpxtpx:hr>118</gpxtpx:hr></gpxtpx:TrackPointExtension></extensions>
      </trkpt>
      <trkpt lat="-11.650212022224" lon="166.99917860446">
        <ele>13.4</ele>
        <time>2026-05-06T13:50:30Z</time>
        <extensions><gpxtpx:TrackPointExtension><gpxtpx:hr>117</gpxtpx:hr></gpxtpx:TrackPointExtension></extensions>
      </trkpt>
      <trkpt lat="-11.650278658329" lon="166.99919947539">
        <ele>13.6</ele>
        <time>2026-05-06T13:50:31Z</time>
        <extensions><gpxtpx:TrackPointExtension><gpxtpx:hr>116</gpxtpx:hr></gpxtpx:TrackPointExtension></extensions>
      </trkpt>
      <trkpt lat="-11.650344288606" lon="166.99922311235">
        <ele>13.6</ele>
        <time>2026-05-06T13:50:32Z</time>
        <extensions><gpxtpx:TrackPointExtension><gpxtpx:hr>114</gpxtpx:hr></gpxtpx:TrackPointExtension></extensions>
      </trkpt>
      <trkpt lat="-11.650406314666" lon="166.99925487975">
        <ele>13.6</ele>
        <time>2026-05-06T13:50:33Z</time>
        <extensions><gpxtpx:TrackPointExtension><gpxtpx:hr>114</gpxtpx:hr></gpxtpx:TrackPointExtension></extensions>
      </trkpt>
      <trkpt lat="-11.650459958826" lon="166.99929963909">
        <ele>13.6</ele>
        <time>2026-05-06T13:50:34Z</time>
        <extensions><gpxtpx:TrackPointExtension><gpxtpx:hr>113</gpxtpx:hr></gpxtpx:TrackPointExtension></extensions>
      </trkpt>
      <trkpt lat="-11.650501197774" lon="166.9993565522">
        <ele>13.6</ele>
        <time>2026-05-06T13:50:35Z</time>
        <extensions><gpxtpx:TrackPointExtension><gpxtpx:hr>111</gpxtpx:hr></gpxtpx:TrackPointExtension></extensions>
      </trkpt>
      <trkpt lat="-11.650536150297" lon="166.99941782389">
        <ele>13.6</ele>
        <time>2026-05-06T13:50:36Z</time>
        <extensions><gpxtpx:TrackPointExtension><gpxtpx:hr>110</gpxtpx:hr></gpxtpx:TrackPointExtension></extensions>
      </trkpt>
      <trkpt lat="-11.650561128359" lon="166.99948387326">
        <ele>13.6</ele>
        <time>2026-05-06T13:50:37Z</time>
        <extensions><gpxtpx:TrackPointExtension><gpxtpx:hr>110</gpxtpx:hr></gpxtpx:TrackPointExtension></extensions>
      </trkpt>
      <trkpt lat="-11.650576551055" lon="166.99955285629">
        <ele>13.6</ele>
        <time>2026-05-06T13:50:38Z</time>
        <extensions><gpxtpx:TrackPointExtension><gpxtpx:hr>110</gpxtpx:hr></gpxtpx:TrackPointExtension></extensions>
      </trkpt>
      <trkpt lat="-11.650582083109" lon="166.99962351571">
        <ele>13.6</ele>
        <time>2026-05-06T13:50:39Z</time>
        <extensions><gpxtpx:TrackPointExtension><gpxtpx:hr>112</gpxtpx:hr></gpxtpx:TrackPointExtension></extensions>
      </trkpt>
      <trkpt lat="-11.650577473064" lon="166.99969425895">
        <ele>13.6</ele>
        <time>2026-05-06T13:50:40Z</time>
        <extensions><gpxtpx:TrackPointExtension><gpxtpx:hr>112</gpxtpx:hr></gpxtpx:TrackPointExtension></extensions>
      </trkpt>
      <trkpt lat="-11.650563140015" lon="166.99976299053">
        <ele>13.6</ele>
        <time>2026-05-06T13:50:41Z</time>
        <extensions><gpxtpx:TrackPointExtension><gpxtpx:hr>114</gpxtpx:hr></gpxtpx:TrackPointExtension></extensions>
      </trkpt>
      <trkpt lat="-11.650540173609" lon="166.99982937518">
        <ele>13.6</ele>
        <time>2026-05-06T13:50:42Z</time>
        <extensions><gpxtpx:TrackPointExtension><gpxtpx:hr>117</gpxtpx:hr></gpxtpx:TrackPointExtension></extensions>
      </trkpt>
      <trkpt lat="-11.650509244398" lon="166.99989282616">
        <ele>13.6</ele>
        <time>2026-05-06T13:50:43Z</time>
        <extensions><gpxtpx:TrackPointExtension><gpxtpx:hr>118</gpxtpx:hr></gpxtpx:TrackPointExtension></extensions>
      </trkpt>
      <trkpt lat="-11.650468676002" lon="166.99995074509">
        <ele>13.6</ele>
        <time>2026-05-06T13:50:44Z</time>
        <extensions><gpxtpx:TrackPointExtension><gpxtpx:hr>119</gpxtpx:hr></gpxtpx:TrackPointExtension></extensions>
      </trkpt>
      <trkpt lat="-11.650417211136" lon="166.99999919247">
        <ele>13.6</ele>
        <time>2026-05-06T13:50:45Z</time>
        <extensions><gpxtpx:TrackPointExtension><gpxtpx:hr>118</gpxtpx:hr></gpxtpx:TrackPointExtension></extensions>
      </trkpt>
      <trkpt lat="-11.650359208388" lon="167.00004001232">
        <ele>13.6</ele>
        <time>2026-05-06T13:50:46Z</time>
        <extensions><gpxtpx:TrackPointExtension><gpxtpx:hr>118</gpxtpx:hr></gpxtpx:TrackPointExtension></extensions>
      </trkpt>
      <trkpt lat="-11.650297936699" lon="167.00007638977">
        <ele>13.6</ele>
        <time>2026-05-06T13:50:47Z</time>
        <extensions><gpxtpx:TrackPointExtension><gpxtpx:hr>118</gpxtpx:hr></gpxtpx:TrackPointExtension></extensions>
      </trkpt>
      <trkpt lat="-11.650234737173" lon="167.00010966591">
        <ele>13.6</ele>
        <time>2026-05-06T13:50:48Z</time>
        <extensions><gpxtpx:TrackPointExtension><gpxtpx:hr>119</gpxtpx:hr></gpxtpx:TrackPointExtension></extensions>
      </trkpt>
      <trkpt lat="-11.650170531819" lon="167.00014151713">
        <ele>13.6</ele>
        <time>2026-05-06T13:50:49Z</time>
        <extensions><gpxtpx:TrackPointExtension><gpxtpx:hr>119</gpxtpx:hr></gpxtpx:TrackPointExtension></extensions>
      </trkpt>
      <trkpt lat="-11.650105739732" lon="167.00017286544">
        <ele>13.6</ele>
        <time>2026-05-06T13:50:50Z</time>
        <extensions><gpxtpx:TrackPointExtension><gpxtpx:hr>120</gpxtpx:hr></gpxtpx:TrackPointExtension></extensions>
      </trkpt>
      <trkpt lat="-11.650040780007" lon="167.00020404611">
        <ele>13.6</ele>
        <time>2026-05-06T13:50:51Z</time>
        <extensions><gpxtpx:TrackPointExtension><gpxtpx:hr>119</gpxtpx:hr></gpxtpx:TrackPointExtension></extensions>
      </trkpt>
      <trkpt lat="-11.649975904101" lon="167.0002362326">
        <ele>13.6</ele>
        <time>2026-05-06T13:50:52Z</time>
        <extensions><gpxtpx:TrackPointExtension><gpxtpx:hr>119</gpxtpx:hr></gpxtpx:TrackPointExtension></extensions>
      </trkpt>
      <trkpt lat="-11.649912872213" lon="167.00027261005">
        <ele>13.8</ele>
        <time>2026-05-06T13:50:53Z</time>
        <extensions><gpxtpx:TrackPointExtension><gpxtpx:hr>119</gpxtpx:hr></gpxtpx:TrackPointExtension></extensions>
      </trkpt>
      <trkpt lat="-11.649853444542" lon="167.00031527392">
        <ele>13.8</ele>
        <time>2026-05-06T13:50:54Z</time>
        <extensions><gpxtpx:TrackPointExtension><gpxtpx:hr>119</gpxtpx:hr></gpxtpx:TrackPointExtension></extensions>
      </trkpt>
      <trkpt lat="-11.649800303296" lon="167.00036606823">
        <ele>13.8</ele>
        <time>2026-05-06T13:50:55Z</time>
        <extensions><gpxtpx:TrackPointExtension><gpxtpx:hr>119</gpxtpx:hr></gpxtpx:TrackPointExtension></extensions>
      </trkpt>
      <trkpt lat="-11.649758980529" lon="167.00042733992">
        <ele>13.8</ele>
        <time>2026-05-06T13:50:56Z</time>
        <extensions><gpxtpx:TrackPointExtension><gpxtpx:hr>119</gpxtpx:hr></gpxtpx:TrackPointExtension></extensions>
      </trkpt>
      <trkpt lat="-11.649733248096" lon="167.00049732879">
        <ele>13.8</ele>
        <time>2026-05-06T13:50:57Z</time>
        <extensions><gpxtpx:TrackPointExtension><gpxtpx:hr>119</gpxtpx:hr></gpxtpx:TrackPointExtension></extensions>
      </trkpt>
      <trkpt lat="-11.649720423789" lon="167.00057125714">
        <ele>13.8</ele>
        <time>2026-05-06T13:50:58Z</time>
        <extensions><gpxtpx:TrackPointExtension><gpxtpx:hr>119</gpxtpx:hr></gpxtpx:TrackPointExtension></extensions>
      </trkpt>
      <trkpt lat="-11.649718412133" lon="167.00064635897">
        <ele>13.8</ele>
        <time>2026-05-06T13:50:59Z</time>
        <extensions><gpxtpx:TrackPointExtension><gpxtpx:hr>118</gpxtpx:hr></gpxtpx:TrackPointExtension></extensions>
      </trkpt>
      <trkpt lat="-11.649720759065" lon="167.00072171225">
        <ele>13.8</ele>
        <time>2026-05-06T13:51:00Z</time>
        <extensions><gpxtpx:TrackPointExtension><gpxtpx:hr>118</gpxtpx:hr></gpxtpx:TrackPointExtension></extensions>
      </trkpt>
      <trkpt lat="-11.649725788205" lon="167.00079714935">
        <ele>13.8</ele>
        <time>2026-05-06T13:51:01Z</time>
        <extensions><gpxtpx:TrackPointExtension><gpxtpx:hr>119</gpxtpx:hr></gpxtpx:TrackPointExtension></extensions>
      </trkpt>
      <trkpt lat="-11.649734505381" lon="167.00087275409">
        <ele>13.8</ele>
        <time>2026-05-06T13:51:02Z</time>
        <extensions><gpxtpx:TrackPointExtension><gpxtpx:hr>119</gpxtpx:hr></gpxtpx:TrackPointExtension></extensions>
      </trkpt>
      <trkpt lat="-11.649747078231" lon="167.00094819119">
        <ele>13.8</ele>
        <time>2026-05-06T13:51:03Z</time>
        <extensions><gpxtpx:TrackPointExtension><gpxtpx:hr>119</gpxtpx:hr></gpxtpx:TrackPointExtension></extensions>
      </trkpt>
      <trkpt lat="-11.649760656909" lon="167.00102354447">
        <ele>13.8</ele>
        <time>2026-05-06T13:51:04Z</time>
        <extensions><gpxtpx:TrackPointExtension><gpxtpx:hr>120</gpxtpx:hr></gpxtpx:TrackPointExtension></extensions>
      </trkpt>
      <trkpt lat="-11.64977314594" lon="167.00109898157">
        <ele>13.8</ele>
        <time>2026-05-06T13:51:05Z</time>
        <extensions><gpxtpx:TrackPointExtension><gpxtpx:hr>121</gpxtpx:hr></gpxtpx:TrackPointExtension></extensions>
      </trkpt>
      <trkpt lat="-11.649780354374" lon="167.00117508922">
        <ele>13.8</ele>
        <time>2026-05-06T13:51:06Z</time>
        <extensions><gpxtpx:TrackPointExtension><gpxtpx:hr>122</gpxtpx:hr></gpxtpx:TrackPointExtension></extensions>
      </trkpt>
      <trkpt lat="-11.649780522012" lon="167.00125153215">
        <ele>13.8</ele>
        <time>2026-05-06T13:51:07Z</time>
        <extensions><gpxtpx:TrackPointExtension><gpxtpx:hr>122</gpxtpx:hr></gpxtpx:TrackPointExtension></extensions>
      </trkpt>
      <trkpt lat="-11.649770966646" lon="167.00132747216">
        <ele>13.8</ele>
        <time>2026-05-06T13:51:08Z</time>
        <extensions><gpxtpx:TrackPointExtension><gpxtpx:hr>122</gpxtpx:hr></gpxtpx:TrackPointExtension></extensions>
      </trkpt>
      <trkpt lat="-11.649751772095" lon="167.00140165198">
        <ele>13.8</ele>
        <time>2026-05-06T13:51:09Z</time>
        <extensions><gpxtpx:TrackPointExtension><gpxtpx:hr>122</gpxtpx:hr></gpxtpx:TrackPointExtension></extensions>
      </trkpt>
      <trkpt lat="-11.649726039662" lon="167.00147356868">
        <ele>13.8</ele>
        <time>2026-05-06T13:51:10Z</time>
        <extensions><gpxtpx:TrackPointExtension><gpxtpx:hr>122</gpxtpx:hr></gpxtpx:TrackPointExtension></extensions>
      </trkpt>
      <trkpt lat="-11.649692847338" lon="167.00154213262">
        <ele>13.8</ele>
        <time>2026-05-06T13:51:11Z</time>
        <extensions><gpxtpx:TrackPointExtension><gpxtpx:hr>121</gpxtpx:hr></gpxtpx:TrackPointExtension></extensions>
      </trkpt>
      <trkpt lat="-11.649651859847" lon="167.00160633798">
        <ele>13.6</ele>
        <time>2026-05-06T13:51:12Z</time>
        <extensions><gpxtpx:TrackPointExtension><gpxtpx:hr>121</gpxtpx:hr></gpxtpx:TrackPointExtension></extensions>
      </trkpt>
      <trkpt lat="-11.649603496284" lon="167.00166517891">
        <ele>13.6</ele>
        <time>2026-05-06T13:51:13Z</time>
        <extensions><gpxtpx:TrackPointExtension><gpxtpx:hr>121</gpxtpx:hr></gpxtpx:TrackPointExtension></extensions>
      </trkpt>
      <trkpt lat="-11.649548930115" lon="167.00171790106">
        <ele>13.6</ele>
        <time>2026-05-06T13:51:14Z</time>
        <extensions><gpxtpx:TrackPointExtension><gpxtpx:hr>120</gpxtpx:hr></gpxtpx:TrackPointExtension></extensions>
      </trkpt>
      <trkpt lat="-11.649489921539" lon="167.00176542644">
        <ele>13.8</ele>
        <time>2026-05-06T13:51:15Z</time>
        <extensions><gpxtpx:TrackPointExtension><gpxtpx:hr>120</gpxtpx:hr></gpxtpx:TrackPointExtension></extensions>
      </trkpt>
      <trkpt lat="-11.649428146936" lon="167.00180876086">
        <ele>13.8</ele>
        <time>2026-05-06T13:51:16Z</time>
        <extensions><gpxtpx:TrackPointExtension><gpxtpx:hr>119</gpxtpx:hr></gpxtpx:TrackPointExtension></extensions>
      </trkpt>
      <trkpt lat="-11.64936410922" lon="167.00184849107">
        <ele>13.8</ele>
        <time>2026-05-06T13:51:17Z</time>
        <extensions><gpxtpx:TrackPointExtension><gpxtpx:hr>119</gpxtpx:hr></gpxtpx:TrackPointExtension></extensions>
      </trkpt>
      <trkpt lat="-11.649298311305" lon="167.00188520379">
        <ele>13.8</ele>
        <time>2026-05-06T13:51:18Z</time>
        <extensions><gpxtpx:TrackPointExtension><gpxtpx:hr>119</gpxtpx:hr></gpxtpx:TrackPointExtension></extensions>
      </trkpt>
      <trkpt lat="-11.649231172286" lon="167.00191931812">
        <ele>13.8</ele>
        <time>2026-05-06T13:51:19Z</time>
        <extensions><gpxtpx:TrackPointExtension><gpxtpx:hr>120</gpxtpx:hr></gpxtpx:TrackPointExtension></extensions>
      </trkpt>
      <trkpt lat="-11.649162608344" lon="167.00194982824">
        <ele>14</ele>
        <time>2026-05-06T13:51:20Z</time>
        <extensions><gpxtpx:TrackPointExtension><gpxtpx:hr>120</gpxtpx:hr></gpxtpx:TrackPointExtension></extensions>
      </trkpt>
      <trkpt lat="-11.649092200384" lon="167.00197564449">
        <ele>14</ele>
        <time>2026-05-06T13:51:21Z</time>
        <extensions><gpxtpx:TrackPointExtension><gpxtpx:hr>120</gpxtpx:hr></gpxtpx:TrackPointExtension></extensions>
      </trkpt>
      <trkpt lat="-11.649020032225" lon="167.00199550959">
        <ele>14</ele>
        <time>2026-05-06T13:51:22Z</time>
        <extensions><gpxtpx:TrackPointExtension><gpxtpx:hr>120</gpxtpx:hr></gpxtpx:TrackPointExtension></extensions>
      </trkpt>
      <trkpt lat="-11.648946187686" lon="167.00200716043">
        <ele>14</ele>
        <time>2026-05-06T13:51:23Z</time>
        <extensions><gpxtpx:TrackPointExtension><gpxtpx:hr>120</gpxtpx:hr></gpxtpx:TrackPointExtension></extensions>
      </trkpt>
      <trkpt lat="-11.648871504957" lon="167.00200556787">
        <ele>14</ele>
        <time>2026-05-06T13:51:24Z</time>
        <extensions><gpxtpx:TrackPointExtension><gpxtpx:hr>120</gpxtpx:hr></gpxtpx:TrackPointExtension></extensions>
      </trkpt>
      <trkpt lat="-11.648802019006" lon="167.00198251765">
        <ele>14.2</ele>
        <time>2026-05-06T13:51:25Z</time>
        <extensions><gpxtpx:TrackPointExtension><gpxtpx:hr>119</gpxtpx:hr></gpxtpx:TrackPointExtension></extensions>
      </trkpt>
      <trkpt lat="-11.648740076765" lon="167.00193658484">
        <ele>14</ele>
        <time>2026-05-06T13:51:26Z</time>
        <extensions><gpxtpx:TrackPointExtension><gpxtpx:hr>119</gpxtpx:hr></gpxtpx:TrackPointExtension></extensions>
      </trkpt>
      <trkpt lat="-11.648691294107" lon="167.00187766008">
        <ele>14</ele>
        <time>2026-05-06T13:51:27Z</time>
        <extensions><gpxtpx:TrackPointExtension><gpxtpx:hr>119</gpxtpx:hr></gpxtpx:TrackPointExtension></extensions>
      </trkpt>
      <trkpt lat="-11.648650474254" lon="167.00181177834">
        <ele>14</ele>
        <time>2026-05-06T13:51:28Z</time>
        <extensions><gpxtpx:TrackPointExtension><gpxtpx:hr>119</gpxtpx:hr></gpxtpx:TrackPointExtension></extensions>
      </trkpt>
      <trkpt lat="-11.648615521731" lon="167.00174162184">
        <ele>14</ele>
        <time>2026-05-06T13:51:29Z</time>
        <extensions><gpxtpx:TrackPointExtension><gpxtpx:hr>119</gpxtpx:hr></gpxtpx:TrackPointExtension></extensions>
      </trkpt>
      <trkpt lat="-11.648585346891" lon="167.0016681964">
        <ele>14</ele>
        <time>2026-05-06T13:51:30Z</time>
        <extensions><gpxtpx:TrackPointExtension><gpxtpx:hr>119</gpxtpx:hr></gpxtpx:TrackPointExtension></extensions>
      </trkpt>
      <trkpt lat="-11.648555758784" lon="167.00159384894">
        <ele>13.8</ele>
        <time>2026-05-06T13:51:31Z</time>
        <extensions><gpxtpx:TrackPointExtension><gpxtpx:hr>119</gpxtpx:hr></gpxtpx:TrackPointExtension></extensions>
      </trkpt>
      <trkpt lat="-11.648525248668" lon="167.00151966913">
        <ele>13.8</ele>
        <time>2026-05-06T13:51:32Z</time>
        <extensions><gpxtpx:TrackPointExtension><gpxtpx:hr>119</gpxtpx:hr></gpxtpx:TrackPointExtension></extensions>
      </trkpt>
      <trkpt lat="-11.648493900362" lon="167.00144582459">
        <ele>13.8</ele>
        <time>2026-05-06T13:51:33Z</time>
        <extensions><gpxtpx:TrackPointExtension><gpxtpx:hr>118</gpxtpx:hr></gpxtpx:TrackPointExtension></extensions>
      </trkpt>
      <trkpt lat="-11.648467748834" lon="167.00137005221">
        <ele>13.8</ele>
        <time>2026-05-06T13:51:34Z</time>
        <extensions><gpxtpx:TrackPointExtension><gpxtpx:hr>118</gpxtpx:hr></gpxtpx:TrackPointExtension></extensions>
      </trkpt>
      <trkpt lat="-11.648448470464" lon="167.001292352">
        <ele>13.6</ele>
        <time>2026-05-06T13:51:35Z</time>
        <extensions><gpxtpx:TrackPointExtension><gpxtpx:hr>118</gpxtpx:hr></gpxtpx:TrackPointExtension></extensions>
      </trkpt>
      <trkpt lat="-11.648432125759" lon="167.00121440033">
        <ele>13.6</ele>
        <time>2026-05-06T13:51:36Z</time>
        <extensions><gpxtpx:TrackPointExtension><gpxtpx:hr>118</gpxtpx:hr></gpxtpx:TrackPointExtension></extensions>
      </trkpt>
      <trkpt lat="-11.648415445778" lon="167.0011366163">
        <ele>13.6</ele>
        <time>2026-05-06T13:51:37Z</time>
        <extensions><gpxtpx:TrackPointExtension><gpxtpx:hr>118</gpxtpx:hr></gpxtpx:TrackPointExtension></extensions>
      </trkpt>
      <trkpt lat="-11.648396251227" lon="167.00105925136">
        <ele>13.6</ele>
        <time>2026-05-06T13:51:38Z</time>
        <extensions><gpxtpx:TrackPointExtension><gpxtpx:hr>118</gpxtpx:hr></gpxtpx:TrackPointExtension></extensions>
      </trkpt>
      <trkpt lat="-11.648369680604" lon="167.00098389808">
        <ele>13.4</ele>
        <time>2026-05-06T13:51:39Z</time>
        <extensions><gpxtpx:TrackPointExtension><gpxtpx:hr>118</gpxtpx:hr></gpxtpx:TrackPointExtension></extensions>
      </trkpt>
      <trkpt lat="-11.648335901547" lon="167.00091105937">
        <ele>13.4</ele>
        <time>2026-05-06T13:51:40Z</time>
        <extensions><gpxtpx:TrackPointExtension><gpxtpx:hr>118</gpxtpx:hr></gpxtpx:TrackPointExtension></extensions>
      </trkpt>
      <trkpt lat="-11.648289382002" lon="167.00084568055">
        <ele>13.4</ele>
        <time>2026-05-06T13:51:41Z</time>
        <extensions><gpxtpx:TrackPointExtension><gpxtpx:hr>119</gpxtpx:hr></gpxtpx:TrackPointExtension></extensions>
      </trkpt>
      <trkpt lat="-11.648231882168" lon="167.00078893509">
        <ele>13.4</ele>
        <time>2026-05-06T13:51:42Z</time>
        <extensions><gpxtpx:TrackPointExtension><gpxtpx:hr>119</gpxtpx:hr></gpxtpx:TrackPointExtension></extensions>
      </trkpt>
      <trkpt lat="-11.64817304123" lon="167.00073286018">
        <ele>13.4</ele>
        <time>2026-05-06T13:51:43Z</time>
        <extensions><gpxtpx:TrackPointExtension><gpxtpx:hr>120</gpxtpx:hr></gpxtpx:TrackPointExtension></extensions>
      </trkpt>
      <trkpt lat="-11.648113697378" lon="167.00067636617">
        <ele>13.2</ele>
        <time>2026-05-06T13:51:44Z</time>
        <extensions><gpxtpx:TrackPointExtension><gpxtpx:hr>120</gpxtpx:hr></gpxtpx:TrackPointExtension></extensions>
      </trkpt>
      <trkpt lat="-11.648050414033" lon="167.00062397929">
        <ele>13.2</ele>
        <time>2026-05-06T13:51:45Z</time>
        <extensions><gpxtpx:TrackPointExtension><gpxtpx:hr>120</gpxtpx:hr></gpxtpx:TrackPointExtension></extensions>
      </trkpt>
      <trkpt lat="-11.647979335521" lon="167.00058399763">
        <ele>13.2</ele>
        <time>2026-05-06T13:51:46Z</time>
        <extensions><gpxtpx:TrackPointExtension><gpxtpx:hr>120</gpxtpx:hr></gpxtpx:TrackPointExtension></extensions>
      </trkpt>
      <trkpt lat="-11.647900378023" lon="167.00056471926">
        <ele>13.2</ele>
        <time>2026-05-06T13:51:47Z</time>
        <extensions><gpxtpx:TrackPointExtension><gpxtpx:hr>120</gpxtpx:hr></gpxtpx:TrackPointExtension></extensions>
      </trkpt>
      <trkpt lat="-11.647819660326" lon="167.00056916167">
        <ele>13.2</ele>
        <time>2026-05-06T13:51:48Z</time>
        <extensions><gpxtpx:TrackPointExtension><gpxtpx:hr>120</gpxtpx:hr></gpxtpx:TrackPointExtension></extensions>
      </trkpt>
      <trkpt lat="-11.64774304976" lon="167.00059447501">
        <ele>13.2</ele>
        <time>2026-05-06T13:51:49Z</time>
        <extensions><gpxtpx:TrackPointExtension><gpxtpx:hr>120</gpxtpx:hr></gpxtpx:TrackPointExtension></extensions>
      </trkpt>
      <trkpt lat="-11.647672809438" lon="167.00063286411">
        <ele>13.4</ele>
        <time>2026-05-06T13:51:50Z</time>
        <extensions><gpxtpx:TrackPointExtension><gpxtpx:hr>120</gpxtpx:hr></gpxtpx:TrackPointExtension></extensions>
      </trkpt>
      <trkpt lat="-11.64760810117" lon="167.00067904838">
        <ele>13.4</ele>
        <time>2026-05-06T13:51:51Z</time>
        <extensions><gpxtpx:TrackPointExtension><gpxtpx:hr>119</gpxtpx:hr></gpxtpx:TrackPointExtension></extensions>
      </trkpt>
      <trkpt lat="-11.647548673499" lon="167.00073101616">
        <ele>13.6</ele>
        <time>2026-05-06T13:51:52Z</time>
        <extensions><gpxtpx:TrackPointExtension><gpxtpx:hr>119</gpxtpx:hr></gpxtpx:TrackPointExtension></extensions>
      </trkpt>
      <trkpt lat="-11.647494610244" lon="167.00078759398">
        <ele>13.8</ele>
        <time>2026-05-06T13:51:53Z</time>
        <extensions><gpxtpx:TrackPointExtension><gpxtpx:hr>118</gpxtpx:hr></gpxtpx:TrackPointExtension></extensions>
      </trkpt>
      <trkpt lat="-11.647444402663" lon="167.0008467702">
        <ele>13.8</ele>
        <time>2026-05-06T13:51:54Z</time>
        <extensions><gpxtpx:TrackPointExtension><gpxtpx:hr>117</gpxtpx:hr></gpxtpx:TrackPointExtension></extensions>
      </trkpt>
      <trkpt lat="-11.647396542014" lon="167.00090711988">
        <ele>14</ele>
        <time>2026-05-06T13:51:55Z</time>
        <extensions><gpxtpx:TrackPointExtension><gpxtpx:hr>117</gpxtpx:hr></gpxtpx:TrackPointExtension></extensions>
      </trkpt>
      <trkpt lat="-11.647350693021" lon="167.00096830775">
        <ele>14</ele>
        <time>2026-05-06T13:51:56Z</time>
        <extensions><gpxtpx:TrackPointExtension><gpxtpx:hr>117</gpxtpx:hr></gpxtpx:TrackPointExtension></extensions>
      </trkpt>
      <trkpt lat="-11.647306771865" lon="167.00102991471">
        <ele>14.2</ele>
        <time>2026-05-06T13:51:57Z</time>
        <extensions><gpxtpx:TrackPointExtension><gpxtpx:hr>115</gpxtpx:hr></gpxtpx:TrackPointExtension></extensions>
      </trkpt>
      <trkpt lat="-11.647264024175" lon="167.00109127022">
        <ele>14.4</ele>
        <time>2026-05-06T13:51:58Z</time>
        <extensions><gpxtpx:TrackPointExtension><gpxtpx:hr>115</gpxtpx:hr></gpxtpx:TrackPointExtension></extensions>
      </trkpt>
      <trkpt lat="-11.647222114675" lon="167.00115187136">
        <ele>14.4</ele>
        <time>2026-05-06T13:51:59Z</time>
        <extensions><gpxtpx:TrackPointExtension><gpxtpx:hr>115</gpxtpx:hr></gpxtpx:TrackPointExtension></extensions>
      </trkpt>
      <trkpt lat="-11.647181127184" lon="167.0012120534">
        <ele>14.6</ele>
        <time>2026-05-06T13:52:00Z</time>
        <extensions><gpxtpx:TrackPointExtension><gpxtpx:hr>115</gpxtpx:hr></gpxtpx:TrackPointExtension></extensions>
      </trkpt>
      <trkpt lat="-11.647142821901" lon="167.00127290599">
        <ele>14.6</ele>
        <time>2026-05-06T13:52:01Z</time>
        <extensions><gpxtpx:TrackPointExtension><gpxtpx:hr>116</gpxtpx:hr></gpxtpx:TrackPointExtension></extensions>
      </trkpt>
      <trkpt lat="-11.647105606265" lon="167.00133350713">
        <ele>14.8</ele>
        <time>2026-05-06T13:52:02Z</time>
        <extensions><gpxtpx:TrackPointExtension><gpxtpx:hr>116</gpxtpx:hr></gpxtpx:TrackPointExtension></extensions>
      </trkpt>
      <trkpt lat="-11.647068222991" lon="167.00139352153">
        <ele>15</ele>
        <time>2026-05-06T13:52:03Z</time>
        <extensions><gpxtpx:TrackPointExtension><gpxtpx:hr>117</gpxtpx:hr></gpxtpx:TrackPointExtension></extensions>
      </trkpt>
      <trkpt lat="-11.647031258812" lon="167.00145303302">
        <ele>15</ele>
        <time>2026-05-06T13:52:04Z</time>
        <extensions><gpxtpx:TrackPointExtension><gpxtpx:hr>118</gpxtpx:hr></gpxtpx:TrackPointExtension></extensions>
      </trkpt>
      <trkpt lat="-11.646994210814" lon="167.0015120416">
        <ele>15.2</ele>
        <time>2026-05-06T13:52:05Z</time>
        <extensions><gpxtpx:TrackPointExtension><gpxtpx:hr>118</gpxtpx:hr></gpxtpx:TrackPointExtension></extensions>
      </trkpt>
      <trkpt lat="-11.646957246635" lon="167.00157029581">
        <ele>15.2</ele>
        <time>2026-05-06T13:52:06Z</time>
        <extensions><gpxtpx:TrackPointExtension><gpxtpx:hr>118</gpxtpx:hr></gpxtpx:TrackPointExtension></extensions>
      </trkpt>
      <trkpt lat="-11.646920533913" lon="167.0016280471">
        <ele>15.4</ele>
        <time>2026-05-06T13:52:07Z</time>
        <extensions><gpxtpx:TrackPointExtension><gpxtpx:hr>119</gpxtpx:hr></gpxtpx:TrackPointExtension></extensions>
      </trkpt>
      <trkpt lat="-11.646884156467" lon="167.00168529547">
        <ele>15.6</ele>
        <time>2026-05-06T13:52:08Z</time>
        <extensions><gpxtpx:TrackPointExtension><gpxtpx:hr>119</gpxtpx:hr></gpxtpx:TrackPointExtension></extensions>
      </trkpt>
      <trkpt lat="-11.646848365754" lon="167.00174262767">
        <ele>15.6</ele>
        <time>2026-05-06T13:52:09Z</time>
        <extensions><gpxtpx:TrackPointExtension><gpxtpx:hr>119</gpxtpx:hr></gpxtpx:TrackPointExtension></extensions>
      </trkpt>
      <trkpt lat="-11.646814251421" lon="167.00180071424">
        <ele>15.8</ele>
        <time>2026-05-06T13:52:10Z</time>
        <extensions><gpxtpx:TrackPointExtension><gpxtpx:hr>120</gpxtpx:hr></gpxtpx:TrackPointExtension></extensions>
      </trkpt>
      <trkpt lat="-11.646780137088" lon="167.00185863316">
        <ele>15.8</ele>
        <time>2026-05-06T13:52:11Z</time>
        <extensions><gpxtpx:TrackPointExtension><gpxtpx:hr>119</gpxtpx:hr></gpxtpx:TrackPointExtension></extensions>
      </trkpt>
      <trkpt lat="-11.64674476547" lon="167.00191529481">
        <ele>16</ele>
        <time>2026-05-06T13:52:12Z</time>
        <extensions><gpxtpx:TrackPointExtension><gpxtpx:hr>119</gpxtpx:hr></gpxtpx:TrackPointExtension></extensions>
      </trkpt>
      <trkpt lat="-11.646708974757" lon="167.00197103444">
        <ele>16</ele>
        <time>2026-05-06T13:52:13Z</time>
        <extensions><gpxtpx:TrackPointExtension><gpxtpx:hr>118</gpxtpx:hr></gpxtpx:TrackPointExtension></extensions>
      </trkpt>
      <trkpt lat="-11.646673016406" lon="167.00202601971">
        <ele>16.2</ele>
        <time>2026-05-06T13:52:14Z</time>
        <extensions><gpxtpx:TrackPointExtension><gpxtpx:hr>118</gpxtpx:hr></gpxtpx:TrackPointExtension></extensions>
      </trkpt>
      <trkpt lat="-11.646636806598" lon="167.00208033442">
        <ele>16.2</ele>
        <time>2026-05-06T13:52:15Z</time>
        <extensions><gpxtpx:TrackPointExtension><gpxtpx:hr>117</gpxtpx:hr></gpxtpx:TrackPointExtension></extensions>
      </trkpt>
      <trkpt lat="-11.646600261514" lon="167.0021340624">
        <ele>16.4</ele>
        <time>2026-05-06T13:52:16Z</time>
        <extensions><gpxtpx:TrackPointExtension><gpxtpx:hr>117</gpxtpx:hr></gpxtpx:TrackPointExtension></extensions>
      </trkpt>
      <trkpt lat="-11.646563632611" lon="167.00218737128">
        <ele>16.4</ele>
        <time>2026-05-06T13:52:17Z</time>
        <extensions><gpxtpx:TrackPointExtension><gpxtpx:hr>117</gpxtpx:hr></gpxtpx:TrackPointExtension></extensions>
      </trkpt>
      <trkpt lat="-11.646526584613" lon="167.00224000962">
        <ele>16.6</ele>
        <time>2026-05-06T13:52:18Z</time>
        <extensions><gpxtpx:TrackPointExtension><gpxtpx:hr>117</gpxtpx:hr></gpxtpx:TrackPointExtension></extensions>
      </trkpt>
      <trkpt lat="-11.646488949882" lon="167.0022919774">
        <ele>16.6</ele>
        <time>2026-05-06T13:52:19Z</time>
        <extensions><gpxtpx:TrackPointExtension><gpxtpx:hr>117</gpxtpx:hr></gpxtpx:TrackPointExtension></extensions>
      </trkpt>
      <trkpt lat="-11.646450728418" lon="167.00234310698">
        <ele>16.8</ele>
        <time>2026-05-06T13:52:20Z</time>
        <extensions><gpxtpx:TrackPointExtension><gpxtpx:hr>117</gpxtpx:hr></gpxtpx:TrackPointExtension></extensions>
      </trkpt>
      <trkpt lat="-11.646411668764" lon="167.00239339839">
        <ele>16.8</ele>
        <time>2026-05-06T13:52:21Z</time>
        <extensions><gpxtpx:TrackPointExtension><gpxtpx:hr>117</gpxtpx:hr></gpxtpx:TrackPointExtension></extensions>
      </trkpt>
      <trkpt lat="-11.646371687101" lon="167.00244276778">
        <ele>17</ele>
        <time>2026-05-06T13:52:22Z</time>
        <extensions><gpxtpx:TrackPointExtension><gpxtpx:hr>116</gpxtpx:hr></gpxtpx:TrackPointExtension></extensions>
      </trkpt>
      <trkpt lat="-11.646330867248" lon="167.00249121516">
        <ele>17</ele>
        <time>2026-05-06T13:52:23Z</time>
        <extensions><gpxtpx:TrackPointExtension><gpxtpx:hr>117</gpxtpx:hr></gpxtpx:TrackPointExtension></extensions>
      </trkpt>
      <trkpt lat="-11.646288287196" lon="167.00253790234">
        <ele>17.2</ele>
        <time>2026-05-06T13:52:24Z</time>
        <extensions><gpxtpx:TrackPointExtension><gpxtpx:hr>117</gpxtpx:hr></gpxtpx:TrackPointExtension></extensions>
      </trkpt>
      <trkpt lat="-11.646243108755" lon="167.00258190732">
        <ele>17.2</ele>
        <time>2026-05-06T13:52:25Z</time>
        <extensions><gpxtpx:TrackPointExtension><gpxtpx:hr>117</gpxtpx:hr></gpxtpx:TrackPointExtension></extensions>
      </trkpt>
      <trkpt lat="-11.646195080468" lon="167.00262314626">
        <ele>17.4</ele>
        <time>2026-05-06T13:52:26Z</time>
        <extensions><gpxtpx:TrackPointExtension><gpxtpx:hr>119</gpxtpx:hr></gpxtpx:TrackPointExtension></extensions>
      </trkpt>
      <trkpt lat="-11.646143531783" lon="167.00265985899">
        <ele>17.4</ele>
        <time>2026-05-06T13:52:27Z</time>
        <extensions><gpxtpx:TrackPointExtension><gpxtpx:hr>119</gpxtpx:hr></gpxtpx:TrackPointExtension></extensions>
      </trkpt>
      <trkpt lat="-11.646087792148" lon="167.00269020146">
        <ele>17.4</ele>
        <time>2026-05-06T13:52:28Z</time>
        <extensions><gpxtpx:TrackPointExtension><gpxtpx:hr>120</gpxtpx:hr></gpxtpx:TrackPointExtension></extensions>
      </trkpt>
      <trkpt lat="-11.64602811302" lon="167.00271308405">
        <ele>17.6</ele>
        <time>2026-05-06T13:52:29Z</time>
        <extensions><gpxtpx:TrackPointExtension><gpxtpx:hr>120</gpxtpx:hr></gpxtpx:TrackPointExtension></extensions>
      </trkpt>
      <trkpt lat="-11.645965500227" lon="167.00272766856">
        <ele>17.6</ele>
        <time>2026-05-06T13:52:30Z</time>
        <extensions><gpxtpx:TrackPointExtension><gpxtpx:hr>120</gpxtpx:hr></gpxtpx:TrackPointExtension></extensions>
      </trkpt>
      <trkpt lat="-11.645900875778" lon="167.00273378734">
        <ele>17.6</ele>
        <time>2026-05-06T13:52:31Z</time>
        <extensions><gpxtpx:TrackPointExtension><gpxtpx:hr>120</gpxtpx:hr></gpxtpx:TrackPointExtension></extensions>
      </trkpt>
      <trkpt lat="-11.645835245501" lon="167.00273194333">
        <ele>17.6</ele>
        <time>2026-05-06T13:52:32Z</time>
        <extensions><gpxtpx:TrackPointExtension><gpxtpx:hr>120</gpxtpx:hr></gpxtpx:TrackPointExtension></extensions>
      </trkpt>
      <trkpt lat="-11.645769447586" lon="167.0027225556">
        <ele>17.6</ele>
        <time>2026-05-06T13:52:33Z</time>
        <extensions><gpxtpx:TrackPointExtension><gpxtpx:hr>120</gpxtpx:hr></gpxtpx:TrackPointExtension></extensions>
      </trkpt>
      <trkpt lat="-11.645704068766" lon="167.00270604326">
        <ele>17.6</ele>
        <time>2026-05-06T13:52:34Z</time>
        <extensions><gpxtpx:TrackPointExtension><gpxtpx:hr>120</gpxtpx:hr></gpxtpx:TrackPointExtension></extensions>
      </trkpt>
      <trkpt lat="-11.645639611955" lon="167.00268324449">
        <ele>17.4</ele>
        <time>2026-05-06T13:52:35Z</time>
        <extensions><gpxtpx:TrackPointExtension><gpxtpx:hr>120</gpxtpx:hr></gpxtpx:TrackPointExtension></extensions>
      </trkpt>
      <trkpt lat="-11.645576580067" lon="167.00265399166">
        <ele>17.4</ele>
        <time>2026-05-06T13:52:36Z</time>
        <extensions><gpxtpx:TrackPointExtension><gpxtpx:hr>120</gpxtpx:hr></gpxtpx:TrackPointExtension></extensions>
      </trkpt>
      <trkpt lat="-11.645514386369" lon="167.00262063169">
        <ele>17.4</ele>
        <time>2026-05-06T13:52:37Z</time>
        <extensions><gpxtpx:TrackPointExtension><gpxtpx:hr>120</gpxtpx:hr></gpxtpx:TrackPointExtension></extensions>
      </trkpt>
      <trkpt lat="-11.645453030861" lon="167.00258349988">
        <ele>17.4</ele>
        <time>2026-05-06T13:52:38Z</time>
        <extensions><gpxtpx:TrackPointExtension><gpxtpx:hr>120</gpxtpx:hr></gpxtpx:TrackPointExtension></extensions>
      </trkpt>
      <trkpt lat="-11.645392932638" lon="167.00254217711">
        <ele>17.2</ele>
        <time>2026-05-06T13:52:39Z</time>
        <extensions><gpxtpx:TrackPointExtension><gpxtpx:hr>120</gpxtpx:hr></gpxtpx:TrackPointExtension></extensions>
      </trkpt>
      <trkpt lat="-11.645334846071" lon="167.00249607666">
        <ele>17.2</ele>
        <time>2026-05-06T13:52:40Z</time>
        <extensions><gpxtpx:TrackPointExtension><gpxtpx:hr>121</gpxtpx:hr></gpxtpx:TrackPointExtension></extensions>
      </trkpt>
      <trkpt lat="-11.645279441712" lon="167.00244503089">
        <ele>17</ele>
        <time>2026-05-06T13:52:41Z</time>
        <extensions><gpxtpx:TrackPointExtension><gpxtpx:hr>120</gpxtpx:hr></gpxtpx:TrackPointExtension></extensions>
      </trkpt>
      <trkpt lat="-11.645226300466" lon="167.00239063236">
        <ele>17</ele>
        <time>2026-05-06T13:52:42Z</time>
        <extensions><gpxtpx:TrackPointExtension><gpxtpx:hr>120</gpxtpx:hr></gpxtpx:TrackPointExtension></extensions>
      </trkpt>
      <trkpt lat="-11.645176931075" lon="167.00233195906">
        <ele>16.8</ele>
        <time>2026-05-06T13:52:43Z</time>
        <extensions><gpxtpx:TrackPointExtension><gpxtpx:hr>119</gpxtpx:hr></gpxtpx:TrackPointExtension></extensions>
      </trkpt>
      <trkpt lat="-11.645132255548" lon="167.00226783752">
        <ele>16.8</ele>
        <time>2026-05-06T13:52:44Z</time>
        <extensions><gpxtpx:TrackPointExtension><gpxtpx:hr>119</gpxtpx:hr></gpxtpx:TrackPointExtension></extensions>
      </trkpt>
      <trkpt lat="-11.64509353117" lon="167.00219784866">
        <ele>16.6</ele>
        <time>2026-05-06T13:52:45Z</time>
        <extensions><gpxtpx:TrackPointExtension><gpxtpx:hr>119</gpxtpx:hr></gpxtpx:TrackPointExtension></extensions>
      </trkpt>
      <trkpt lat="-11.645065451805" lon="167.00212123809">
        <ele>16.6</ele>
        <time>2026-05-06T13:52:46Z</time>
        <extensions><gpxtpx:TrackPointExtension><gpxtpx:hr>120</gpxtpx:hr></gpxtpx:TrackPointExtension></extensions>
      </trkpt>
      <trkpt lat="-11.645056064077" lon="167.00203934693">
        <ele>16.4</ele>
        <time>2026-05-06T13:52:47Z</time>
        <extensions><gpxtpx:TrackPointExtension><gpxtpx:hr>120</gpxtpx:hr></gpxtpx:TrackPointExtension></extensions>
      </trkpt>
      <trkpt lat="-11.645071151497" lon="167.00195787486">
        <ele>16.2</ele>
        <time>2026-05-06T13:52:48Z</time>
        <extensions><gpxtpx:TrackPointExtension><gpxtpx:hr>120</gpxtpx:hr></gpxtpx:TrackPointExtension></extensions>
      </trkpt>
      <trkpt lat="-11.645103505631" lon="167.00188050992">
        <ele>16</ele>
        <time>2026-05-06T13:52:49Z</time>
        <extensions><gpxtpx:TrackPointExtension><gpxtpx:hr>119</gpxtpx:hr></gpxtpx:TrackPointExtension></extensions>
      </trkpt>
      <trkpt lat="-11.645145582769" lon="167.00180741976">
        <ele>16</ele>
        <time>2026-05-06T13:52:50Z</time>
        <extensions><gpxtpx:TrackPointExtension><gpxtpx:hr>119</gpxtpx:hr></gpxtpx:TrackPointExtension></extensions>
      </trkpt>
      <trkpt lat="-11.645191347943" lon="167.00173709561">
        <ele>15.8</ele>
        <time>2026-05-06T13:52:51Z</time>
        <extensions><gpxtpx:TrackPointExtension><gpxtpx:hr>119</gpxtpx:hr></gpxtpx:TrackPointExtension></extensions>
      </trkpt>
      <trkpt lat="-11.645241220248" lon="167.00166978896">
        <ele>15.6</ele>
        <time>2026-05-06T13:52:52Z</time>
        <extensions><gpxtpx:TrackPointExtension><gpxtpx:hr>117</gpxtpx:hr></gpxtpx:TrackPointExtension></extensions>
      </trkpt>
      <trkpt lat="-11.645293271847" lon="167.00160382341">
        <ele>15.6</ele>
        <time>2026-05-06T13:52:53Z</time>
        <extensions><gpxtpx:TrackPointExtension><gpxtpx:hr>117</gpxtpx:hr></gpxtpx:TrackPointExtension></extensions>
      </trkpt>
      <trkpt lat="-11.645346916007" lon="167.0015389475">
        <ele>15.4</ele>
        <time>2026-05-06T13:52:54Z</time>
        <extensions><gpxtpx:TrackPointExtension><gpxtpx:hr>115</gpxtpx:hr></gpxtpx:TrackPointExtension></extensions>
      </trkpt>
      <trkpt lat="-11.645402152728" lon="167.00147566415">
        <ele>15.2</ele>
        <time>2026-05-06T13:52:55Z</time>
        <extensions><gpxtpx:TrackPointExtension><gpxtpx:hr>114</gpxtpx:hr></gpxtpx:TrackPointExtension></extensions>
      </trkpt>
      <trkpt lat="-11.645457976182" lon="167.00141288372">
        <ele>15</ele>
        <time>2026-05-06T13:52:56Z</time>
        <extensions><gpxtpx:TrackPointExtension><gpxtpx:hr>114</gpxtpx:hr></gpxtpx:TrackPointExtension></extensions>
      </trkpt>
      <trkpt lat="-11.645513883455" lon="167.00135018711">
        <ele>15</ele>
        <time>2026-05-06T13:52:57Z</time>
        <extensions><gpxtpx:TrackPointExtension><gpxtpx:hr>113</gpxtpx:hr></gpxtpx:TrackPointExtension></extensions>
      </trkpt>
      <trkpt lat="-11.645569958366" lon="167.00128732286">
        <ele>14.8</ele>
        <time>2026-05-06T13:52:58Z</time>
        <extensions><gpxtpx:TrackPointExtension><gpxtpx:hr>112</gpxtpx:hr></gpxtpx:TrackPointExtension></extensions>
      </trkpt>
      <trkpt lat="-11.64562578182" lon="167.00122370424">
        <ele>14.6</ele>
        <time>2026-05-06T13:52:59Z</time>
        <extensions><gpxtpx:TrackPointExtension><gpxtpx:hr>110</gpxtpx:hr></gpxtpx:TrackPointExtension></extensions>
      </trkpt>
      <trkpt lat="-11.64568026417" lon="167.00115840924">
        <ele>14.6</ele>
        <time>2026-05-06T13:53:00Z</time>
        <extensions><gpxtpx:TrackPointExtension><gpxtpx:hr>110</gpxtpx:hr></gpxtpx:TrackPointExtension></extensions>
      </trkpt>
      <trkpt lat="-11.645733573054" lon="167.00109143786">
        <ele>14.4</ele>
        <time>2026-05-06T13:53:01Z</time>
        <extensions><gpxtpx:TrackPointExtension><gpxtpx:hr>110</gpxtpx:hr></gpxtpx:TrackPointExtension></extensions>
      </trkpt>
      <trkpt lat="-11.645784535006" lon="167.00102170045">
        <ele>14.2</ele>
        <time>2026-05-06T13:53:02Z</time>
        <extensions><gpxtpx:TrackPointExtension><gpxtpx:hr>110</gpxtpx:hr></gpxtpx:TrackPointExtension></extensions>
      </trkpt>
      <trkpt lat="-11.645830048723" lon="167.00094777209">
        <ele>14.2</ele>
        <time>2026-05-06T13:53:03Z</time>
        <extensions><gpxtpx:TrackPointExtension><gpxtpx:hr>110</gpxtpx:hr></gpxtpx:TrackPointExtension></extensions>
      </trkpt>
      <trkpt lat="-11.645866426169" lon="167.00086847932">
        <ele>14</ele>
        <time>2026-05-06T13:53:04Z</time>
        <extensions><gpxtpx:TrackPointExtension><gpxtpx:hr>110</gpxtpx:hr></gpxtpx:TrackPointExtension></extensions>
      </trkpt>
      <trkpt lat="-11.645891320412" lon="167.00078449268">
        <ele>13.8</ele>
        <time>2026-05-06T13:53:05Z</time>
        <extensions><gpxtpx:TrackPointExtension><gpxtpx:hr>110</gpxtpx:hr></gpxtpx:TrackPointExtension></extensions>
      </trkpt>
      <trkpt lat="-11.64590741366" lon="167.00069832675">
        <ele>13.8</ele>
        <time>2026-05-06T13:53:06Z</time>
        <extensions><gpxtpx:TrackPointExtension><gpxtpx:hr>109</gpxtpx:hr></gpxtpx:TrackPointExtension></extensions>
      </trkpt>
      <trkpt lat="-11.64591579556" lon="167.0006103168">
        <ele>13.6</ele>
        <time>2026-05-06T13:53:07Z</time>
        <extensions><gpxtpx:TrackPointExtension><gpxtpx:hr>109</gpxtpx:hr></gpxtpx:TrackPointExtension></extensions>
      </trkpt>
      <trkpt lat="-11.645917807216" lon="167.00052188775">
        <ele>13.6</ele>
        <time>2026-05-06T13:53:08Z</time>
        <extensions><gpxtpx:TrackPointExtension><gpxtpx:hr>108</gpxtpx:hr></gpxtpx:TrackPointExtension></extensions>
      </trkpt>
      <trkpt lat="-11.645912861895" lon="167.00043362635">
        <ele>13.6</ele>
        <time>2026-05-06T13:53:09Z</time>
        <extensions><gpxtpx:TrackPointExtension><gpxtpx:hr>108</gpxtpx:hr></gpxtpx:TrackPointExtension></extensions>
      </trkpt>
      <trkpt lat="-11.64589986995" lon="167.00034678986">
        <ele>13.4</ele>
        <time>2026-05-06T13:53:10Z</time>
        <extensions><gpxtpx:TrackPointExtension><gpxtpx:hr>107</gpxtpx:hr></gpxtpx:TrackPointExtension></extensions>
      </trkpt>
      <trkpt lat="-11.645881932684" lon="167.0002613783">
        <ele>13.4</ele>
        <time>2026-05-06T13:53:11Z</time>
        <extensions><gpxtpx:TrackPointExtension><gpxtpx:hr>107</gpxtpx:hr></gpxtpx:TrackPointExtension></extensions>
      </trkpt>
      <trkpt lat="-11.645859469192" lon="167.00017764312">
        <ele>13.4</ele>
        <time>2026-05-06T13:53:12Z</time>
        <extensions><gpxtpx:TrackPointExtension><gpxtpx:hr>107</gpxtpx:hr></gpxtpx:TrackPointExtension></extensions>
      </trkpt>
      <trkpt lat="-11.645832898569" lon="167.00009558432">
        <ele>13.4</ele>
        <time>2026-05-06T13:53:13Z</time>
        <extensions><gpxtpx:TrackPointExtension><gpxtpx:hr>107</gpxtpx:hr></gpxtpx:TrackPointExtension></extensions>
      </trkpt>
      <trkpt lat="-11.645801047349" lon="167.00001553717">
        <ele>13.4</ele>
        <time>2026-05-06T13:53:14Z</time>
        <extensions><gpxtpx:TrackPointExtension><gpxtpx:hr>108</gpxtpx:hr></gpxtpx:TrackPointExtension></extensions>
      </trkpt>
      <trkpt lat="-11.645764334627" lon="166.99993792078">
        <ele>13.2</ele>
        <time>2026-05-06T13:53:15Z</time>
        <extensions><gpxtpx:TrackPointExtension><gpxtpx:hr>109</gpxtpx:hr></gpxtpx:TrackPointExtension></extensions>
      </trkpt>
      <trkpt lat="-11.645721084023" lon="166.99986416006">
        <ele>13.2</ele>
        <time>2026-05-06T13:53:16Z</time>
        <extensions><gpxtpx:TrackPointExtension><gpxtpx:hr>109</gpxtpx:hr></gpxtpx:TrackPointExtension></extensions>
      </trkpt>
      <trkpt lat="-11.645667272225" lon="166.99979844596">
        <ele>13.2</ele>
        <time>2026-05-06T13:53:17Z</time>
        <extensions><gpxtpx:TrackPointExtension><gpxtpx:hr>108</gpxtpx:hr></gpxtpx:TrackPointExtension></extensions>
      </trkpt>
      <trkpt lat="-11.645605246165" lon="166.99974195196">
        <ele>13.2</ele>
        <time>2026-05-06T13:53:18Z</time>
        <extensions><gpxtpx:TrackPointExtension><gpxtpx:hr>108</gpxtpx:hr></gpxtpx:TrackPointExtension></extensions>
      </trkpt>
      <trkpt lat="-11.64553861006" lon="166.99969333694">
        <ele>13.2</ele>
        <time>2026-05-06T13:53:19Z</time>
        <extensions><gpxtpx:TrackPointExtension><gpxtpx:hr>107</gpxtpx:hr></gpxtpx:TrackPointExtension></extensions>
      </trkpt>
      <trkpt lat="-11.645467866824" lon="166.99965251708">
        <ele>13.2</ele>
        <time>2026-05-06T13:53:20Z</time>
        <extensions><gpxtpx:TrackPointExtension><gpxtpx:hr>107</gpxtpx:hr></gpxtpx:TrackPointExtension></extensions>
      </trkpt>
      <trkpt lat="-11.645394273742" lon="166.99961831893">
        <ele>13.2</ele>
        <time>2026-05-06T13:53:21Z</time>
        <extensions><gpxtpx:TrackPointExtension><gpxtpx:hr>108</gpxtpx:hr></gpxtpx:TrackPointExtension></extensions>
      </trkpt>
      <trkpt lat="-11.64531984247" lon="166.99958705445">
        <ele>13.2</ele>
        <time>2026-05-06T13:53:22Z</time>
        <extensions><gpxtpx:TrackPointExtension><gpxtpx:hr>108</gpxtpx:hr></gpxtpx:TrackPointExtension></extensions>
      </trkpt>
      <trkpt lat="-11.64524440537" lon="166.99955998091">
        <ele>13.2</ele>
        <time>2026-05-06T13:53:23Z</time>
        <extensions><gpxtpx:TrackPointExtension><gpxtpx:hr>108</gpxtpx:hr></gpxtpx:TrackPointExtension></extensions>
      </trkpt>
      <trkpt lat="-11.645168213899" lon="166.99953642777">
        <ele>13.2</ele>
        <time>2026-05-06T13:53:24Z</time>
        <extensions><gpxtpx:TrackPointExtension><gpxtpx:hr>108</gpxtpx:hr></gpxtpx:TrackPointExtension></extensions>
      </trkpt>
      <trkpt lat="-11.645091435695" lon="166.99951698176">
        <ele>13.2</ele>
        <time>2026-05-06T13:53:25Z</time>
        <extensions><gpxtpx:TrackPointExtension><gpxtpx:hr>108</gpxtpx:hr></gpxtpx:TrackPointExtension></extensions>
      </trkpt>
      <trkpt lat="-11.64501306493" lon="166.99950868368">
        <ele>13.2</ele>
        <time>2026-05-06T13:53:26Z</time>
        <extensions><gpxtpx:TrackPointExtension><gpxtpx:hr>107</gpxtpx:hr></gpxtpx:TrackPointExtension></extensions>
      </trkpt>
      <trkpt lat="-11.644934526527" lon="166.99951077916">
        <ele>13.2</ele>
        <time>2026-05-06T13:53:27Z</time>
        <extensions><gpxtpx:TrackPointExtension><gpxtpx:hr>107</gpxtpx:hr></gpxtpx:TrackPointExtension></extensions>
      </trkpt>
      <trkpt lat="-11.644856491038" lon="166.99951622739">
        <ele>13.2</ele>
        <time>2026-05-06T13:53:28Z</time>
        <extensions><gpxtpx:TrackPointExtension><gpxtpx:hr>106</gpxtpx:hr></gpxtpx:TrackPointExtension></extensions>
      </trkpt>
      <trkpt lat="-11.644778874644" lon="166.99952335201">
        <ele>13.2</ele>
        <time>2026-05-06T13:53:29Z</time>
        <extensions><gpxtpx:TrackPointExtension><gpxtpx:hr>106</gpxtpx:hr></gpxtpx:TrackPointExtension></extensions>
      </trkpt>
      <trkpt lat="-11.644701425888" lon="166.99953047662">
        <ele>13.2</ele>
        <time>2026-05-06T13:53:30Z</time>
        <extensions><gpxtpx:TrackPointExtension><gpxtpx:hr>106</gpxtpx:hr></gpxtpx:TrackPointExtension></extensions>
      </trkpt>
      <trkpt lat="-11.64462414477" lon="166.99953651159">
        <ele>13.2</ele>
        <time>2026-05-06T13:53:31Z</time>
        <extensions><gpxtpx:TrackPointExtension><gpxtpx:hr>105</gpxtpx:hr></gpxtpx:TrackPointExtension></extensions>
      </trkpt>
      <trkpt lat="-11.644546863652" lon="166.99953626013">
        <ele>13.2</ele>
        <time>2026-05-06T13:53:32Z</time>
        <extensions><gpxtpx:TrackPointExtension><gpxtpx:hr>105</gpxtpx:hr></gpxtpx:TrackPointExtension></extensions>
      </trkpt>
      <trkpt lat="-11.644470420724" lon="166.99952502839">
        <ele>13.2</ele>
        <time>2026-05-06T13:53:33Z</time>
        <extensions><gpxtpx:TrackPointExtension><gpxtpx:hr>105</gpxtpx:hr></gpxtpx:TrackPointExtension></extensions>
      </trkpt>
      <trkpt lat="-11.644396911461" lon="166.9994999665">
        <ele>13.2</ele>
        <time>2026-05-06T13:53:34Z</time>
        <extensions><gpxtpx:TrackPointExtension><gpxtpx:hr>105</gpxtpx:hr></gpxtpx:TrackPointExtension></extensions>
      </trkpt>
      <trkpt lat="-11.644330694451" lon="166.99945931429">
        <ele>13.2</ele>
        <time>2026-05-06T13:53:35Z</time>
        <extensions><gpxtpx:TrackPointExtension><gpxtpx:hr>105</gpxtpx:hr></gpxtpx:TrackPointExtension></extensions>
      </trkpt>
      <trkpt lat="-11.644274284264" lon="166.99940575395">
        <ele>13.2</ele>
        <time>2026-05-06T13:53:36Z</time>
        <extensions><gpxtpx:TrackPointExtension><gpxtpx:hr>105</gpxtpx:hr></gpxtpx:TrackPointExtension></extensions>
      </trkpt>
      <trkpt lat="-11.644227177986" lon="166.99934548809">
        <ele>13.2</ele>
        <time>2026-05-06T13:53:37Z</time>
        <extensions><gpxtpx:TrackPointExtension><gpxtpx:hr>105</gpxtpx:hr></gpxtpx:TrackPointExtension></extensions>
      </trkpt>
      <trkpt lat="-11.644184346477" lon="166.99927843289">
        <ele>13.2</ele>
        <time>2026-05-06T13:53:38Z</time>
        <extensions><gpxtpx:TrackPointExtension><gpxtpx:hr>105</gpxtpx:hr></gpxtpx:TrackPointExtension></extensions>
      </trkpt>
      <trkpt lat="-11.644146544108" lon="166.9992105395">
        <ele>13.2</ele>
        <time>2026-05-06T13:53:39Z</time>
        <extensions><gpxtpx:TrackPointExtension><gpxtpx:hr>105</gpxtpx:hr></gpxtpx:TrackPointExtension></extensions>
      </trkpt>
      <trkpt lat="-11.644111759223" lon="166.99914180792">
        <ele>13.2</ele>
        <time>2026-05-06T13:53:40Z</time>
        <extensions><gpxtpx:TrackPointExtension><gpxtpx:hr>105</gpxtpx:hr></gpxtpx:TrackPointExtension></extensions>
      </trkpt>
      <trkpt lat="-11.644078566899" lon="166.99907265724">
        <ele>13.2</ele>
        <time>2026-05-06T13:53:41Z</time>
        <extensions><gpxtpx:TrackPointExtension><gpxtpx:hr>105</gpxtpx:hr></gpxtpx:TrackPointExtension></extensions>
      </trkpt>
      <trkpt lat="-11.644046799498" lon="166.99900476385">
        <ele>13.2</ele>
        <time>2026-05-06T13:53:42Z</time>
        <extensions><gpxtpx:TrackPointExtension><gpxtpx:hr>105</gpxtpx:hr></gpxtpx:TrackPointExtension></extensions>
      </trkpt>
      <trkpt lat="-11.644013858631" lon="166.99893427207">
        <ele>13.2</ele>
        <time>2026-05-06T13:53:43Z</time>
        <extensions><gpxtpx:TrackPointExtension><gpxtpx:hr>105</gpxtpx:hr></gpxtpx:TrackPointExtension></extensions>
      </trkpt>
      <trkpt lat="-11.643981169221" lon="166.99886520522">
        <ele>13.2</ele>
        <time>2026-05-06T13:53:44Z</time>
        <extensions><gpxtpx:TrackPointExtension><gpxtpx:hr>105</gpxtpx:hr></gpxtpx:TrackPointExtension></extensions>
      </trkpt>
      <trkpt lat="-11.643943953585" lon="166.99879856911">
        <ele>13.2</ele>
        <time>2026-05-06T13:53:45Z</time>
        <extensions><gpxtpx:TrackPointExtension><gpxtpx:hr>105</gpxtpx:hr></gpxtpx:TrackPointExtension></extensions>
      </trkpt>
      <trkpt lat="-11.643901289714" lon="166.99873495049">
        <ele>13.2</ele>
        <time>2026-05-06T13:53:46Z</time>
        <extensions><gpxtpx:TrackPointExtension><gpxtpx:hr>106</gpxtpx:hr></gpxtpx:TrackPointExtension></extensions>
      </trkpt>
      <trkpt lat="-11.643852842332" lon="166.99867527136">
        <ele>13.2</ele>
        <time>2026-05-06T13:53:47Z</time>
        <extensions><gpxtpx:TrackPointExtension><gpxtpx:hr>106</gpxtpx:hr></gpxtpx:TrackPointExtension></extensions>
      </trkpt>
      <trkpt lat="-11.643796683602" lon="166.99862280067">
        <ele>13.2</ele>
        <time>2026-05-06T13:53:48Z</time>
        <extensions><gpxtpx:TrackPointExtension><gpxtpx:hr>106</gpxtpx:hr></gpxtpx:TrackPointExtension></extensions>
      </trkpt>
      <trkpt lat="-11.643735831008" lon="166.99857552675">
        <ele>13.2</ele>
        <time>2026-05-06T13:53:49Z</time>
        <extensions><gpxtpx:TrackPointExtension><gpxtpx:hr>106</gpxtpx:hr></gpxtpx:TrackPointExtension></extensions>
      </trkpt>
      <trkpt lat="-11.643670619826" lon="166.99853445544">
        <ele>13.2</ele>
        <time>2026-05-06T13:53:50Z</time>
        <extensions><gpxtpx:TrackPointExtension><gpxtpx:hr>106</gpxtpx:hr></gpxtpx:TrackPointExtension></extensions>
      </trkpt>
      <trkpt lat="-11.643599541314" lon="166.99850503498">
        <ele>13.2</ele>
        <time>2026-05-06T13:53:51Z</time>
        <extensions><gpxtpx:TrackPointExtension><gpxtpx:hr>106</gpxtpx:hr></gpxtpx:TrackPointExtension></extensions>
      </trkpt>
      <trkpt lat="-11.643524355671" lon="166.99848885791">
        <ele>13.2</ele>
        <time>2026-05-06T13:53:52Z</time>
        <extensions><gpxtpx:TrackPointExtension><gpxtpx:hr>107</gpxtpx:hr></gpxtpx:TrackPointExtension></extensions>
      </trkpt>
      <trkpt lat="-11.643447745105" lon="166.99848139802">
        <ele>13.2</ele>
        <time>2026-05-06T13:53:53Z</time>
        <extensions><gpxtpx:TrackPointExtension><gpxtpx:hr>106</gpxtpx:hr></gpxtpx:TrackPointExtension></extensions>
      </trkpt>
      <trkpt lat="-11.643370966901" lon="166.99847972164">
        <ele>13.2</ele>
        <time>2026-05-06T13:53:54Z</time>
        <extensions><gpxtpx:TrackPointExtension><gpxtpx:hr>106</gpxtpx:hr></gpxtpx:TrackPointExtension></extensions>
      </trkpt>
      <trkpt lat="-11.643294356335" lon="166.99848634334">
        <ele>13.2</ele>
        <time>2026-05-06T13:53:55Z</time>
        <extensions><gpxtpx:TrackPointExtension><gpxtpx:hr>106</gpxtpx:hr></gpxtpx:TrackPointExtension></extensions>
      </trkpt>
      <trkpt lat="-11.643220763253" lon="166.99850813628">
        <ele>13.2</ele>
        <time>2026-05-06T13:53:56Z</time>
        <extensions><gpxtpx:TrackPointExtension><gpxtpx:hr>106</gpxtpx:hr></gpxtpx:TrackPointExtension></extensions>
      </trkpt>
      <trkpt lat="-11.643151025845" lon="166.99854107715">
        <ele>13.2</ele>
        <time>2026-05-06T13:53:57Z</time>
        <extensions><gpxtpx:TrackPointExtension><gpxtpx:hr>106</gpxtpx:hr></gpxtpx:TrackPointExtension></extensions>
      </trkpt>
      <trkpt lat="-11.643084473559" lon="166.99858047208">
        <ele>13.2</ele>
        <time>2026-05-06T13:53:58Z</time>
        <extensions><gpxtpx:TrackPointExtension><gpxtpx:hr>107</gpxtpx:hr></gpxtpx:TrackPointExtension></extensions>
      </trkpt>
      <trkpt lat="-11.643019597653" lon="166.99862196248">
        <ele>13.2</ele>
        <time>2026-05-06T13:53:59Z</time>
        <extensions><gpxtpx:TrackPointExtension><gpxtpx:hr>107</gpxtpx:hr></gpxtpx:TrackPointExtension></extensions>
      </trkpt>
      <trkpt lat="-11.642954135014" lon="166.99866227942">
        <ele>13.2</ele>
        <time>2026-05-06T13:54:00Z</time>
        <extensions><gpxtpx:TrackPointExtension><gpxtpx:hr>107</gpxtpx:hr></gpxtpx:TrackPointExtension></extensions>
      </trkpt>
      <trkpt lat="-11.642886912176" lon="166.9986992436">
        <ele>13.2</ele>
        <time>2026-05-06T13:54:01Z</time>
        <extensions><gpxtpx:TrackPointExtension><gpxtpx:hr>107</gpxtpx:hr></gpxtpx:TrackPointExtension></extensions>
      </trkpt>
      <trkpt lat="-11.642816504216" lon="166.99872975371">
        <ele>13.2</ele>
        <time>2026-05-06T13:54:02Z</time>
        <extensions><gpxtpx:TrackPointExtension><gpxtpx:hr>107</gpxtpx:hr></gpxtpx:TrackPointExtension></extensions>
      </trkpt>
      <trkpt lat="-11.642742492039" lon="166.99874987027">
        <ele>13.2</ele>
        <time>2026-05-06T13:54:03Z</time>
        <extensions><gpxtpx:TrackPointExtension><gpxtpx:hr>108</gpxtpx:hr></gpxtpx:TrackPointExtension></extensions>
      </trkpt>
      <trkpt lat="-11.642665881473" lon="166.9987561567">
        <ele>13.2</ele>
        <time>2026-05-06T13:54:04Z</time>
        <extensions><gpxtpx:TrackPointExtension><gpxtpx:hr>108</gpxtpx:hr></gpxtpx:TrackPointExtension></extensions>
      </trkpt>
      <trkpt lat="-11.642588767993" lon="166.99875389359">
        <ele>13.2</ele>
        <time>2026-05-06T13:54:05Z</time>
        <extensions><gpxtpx:TrackPointExtension><gpxtpx:hr>108</gpxtpx:hr></gpxtpx:TrackPointExtension></extensions>
      </trkpt>
      <trkpt lat="-11.642511654513" lon="166.99874626606">
        <ele>13.2</ele>
        <time>2026-05-06T13:54:06Z</time>
        <extensions><gpxtpx:TrackPointExtension><gpxtpx:hr>109</gpxtpx:hr></gpxtpx:TrackPointExtension></extensions>
      </trkpt>
      <trkpt lat="-11.64243479249" lon="166.99873478285">
        <ele>13.2</ele>
        <time>2026-05-06T13:54:07Z</time>
        <extensions><gpxtpx:TrackPointExtension><gpxtpx:hr>110</gpxtpx:hr></gpxtpx:TrackPointExtension></extensions>
      </trkpt>
      <trkpt lat="-11.642358852476" lon="166.99871927634">
        <ele>13.2</ele>
        <time>2026-05-06T13:54:08Z</time>
        <extensions><gpxtpx:TrackPointExtension><gpxtpx:hr>110</gpxtpx:hr></gpxtpx:TrackPointExtension></extensions>
      </trkpt>
      <trkpt lat="-11.642284085928" lon="166.99870016561">
        <ele>13.2</ele>
        <time>2026-05-06T13:54:09Z</time>
        <extensions><gpxtpx:TrackPointExtension><gpxtpx:hr>111</gpxtpx:hr></gpxtpx:TrackPointExtension></extensions>
      </trkpt>
      <trkpt lat="-11.642210576665" lon="166.99867812121">
        <ele>13.2</ele>
        <time>2026-05-06T13:54:10Z</time>
        <extensions><gpxtpx:TrackPointExtension><gpxtpx:hr>112</gpxtpx:hr></gpxtpx:TrackPointExtension></extensions>
      </trkpt>
      <trkpt lat="-11.642136983583" lon="166.99865264023">
        <ele>13.2</ele>
        <time>2026-05-06T13:54:11Z</time>
        <extensions><gpxtpx:TrackPointExtension><gpxtpx:hr>112</gpxtpx:hr></gpxtpx:TrackPointExtension></extensions>
      </trkpt>
      <trkpt lat="-11.642069090193" lon="166.99862581815">
        <ele>13</ele>
        <time>2026-05-06T13:54:12Z</time>
        <extensions><gpxtpx:TrackPointExtension><gpxtpx:hr>112</gpxtpx:hr></gpxtpx:TrackPointExtension></extensions>
      </trkpt>
      <trkpt lat="-11.641997424948" lon="166.99859287729">
        <ele>13</ele>
        <time>2026-05-06T13:54:13Z</time>
        <extensions><gpxtpx:TrackPointExtension><gpxtpx:hr>112</gpxtpx:hr></gpxtpx:TrackPointExtension></extensions>
      </trkpt>
      <trkpt lat="-11.641933051956" lon="166.99855826004">
        <ele>13</ele>
        <time>2026-05-06T13:54:14Z</time>
        <extensions><gpxtpx:TrackPointExtension><gpxtpx:hr>112</gpxtpx:hr></gpxtpx:TrackPointExtension></extensions>
      </trkpt>
      <trkpt lat="-11.641868762783" lon="166.99851702109">
        <ele>13</ele>
        <time>2026-05-06T13:54:15Z</time>
        <extensions><gpxtpx:TrackPointExtension><gpxtpx:hr>112</gpxtpx:hr></gpxtpx:TrackPointExtension></extensions>
      </trkpt>
      <trkpt lat="-11.641808832198" lon="166.99846706497">
        <ele>13</ele>
        <time>2026-05-06T13:54:16Z</time>
        <extensions><gpxtpx:TrackPointExtension><gpxtpx:hr>112</gpxtpx:hr></gpxtpx:TrackPointExtension></extensions>
      </trkpt>
      <trkpt lat="-11.641760133359" lon="166.99840554182">
        <ele>13</ele>
        <time>2026-05-06T13:54:17Z</time>
        <extensions><gpxtpx:TrackPointExtension><gpxtpx:hr>113</gpxtpx:hr></gpxtpx:TrackPointExtension></extensions>
      </trkpt>
      <trkpt lat="-11.641724510284" lon="166.99833697788">
        <ele>13</ele>
        <time>2026-05-06T13:54:18Z</time>
        <extensions><gpxtpx:TrackPointExtension><gpxtpx:hr>113</gpxtpx:hr></gpxtpx:TrackPointExtension></extensions>
      </trkpt>
      <trkpt lat="-11.641699448403" lon="166.99826707283">
        <ele>13</ele>
        <time>2026-05-06T13:54:19Z</time>
        <extensions><gpxtpx:TrackPointExtension><gpxtpx:hr>114</gpxtpx:hr></gpxtpx:TrackPointExtension></extensions>
      </trkpt>
      <trkpt lat="-11.641680002395" lon="166.99818912116">
        <ele>13</ele>
        <time>2026-05-06T13:54:20Z</time>
        <extensions><gpxtpx:TrackPointExtension><gpxtpx:hr>114</gpxtpx:hr></gpxtpx:TrackPointExtension></extensions>
      </trkpt>
      <trkpt lat="-11.641665501708" lon="166.99811653391">
        <ele>13</ele>
        <time>2026-05-06T13:54:21Z</time>
        <extensions><gpxtpx:TrackPointExtension><gpxtpx:hr>114</gpxtpx:hr></gpxtpx:TrackPointExtension></extensions>
      </trkpt>
      <trkpt lat="-11.641650749564" lon="166.99803799551">
        <ele>13</ele>
        <time>2026-05-06T13:54:22Z</time>
        <extensions><gpxtpx:TrackPointExtension><gpxtpx:hr>115</gpxtpx:hr></gpxtpx:TrackPointExtension></extensions>
      </trkpt>
      <trkpt lat="-11.641635829782" lon="166.99796331278">
        <ele>13</ele>
        <time>2026-05-06T13:54:23Z</time>
        <extensions><gpxtpx:TrackPointExtension><gpxtpx:hr>115</gpxtpx:hr></gpxtpx:TrackPointExtension></extensions>
      </trkpt>
      <trkpt lat="-11.641615964679" lon="166.99789189899">
        <ele>13</ele>
        <time>2026-05-06T13:54:24Z</time>
        <extensions><gpxtpx:TrackPointExtension><gpxtpx:hr>115</gpxtpx:hr></gpxtpx:TrackPointExtension></extensions>
      </trkpt>
      <trkpt lat="-11.641587130943" lon="166.99781763536">
        <ele>13</ele>
        <time>2026-05-06T13:54:25Z</time>
        <extensions><gpxtpx:TrackPointExtension><gpxtpx:hr>115</gpxtpx:hr></gpxtpx:TrackPointExtension></extensions>
      </trkpt>
      <trkpt lat="-11.641557123741" lon="166.99775041252">
        <ele>13</ele>
        <time>2026-05-06T13:54:26Z</time>
        <extensions><gpxtpx:TrackPointExtension><gpxtpx:hr>115</gpxtpx:hr></gpxtpx:TrackPointExtension></extensions>
      </trkpt>
      <trkpt lat="-11.641523931417" lon="166.99767790908">
        <ele>13</ele>
        <time>2026-05-06T13:54:27Z</time>
        <extensions><gpxtpx:TrackPointExtension><gpxtpx:hr>116</gpxtpx:hr></gpxtpx:TrackPointExtension></extensions>
      </trkpt>
      <trkpt lat="-11.641492918387" lon="166.99761118916">
        <ele>13</ele>
        <time>2026-05-06T13:54:28Z</time>
        <extensions><gpxtpx:TrackPointExtension><gpxtpx:hr>116</gpxtpx:hr></gpxtpx:TrackPointExtension></extensions>
      </trkpt>
      <trkpt lat="-11.641460228977" lon="166.99754195466">
        <ele>13</ele>
        <time>2026-05-06T13:54:29Z</time>
        <extensions><gpxtpx:TrackPointExtension><gpxtpx:hr>116</gpxtpx:hr></gpxtpx:TrackPointExtension></extensions>
      </trkpt>
      <trkpt lat="-11.641426701377" lon="166.99747163052">
        <ele>13</ele>
        <time>2026-05-06T13:54:30Z</time>
        <extensions><gpxtpx:TrackPointExtension><gpxtpx:hr>116</gpxtpx:hr></gpxtpx:TrackPointExtension></extensions>
      </trkpt>
      <trkpt lat="-11.641394179605" lon="166.99740465914">
        <ele>13</ele>
        <time>2026-05-06T13:54:31Z</time>
        <extensions><gpxtpx:TrackPointExtension><gpxtpx:hr>117</gpxtpx:hr></gpxtpx:TrackPointExtension></extensions>
      </trkpt>
      <trkpt lat="-11.641359143263" lon="166.99733391591">
        <ele>13</ele>
        <time>2026-05-06T13:54:32Z</time>
        <extensions><gpxtpx:TrackPointExtension><gpxtpx:hr>117</gpxtpx:hr></gpxtpx:TrackPointExtension></extensions>
      </trkpt>
      <trkpt lat="-11.641325950939" lon="166.99726929146">
        <ele>13</ele>
        <time>2026-05-06T13:54:33Z</time>
        <extensions><gpxtpx:TrackPointExtension><gpxtpx:hr>118</gpxtpx:hr></gpxtpx:TrackPointExtension></extensions>
      </trkpt>
      <trkpt lat="-11.641289657312" lon="166.99720123043">
        <ele>13</ele>
        <time>2026-05-06T13:54:34Z</time>
        <extensions><gpxtpx:TrackPointExtension><gpxtpx:hr>118</gpxtpx:hr></gpxtpx:TrackPointExtension></extensions>
      </trkpt>
      <trkpt lat="-11.641253196047" lon="166.99713367232">
        <ele>13</ele>
        <time>2026-05-06T13:54:35Z</time>
        <extensions><gpxtpx:TrackPointExtension><gpxtpx:hr>119</gpxtpx:hr></gpxtpx:TrackPointExtension></extensions>
      </trkpt>
      <trkpt lat="-11.641216315687" lon="166.99706619802">
        <ele>13</ele>
        <time>2026-05-06T13:54:36Z</time>
        <extensions><gpxtpx:TrackPointExtension><gpxtpx:hr>120</gpxtpx:hr></gpxtpx:TrackPointExtension></extensions>
      </trkpt>
      <trkpt lat="-11.641180273517" lon="166.99700241176">
        <ele>13</ele>
        <time>2026-05-06T13:54:37Z</time>
        <extensions><gpxtpx:TrackPointExtension><gpxtpx:hr>120</gpxtpx:hr></gpxtpx:TrackPointExtension></extensions>
      </trkpt>
      <trkpt lat="-11.641139202207" lon="166.99693409928">
        <ele>13</ele>
        <time>2026-05-06T13:54:38Z</time>
        <extensions><gpxtpx:TrackPointExtension><gpxtpx:hr>120</gpxtpx:hr></gpxtpx:TrackPointExtension></extensions>
      </trkpt>
      <trkpt lat="-11.641099220544" lon="166.99686830136">
        <ele>13</ele>
        <time>2026-05-06T13:54:39Z</time>
        <extensions><gpxtpx:TrackPointExtension><gpxtpx:hr>120</gpxtpx:hr></gpxtpx:TrackPointExtension></extensions>
      </trkpt>
      <trkpt lat="-11.641060496166" lon="166.9968049342">
        <ele>13</ele>
        <time>2026-05-06T13:54:40Z</time>
        <extensions><gpxtpx:TrackPointExtension><gpxtpx:hr>120</gpxtpx:hr></gpxtpx:TrackPointExtension></extensions>
      </trkpt>
      <trkpt lat="-11.641018502847" lon="166.99673628644">
        <ele>13</ele>
        <time>2026-05-06T13:54:41Z</time>
        <extensions><gpxtpx:TrackPointExtension><gpxtpx:hr>119</gpxtpx:hr></gpxtpx:TrackPointExtension></extensions>
      </trkpt>
      <trkpt lat="-11.640977263899" lon="166.99667065616">
        <ele>13</ele>
        <time>2026-05-06T13:54:42Z</time>
        <extensions><gpxtpx:TrackPointExtension><gpxtpx:hr>119</gpxtpx:hr></gpxtpx:TrackPointExtension></extensions>
      </trkpt>
      <trkpt lat="-11.64093610877" lon="166.99660837864">
        <ele>13</ele>
        <time>2026-05-06T13:54:43Z</time>
        <extensions><gpxtpx:TrackPointExtension><gpxtpx:hr>119</gpxtpx:hr></gpxtpx:TrackPointExtension></extensions>
      </trkpt>
      <trkpt lat="-11.640891014148" lon="166.99654073671">
        <ele>13</ele>
        <time>2026-05-06T13:54:44Z</time>
        <extensions><gpxtpx:TrackPointExtension><gpxtpx:hr>118</gpxtpx:hr></gpxtpx:TrackPointExtension></extensions>
      </trkpt>
      <trkpt lat="-11.640849523743" lon="166.99647753718">
        <ele>13</ele>
        <time>2026-05-06T13:54:45Z</time>
        <extensions><gpxtpx:TrackPointExtension><gpxtpx:hr>118</gpxtpx:hr></gpxtpx:TrackPointExtension></extensions>
      </trkpt>
      <trkpt lat="-11.640804848216" lon="166.99640821887">
        <ele>13</ele>
        <time>2026-05-06T13:54:46Z</time>
        <extensions><gpxtpx:TrackPointExtension><gpxtpx:hr>118</gpxtpx:hr></gpxtpx:TrackPointExtension></extensions>
      </trkpt>
      <trkpt lat="-11.64076427982" lon="166.9963435106">
        <ele>13</ele>
        <time>2026-05-06T13:54:47Z</time>
        <extensions><gpxtpx:TrackPointExtension><gpxtpx:hr>118</gpxtpx:hr></gpxtpx:TrackPointExtension></extensions>
      </trkpt>
      <trkpt lat="-11.640720861578" lon="166.99627251591">
        <ele>13</ele>
        <time>2026-05-06T13:54:48Z</time>
        <extensions><gpxtpx:TrackPointExtension><gpxtpx:hr>118</gpxtpx:hr></gpxtpx:TrackPointExtension></extensions>
      </trkpt>
      <trkpt lat="-11.640680796096" lon="166.996206718">
        <ele>13</ele>
        <time>2026-05-06T13:54:49Z</time>
        <extensions><gpxtpx:TrackPointExtension><gpxtpx:hr>117</gpxtpx:hr></gpxtpx:TrackPointExtension></extensions>
      </trkpt>
      <trkpt lat="-11.640638132225" lon="166.99613522039">
        <ele>13</ele>
        <time>2026-05-06T13:54:50Z</time>
        <extensions><gpxtpx:TrackPointExtension><gpxtpx:hr>117</gpxtpx:hr></gpxtpx:TrackPointExtension></extensions>
      </trkpt>
      <trkpt lat="-11.640599826942" lon="166.99606891956">
        <ele>13</ele>
        <time>2026-05-06T13:54:51Z</time>
        <extensions><gpxtpx:TrackPointExtension><gpxtpx:hr>117</gpxtpx:hr></gpxtpx:TrackPointExtension></extensions>
      </trkpt>
      <trkpt lat="-11.640559258546" lon="166.9959967514">
        <ele>13</ele>
        <time>2026-05-06T13:54:52Z</time>
        <extensions><gpxtpx:TrackPointExtension><gpxtpx:hr>116</gpxtpx:hr></gpxtpx:TrackPointExtension></extensions>
      </trkpt>
      <trkpt lat="-11.640522797281" lon="166.99592978002">
        <ele>13</ele>
        <time>2026-05-06T13:54:53Z</time>
        <extensions><gpxtpx:TrackPointExtension><gpxtpx:hr>115</gpxtpx:hr></gpxtpx:TrackPointExtension></extensions>
      </trkpt>
      <trkpt lat="-11.640483234713" lon="166.99585685749">
        <ele>13</ele>
        <time>2026-05-06T13:54:54Z</time>
        <extensions><gpxtpx:TrackPointExtension><gpxtpx:hr>115</gpxtpx:hr></gpxtpx:TrackPointExtension></extensions>
      </trkpt>
      <trkpt lat="-11.640447192543" lon="166.99578921556">
        <ele>13</ele>
        <time>2026-05-06T13:54:55Z</time>
        <extensions><gpxtpx:TrackPointExtension><gpxtpx:hr>115</gpxtpx:hr></gpxtpx:TrackPointExtension></extensions>
      </trkpt>
      <trkpt lat="-11.640409222536" lon="166.99571537102">
        <ele>13</ele>
        <time>2026-05-06T13:54:56Z</time>
        <extensions><gpxtpx:TrackPointExtension><gpxtpx:hr>114</gpxtpx:hr></gpxtpx:TrackPointExtension></extensions>
      </trkpt>
      <trkpt lat="-11.640372509814" lon="166.99564588507">
        <ele>13</ele>
        <time>2026-05-06T13:54:57Z</time>
        <extensions><gpxtpx:TrackPointExtension><gpxtpx:hr>114</gpxtpx:hr></gpxtpx:TrackPointExtension></extensions>
      </trkpt>
      <trkpt lat="-11.640334372169" lon="166.9955758962">
        <ele>13</ele>
        <time>2026-05-06T13:54:58Z</time>
        <extensions><gpxtpx:TrackPointExtension><gpxtpx:hr>113</gpxtpx:hr></gpxtpx:TrackPointExtension></extensions>
      </trkpt>
      <trkpt lat="-11.640297575628" lon="166.99550993065">
        <ele>13</ele>
        <time>2026-05-06T13:54:59Z</time>
        <extensions><gpxtpx:TrackPointExtension><gpxtpx:hr>114</gpxtpx:hr></gpxtpx:TrackPointExtension></extensions>
      </trkpt>
      <trkpt lat="-11.640257677784" lon="166.99543860068">
        <ele>13</ele>
        <time>2026-05-06T13:55:00Z</time>
        <extensions><gpxtpx:TrackPointExtension><gpxtpx:hr>114</gpxtpx:hr></gpxtpx:TrackPointExtension></extensions>
      </trkpt>
      <trkpt lat="-11.640222138528" lon="166.99537213221">
        <ele>13</ele>
        <time>2026-05-06T13:55:01Z</time>
        <extensions><gpxtpx:TrackPointExtension><gpxtpx:hr>115</gpxtpx:hr></gpxtpx:TrackPointExtension></extensions>
      </trkpt>
      <trkpt lat="-11.640188359471" lon="166.99530138898">
        <ele>13</ele>
        <time>2026-05-06T13:55:02Z</time>
        <extensions><gpxtpx:TrackPointExtension><gpxtpx:hr>115</gpxtpx:hr></gpxtpx:TrackPointExtension></extensions>
      </trkpt>
      <trkpt lat="-11.640156759708" lon="166.99522662243">
        <ele>13</ele>
        <time>2026-05-06T13:55:03Z</time>
        <extensions><gpxtpx:TrackPointExtension><gpxtpx:hr>116</gpxtpx:hr></gpxtpx:TrackPointExtension></extensions>
      </trkpt>
      <trkpt lat="-11.640132452198" lon="166.99515587919">
        <ele>13</ele>
        <time>2026-05-06T13:55:04Z</time>
        <extensions><gpxtpx:TrackPointExtension><gpxtpx:hr>116</gpxtpx:hr></gpxtpx:TrackPointExtension></extensions>
      </trkpt>
      <trkpt lat="-11.640112754733" lon="166.99507750843">
        <ele>13</ele>
        <time>2026-05-06T13:55:05Z</time>
        <extensions><gpxtpx:TrackPointExtension><gpxtpx:hr>116</gpxtpx:hr></gpxtpx:TrackPointExtension></extensions>
      </trkpt>
      <trkpt lat="-11.640100014245" lon="166.99500073022">
        <ele>13.2</ele>
        <time>2026-05-06T13:55:06Z</time>
        <extensions><gpxtpx:TrackPointExtension><gpxtpx:hr>118</gpxtpx:hr></gpxtpx:TrackPointExtension></extensions>
      </trkpt>
      <trkpt lat="-11.640096326209" lon="166.99492587986">
        <ele>13.2</ele>
        <time>2026-05-06T13:55:07Z</time>
        <extensions><gpxtpx:TrackPointExtension><gpxtpx:hr>118</gpxtpx:hr></gpxtpx:TrackPointExtension></extensions>
      </trkpt>
      <trkpt lat="-11.64010043334" lon="166.9948449107">
        <ele>13.2</ele>
        <time>2026-05-06T13:55:08Z</time>
        <extensions><gpxtpx:TrackPointExtension><gpxtpx:hr>119</gpxtpx:hr></gpxtpx:TrackPointExtension></extensions>
      </trkpt>
      <trkpt lat="-11.64010881524" lon="166.99477047943">
        <ele>13.2</ele>
        <time>2026-05-06T13:55:09Z</time>
        <extensions><gpxtpx:TrackPointExtension><gpxtpx:hr>120</gpxtpx:hr></gpxtpx:TrackPointExtension></extensions>
      </trkpt>
      <trkpt lat="-11.640122058642" lon="166.99469009701">
        <ele>13.2</ele>
        <time>2026-05-06T13:55:10Z</time>
        <extensions><gpxtpx:TrackPointExtension><gpxtpx:hr>121</gpxtpx:hr></gpxtpx:TrackPointExtension></extensions>
      </trkpt>
      <trkpt lat="-11.640140331184" lon="166.99461667157">
        <ele>13.2</ele>
        <time>2026-05-06T13:55:11Z</time>
        <extensions><gpxtpx:TrackPointExtension><gpxtpx:hr>122</gpxtpx:hr></gpxtpx:TrackPointExtension></extensions>
      </trkpt>
      <trkpt lat="-11.640163716685" lon="166.99454123447">
        <ele>13.2</ele>
        <time>2026-05-06T13:55:12Z</time>
        <extensions><gpxtpx:TrackPointExtension><gpxtpx:hr>123</gpxtpx:hr></gpxtpx:TrackPointExtension></extensions>
      </trkpt>
      <trkpt lat="-11.640192131326" lon="166.99446395335">
        <ele>13.2</ele>
        <time>2026-05-06T13:55:13Z</time>
        <extensions><gpxtpx:TrackPointExtension><gpxtpx:hr>124</gpxtpx:hr></gpxtpx:TrackPointExtension></extensions>
      </trkpt>
      <trkpt lat="-11.640222222347" lon="166.99439438358">
        <ele>13.2</ele>
        <time>2026-05-06T13:55:14Z</time>
        <extensions><gpxtpx:TrackPointExtension><gpxtpx:hr>124</gpxtpx:hr></gpxtpx:TrackPointExtension></extensions>
      </trkpt>
      <trkpt lat="-11.64025801306" lon="166.99432087431">
        <ele>13.2</ele>
        <time>2026-05-06T13:55:15Z</time>
        <extensions><gpxtpx:TrackPointExtension><gpxtpx:hr>125</gpxtpx:hr></gpxtpx:TrackPointExtension></extensions>
      </trkpt>
      <trkpt lat="-11.640294390506" lon="166.99425348384">
        <ele>13.2</ele>
        <time>2026-05-06T13:55:16Z</time>
        <extensions><gpxtpx:TrackPointExtension><gpxtpx:hr>127</gpxtpx:hr></gpxtpx:TrackPointExtension></extensions>
      </trkpt>
      <trkpt lat="-11.640334958902" lon="166.99418508753">
        <ele>13.2</ele>
        <time>2026-05-06T13:55:17Z</time>
        <extensions><gpxtpx:TrackPointExtension><gpxtpx:hr>127</gpxtpx:hr></gpxtpx:TrackPointExtension></extensions>
      </trkpt>
      <trkpt lat="-11.640376281669" lon="166.99412331293">
        <ele>13.2</ele>
        <time>2026-05-06T13:55:18Z</time>
        <extensions><gpxtpx:TrackPointExtension><gpxtpx:hr>128</gpxtpx:hr></gpxtpx:TrackPointExtension></extensions>
      </trkpt>
      <trkpt lat="-11.64042313649" lon="166.99406002959">
        <ele>13.2</ele>
        <time>2026-05-06T13:55:19Z</time>
        <extensions><gpxtpx:TrackPointExtension><gpxtpx:hr>128</gpxtpx:hr></gpxtpx:TrackPointExtension></extensions>
      </trkpt>
      <trkpt lat="-11.640473008795" lon="166.99400127247">
        <ele>13.2</ele>
        <time>2026-05-06T13:55:20Z</time>
        <extensions><gpxtpx:TrackPointExtension><gpxtpx:hr>128</gpxtpx:hr></gpxtpx:TrackPointExtension></extensions>
      </trkpt>
      <trkpt lat="-11.640521875272" lon="166.99394435937">
        <ele>13.2</ele>
        <time>2026-05-06T13:55:21Z</time>
        <extensions><gpxtpx:TrackPointExtension><gpxtpx:hr>128</gpxtpx:hr></gpxtpx:TrackPointExtension></extensions>
      </trkpt>
      <trkpt lat="-11.640575267975" lon="166.99388576988">
        <ele>13.2</ele>
        <time>2026-05-06T13:55:22Z</time>
        <extensions><gpxtpx:TrackPointExtension><gpxtpx:hr>129</gpxtpx:hr></gpxtpx:TrackPointExtension></extensions>
      </trkpt>
      <trkpt lat="-11.640627068117" lon="166.99383472411">
        <ele>13.2</ele>
        <time>2026-05-06T13:55:23Z</time>
        <extensions><gpxtpx:TrackPointExtension><gpxtpx:hr>129</gpxtpx:hr></gpxtpx:TrackPointExtension></extensions>
      </trkpt>
      <trkpt lat="-11.640686411969" lon="166.99378317543">
        <ele>13.2</ele>
        <time>2026-05-06T13:55:24Z</time>
        <extensions><gpxtpx:TrackPointExtension><gpxtpx:hr>128</gpxtpx:hr></gpxtpx:TrackPointExtension></extensions>
      </trkpt>
      <trkpt lat="-11.64074500145" lon="166.99374034392">
        <ele>13.2</ele>
        <time>2026-05-06T13:55:25Z</time>
        <extensions><gpxtpx:TrackPointExtension><gpxtpx:hr>129</gpxtpx:hr></gpxtpx:TrackPointExtension></extensions>
      </trkpt>
      <trkpt lat="-11.640811721374" lon="166.99369902115">
        <ele>13.2</ele>
        <time>2026-05-06T13:55:26Z</time>
        <extensions><gpxtpx:TrackPointExtension><gpxtpx:hr>129</gpxtpx:hr></gpxtpx:TrackPointExtension></extensions>
      </trkpt>
      <trkpt lat="-11.640875339995" lon="166.99366465536">
        <ele>13.2</ele>
        <time>2026-05-06T13:55:27Z</time>
        <extensions><gpxtpx:TrackPointExtension><gpxtpx:hr>129</gpxtpx:hr></gpxtpx:TrackPointExtension></extensions>
      </trkpt>
      <trkpt lat="-11.640945496498" lon="166.99363087631">
        <ele>13.2</ele>
        <time>2026-05-06T13:55:28Z</time>
        <extensions><gpxtpx:TrackPointExtension><gpxtpx:hr>129</gpxtpx:hr></gpxtpx:TrackPointExtension></extensions>
      </trkpt>
      <trkpt lat="-11.64101070768" lon="166.9936012882">
        <ele>13.2</ele>
        <time>2026-05-06T13:55:29Z</time>
        <extensions><gpxtpx:TrackPointExtension><gpxtpx:hr>129</gpxtpx:hr></gpxtpx:TrackPointExtension></extensions>
      </trkpt>
      <trkpt lat="-11.641080528907" lon="166.99357136482">
        <ele>13.2</ele>
        <time>2026-05-06T13:55:30Z</time>
        <extensions><gpxtpx:TrackPointExtension><gpxtpx:hr>129</gpxtpx:hr></gpxtpx:TrackPointExtension></extensions>
      </trkpt>
      <trkpt lat="-11.64114817084" lon="166.99354471037">
        <ele>13.2</ele>
        <time>2026-05-06T13:55:31Z</time>
        <extensions><gpxtpx:TrackPointExtension><gpxtpx:hr>129</gpxtpx:hr></gpxtpx:TrackPointExtension></extensions>
      </trkpt>
      <trkpt lat="-11.641217489153" lon="166.99351931322">
        <ele>13.2</ele>
        <time>2026-05-06T13:55:32Z</time>
        <extensions><gpxtpx:TrackPointExtension><gpxtpx:hr>129</gpxtpx:hr></gpxtpx:TrackPointExtension></extensions>
      </trkpt>
      <trkpt lat="-11.641289573493" lon="166.99349358078">
        <ele>13.2</ele>
        <time>2026-05-06T13:55:33Z</time>
        <extensions><gpxtpx:TrackPointExtension><gpxtpx:hr>129</gpxtpx:hr></gpxtpx:TrackPointExtension></extensions>
      </trkpt>
      <trkpt lat="-11.641358472711" lon="166.9934685189">
        <ele>13.2</ele>
        <time>2026-05-06T13:55:34Z</time>
        <extensions><gpxtpx:TrackPointExtension><gpxtpx:hr>129</gpxtpx:hr></gpxtpx:TrackPointExtension></extensions>
      </trkpt>
      <trkpt lat="-11.641427120472" lon="166.99344404376">
        <ele>13.2</ele>
        <time>2026-05-06T13:55:35Z</time>
        <extensions><gpxtpx:TrackPointExtension><gpxtpx:hr>129</gpxtpx:hr></gpxtpx:TrackPointExtension></extensions>
      </trkpt>
      <trkpt lat="-11.64149685788" lon="166.99341973625">
        <ele>13.2</ele>
        <time>2026-05-06T13:55:36Z</time>
        <extensions><gpxtpx:TrackPointExtension><gpxtpx:hr>129</gpxtpx:hr></gpxtpx:TrackPointExtension></extensions>
      </trkpt>
      <trkpt lat="-11.641565924736" lon="166.99339492582">
        <ele>13.2</ele>
        <time>2026-05-06T13:55:37Z</time>
        <extensions><gpxtpx:TrackPointExtension><gpxtpx:hr>129</gpxtpx:hr></gpxtpx:TrackPointExtension></extensions>
      </trkpt>
      <trkpt lat="-11.641634488678" lon="166.99336869047">
        <ele>13.2</ele>
        <time>2026-05-06T13:55:38Z</time>
        <extensions><gpxtpx:TrackPointExtension><gpxtpx:hr>128</gpxtpx:hr></gpxtpx:TrackPointExtension></extensions>
      </trkpt>
      <trkpt lat="-11.641699951317" lon="166.99334295804">
        <ele>13.2</ele>
        <time>2026-05-06T13:55:39Z</time>
        <extensions><gpxtpx:TrackPointExtension><gpxtpx:hr>128</gpxtpx:hr></gpxtpx:TrackPointExtension></extensions>
      </trkpt>
      <trkpt lat="-11.641769856363" lon="166.99331303466">
        <ele>13.2</ele>
        <time>2026-05-06T13:55:40Z</time>
        <extensions><gpxtpx:TrackPointExtension><gpxtpx:hr>128</gpxtpx:hr></gpxtpx:TrackPointExtension></extensions>
      </trkpt>
      <trkpt lat="-11.641835821916" lon="166.99328177017">
        <ele>13.2</ele>
        <time>2026-05-06T13:55:41Z</time>
        <extensions><gpxtpx:TrackPointExtension><gpxtpx:hr>127</gpxtpx:hr></gpxtpx:TrackPointExtension></extensions>
      </trkpt>
      <trkpt lat="-11.64189835089" lon="166.99324908076">
        <ele>13.2</ele>
        <time>2026-05-06T13:55:42Z</time>
        <extensions><gpxtpx:TrackPointExtension><gpxtpx:hr>127</gpxtpx:hr></gpxtpx:TrackPointExtension></extensions>
      </trkpt>
      <trkpt lat="-11.641963897348" lon="166.99320918292">
        <ele>13.2</ele>
        <time>2026-05-06T13:55:43Z</time>
        <extensions><gpxtpx:TrackPointExtension><gpxtpx:hr>127</gpxtpx:hr></gpxtpx:TrackPointExtension></extensions>
      </trkpt>
      <trkpt lat="-11.64202072663" lon="166.99316668668">
        <ele>13.2</ele>
        <time>2026-05-06T13:55:44Z</time>
        <extensions><gpxtpx:TrackPointExtension><gpxtpx:hr>127</gpxtpx:hr></gpxtpx:TrackPointExtension></extensions>
      </trkpt>
      <trkpt lat="-11.642075795713" lon="166.99311287489">
        <ele>13.2</ele>
        <time>2026-05-06T13:55:45Z</time>
        <extensions><gpxtpx:TrackPointExtension><gpxtpx:hr>125</gpxtpx:hr></gpxtpx:TrackPointExtension></extensions>
      </trkpt>
      <trkpt lat="-11.64211963305" lon="166.99305654852">
        <ele>13.2</ele>
        <time>2026-05-06T13:55:46Z</time>
        <extensions><gpxtpx:TrackPointExtension><gpxtpx:hr>125</gpxtpx:hr></gpxtpx:TrackPointExtension></extensions>
      </trkpt>
      <trkpt lat="-11.642158692704" lon="166.99299343281">
        <ele>13.2</ele>
        <time>2026-05-06T13:55:47Z</time>
        <extensions><gpxtpx:TrackPointExtension><gpxtpx:hr>124</gpxtpx:hr></gpxtpx:TrackPointExtension></extensions>
      </trkpt>
      <trkpt lat="-11.642191382114" lon="166.99292662907">
        <ele>13.2</ele>
        <time>2026-05-06T13:55:48Z</time>
        <extensions><gpxtpx:TrackPointExtension><gpxtpx:hr>123</gpxtpx:hr></gpxtpx:TrackPointExtension></extensions>
      </trkpt>
      <trkpt lat="-11.642218288013" lon="166.99285387418">
        <ele>13.2</ele>
        <time>2026-05-06T13:55:49Z</time>
        <extensions><gpxtpx:TrackPointExtension><gpxtpx:hr>123</gpxtpx:hr></gpxtpx:TrackPointExtension></extensions>
      </trkpt>
      <trkpt lat="-11.642237482564" lon="166.99278355003">
        <ele>13.2</ele>
        <time>2026-05-06T13:55:50Z</time>
        <extensions><gpxtpx:TrackPointExtension><gpxtpx:hr>122</gpxtpx:hr></gpxtpx:TrackPointExtension></extensions>
      </trkpt>
      <trkpt lat="-11.642251396518" lon="166.99271012459">
        <ele>13.2</ele>
        <time>2026-05-06T13:55:51Z</time>
        <extensions><gpxtpx:TrackPointExtension><gpxtpx:hr>122</gpxtpx:hr></gpxtpx:TrackPointExtension></extensions>
      </trkpt>
      <trkpt lat="-11.642260197513" lon="166.9926356095">
        <ele>13.2</ele>
        <time>2026-05-06T13:55:52Z</time>
        <extensions><gpxtpx:TrackPointExtension><gpxtpx:hr>122</gpxtpx:hr></gpxtpx:TrackPointExtension></extensions>
      </trkpt>
      <trkpt lat="-11.64226463992" lon="166.99256235169">
        <ele>13.2</ele>
        <time>2026-05-06T13:55:53Z</time>
        <extensions><gpxtpx:TrackPointExtension><gpxtpx:hr>122</gpxtpx:hr></gpxtpx:TrackPointExtension></extensions>
      </trkpt>
      <trkpt lat="-11.642265897205" lon="166.99248456766">
        <ele>13.2</ele>
        <time>2026-05-06T13:55:54Z</time>
        <extensions><gpxtpx:TrackPointExtension><gpxtpx:hr>122</gpxtpx:hr></gpxtpx:TrackPointExtension></extensions>
      </trkpt>
      <trkpt lat="-11.642264137006" lon="166.9924128186">
        <ele>13.2</ele>
        <time>2026-05-06T13:55:55Z</time>
        <extensions><gpxtpx:TrackPointExtension><gpxtpx:hr>122</gpxtpx:hr></gpxtpx:TrackPointExtension></extensions>
      </trkpt>
      <trkpt lat="-11.642259191685" lon="166.99233511839">
        <ele>13.2</ele>
        <time>2026-05-06T13:55:56Z</time>
        <extensions><gpxtpx:TrackPointExtension><gpxtpx:hr>122</gpxtpx:hr></gpxtpx:TrackPointExtension></extensions>
      </trkpt>
      <trkpt lat="-11.642253324355" lon="166.99226311786">
        <ele>13.2</ele>
        <time>2026-05-06T13:55:57Z</time>
        <extensions><gpxtpx:TrackPointExtension><gpxtpx:hr>121</gpxtpx:hr></gpxtpx:TrackPointExtension></extensions>
      </trkpt>
      <trkpt lat="-11.642244858636" lon="166.99218516619">
        <ele>13.2</ele>
        <time>2026-05-06T13:55:58Z</time>
        <extensions><gpxtpx:TrackPointExtension><gpxtpx:hr>121</gpxtpx:hr></gpxtpx:TrackPointExtension></extensions>
      </trkpt>
      <trkpt lat="-11.642235890003" lon="166.99211383623">
        <ele>13.2</ele>
        <time>2026-05-06T13:55:59Z</time>
        <extensions><gpxtpx:TrackPointExtension><gpxtpx:hr>121</gpxtpx:hr></gpxtpx:TrackPointExtension></extensions>
      </trkpt>
      <trkpt lat="-11.64222524499" lon="166.99203588456">
        <ele>13.2</ele>
        <time>2026-05-06T13:56:00Z</time>
        <extensions><gpxtpx:TrackPointExtension><gpxtpx:hr>120</gpxtpx:hr></gpxtpx:TrackPointExtension></extensions>
      </trkpt>
      <trkpt lat="-11.642213929425" lon="166.99196237529">
        <ele>13.2</ele>
        <time>2026-05-06T13:56:01Z</time>
        <extensions><gpxtpx:TrackPointExtension><gpxtpx:hr>120</gpxtpx:hr></gpxtpx:TrackPointExtension></extensions>
      </trkpt>
      <trkpt lat="-11.642199344919" lon="166.99188760874">
        <ele>13.2</ele>
        <time>2026-05-06T13:56:02Z</time>
        <extensions><gpxtpx:TrackPointExtension><gpxtpx:hr>120</gpxtpx:hr></gpxtpx:TrackPointExtension></extensions>
      </trkpt>
      <trkpt lat="-11.642181072377" lon="166.99181183637">
        <ele>13.2</ele>
        <time>2026-05-06T13:56:03Z</time>
        <extensions><gpxtpx:TrackPointExtension><gpxtpx:hr>120</gpxtpx:hr></gpxtpx:TrackPointExtension></extensions>
      </trkpt>
      <trkpt lat="-11.642159949989" lon="166.99173966821">
        <ele>13.2</ele>
        <time>2026-05-06T13:56:04Z</time>
        <extensions><gpxtpx:TrackPointExtension><gpxtpx:hr>119</gpxtpx:hr></gpxtpx:TrackPointExtension></extensions>
      </trkpt>
      <trkpt lat="-11.642136061574" lon="166.9916664104">
        <ele>13.2</ele>
        <time>2026-05-06T13:56:05Z</time>
        <extensions><gpxtpx:TrackPointExtension><gpxtpx:hr>119</gpxtpx:hr></gpxtpx:TrackPointExtension></extensions>
      </trkpt>
      <trkpt lat="-11.642107395476" lon="166.99159457752">
        <ele>13.2</ele>
        <time>2026-05-06T13:56:06Z</time>
        <extensions><gpxtpx:TrackPointExtension><gpxtpx:hr>119</gpxtpx:hr></gpxtpx:TrackPointExtension></extensions>
      </trkpt>
      <trkpt lat="-11.642075963351" lon="166.99152282846">
        <ele>13.2</ele>
        <time>2026-05-06T13:56:07Z</time>
        <extensions><gpxtpx:TrackPointExtension><gpxtpx:hr>119</gpxtpx:hr></gpxtpx:TrackPointExtension></extensions>
      </trkpt>
      <trkpt lat="-11.642046542882" lon="166.9914555218">
        <ele>13.2</ele>
        <time>2026-05-06T13:56:08Z</time>
        <extensions><gpxtpx:TrackPointExtension><gpxtpx:hr>119</gpxtpx:hr></gpxtpx:TrackPointExtension></extensions>
      </trkpt>
      <trkpt lat="-11.642013602015" lon="166.991383186">
        <ele>13.2</ele>
        <time>2026-05-06T13:56:09Z</time>
        <extensions><gpxtpx:TrackPointExtension><gpxtpx:hr>119</gpxtpx:hr></gpxtpx:TrackPointExtension></extensions>
      </trkpt>
      <trkpt lat="-11.641982421347" lon="166.99131713663">
        <ele>13.2</ele>
        <time>2026-05-06T13:56:10Z</time>
        <extensions><gpxtpx:TrackPointExtension><gpxtpx:hr>119</gpxtpx:hr></gpxtpx:TrackPointExtension></extensions>
      </trkpt>
      <trkpt lat="-11.641949564299" lon="166.99124899178">
        <ele>13.2</ele>
        <time>2026-05-06T13:56:11Z</time>
        <extensions><gpxtpx:TrackPointExtension><gpxtpx:hr>119</gpxtpx:hr></gpxtpx:TrackPointExtension></extensions>
      </trkpt>
      <trkpt lat="-11.641915366147" lon="166.99117824855">
        <ele>13.2</ele>
        <time>2026-05-06T13:56:12Z</time>
        <extensions><gpxtpx:TrackPointExtension><gpxtpx:hr>119</gpxtpx:hr></gpxtpx:TrackPointExtension></extensions>
      </trkpt>
      <trkpt lat="-11.641883431108" lon="166.99111286973">
        <ele>13.2</ele>
        <time>2026-05-06T13:56:13Z</time>
        <extensions><gpxtpx:TrackPointExtension><gpxtpx:hr>119</gpxtpx:hr></gpxtpx:TrackPointExtension></extensions>
      </trkpt>
      <trkpt lat="-11.641848310947" lon="166.99104229413">
        <ele>13.2</ele>
        <time>2026-05-06T13:56:14Z</time>
        <extensions><gpxtpx:TrackPointExtension><gpxtpx:hr>119</gpxtpx:hr></gpxtpx:TrackPointExtension></extensions>
      </trkpt>
      <trkpt lat="-11.641815286261" lon="166.99097699913">
        <ele>13.2</ele>
        <time>2026-05-06T13:56:15Z</time>
        <extensions><gpxtpx:TrackPointExtension><gpxtpx:hr>119</gpxtpx:hr></gpxtpx:TrackPointExtension></extensions>
      </trkpt>
      <trkpt lat="-11.641780082281" lon="166.99090558534">
        <ele>13.2</ele>
        <time>2026-05-06T13:56:16Z</time>
        <extensions><gpxtpx:TrackPointExtension><gpxtpx:hr>120</gpxtpx:hr></gpxtpx:TrackPointExtension></extensions>
      </trkpt>
      <trkpt lat="-11.641748398699" lon="166.99083760813">
        <ele>13.2</ele>
        <time>2026-05-06T13:56:17Z</time>
        <extensions><gpxtpx:TrackPointExtension><gpxtpx:hr>120</gpxtpx:hr></gpxtpx:TrackPointExtension></extensions>
      </trkpt>
      <trkpt lat="-11.641717050393" lon="166.99076828982">
        <ele>13.2</ele>
        <time>2026-05-06T13:56:18Z</time>
        <extensions><gpxtpx:TrackPointExtension><gpxtpx:hr>120</gpxtpx:hr></gpxtpx:TrackPointExtension></extensions>
      </trkpt>
      <trkpt lat="-11.641686372639" lon="166.99069746276">
        <ele>13.2</ele>
        <time>2026-05-06T13:56:19Z</time>
        <extensions><gpxtpx:TrackPointExtension><gpxtpx:hr>120</gpxtpx:hr></gpxtpx:TrackPointExtension></extensions>
      </trkpt>
      <trkpt lat="-11.641657957998" lon="166.9906305752">
        <ele>13.2</ele>
        <time>2026-05-06T13:56:20Z</time>
        <extensions><gpxtpx:TrackPointExtension><gpxtpx:hr>120</gpxtpx:hr></gpxtpx:TrackPointExtension></extensions>
      </trkpt>
      <trkpt lat="-11.641624430398" lon="166.99055949669">
        <ele>13.2</ele>
        <time>2026-05-06T13:56:21Z</time>
        <extensions><gpxtpx:TrackPointExtension><gpxtpx:hr>120</gpxtpx:hr></gpxtpx:TrackPointExtension></extensions>
      </trkpt>
      <trkpt lat="-11.64159241154" lon="166.99049420169">
        <ele>13.2</ele>
        <time>2026-05-06T13:56:22Z</time>
        <extensions><gpxtpx:TrackPointExtension><gpxtpx:hr>120</gpxtpx:hr></gpxtpx:TrackPointExtension></extensions>
      </trkpt>
      <trkpt lat="-11.641557375198" lon="166.99042505101">
        <ele>13.2</ele>
        <time>2026-05-06T13:56:23Z</time>
        <extensions><gpxtpx:TrackPointExtension><gpxtpx:hr>120</gpxtpx:hr></gpxtpx:TrackPointExtension></extensions>
      </trkpt>
      <trkpt lat="-11.641521835942" lon="166.99035590034">
        <ele>13.2</ele>
        <time>2026-05-06T13:56:24Z</time>
        <extensions><gpxtpx:TrackPointExtension><gpxtpx:hr>120</gpxtpx:hr></gpxtpx:TrackPointExtension></extensions>
      </trkpt>
      <trkpt lat="-11.641487889247" lon="166.99029085679">
        <ele>13.2</ele>
        <time>2026-05-06T13:56:25Z</time>
        <extensions><gpxtpx:TrackPointExtension><gpxtpx:hr>120</gpxtpx:hr></gpxtpx:TrackPointExtension></extensions>
      </trkpt>
      <trkpt lat="-11.641450505973" lon="166.99022070029">
        <ele>13.2</ele>
        <time>2026-05-06T13:56:26Z</time>
        <extensions><gpxtpx:TrackPointExtension><gpxtpx:hr>120</gpxtpx:hr></gpxtpx:TrackPointExtension></extensions>
      </trkpt>
      <trkpt lat="-11.641415637269" lon="166.99015599202">
        <ele>13.2</ele>
        <time>2026-05-06T13:56:27Z</time>
        <extensions><gpxtpx:TrackPointExtension><gpxtpx:hr>119</gpxtpx:hr></gpxtpx:TrackPointExtension></extensions>
      </trkpt>
      <trkpt lat="-11.641378002538" lon="166.99008558406">
        <ele>13.2</ele>
        <time>2026-05-06T13:56:28Z</time>
        <extensions><gpxtpx:TrackPointExtension><gpxtpx:hr>118</gpxtpx:hr></gpxtpx:TrackPointExtension></extensions>
      </trkpt>
      <trkpt lat="-11.641341876549" lon="166.99001785831">
        <ele>13.2</ele>
        <time>2026-05-06T13:56:29Z</time>
        <extensions><gpxtpx:TrackPointExtension><gpxtpx:hr>117</gpxtpx:hr></gpxtpx:TrackPointExtension></extensions>
      </trkpt>
      <trkpt lat="-11.641306756388" lon="166.98995155748">
        <ele>13.2</ele>
        <time>2026-05-06T13:56:30Z</time>
        <extensions><gpxtpx:TrackPointExtension><gpxtpx:hr>115</gpxtpx:hr></gpxtpx:TrackPointExtension></extensions>
      </trkpt>
      <trkpt lat="-11.64127054658" lon="166.98988391555">
        <ele>13.2</ele>
        <time>2026-05-06T13:56:31Z</time>
        <extensions><gpxtpx:TrackPointExtension><gpxtpx:hr>113</gpxtpx:hr></gpxtpx:TrackPointExtension></extensions>
      </trkpt>
      <trkpt lat="-11.641234085315" lon="166.98981451342">
        <ele>13.2</ele>
        <time>2026-05-06T13:56:32Z</time>
        <extensions><gpxtpx:TrackPointExtension><gpxtpx:hr>112</gpxtpx:hr></gpxtpx:TrackPointExtension></extensions>
      </trkpt>
      <trkpt lat="-11.641199803344" lon="166.9897491346">
        <ele>13.2</ele>
        <time>2026-05-06T13:56:33Z</time>
        <extensions><gpxtpx:TrackPointExtension><gpxtpx:hr>111</gpxtpx:hr></gpxtpx:TrackPointExtension></extensions>
      </trkpt>
      <trkpt lat="-11.641163174441" lon="166.98967805609">
        <ele>13.2</ele>
        <time>2026-05-06T13:56:34Z</time>
        <extensions><gpxtpx:TrackPointExtension><gpxtpx:hr>111</gpxtpx:hr></gpxtpx:TrackPointExtension></extensions>
      </trkpt>
      <trkpt lat="-11.64112973066" lon="166.98961217435">
        <ele>13.2</ele>
        <time>2026-05-06T13:56:35Z</time>
        <extensions><gpxtpx:TrackPointExtension><gpxtpx:hr>112</gpxtpx:hr></gpxtpx:TrackPointExtension></extensions>
      </trkpt>
      <trkpt lat="-11.641094275223" lon="166.98954201785">
        <ele>13.2</ele>
        <time>2026-05-06T13:56:36Z</time>
        <extensions><gpxtpx:TrackPointExtension><gpxtpx:hr>112</gpxtpx:hr></gpxtpx:TrackPointExtension></extensions>
      </trkpt>
      <trkpt lat="-11.641059741795" lon="166.98947320245">
        <ele>13.2</ele>
        <time>2026-05-06T13:56:37Z</time>
        <extensions><gpxtpx:TrackPointExtension><gpxtpx:hr>114</gpxtpx:hr></gpxtpx:TrackPointExtension></extensions>
      </trkpt>
      <trkpt lat="-11.641025292186" lon="166.98940463851">
        <ele>13.2</ele>
        <time>2026-05-06T13:56:38Z</time>
        <extensions><gpxtpx:TrackPointExtension><gpxtpx:hr>114</gpxtpx:hr></gpxtpx:TrackPointExtension></extensions>
      </trkpt>
      <trkpt lat="-11.640990004387" lon="166.98933506874">
        <ele>13.2</ele>
        <time>2026-05-06T13:56:39Z</time>
        <extensions><gpxtpx:TrackPointExtension><gpxtpx:hr>114</gpxtpx:hr></gpxtpx:TrackPointExtension></extensions>
      </trkpt>
      <trkpt lat="-11.640955470959" lon="166.98926860027">
        <ele>13.2</ele>
        <time>2026-05-06T13:56:40Z</time>
        <extensions><gpxtpx:TrackPointExtension><gpxtpx:hr>114</gpxtpx:hr></gpxtpx:TrackPointExtension></extensions>
      </trkpt>
      <trkpt lat="-11.640920099341" lon="166.98920104216">
        <ele>13.2</ele>
        <time>2026-05-06T13:56:41Z</time>
        <extensions><gpxtpx:TrackPointExtension><gpxtpx:hr>115</gpxtpx:hr></gpxtpx:TrackPointExtension></extensions>
      </trkpt>
      <trkpt lat="-11.640884811542" lon="166.9891337355">
        <ele>13.2</ele>
        <time>2026-05-06T13:56:42Z</time>
        <extensions><gpxtpx:TrackPointExtension><gpxtpx:hr>115</gpxtpx:hr></gpxtpx:TrackPointExtension></extensions>
      </trkpt>
      <trkpt lat="-11.640849607562" lon="166.98906651266">
        <ele>13.2</ele>
        <time>2026-05-06T13:56:43Z</time>
        <extensions><gpxtpx:TrackPointExtension><gpxtpx:hr>115</gpxtpx:hr></gpxtpx:TrackPointExtension></extensions>
      </trkpt>
      <trkpt lat="-11.640814487401" lon="166.98899945746">
        <ele>13.2</ele>
        <time>2026-05-06T13:56:44Z</time>
        <extensions><gpxtpx:TrackPointExtension><gpxtpx:hr>115</gpxtpx:hr></gpxtpx:TrackPointExtension></extensions>
      </trkpt>
      <trkpt lat="-11.640778445231" lon="166.98893307281">
        <ele>13.2</ele>
        <time>2026-05-06T13:56:45Z</time>
        <extensions><gpxtpx:TrackPointExtension><gpxtpx:hr>115</gpxtpx:hr></gpxtpx:TrackPointExtension></extensions>
      </trkpt>
      <trkpt lat="-11.640741983966" lon="166.98886710726">
        <ele>13.2</ele>
        <time>2026-05-06T13:56:46Z</time>
        <extensions><gpxtpx:TrackPointExtension><gpxtpx:hr>114</gpxtpx:hr></gpxtpx:TrackPointExtension></extensions>
      </trkpt>
      <trkpt lat="-11.640706612348" lon="166.98880080643">
        <ele>13.2</ele>
        <time>2026-05-06T13:56:47Z</time>
        <extensions><gpxtpx:TrackPointExtension><gpxtpx:hr>114</gpxtpx:hr></gpxtpx:TrackPointExtension></extensions>
      </trkpt>
      <trkpt lat="-11.640673000929" lon="166.98873567907">
        <ele>13.2</ele>
        <time>2026-05-06T13:56:48Z</time>
        <extensions><gpxtpx:TrackPointExtension><gpxtpx:hr>114</gpxtpx:hr></gpxtpx:TrackPointExtension></extensions>
      </trkpt>
      <trkpt lat="-11.640637796949" lon="166.98866652839">
        <ele>13.2</ele>
        <time>2026-05-06T13:56:49Z</time>
        <extensions><gpxtpx:TrackPointExtension><gpxtpx:hr>115</gpxtpx:hr></gpxtpx:TrackPointExtension></extensions>
      </trkpt>
      <trkpt lat="-11.640605694272" lon="166.98860274213">
        <ele>13.2</ele>
        <time>2026-05-06T13:56:50Z</time>
        <extensions><gpxtpx:TrackPointExtension><gpxtpx:hr>115</gpxtpx:hr></gpxtpx:TrackPointExtension></extensions>
      </trkpt>
      <trkpt lat="-11.640571579939" lon="166.98853484874">
        <ele>13.2</ele>
        <time>2026-05-06T13:56:51Z</time>
        <extensions><gpxtpx:TrackPointExtension><gpxtpx:hr>115</gpxtpx:hr></gpxtpx:TrackPointExtension></extensions>
      </trkpt>
      <trkpt lat="-11.64053880671" lon="166.98846812882">
        <ele>13.2</ele>
        <time>2026-05-06T13:56:52Z</time>
        <extensions><gpxtpx:TrackPointExtension><gpxtpx:hr>115</gpxtpx:hr></gpxtpx:TrackPointExtension></extensions>
      </trkpt>
      <trkpt lat="-11.640505446748" lon="166.98839998397">
        <ele>13.2</ele>
        <time>2026-05-06T13:56:53Z</time>
        <extensions><gpxtpx:TrackPointExtension><gpxtpx:hr>115</gpxtpx:hr></gpxtpx:TrackPointExtension></extensions>
      </trkpt>
      <trkpt lat="-11.640474014623" lon="166.98833250968">
        <ele>13.2</ele>
        <time>2026-05-06T13:56:54Z</time>
        <extensions><gpxtpx:TrackPointExtension><gpxtpx:hr>115</gpxtpx:hr></gpxtpx:TrackPointExtension></extensions>
      </trkpt>
      <trkpt lat="-11.640445516163" lon="166.98826654412">
        <ele>13.2</ele>
        <time>2026-05-06T13:56:55Z</time>
        <extensions><gpxtpx:TrackPointExtension><gpxtpx:hr>116</gpxtpx:hr></gpxtpx:TrackPointExtension></extensions>
      </trkpt>
      <trkpt lat="-11.640417017703" lon="166.98819730963">
        <ele>13.2</ele>
        <time>2026-05-06T13:56:56Z</time>
        <extensions><gpxtpx:TrackPointExtension><gpxtpx:hr>116</gpxtpx:hr></gpxtpx:TrackPointExtension></extensions>
      </trkpt>
      <trkpt lat="-11.640390195623" lon="166.98812723695">
        <ele>13.2</ele>
        <time>2026-05-06T13:56:57Z</time>
        <extensions><gpxtpx:TrackPointExtension><gpxtpx:hr>117</gpxtpx:hr></gpxtpx:TrackPointExtension></extensions>
      </trkpt>
      <trkpt lat="-11.640365720475" lon="166.98805582316">
        <ele>13.2</ele>
        <time>2026-05-06T13:56:58Z</time>
        <extensions><gpxtpx:TrackPointExtension><gpxtpx:hr>117</gpxtpx:hr></gpxtpx:TrackPointExtension></extensions>
      </trkpt>
      <trkpt lat="-11.640348369942" lon="166.98798214626">
        <ele>13.2</ele>
        <time>2026-05-06T13:56:59Z</time>
        <extensions><gpxtpx:TrackPointExtension><gpxtpx:hr>117</gpxtpx:hr></gpxtpx:TrackPointExtension></extensions>
      </trkpt>
      <trkpt lat="-11.640342921707" lon="166.98790629006">
        <ele>13.2</ele>
        <time>2026-05-06T13:57:00Z</time>
        <extensions><gpxtpx:TrackPointExtension><gpxtpx:hr>117</gpxtpx:hr></gpxtpx:TrackPointExtension></extensions>
      </trkpt>
      <trkpt lat="-11.64035021396" lon="166.98782733257">
        <ele>13.2</ele>
        <time>2026-05-06T13:57:01Z</time>
        <extensions><gpxtpx:TrackPointExtension><gpxtpx:hr>117</gpxtpx:hr></gpxtpx:TrackPointExtension></extensions>
      </trkpt>
      <trkpt lat="-11.640368151226" lon="166.98775617023">
        <ele>13.2</ele>
        <time>2026-05-06T13:57:02Z</time>
        <extensions><gpxtpx:TrackPointExtension><gpxtpx:hr>117</gpxtpx:hr></gpxtpx:TrackPointExtension></extensions>
      </trkpt>
      <trkpt lat="-11.640396565867" lon="166.98768341534">
        <ele>13.2</ele>
        <time>2026-05-06T13:57:03Z</time>
        <extensions><gpxtpx:TrackPointExtension><gpxtpx:hr>118</gpxtpx:hr></gpxtpx:TrackPointExtension></extensions>
      </trkpt>
      <trkpt lat="-11.640430009648" lon="166.98761208537">
        <ele>13.2</ele>
        <time>2026-05-06T13:57:04Z</time>
        <extensions><gpxtpx:TrackPointExtension><gpxtpx:hr>118</gpxtpx:hr></gpxtpx:TrackPointExtension></extensions>
      </trkpt>
      <trkpt lat="-11.640460184488" lon="166.98754410816">
        <ele>13.2</ele>
        <time>2026-05-06T13:57:05Z</time>
        <extensions><gpxtpx:TrackPointExtension><gpxtpx:hr>119</gpxtpx:hr></gpxtpx:TrackPointExtension></extensions>
      </trkpt>
      <trkpt lat="-11.640473930804" lon="166.98746523449">
        <ele>13.2</ele>
        <time>2026-05-06T13:57:06Z</time>
        <extensions><gpxtpx:TrackPointExtension><gpxtpx:hr>120</gpxtpx:hr></gpxtpx:TrackPointExtension></extensions>
      </trkpt>
      <trkpt lat="-11.640461274135" lon="166.98739247959">
        <ele>13.2</ele>
        <time>2026-05-06T13:57:07Z</time>
        <extensions><gpxtpx:TrackPointExtension><gpxtpx:hr>120</gpxtpx:hr></gpxtpx:TrackPointExtension></extensions>
      </trkpt>
      <trkpt lat="-11.640423723223" lon="166.98732240691">
        <ele>13.2</ele>
        <time>2026-05-06T13:57:08Z</time>
        <extensions><gpxtpx:TrackPointExtension><gpxtpx:hr>121</gpxtpx:hr></gpxtpx:TrackPointExtension></extensions>
      </trkpt>
      <trkpt lat="-11.640375778755" lon="166.98726649964">
        <ele>13.2</ele>
        <time>2026-05-06T13:57:09Z</time>
        <extensions><gpxtpx:TrackPointExtension><gpxtpx:hr>120</gpxtpx:hr></gpxtpx:TrackPointExtension></extensions>
      </trkpt>
      <trkpt lat="-11.640318027464" lon="166.98721151437">
        <ele>13.2</ele>
        <time>2026-05-06T13:57:10Z</time>
        <extensions><gpxtpx:TrackPointExtension><gpxtpx:hr>120</gpxtpx:hr></gpxtpx:TrackPointExtension></extensions>
      </trkpt>
      <trkpt lat="-11.640260946725" lon="166.98716432427">
        <ele>13.2</ele>
        <time>2026-05-06T13:57:11Z</time>
        <extensions><gpxtpx:TrackPointExtension><gpxtpx:hr>120</gpxtpx:hr></gpxtpx:TrackPointExtension></extensions>
      </trkpt>
      <trkpt lat="-11.640197244285" lon="166.98711537398">
        <ele>13.2</ele>
        <time>2026-05-06T13:57:12Z</time>
        <extensions><gpxtpx:TrackPointExtension><gpxtpx:hr>120</gpxtpx:hr></gpxtpx:TrackPointExtension></extensions>
      </trkpt>
      <trkpt lat="-11.640138068071" lon="166.98706960881">
        <ele>13.2</ele>
        <time>2026-05-06T13:57:13Z</time>
        <extensions><gpxtpx:TrackPointExtension><gpxtpx:hr>120</gpxtpx:hr></gpxtpx:TrackPointExtension></extensions>
      </trkpt>
      <trkpt lat="-11.640073862717" lon="166.98701923359">
        <ele>13.2</ele>
        <time>2026-05-06T13:57:14Z</time>
        <extensions><gpxtpx:TrackPointExtension><gpxtpx:hr>120</gpxtpx:hr></gpxtpx:TrackPointExtension></extensions>
      </trkpt>
      <trkpt lat="-11.640014686503" lon="166.9869725464">
        <ele>13.2</ele>
        <time>2026-05-06T13:57:15Z</time>
        <extensions><gpxtpx:TrackPointExtension><gpxtpx:hr>120</gpxtpx:hr></gpxtpx:TrackPointExtension></extensions>
      </trkpt>
      <trkpt lat="-11.639953247176" lon="166.98691823169">
        <ele>13.2</ele>
        <time>2026-05-06T13:57:16Z</time>
        <extensions><gpxtpx:TrackPointExtension><gpxtpx:hr>120</gpxtpx:hr></gpxtpx:TrackPointExtension></extensions>
      </trkpt>
      <trkpt lat="-11.639900776482" lon="166.98686307879">
        <ele>13.2</ele>
        <time>2026-05-06T13:57:17Z</time>
        <extensions><gpxtpx:TrackPointExtension><gpxtpx:hr>120</gpxtpx:hr></gpxtpx:TrackPointExtension></extensions>
      </trkpt>
      <trkpt lat="-11.639852915833" lon="166.98679543686">
        <ele>13.2</ele>
        <time>2026-05-06T13:57:18Z</time>
        <extensions><gpxtpx:TrackPointExtension><gpxtpx:hr>120</gpxtpx:hr></gpxtpx:TrackPointExtension></extensions>
      </trkpt>
      <trkpt lat="-11.639824752649" lon="166.98672016739">
        <ele>13.2</ele>
        <time>2026-05-06T13:57:19Z</time>
        <extensions><gpxtpx:TrackPointExtension><gpxtpx:hr>121</gpxtpx:hr></gpxtpx:TrackPointExtension></extensions>
      </trkpt>
      <trkpt lat="-11.639820645518" lon="166.98663936588">
        <ele>13.2</ele>
        <time>2026-05-06T13:57:20Z</time>
        <extensions><gpxtpx:TrackPointExtension><gpxtpx:hr>121</gpxtpx:hr></gpxtpx:TrackPointExtension></extensions>
      </trkpt>
      <trkpt lat="-11.639841097354" lon="166.9865604922">
        <ele>13.2</ele>
        <time>2026-05-06T13:57:21Z</time>
        <extensions><gpxtpx:TrackPointExtension><gpxtpx:hr>121</gpxtpx:hr></gpxtpx:TrackPointExtension></extensions>
      </trkpt>
      <trkpt lat="-11.63987831299" lon="166.98649125771">
        <ele>13.2</ele>
        <time>2026-05-06T13:57:22Z</time>
        <extensions><gpxtpx:TrackPointExtension><gpxtpx:hr>121</gpxtpx:hr></gpxtpx:TrackPointExtension></extensions>
      </trkpt>
      <trkpt lat="-11.639928436752" lon="166.98642193939">
        <ele>13.2</ele>
        <time>2026-05-06T13:57:23Z</time>
        <extensions><gpxtpx:TrackPointExtension><gpxtpx:hr>121</gpxtpx:hr></gpxtpx:TrackPointExtension></extensions>
      </trkpt>
      <trkpt lat="-11.639979482523" lon="166.98636117062">
        <ele>13.2</ele>
        <time>2026-05-06T13:57:24Z</time>
        <extensions><gpxtpx:TrackPointExtension><gpxtpx:hr>121</gpxtpx:hr></gpxtpx:TrackPointExtension></extensions>
      </trkpt>
      <trkpt lat="-11.640035138339" lon="166.98629947983">
        <ele>13.2</ele>
        <time>2026-05-06T13:57:25Z</time>
        <extensions><gpxtpx:TrackPointExtension><gpxtpx:hr>122</gpxtpx:hr></gpxtpx:TrackPointExtension></extensions>
      </trkpt>
      <trkpt lat="-11.640095823295" lon="166.9862371185">
        <ele>13.2</ele>
        <time>2026-05-06T13:57:26Z</time>
        <extensions><gpxtpx:TrackPointExtension><gpxtpx:hr>122</gpxtpx:hr></gpxtpx:TrackPointExtension></extensions>
      </trkpt>
      <trkpt lat="-11.640156843527" lon="166.98617919957">
        <ele>13.2</ele>
        <time>2026-05-06T13:57:27Z</time>
        <extensions><gpxtpx:TrackPointExtension><gpxtpx:hr>122</gpxtpx:hr></gpxtpx:TrackPointExtension></extensions>
      </trkpt>
      <trkpt lat="-11.640216522655" lon="166.98612413048">
        <ele>13.2</ele>
        <time>2026-05-06T13:57:28Z</time>
        <extensions><gpxtpx:TrackPointExtension><gpxtpx:hr>123</gpxtpx:hr></gpxtpx:TrackPointExtension></extensions>
      </trkpt>
      <trkpt lat="-11.640280979466" lon="166.98606830703">
        <ele>13.2</ele>
        <time>2026-05-06T13:57:29Z</time>
        <extensions><gpxtpx:TrackPointExtension><gpxtpx:hr>124</gpxtpx:hr></gpxtpx:TrackPointExtension></extensions>
      </trkpt>
      <trkpt lat="-11.640349040494" lon="166.9860108072">
        <ele>13.2</ele>
        <time>2026-05-06T13:57:30Z</time>
        <extensions><gpxtpx:TrackPointExtension><gpxtpx:hr>124</gpxtpx:hr></gpxtpx:TrackPointExtension></extensions>
      </trkpt>
      <trkpt lat="-11.64041475459" lon="166.98595489992">
        <ele>13.2</ele>
        <time>2026-05-06T13:57:31Z</time>
        <extensions><gpxtpx:TrackPointExtension><gpxtpx:hr>125</gpxtpx:hr></gpxtpx:TrackPointExtension></extensions>
      </trkpt>
      <trkpt lat="-11.640479965772" lon="166.985897903">
        <ele>13.2</ele>
        <time>2026-05-06T13:57:32Z</time>
        <extensions><gpxtpx:TrackPointExtension><gpxtpx:hr>126</gpxtpx:hr></gpxtpx:TrackPointExtension></extensions>
      </trkpt>
      <trkpt lat="-11.64054215947" lon="166.98584191191">
        <ele>13.2</ele>
        <time>2026-05-06T13:57:33Z</time>
        <extensions><gpxtpx:TrackPointExtension><gpxtpx:hr>126</gpxtpx:hr></gpxtpx:TrackPointExtension></extensions>
      </trkpt>
      <trkpt lat="-11.640608041204" lon="166.9857792153">
        <ele>13.2</ele>
        <time>2026-05-06T13:57:34Z</time>
        <extensions><gpxtpx:TrackPointExtension><gpxtpx:hr>127</gpxtpx:hr></gpxtpx:TrackPointExtension></extensions>
      </trkpt>
      <trkpt lat="-11.640664283753" lon="166.98571668633">
        <ele>13.2</ele>
        <time>2026-05-06T13:57:35Z</time>
        <extensions><gpxtpx:TrackPointExtension><gpxtpx:hr>127</gpxtpx:hr></gpxtpx:TrackPointExtension></extensions>
      </trkpt>
      <trkpt lat="-11.640715580981" lon="166.98564476962">
        <ele>13.2</ele>
        <time>2026-05-06T13:57:36Z</time>
        <extensions><gpxtpx:TrackPointExtension><gpxtpx:hr>127</gpxtpx:hr></gpxtpx:TrackPointExtension></extensions>
      </trkpt>
      <trkpt lat="-11.640764112182" lon="166.98556757233">
        <ele>13.2</ele>
        <time>2026-05-06T13:57:37Z</time>
        <extensions><gpxtpx:TrackPointExtension><gpxtpx:hr>128</gpxtpx:hr></gpxtpx:TrackPointExtension></extensions>
      </trkpt>
      <trkpt lat="-11.64080870389" lon="166.98549196759">
        <ele>13.2</ele>
        <time>2026-05-06T13:57:38Z</time>
        <extensions><gpxtpx:TrackPointExtension><gpxtpx:hr>128</gpxtpx:hr></gpxtpx:TrackPointExtension></extensions>
      </trkpt>
      <trkpt lat="-11.640846087164" lon="166.98540680748">
        <ele>13.2</ele>
        <time>2026-05-06T13:57:39Z</time>
        <extensions><gpxtpx:TrackPointExtension><gpxtpx:hr>128</gpxtpx:hr></gpxtpx:TrackPointExtension></extensions>
      </trkpt>
      <trkpt lat="-11.640873663615" lon="166.9853217312">
        <ele>13</ele>
        <time>2026-05-06T13:57:40Z</time>
        <extensions><gpxtpx:TrackPointExtension><gpxtpx:hr>128</gpxtpx:hr></gpxtpx:TrackPointExtension></extensions>
      </trkpt>
      <trkpt lat="-11.640892690528" lon="166.98523816365">
        <ele>13</ele>
        <time>2026-05-06T13:57:41Z</time>
        <extensions><gpxtpx:TrackPointExtension><gpxtpx:hr>128</gpxtpx:hr></gpxtpx:TrackPointExtension></extensions>
      </trkpt>
      <trkpt lat="-11.640903000265" lon="166.98514613039">
        <ele>13</ele>
        <time>2026-05-06T13:57:42Z</time>
        <extensions><gpxtpx:TrackPointExtension><gpxtpx:hr>129</gpxtpx:hr></gpxtpx:TrackPointExtension></extensions>
      </trkpt>
      <trkpt lat="-11.640907275034" lon="166.98505946155">
        <ele>13.2</ele>
        <time>2026-05-06T13:57:43Z</time>
        <extensions><gpxtpx:TrackPointExtension><gpxtpx:hr>129</gpxtpx:hr></gpxtpx:TrackPointExtension></extensions>
      </trkpt>
      <trkpt lat="-11.640909957242" lon="166.98497019431">
        <ele>13.2</ele>
        <time>2026-05-06T13:57:44Z</time>
        <extensions><gpxtpx:TrackPointExtension><gpxtpx:hr>129</gpxtpx:hr></gpxtpx:TrackPointExtension></extensions>
      </trkpt>
      <trkpt lat="-11.640908616138" lon="166.98488570476">
        <ele>13.2</ele>
        <time>2026-05-06T13:57:45Z</time>
        <extensions><gpxtpx:TrackPointExtension><gpxtpx:hr>129</gpxtpx:hr></gpxtpx:TrackPointExtension></extensions>
      </trkpt>
      <trkpt lat="-11.640900988609" lon="166.98479937119">
        <ele>13.2</ele>
        <time>2026-05-06T13:57:46Z</time>
        <extensions><gpxtpx:TrackPointExtension><gpxtpx:hr>129</gpxtpx:hr></gpxtpx:TrackPointExtension></extensions>
      </trkpt>
      <trkpt lat="-11.640889086311" lon="166.98471965932">
        <ele>13.4</ele>
        <time>2026-05-06T13:57:47Z</time>
        <extensions><gpxtpx:TrackPointExtension><gpxtpx:hr>129</gpxtpx:hr></gpxtpx:TrackPointExtension></extensions>
      </trkpt>
      <trkpt lat="-11.640872573968" lon="166.98463525359">
        <ele>13.4</ele>
        <time>2026-05-06T13:57:48Z</time>
        <extensions><gpxtpx:TrackPointExtension><gpxtpx:hr>130</gpxtpx:hr></gpxtpx:TrackPointExtension></extensions>
      </trkpt>
      <trkpt lat="-11.640853630874" lon="166.98455755337">
        <ele>13.6</ele>
        <time>2026-05-06T13:57:49Z</time>
        <extensions><gpxtpx:TrackPointExtension><gpxtpx:hr>129</gpxtpx:hr></gpxtpx:TrackPointExtension></extensions>
      </trkpt>
      <trkpt lat="-11.640830580649" lon="166.98448220009">
        <ele>13.6</ele>
        <time>2026-05-06T13:57:50Z</time>
        <extensions><gpxtpx:TrackPointExtension><gpxtpx:hr>130</gpxtpx:hr></gpxtpx:TrackPointExtension></extensions>
      </trkpt>
      <trkpt lat="-11.640801663094" lon="166.98440659536">
        <ele>13.6</ele>
        <time>2026-05-06T13:57:51Z</time>
        <extensions><gpxtpx:TrackPointExtension><gpxtpx:hr>130</gpxtpx:hr></gpxtpx:TrackPointExtension></extensions>
      </trkpt>
      <trkpt lat="-11.640766542933" lon="166.98433467865">
        <ele>13.6</ele>
        <time>2026-05-06T13:57:52Z</time>
        <extensions><gpxtpx:TrackPointExtension><gpxtpx:hr>130</gpxtpx:hr></gpxtpx:TrackPointExtension></extensions>
      </trkpt>
      <trkpt lat="-11.64072572308" lon="166.98427173059">
        <ele>13.8</ele>
        <time>2026-05-06T13:57:53Z</time>
        <extensions><gpxtpx:TrackPointExtension><gpxtpx:hr>130</gpxtpx:hr></gpxtpx:TrackPointExtension></extensions>
      </trkpt>
      <trkpt lat="-11.640675850775" lon="166.98421129709">
        <ele>13.8</ele>
        <time>2026-05-06T13:57:54Z</time>
        <extensions><gpxtpx:TrackPointExtension><gpxtpx:hr>130</gpxtpx:hr></gpxtpx:TrackPointExtension></extensions>
      </trkpt>
      <trkpt lat="-11.640621368425" lon="166.98415497072">
        <ele>13.8</ele>
        <time>2026-05-06T13:57:55Z</time>
        <extensions><gpxtpx:TrackPointExtension><gpxtpx:hr>130</gpxtpx:hr></gpxtpx:TrackPointExtension></extensions>
      </trkpt>
      <trkpt lat="-11.640563198039" lon="166.98410132656">
        <ele>13.8</ele>
        <time>2026-05-06T13:57:56Z</time>
        <extensions><gpxtpx:TrackPointExtension><gpxtpx:hr>130</gpxtpx:hr></gpxtpx:TrackPointExtension></extensions>
      </trkpt>
      <trkpt lat="-11.640500836703" lon="166.98405329827">
        <ele>13.8</ele>
        <time>2026-05-06T13:57:57Z</time>
        <extensions><gpxtpx:TrackPointExtension><gpxtpx:hr>130</gpxtpx:hr></gpxtpx:TrackPointExtension></extensions>
      </trkpt>
      <trkpt lat="-11.64043570934" lon="166.98400946093">
        <ele>13.8</ele>
        <time>2026-05-06T13:57:58Z</time>
        <extensions><gpxtpx:TrackPointExtension><gpxtpx:hr>130</gpxtpx:hr></gpxtpx:TrackPointExtension></extensions>
      </trkpt>
      <trkpt lat="-11.640368821778" lon="166.98396981455">
        <ele>13.8</ele>
        <time>2026-05-06T13:57:59Z</time>
        <extensions><gpxtpx:TrackPointExtension><gpxtpx:hr>130</gpxtpx:hr></gpxtpx:TrackPointExtension></extensions>
      </trkpt>
      <trkpt lat="-11.640296653619" lon="166.98393838242">
        <ele>13.8</ele>
        <time>2026-05-06T13:58:00Z</time>
        <extensions><gpxtpx:TrackPointExtension><gpxtpx:hr>130</gpxtpx:hr></gpxtpx:TrackPointExtension></extensions>
      </trkpt>
      <trkpt lat="-11.640223898727" lon="166.98391306908">
        <ele>13.8</ele>
        <time>2026-05-06T13:58:01Z</time>
        <extensions><gpxtpx:TrackPointExtension><gpxtpx:hr>129</gpxtpx:hr></gpxtpx:TrackPointExtension></extensions>
      </trkpt>
      <trkpt lat="-11.640149383636" lon="166.98388892921">
        <ele>13.8</ele>
        <time>2026-05-06T13:58:02Z</time>
        <extensions><gpxtpx:TrackPointExtension><gpxtpx:hr>127</gpxtpx:hr></gpxtpx:TrackPointExtension></extensions>
      </trkpt>
      <trkpt lat="-11.64007780221" lon="166.98386780682">
        <ele>13.8</ele>
        <time>2026-05-06T13:58:03Z</time>
        <extensions><gpxtpx:TrackPointExtension><gpxtpx:hr>127</gpxtpx:hr></gpxtpx:TrackPointExtension></extensions>
      </trkpt>
      <trkpt lat="-11.640004544404" lon="166.98384743881">
        <ele>14</ele>
        <time>2026-05-06T13:58:04Z</time>
        <extensions><gpxtpx:TrackPointExtension><gpxtpx:hr>126</gpxtpx:hr></gpxtpx:TrackPointExtension></extensions>
      </trkpt>
      <trkpt lat="-11.639931538055" lon="166.98382673551">
        <ele>14</ele>
        <time>2026-05-06T13:58:05Z</time>
        <extensions><gpxtpx:TrackPointExtension><gpxtpx:hr>126</gpxtpx:hr></gpxtpx:TrackPointExtension></extensions>
      </trkpt>
      <trkpt lat="-11.639858112611" lon="166.98380351765">
        <ele>14</ele>
        <time>2026-05-06T13:58:06Z</time>
        <extensions><gpxtpx:TrackPointExtension><gpxtpx:hr>126</gpxtpx:hr></gpxtpx:TrackPointExtension></extensions>
      </trkpt>
      <trkpt lat="-11.639790554497" lon="166.98377778522">
        <ele>14</ele>
        <time>2026-05-06T13:58:07Z</time>
        <extensions><gpxtpx:TrackPointExtension><gpxtpx:hr>125</gpxtpx:hr></gpxtpx:TrackPointExtension></extensions>
      </trkpt>
      <trkpt lat="-11.639720397994" lon="166.98374358707">
        <ele>14</ele>
        <time>2026-05-06T13:58:08Z</time>
        <extensions><gpxtpx:TrackPointExtension><gpxtpx:hr>125</gpxtpx:hr></gpxtpx:TrackPointExtension></extensions>
      </trkpt>
      <trkpt lat="-11.639660299771" lon="166.98370444359">
        <ele>14.2</ele>
        <time>2026-05-06T13:58:09Z</time>
        <extensions><gpxtpx:TrackPointExtension><gpxtpx:hr>125</gpxtpx:hr></gpxtpx:TrackPointExtension></extensions>
      </trkpt>
      <trkpt lat="-11.63960254848" lon="166.98365490656">
        <ele>14.2</ele>
        <time>2026-05-06T13:58:10Z</time>
        <extensions><gpxtpx:TrackPointExtension><gpxtpx:hr>126</gpxtpx:hr></gpxtpx:TrackPointExtension></extensions>
      </trkpt>
      <trkpt lat="-11.639551251252" lon="166.98360092713">
        <ele>14.2</ele>
        <time>2026-05-06T13:58:11Z</time>
        <extensions><gpxtpx:TrackPointExtension><gpxtpx:hr>125</gpxtpx:hr></gpxtpx:TrackPointExtension></extensions>
      </trkpt>
      <trkpt lat="-11.639504815526" lon="166.98354317584">
        <ele>14.4</ele>
        <time>2026-05-06T13:58:12Z</time>
        <extensions><gpxtpx:TrackPointExtension><gpxtpx:hr>125</gpxtpx:hr></gpxtpx:TrackPointExtension></extensions>
      </trkpt>
      <trkpt lat="-11.639462235474" lon="166.98348114978">
        <ele>14.4</ele>
        <time>2026-05-06T13:58:13Z</time>
        <extensions><gpxtpx:TrackPointExtension><gpxtpx:hr>125</gpxtpx:hr></gpxtpx:TrackPointExtension></extensions>
      </trkpt>
      <trkpt lat="-11.639426696218" lon="166.98342029718">
        <ele>14.4</ele>
        <time>2026-05-06T13:58:14Z</time>
        <extensions><gpxtpx:TrackPointExtension><gpxtpx:hr>125</gpxtpx:hr></gpxtpx:TrackPointExtension></extensions>
      </trkpt>
      <trkpt lat="-11.639393755351" lon="166.98335558892">
        <ele>14.6</ele>
        <time>2026-05-06T13:58:15Z</time>
        <extensions><gpxtpx:TrackPointExtension><gpxtpx:hr>125</gpxtpx:hr></gpxtpx:TrackPointExtension></extensions>
      </trkpt>
      <trkpt lat="-11.639362323226" lon="166.98328752789">
        <ele>14.6</ele>
        <time>2026-05-06T13:58:16Z</time>
        <extensions><gpxtpx:TrackPointExtension><gpxtpx:hr>124</gpxtpx:hr></gpxtpx:TrackPointExtension></extensions>
      </trkpt>
      <trkpt lat="-11.639335333508" lon="166.98322432836">
        <ele>14.6</ele>
        <time>2026-05-06T13:58:17Z</time>
        <extensions><gpxtpx:TrackPointExtension><gpxtpx:hr>124</gpxtpx:hr></gpxtpx:TrackPointExtension></extensions>
      </trkpt>
      <trkpt lat="-11.639308008514" lon="166.98315526151">
        <ele>14.8</ele>
        <time>2026-05-06T13:58:18Z</time>
        <extensions><gpxtpx:TrackPointExtension><gpxtpx:hr>123</gpxtpx:hr></gpxtpx:TrackPointExtension></extensions>
      </trkpt>
      <trkpt lat="-11.639283617185" lon="166.98308803867">
        <ele>14.8</ele>
        <time>2026-05-06T13:58:19Z</time>
        <extensions><gpxtpx:TrackPointExtension><gpxtpx:hr>123</gpxtpx:hr></gpxtpx:TrackPointExtension></extensions>
      </trkpt>
      <trkpt lat="-11.639260902236" lon="166.9830202291">
        <ele>14.8</ele>
        <time>2026-05-06T13:58:20Z</time>
        <extensions><gpxtpx:TrackPointExtension><gpxtpx:hr>123</gpxtpx:hr></gpxtpx:TrackPointExtension></extensions>
      </trkpt>
      <trkpt lat="-11.639240115124" lon="166.98295459882">
        <ele>14.8</ele>
        <time>2026-05-06T13:58:21Z</time>
        <extensions><gpxtpx:TrackPointExtension><gpxtpx:hr>122</gpxtpx:hr></gpxtpx:TrackPointExtension></extensions>
      </trkpt>
      <trkpt lat="-11.639218322184" lon="166.98288301739">
        <ele>14.8</ele>
        <time>2026-05-06T13:58:22Z</time>
        <extensions><gpxtpx:TrackPointExtension><gpxtpx:hr>122</gpxtpx:hr></gpxtpx:TrackPointExtension></extensions>
      </trkpt>
      <trkpt lat="-11.639198373262" lon="166.98281495637">
        <ele>14.8</ele>
        <time>2026-05-06T13:58:23Z</time>
        <extensions><gpxtpx:TrackPointExtension><gpxtpx:hr>121</gpxtpx:hr></gpxtpx:TrackPointExtension></extensions>
      </trkpt>
      <trkpt lat="-11.639178675797" lon="166.98274337494">
        <ele>14.8</ele>
        <time>2026-05-06T13:58:24Z</time>
        <extensions><gpxtpx:TrackPointExtension><gpxtpx:hr>121</gpxtpx:hr></gpxtpx:TrackPointExtension></extensions>
      </trkpt>
      <trkpt lat="-11.639161828178" lon="166.98267514627">
        <ele>14.6</ele>
        <time>2026-05-06T13:58:25Z</time>
        <extensions><gpxtpx:TrackPointExtension><gpxtpx:hr>122</gpxtpx:hr></gpxtpx:TrackPointExtension></extensions>
      </trkpt>
      <trkpt lat="-11.639146489301" lon="166.98260306193">
        <ele>14.6</ele>
        <time>2026-05-06T13:58:26Z</time>
        <extensions><gpxtpx:TrackPointExtension><gpxtpx:hr>122</gpxtpx:hr></gpxtpx:TrackPointExtension></extensions>
      </trkpt>
      <trkpt lat="-11.639133497356" lon="166.9825270381">
        <ele>14.6</ele>
        <time>2026-05-06T13:58:27Z</time>
        <extensions><gpxtpx:TrackPointExtension><gpxtpx:hr>122</gpxtpx:hr></gpxtpx:TrackPointExtension></extensions>
      </trkpt>
      <trkpt lat="-11.639124863999" lon="166.98245604341">
        <ele>14.6</ele>
        <time>2026-05-06T13:58:28Z</time>
        <extensions><gpxtpx:TrackPointExtension><gpxtpx:hr>121</gpxtpx:hr></gpxtpx:TrackPointExtension></extensions>
      </trkpt>
      <trkpt lat="-11.639120170135" lon="166.98237825937">
        <ele>14.4</ele>
        <time>2026-05-06T13:58:29Z</time>
        <extensions><gpxtpx:TrackPointExtension><gpxtpx:hr>121</gpxtpx:hr></gpxtpx:TrackPointExtension></extensions>
      </trkpt>
      <trkpt lat="-11.639121678877" lon="166.98230449865">
        <ele>14.4</ele>
        <time>2026-05-06T13:58:30Z</time>
        <extensions><gpxtpx:TrackPointExtension><gpxtpx:hr>121</gpxtpx:hr></gpxtpx:TrackPointExtension></extensions>
      </trkpt>
      <trkpt lat="-11.639131234243" lon="166.98222948065">
        <ele>14.4</ele>
        <time>2026-05-06T13:58:31Z</time>
        <extensions><gpxtpx:TrackPointExtension><gpxtpx:hr>121</gpxtpx:hr></gpxtpx:TrackPointExtension></extensions>
      </trkpt>
      <trkpt lat="-11.639151769898" lon="166.9821564743">
        <ele>14.4</ele>
        <time>2026-05-06T13:58:32Z</time>
        <extensions><gpxtpx:TrackPointExtension><gpxtpx:hr>120</gpxtpx:hr></gpxtpx:TrackPointExtension></extensions>
      </trkpt>
      <trkpt lat="-11.639185381317" lon="166.98208866473">
        <ele>14.4</ele>
        <time>2026-05-06T13:58:33Z</time>
        <extensions><gpxtpx:TrackPointExtension><gpxtpx:hr>120</gpxtpx:hr></gpxtpx:TrackPointExtension></extensions>
      </trkpt>
      <trkpt lat="-11.639230895034" lon="166.98202806359">
        <ele>14.2</ele>
        <time>2026-05-06T13:58:34Z</time>
        <extensions><gpxtpx:TrackPointExtension><gpxtpx:hr>120</gpxtpx:hr></gpxtpx:TrackPointExtension></extensions>
      </trkpt>
      <trkpt lat="-11.639284958289" lon="166.98197508999">
        <ele>14.2</ele>
        <time>2026-05-06T13:58:35Z</time>
        <extensions><gpxtpx:TrackPointExtension><gpxtpx:hr>120</gpxtpx:hr></gpxtpx:TrackPointExtension></extensions>
      </trkpt>
      <trkpt lat="-11.63934438596" lon="166.98192831898">
        <ele>14.2</ele>
        <time>2026-05-06T13:58:36Z</time>
        <extensions><gpxtpx:TrackPointExtension><gpxtpx:hr>120</gpxtpx:hr></gpxtpx:TrackPointExtension></extensions>
      </trkpt>
      <trkpt lat="-11.639406998753" lon="166.98188599039">
        <ele>14.2</ele>
        <time>2026-05-06T13:58:37Z</time>
        <extensions><gpxtpx:TrackPointExtension><gpxtpx:hr>120</gpxtpx:hr></gpxtpx:TrackPointExtension></extensions>
      </trkpt>
      <trkpt lat="-11.639471204107" lon="166.98184617636">
        <ele>14.2</ele>
        <time>2026-05-06T13:58:38Z</time>
        <extensions><gpxtpx:TrackPointExtension><gpxtpx:hr>119</gpxtpx:hr></gpxtpx:TrackPointExtension></extensions>
      </trkpt>
      <trkpt lat="-11.639536163832" lon="166.98180745199">
        <ele>14.2</ele>
        <time>2026-05-06T13:58:39Z</time>
        <extensions><gpxtpx:TrackPointExtension><gpxtpx:hr>119</gpxtpx:hr></gpxtpx:TrackPointExtension></extensions>
      </trkpt>
      <trkpt lat="-11.639601123557" lon="166.98176889525">
        <ele>14.2</ele>
        <time>2026-05-06T13:58:40Z</time>
        <extensions><gpxtpx:TrackPointExtension><gpxtpx:hr>119</gpxtpx:hr></gpxtpx:TrackPointExtension></extensions>
      </trkpt>
      <trkpt lat="-11.639665161273" lon="166.98172958413">
        <ele>14</ele>
        <time>2026-05-06T13:58:41Z</time>
        <extensions><gpxtpx:TrackPointExtension><gpxtpx:hr>119</gpxtpx:hr></gpxtpx:TrackPointExtension></extensions>
      </trkpt>
      <trkpt lat="-11.639726097686" lon="166.98168633353">
        <ele>14</ele>
        <time>2026-05-06T13:58:42Z</time>
        <extensions><gpxtpx:TrackPointExtension><gpxtpx:hr>119</gpxtpx:hr></gpxtpx:TrackPointExtension></extensions>
      </trkpt>
      <trkpt lat="-11.639783429882" lon="166.98163838906">
        <ele>14</ele>
        <time>2026-05-06T13:58:43Z</time>
        <extensions><gpxtpx:TrackPointExtension><gpxtpx:hr>120</gpxtpx:hr></gpxtpx:TrackPointExtension></extensions>
      </trkpt>
      <trkpt lat="-11.639838415146" lon="166.98158759475">
        <ele>14</ele>
        <time>2026-05-06T13:58:44Z</time>
        <extensions><gpxtpx:TrackPointExtension><gpxtpx:hr>120</gpxtpx:hr></gpxtpx:TrackPointExtension></extensions>
      </trkpt>
      <trkpt lat="-11.639892981315" lon="166.98153629752">
        <ele>14</ele>
        <time>2026-05-06T13:58:45Z</time>
        <extensions><gpxtpx:TrackPointExtension><gpxtpx:hr>120</gpxtpx:hr></gpxtpx:TrackPointExtension></extensions>
      </trkpt>
      <trkpt lat="-11.639947631303" lon="166.98148516793">
        <ele>13.8</ele>
        <time>2026-05-06T13:58:46Z</time>
        <extensions><gpxtpx:TrackPointExtension><gpxtpx:hr>119</gpxtpx:hr></gpxtpx:TrackPointExtension></extensions>
      </trkpt>
      <trkpt lat="-11.640003035662" lon="166.98143479271">
        <ele>13.8</ele>
        <time>2026-05-06T13:58:47Z</time>
        <extensions><gpxtpx:TrackPointExtension><gpxtpx:hr>119</gpxtpx:hr></gpxtpx:TrackPointExtension></extensions>
      </trkpt>
      <trkpt lat="-11.640058775297" lon="166.98138517186">
        <ele>13.8</ele>
        <time>2026-05-06T13:58:48Z</time>
        <extensions><gpxtpx:TrackPointExtension><gpxtpx:hr>119</gpxtpx:hr></gpxtpx:TrackPointExtension></extensions>
      </trkpt>
      <trkpt lat="-11.640114179656" lon="166.98133588629">
        <ele>13.8</ele>
        <time>2026-05-06T13:58:49Z</time>
        <extensions><gpxtpx:TrackPointExtension><gpxtpx:hr>119</gpxtpx:hr></gpxtpx:TrackPointExtension></extensions>
      </trkpt>
      <trkpt lat="-11.640168913463" lon="166.98128634926">
        <ele>13.8</ele>
        <time>2026-05-06T13:58:50Z</time>
        <extensions><gpxtpx:TrackPointExtension><gpxtpx:hr>119</gpxtpx:hr></gpxtpx:TrackPointExtension></extensions>
      </trkpt>
      <trkpt lat="-11.640221635614" lon="166.98123496822">
        <ele>13.6</ele>
        <time>2026-05-06T13:58:51Z</time>
        <extensions><gpxtpx:TrackPointExtension><gpxtpx:hr>118</gpxtpx:hr></gpxtpx:TrackPointExtension></extensions>
      </trkpt>
      <trkpt lat="-11.640272178471" lon="166.98118124024">
        <ele>13.6</ele>
        <time>2026-05-06T13:58:52Z</time>
        <extensions><gpxtpx:TrackPointExtension><gpxtpx:hr>118</gpxtpx:hr></gpxtpx:TrackPointExtension></extensions>
      </trkpt>
      <trkpt lat="-11.640321631681" lon="166.98112667407">
        <ele>13.6</ele>
        <time>2026-05-06T13:58:53Z</time>
        <extensions><gpxtpx:TrackPointExtension><gpxtpx:hr>118</gpxtpx:hr></gpxtpx:TrackPointExtension></extensions>
      </trkpt>
      <trkpt lat="-11.640369240873" lon="166.98107059916">
        <ele>13.6</ele>
        <time>2026-05-06T13:58:54Z</time>
        <extensions><gpxtpx:TrackPointExtension><gpxtpx:hr>118</gpxtpx:hr></gpxtpx:TrackPointExtension></extensions>
      </trkpt>
      <trkpt lat="-11.640415676599" lon="166.98101402133">
        <ele>13.6</ele>
        <time>2026-05-06T13:58:55Z</time>
        <extensions><gpxtpx:TrackPointExtension><gpxtpx:hr>118</gpxtpx:hr></gpxtpx:TrackPointExtension></extensions>
      </trkpt>
      <trkpt lat="-11.640461609411" lon="166.98095761114">
        <ele>13.4</ele>
        <time>2026-05-06T13:58:56Z</time>
        <extensions><gpxtpx:TrackPointExtension><gpxtpx:hr>117</gpxtpx:hr></gpxtpx:TrackPointExtension></extensions>
      </trkpt>
      <trkpt lat="-11.640504692377" lon="166.9808991893">
        <ele>13.4</ele>
        <time>2026-05-06T13:58:57Z</time>
        <extensions><gpxtpx:TrackPointExtension><gpxtpx:hr>116</gpxtpx:hr></gpxtpx:TrackPointExtension></extensions>
      </trkpt>
      <trkpt lat="-11.640544003488" lon="166.98083816907">
        <ele>13.4</ele>
        <time>2026-05-06T13:58:58Z</time>
        <extensions><gpxtpx:TrackPointExtension><gpxtpx:hr>115</gpxtpx:hr></gpxtpx:TrackPointExtension></extensions>
      </trkpt>
      <trkpt lat="-11.640581302943" lon="166.9807756401">
        <ele>13.4</ele>
        <time>2026-05-06T13:58:59Z</time>
        <extensions><gpxtpx:TrackPointExtension><gpxtpx:hr>115</gpxtpx:hr></gpxtpx:TrackPointExtension></extensions>
      </trkpt>
      <trkpt lat="-11.640617680389" lon="166.98071076419">
        <ele>13.4</ele>
        <time>2026-05-06T13:59:00Z</time>
        <extensions><gpxtpx:TrackPointExtension><gpxtpx:hr>114</gpxtpx:hr></gpxtpx:TrackPointExtension></extensions>
      </trkpt>
      <trkpt lat="-11.640650956532" lon="166.98064731321">
        <ele>13.4</ele>
        <time>2026-05-06T13:59:01Z</time>
        <extensions><gpxtpx:TrackPointExtension><gpxtpx:hr>114</gpxtpx:hr></gpxtpx:TrackPointExtension></extensions>
      </trkpt>
      <trkpt lat="-11.640685657598" lon="166.9805828564">
        <ele>13.4</ele>
        <time>2026-05-06T13:59:02Z</time>
        <extensions><gpxtpx:TrackPointExtension><gpxtpx:hr>114</gpxtpx:hr></gpxtpx:TrackPointExtension></extensions>
      </trkpt>
      <trkpt lat="-11.640719520474" lon="166.98051781285">
        <ele>13.4</ele>
        <time>2026-05-06T13:59:03Z</time>
        <extensions><gpxtpx:TrackPointExtension><gpxtpx:hr>114</gpxtpx:hr></gpxtpx:TrackPointExtension></extensions>
      </trkpt>
      <trkpt lat="-11.640753048074" lon="166.98045243403">
        <ele>13.2</ele>
        <time>2026-05-06T13:59:04Z</time>
        <extensions><gpxtpx:TrackPointExtension><gpxtpx:hr>115</gpxtpx:hr></gpxtpx:TrackPointExtension></extensions>
      </trkpt>
      <trkpt lat="-11.640784815475" lon="166.9803861332">
        <ele>13.2</ele>
        <time>2026-05-06T13:59:05Z</time>
        <extensions><gpxtpx:TrackPointExtension><gpxtpx:hr>115</gpxtpx:hr></gpxtpx:TrackPointExtension></extensions>
      </trkpt>
      <trkpt lat="-11.640816331419" lon="166.98031958092">
        <ele>13.2</ele>
        <time>2026-05-06T13:59:06Z</time>
        <extensions><gpxtpx:TrackPointExtension><gpxtpx:hr>115</gpxtpx:hr></gpxtpx:TrackPointExtension></extensions>
      </trkpt>
      <trkpt lat="-11.640846590078" lon="166.98025235808">
        <ele>13.2</ele>
        <time>2026-05-06T13:59:07Z</time>
        <extensions><gpxtpx:TrackPointExtension><gpxtpx:hr>114</gpxtpx:hr></gpxtpx:TrackPointExtension></extensions>
      </trkpt>
      <trkpt lat="-11.640876010547" lon="166.98018454851">
        <ele>13.2</ele>
        <time>2026-05-06T13:59:08Z</time>
        <extensions><gpxtpx:TrackPointExtension><gpxtpx:hr>114</gpxtpx:hr></gpxtpx:TrackPointExtension></extensions>
      </trkpt>
      <trkpt lat="-11.640903586998" lon="166.98011556547">
        <ele>13.2</ele>
        <time>2026-05-06T13:59:09Z</time>
        <extensions><gpxtpx:TrackPointExtension><gpxtpx:hr>114</gpxtpx:hr></gpxtpx:TrackPointExtension></extensions>
      </trkpt>
      <trkpt lat="-11.640929151793" lon="166.98004524133">
        <ele>13.2</ele>
        <time>2026-05-06T13:59:10Z</time>
        <extensions><gpxtpx:TrackPointExtension><gpxtpx:hr>114</gpxtpx:hr></gpxtpx:TrackPointExtension></extensions>
      </trkpt>
      <trkpt lat="-11.640953543122" lon="166.97997399518">
        <ele>13.2</ele>
        <time>2026-05-06T13:59:11Z</time>
        <extensions><gpxtpx:TrackPointExtension><gpxtpx:hr>115</gpxtpx:hr></gpxtpx:TrackPointExtension></extensions>
      </trkpt>
      <trkpt lat="-11.640977431537" lon="166.9799021623">
        <ele>13.2</ele>
        <time>2026-05-06T13:59:12Z</time>
        <extensions><gpxtpx:TrackPointExtension><gpxtpx:hr>115</gpxtpx:hr></gpxtpx:TrackPointExtension></extensions>
      </trkpt>
      <trkpt lat="-11.641000062667" lon="166.9798298265">
        <ele>13.2</ele>
        <time>2026-05-06T13:59:13Z</time>
        <extensions><gpxtpx:TrackPointExtension><gpxtpx:hr>114</gpxtpx:hr></gpxtpx:TrackPointExtension></extensions>
      </trkpt>
      <trkpt lat="-11.641020598322" lon="166.97975656869">
        <ele>13.2</ele>
        <time>2026-05-06T13:59:14Z</time>
        <extensions><gpxtpx:TrackPointExtension><gpxtpx:hr>114</gpxtpx:hr></gpxtpx:TrackPointExtension></extensions>
      </trkpt>
      <trkpt lat="-11.641038116493" lon="166.97968255652">
        <ele>13.2</ele>
        <time>2026-05-06T13:59:15Z</time>
        <extensions><gpxtpx:TrackPointExtension><gpxtpx:hr>114</gpxtpx:hr></gpxtpx:TrackPointExtension></extensions>
      </trkpt>
      <trkpt lat="-11.641052114266" lon="166.97960770615">
        <ele>13.2</ele>
        <time>2026-05-06T13:59:16Z</time>
        <extensions><gpxtpx:TrackPointExtension><gpxtpx:hr>115</gpxtpx:hr></gpxtpx:TrackPointExtension></extensions>
      </trkpt>
      <trkpt lat="-11.641062591641" lon="166.97953235287">
        <ele>13.2</ele>
        <time>2026-05-06T13:59:17Z</time>
        <extensions><gpxtpx:TrackPointExtension><gpxtpx:hr>114</gpxtpx:hr></gpxtpx:TrackPointExtension></extensions>
      </trkpt>
      <trkpt lat="-11.641069464799" lon="166.97945666431">
        <ele>13.2</ele>
        <time>2026-05-06T13:59:18Z</time>
        <extensions><gpxtpx:TrackPointExtension><gpxtpx:hr>114</gpxtpx:hr></gpxtpx:TrackPointExtension></extensions>
      </trkpt>
      <trkpt lat="-11.641072566102" lon="166.97938240068">
        <ele>13.2</ele>
        <time>2026-05-06T13:59:19Z</time>
        <extensions><gpxtpx:TrackPointExtension><gpxtpx:hr>114</gpxtpx:hr></gpxtpx:TrackPointExtension></extensions>
      </trkpt>
      <trkpt lat="-11.641072147007" lon="166.9793052872">
        <ele>13.2</ele>
        <time>2026-05-06T13:59:20Z</time>
        <extensions><gpxtpx:TrackPointExtension><gpxtpx:hr>113</gpxtpx:hr></gpxtpx:TrackPointExtension></extensions>
      </trkpt>
      <trkpt lat="-11.641067453143" lon="166.97923018537">
        <ele>13.2</ele>
        <time>2026-05-06T13:59:21Z</time>
        <extensions><gpxtpx:TrackPointExtension><gpxtpx:hr>113</gpxtpx:hr></gpxtpx:TrackPointExtension></extensions>
      </trkpt>
      <trkpt lat="-11.641058233053" lon="166.97915592174">
        <ele>13.2</ele>
        <time>2026-05-06T13:59:22Z</time>
        <extensions><gpxtpx:TrackPointExtension><gpxtpx:hr>112</gpxtpx:hr></gpxtpx:TrackPointExtension></extensions>
      </trkpt>
      <trkpt lat="-11.641044654375" lon="166.97908123901">
        <ele>13.2</ele>
        <time>2026-05-06T13:59:23Z</time>
        <extensions><gpxtpx:TrackPointExtension><gpxtpx:hr>111</gpxtpx:hr></gpxtpx:TrackPointExtension></extensions>
      </trkpt>
      <trkpt lat="-11.641024873091" lon="166.97901125015">
        <ele>13.2</ele>
        <time>2026-05-06T13:59:24Z</time>
        <extensions><gpxtpx:TrackPointExtension><gpxtpx:hr>111</gpxtpx:hr></gpxtpx:TrackPointExtension></extensions>
      </trkpt>
      <trkpt lat="-11.640997967192" lon="166.97894067455">
        <ele>13.2</ele>
        <time>2026-05-06T13:59:25Z</time>
        <extensions><gpxtpx:TrackPointExtension><gpxtpx:hr>110</gpxtpx:hr></gpxtpx:TrackPointExtension></extensions>
      </trkpt>
      <trkpt lat="-11.64097131275" lon="166.97887353553">
        <ele>13.2</ele>
        <time>2026-05-06T13:59:26Z</time>
        <extensions><gpxtpx:TrackPointExtension><gpxtpx:hr>109</gpxtpx:hr></gpxtpx:TrackPointExtension></extensions>
      </trkpt>
      <trkpt lat="-11.640945664136" lon="166.97880472013">
        <ele>13.2</ele>
        <time>2026-05-06T13:59:27Z</time>
        <extensions><gpxtpx:TrackPointExtension><gpxtpx:hr>109</gpxtpx:hr></gpxtpx:TrackPointExtension></extensions>
      </trkpt>
      <trkpt lat="-11.640915070201" lon="166.97873833548">
        <ele>13.2</ele>
        <time>2026-05-06T13:59:28Z</time>
        <extensions><gpxtpx:TrackPointExtension><gpxtpx:hr>109</gpxtpx:hr></gpxtpx:TrackPointExtension></extensions>
      </trkpt>
      <trkpt lat="-11.640871651959" lon="166.97867982982">
        <ele>13.2</ele>
        <time>2026-05-06T13:59:29Z</time>
        <extensions><gpxtpx:TrackPointExtension><gpxtpx:hr>108</gpxtpx:hr></gpxtpx:TrackPointExtension></extensions>
      </trkpt>
      <trkpt lat="-11.640819097446" lon="166.97862920314">
        <ele>13.2</ele>
        <time>2026-05-06T13:59:30Z</time>
        <extensions><gpxtpx:TrackPointExtension><gpxtpx:hr>108</gpxtpx:hr></gpxtpx:TrackPointExtension></extensions>
      </trkpt>
      <trkpt lat="-11.640761597612" lon="166.97858419234">
        <ele>13.2</ele>
        <time>2026-05-06T13:59:31Z</time>
        <extensions><gpxtpx:TrackPointExtension><gpxtpx:hr>108</gpxtpx:hr></gpxtpx:TrackPointExtension></extensions>
      </trkpt>
      <trkpt lat="-11.640701080294" lon="166.97854261812">
        <ele>13.2</ele>
        <time>2026-05-06T13:59:32Z</time>
        <extensions><gpxtpx:TrackPointExtension><gpxtpx:hr>107</gpxtpx:hr></gpxtpx:TrackPointExtension></extensions>
      </trkpt>
      <trkpt lat="-11.640638970415" lon="166.97850112771">
        <ele>13.2</ele>
        <time>2026-05-06T13:59:33Z</time>
        <extensions><gpxtpx:TrackPointExtension><gpxtpx:hr>107</gpxtpx:hr></gpxtpx:TrackPointExtension></extensions>
      </trkpt>
      <trkpt lat="-11.640576106165" lon="166.97846055932">
        <ele>13.2</ele>
        <time>2026-05-06T13:59:34Z</time>
        <extensions><gpxtpx:TrackPointExtension><gpxtpx:hr>107</gpxtpx:hr></gpxtpx:TrackPointExtension></extensions>
      </trkpt>
      <trkpt lat="-11.640512152268" lon="166.97842149966">
        <ele>13.2</ele>
        <time>2026-05-06T13:59:35Z</time>
        <extensions><gpxtpx:TrackPointExtension><gpxtpx:hr>107</gpxtpx:hr></gpxtpx:TrackPointExtension></extensions>
      </trkpt>
      <trkpt lat="-11.640447611638" lon="166.97838378111">
        <ele>13.2</ele>
        <time>2026-05-06T13:59:36Z</time>
        <extensions><gpxtpx:TrackPointExtension><gpxtpx:hr>106</gpxtpx:hr></gpxtpx:TrackPointExtension></extensions>
      </trkpt>
      <trkpt lat="-11.640383322465" lon="166.97834597874">
        <ele>13.2</ele>
        <time>2026-05-06T13:59:37Z</time>
        <extensions><gpxtpx:TrackPointExtension><gpxtpx:hr>106</gpxtpx:hr></gpxtpx:TrackPointExtension></extensions>
      </trkpt>
      <trkpt lat="-11.640320793491" lon="166.97830264432">
        <ele>13.2</ele>
        <time>2026-05-06T13:59:38Z</time>
        <extensions><gpxtpx:TrackPointExtension><gpxtpx:hr>106</gpxtpx:hr></gpxtpx:TrackPointExtension></extensions>
      </trkpt>
      <trkpt lat="-11.640267819883" lon="166.97825235292">
        <ele>13.2</ele>
        <time>2026-05-06T13:59:39Z</time>
        <extensions><gpxtpx:TrackPointExtension><gpxtpx:hr>106</gpxtpx:hr></gpxtpx:TrackPointExtension></extensions>
      </trkpt>
      <trkpt lat="-11.640224317822" lon="166.97819150033">
        <ele>13.2</ele>
        <time>2026-05-06T13:59:40Z</time>
        <extensions><gpxtpx:TrackPointExtension><gpxtpx:hr>106</gpxtpx:hr></gpxtpx:TrackPointExtension></extensions>
      </trkpt>
      <trkpt lat="-11.640190035851" lon="166.97812494804">
        <ele>13.2</ele>
        <time>2026-05-06T13:59:41Z</time>
        <extensions><gpxtpx:TrackPointExtension><gpxtpx:hr>106</gpxtpx:hr></gpxtpx:TrackPointExtension></extensions>
      </trkpt>
      <trkpt lat="-11.640168242911" lon="166.97805319898">
        <ele>13.2</ele>
        <time>2026-05-06T13:59:42Z</time>
        <extensions><gpxtpx:TrackPointExtension><gpxtpx:hr>106</gpxtpx:hr></gpxtpx:TrackPointExtension></extensions>
      </trkpt>
      <trkpt lat="-11.640159190459" lon="166.9779787677">
        <ele>13.2</ele>
        <time>2026-05-06T13:59:43Z</time>
        <extensions><gpxtpx:TrackPointExtension><gpxtpx:hr>106</gpxtpx:hr></gpxtpx:TrackPointExtension></extensions>
      </trkpt>
      <trkpt lat="-11.640161537391" lon="166.97790349824">
        <ele>13.2</ele>
        <time>2026-05-06T13:59:44Z</time>
        <extensions><gpxtpx:TrackPointExtension><gpxtpx:hr>106</gpxtpx:hr></gpxtpx:TrackPointExtension></extensions>
      </trkpt>
      <trkpt lat="-11.640172182404" lon="166.97782881551">
        <ele>13.2</ele>
        <time>2026-05-06T13:59:45Z</time>
        <extensions><gpxtpx:TrackPointExtension><gpxtpx:hr>106</gpxtpx:hr></gpxtpx:TrackPointExtension></extensions>
      </trkpt>
      <trkpt lat="-11.640188024195" lon="166.97775505479">
        <ele>13.2</ele>
        <time>2026-05-06T13:59:46Z</time>
        <extensions><gpxtpx:TrackPointExtension><gpxtpx:hr>106</gpxtpx:hr></gpxtpx:TrackPointExtension></extensions>
      </trkpt>
      <trkpt lat="-11.640206380556" lon="166.97768188081">
        <ele>13.2</ele>
        <time>2026-05-06T13:59:47Z</time>
        <extensions><gpxtpx:TrackPointExtension><gpxtpx:hr>106</gpxtpx:hr></gpxtpx:TrackPointExtension></extensions>
      </trkpt>
      <trkpt lat="-11.640229598419" lon="166.97761055084">
        <ele>13.4</ele>
        <time>2026-05-06T13:59:48Z</time>
        <extensions><gpxtpx:TrackPointExtension><gpxtpx:hr>106</gpxtpx:hr></gpxtpx:TrackPointExtension></extensions>
      </trkpt>
      <trkpt lat="-11.640263126019" lon="166.97754383091">
        <ele>13.4</ele>
        <time>2026-05-06T13:59:49Z</time>
        <extensions><gpxtpx:TrackPointExtension><gpxtpx:hr>107</gpxtpx:hr></gpxtpx:TrackPointExtension></extensions>
      </trkpt>
      <trkpt lat="-11.640303442958" lon="166.97748163721">
        <ele>13.4</ele>
        <time>2026-05-06T13:59:50Z</time>
        <extensions><gpxtpx:TrackPointExtension><gpxtpx:hr>107</gpxtpx:hr></gpxtpx:TrackPointExtension></extensions>
      </trkpt>
      <trkpt lat="-11.640346693562" lon="166.97742162281">
        <ele>13.6</ele>
        <time>2026-05-06T13:59:51Z</time>
        <extensions><gpxtpx:TrackPointExtension><gpxtpx:hr>108</gpxtpx:hr></gpxtpx:TrackPointExtension></extensions>
      </trkpt>
      <trkpt lat="-11.640390698537" lon="166.97736211132">
        <ele>13.6</ele>
        <time>2026-05-06T13:59:52Z</time>
        <extensions><gpxtpx:TrackPointExtension><gpxtpx:hr>109</gpxtpx:hr></gpxtpx:TrackPointExtension></extensions>
      </trkpt>
      <trkpt lat="-11.640433362408" lon="166.97730427621">
        <ele>13.6</ele>
        <time>2026-05-06T13:59:53Z</time>
        <extensions><gpxtpx:TrackPointExtension><gpxtpx:hr>109</gpxtpx:hr></gpxtpx:TrackPointExtension></extensions>
      </trkpt>
      <trkpt lat="-11.640475271908" lon="166.97724283688">
        <ele>13.8</ele>
        <time>2026-05-06T13:59:54Z</time>
        <extensions><gpxtpx:TrackPointExtension><gpxtpx:hr>110</gpxtpx:hr></gpxtpx:TrackPointExtension></extensions>
      </trkpt>
      <trkpt lat="-11.640511565535" lon="166.97718030791">
        <ele>13.8</ele>
        <time>2026-05-06T13:59:55Z</time>
        <extensions><gpxtpx:TrackPointExtension><gpxtpx:hr>112</gpxtpx:hr></gpxtpx:TrackPointExtension></extensions>
      </trkpt>
      <trkpt lat="-11.640539980176" lon="166.97711450999">
        <ele>14</ele>
        <time>2026-05-06T13:59:56Z</time>
        <extensions><gpxtpx:TrackPointExtension><gpxtpx:hr>113</gpxtpx:hr></gpxtpx:TrackPointExtension></extensions>
      </trkpt>
      <trkpt lat="-11.64055389413" lon="166.97704477259">
        <ele>14</ele>
        <time>2026-05-06T13:59:57Z</time>
        <extensions><gpxtpx:TrackPointExtension><gpxtpx:hr>113</gpxtpx:hr></gpxtpx:TrackPointExtension></extensions>
      </trkpt>
      <trkpt lat="-11.640548781171" lon="166.97697545427">
        <ele>14</ele>
        <time>2026-05-06T13:59:58Z</time>
        <extensions><gpxtpx:TrackPointExtension><gpxtpx:hr>114</gpxtpx:hr></gpxtpx:TrackPointExtension></extensions>
      </trkpt>
      <trkpt lat="-11.640526820593" lon="166.97690613596">
        <ele>14</ele>
        <time>2026-05-06T13:59:59Z</time>
        <extensions><gpxtpx:TrackPointExtension><gpxtpx:hr>115</gpxtpx:hr></gpxtpx:TrackPointExtension></extensions>
      </trkpt>
      <trkpt lat="-11.64049605902" lon="166.97684134387">
        <ele>14</ele>
        <time>2026-05-06T14:00:00Z</time>
        <extensions><gpxtpx:TrackPointExtension><gpxtpx:hr>115</gpxtpx:hr></gpxtpx:TrackPointExtension></extensions>
      </trkpt>
      <trkpt lat="-11.640459849212" lon="166.97677923399">
        <ele>14</ele>
        <time>2026-05-06T14:00:01Z</time>
        <extensions><gpxtpx:TrackPointExtension><gpxtpx:hr>115</gpxtpx:hr></gpxtpx:TrackPointExtension></extensions>
      </trkpt>
      <trkpt lat="-11.640419951368" lon="166.97671938723">
        <ele>14</ele>
        <time>2026-05-06T14:00:02Z</time>
        <extensions><gpxtpx:TrackPointExtension><gpxtpx:hr>115</gpxtpx:hr></gpxtpx:TrackPointExtension></extensions>
      </trkpt>
      <trkpt lat="-11.640377203678" lon="166.97666130066">
        <ele>14</ele>
        <time>2026-05-06T14:00:03Z</time>
        <extensions><gpxtpx:TrackPointExtension><gpxtpx:hr>114</gpxtpx:hr></gpxtpx:TrackPointExtension></extensions>
      </trkpt>
      <trkpt lat="-11.640332276694" lon="166.97660463902">
        <ele>14</ele>
        <time>2026-05-06T14:00:04Z</time>
        <extensions><gpxtpx:TrackPointExtension><gpxtpx:hr>114</gpxtpx:hr></gpxtpx:TrackPointExtension></extensions>
      </trkpt>
      <trkpt lat="-11.640285505692" lon="166.97654906702">
        <ele>14</ele>
        <time>2026-05-06T14:00:05Z</time>
        <extensions><gpxtpx:TrackPointExtension><gpxtpx:hr>114</gpxtpx:hr></gpxtpx:TrackPointExtension></extensions>
      </trkpt>
      <trkpt lat="-11.640237142129" lon="166.97649441703">
        <ele>14</ele>
        <time>2026-05-06T14:00:06Z</time>
        <extensions><gpxtpx:TrackPointExtension><gpxtpx:hr>114</gpxtpx:hr></gpxtpx:TrackPointExtension></extensions>
      </trkpt>
      <trkpt lat="-11.640187269824" lon="166.97644085669">
        <ele>14</ele>
        <time>2026-05-06T14:00:07Z</time>
        <extensions><gpxtpx:TrackPointExtension><gpxtpx:hr>114</gpxtpx:hr></gpxtpx:TrackPointExtension></extensions>
      </trkpt>
      <trkpt lat="-11.640135972596" lon="166.97638821836">
        <ele>14</ele>
        <time>2026-05-06T14:00:08Z</time>
        <extensions><gpxtpx:TrackPointExtension><gpxtpx:hr>114</gpxtpx:hr></gpxtpx:TrackPointExtension></extensions>
      </trkpt>
      <trkpt lat="-11.640083250445" lon="166.97633625058">
        <ele>14</ele>
        <time>2026-05-06T14:00:09Z</time>
        <extensions><gpxtpx:TrackPointExtension><gpxtpx:hr>115</gpxtpx:hr></gpxtpx:TrackPointExtension></extensions>
      </trkpt>
      <trkpt lat="-11.640029271009" lon="166.97628486953">
        <ele>14</ele>
        <time>2026-05-06T14:00:10Z</time>
        <extensions><gpxtpx:TrackPointExtension><gpxtpx:hr>115</gpxtpx:hr></gpxtpx:TrackPointExtension></extensions>
      </trkpt>
      <trkpt lat="-11.639973279917" lon="166.97623566778">
        <ele>14</ele>
        <time>2026-05-06T14:00:11Z</time>
        <extensions><gpxtpx:TrackPointExtension><gpxtpx:hr>115</gpxtpx:hr></gpxtpx:TrackPointExtension></extensions>
      </trkpt>
      <trkpt lat="-11.639911170038" lon="166.97619174662">
        <ele>14</ele>
        <time>2026-05-06T14:00:12Z</time>
        <extensions><gpxtpx:TrackPointExtension><gpxtpx:hr>117</gpxtpx:hr></gpxtpx:TrackPointExtension></extensions>
      </trkpt>
      <trkpt lat="-11.639841684087" lon="166.97616819348">
        <ele>14</ele>
        <time>2026-05-06T14:00:13Z</time>
        <extensions><gpxtpx:TrackPointExtension><gpxtpx:hr>117</gpxtpx:hr></gpxtpx:TrackPointExtension></extensions>
      </trkpt>
      <trkpt lat="-11.639766582263" lon="166.9761581352">
        <ele>14</ele>
        <time>2026-05-06T14:00:14Z</time>
        <extensions><gpxtpx:TrackPointExtension><gpxtpx:hr>118</gpxtpx:hr></gpxtpx:TrackPointExtension></extensions>
      </trkpt>
      <trkpt lat="-11.639690306973" lon="166.97615243551">
        <ele>14</ele>
        <time>2026-05-06T14:00:15Z</time>
        <extensions><gpxtpx:TrackPointExtension><gpxtpx:hr>119</gpxtpx:hr></gpxtpx:TrackPointExtension></extensions>
      </trkpt>
      <trkpt lat="-11.639613612588" lon="166.97614572999">
        <ele>14</ele>
        <time>2026-05-06T14:00:16Z</time>
        <extensions><gpxtpx:TrackPointExtension><gpxtpx:hr>119</gpxtpx:hr></gpxtpx:TrackPointExtension></extensions>
      </trkpt>
      <trkpt lat="-11.639537588755" lon="166.97613366006">
        <ele>14</ele>
        <time>2026-05-06T14:00:17Z</time>
        <extensions><gpxtpx:TrackPointExtension><gpxtpx:hr>119</gpxtpx:hr></gpxtpx:TrackPointExtension></extensions>
      </trkpt>
      <trkpt lat="-11.639461984017" lon="166.97611941083">
        <ele>14</ele>
        <time>2026-05-06T14:00:18Z</time>
        <extensions><gpxtpx:TrackPointExtension><gpxtpx:hr>119</gpxtpx:hr></gpxtpx:TrackPointExtension></extensions>
      </trkpt>
      <trkpt lat="-11.63938629546" lon="166.97610499396">
        <ele>14</ele>
        <time>2026-05-06T14:00:19Z</time>
        <extensions><gpxtpx:TrackPointExtension><gpxtpx:hr>120</gpxtpx:hr></gpxtpx:TrackPointExtension></extensions>
      </trkpt>
      <trkpt lat="-11.639310690722" lon="166.97609066091">
        <ele>14</ele>
        <time>2026-05-06T14:00:20Z</time>
        <extensions><gpxtpx:TrackPointExtension><gpxtpx:hr>120</gpxtpx:hr></gpxtpx:TrackPointExtension></extensions>
      </trkpt>
      <trkpt lat="-11.639235253622" lon="166.97607632786">
        <ele>14</ele>
        <time>2026-05-06T14:00:21Z</time>
        <extensions><gpxtpx:TrackPointExtension><gpxtpx:hr>120</gpxtpx:hr></gpxtpx:TrackPointExtension></extensions>
      </trkpt>
      <trkpt lat="-11.63915998416" lon="166.97606199481">
        <ele>14</ele>
        <time>2026-05-06T14:00:22Z</time>
        <extensions><gpxtpx:TrackPointExtension><gpxtpx:hr>120</gpxtpx:hr></gpxtpx:TrackPointExtension></extensions>
      </trkpt>
      <trkpt lat="-11.639084882336" lon="166.9760478294">
        <ele>14</ele>
        <time>2026-05-06T14:00:23Z</time>
        <extensions><gpxtpx:TrackPointExtension><gpxtpx:hr>120</gpxtpx:hr></gpxtpx:TrackPointExtension></extensions>
      </trkpt>
      <trkpt lat="-11.639009780512" lon="166.97603483746">
        <ele>14</ele>
        <time>2026-05-06T14:00:24Z</time>
        <extensions><gpxtpx:TrackPointExtension><gpxtpx:hr>119</gpxtpx:hr></gpxtpx:TrackPointExtension></extensions>
      </trkpt>
      <trkpt lat="-11.63893451105" lon="166.97602335425">
        <ele>14</ele>
        <time>2026-05-06T14:00:25Z</time>
        <extensions><gpxtpx:TrackPointExtension><gpxtpx:hr>118</gpxtpx:hr></gpxtpx:TrackPointExtension></extensions>
      </trkpt>
      <trkpt lat="-11.638858990131" lon="166.9760129607">
        <ele>14</ele>
        <time>2026-05-06T14:00:26Z</time>
        <extensions><gpxtpx:TrackPointExtension><gpxtpx:hr>118</gpxtpx:hr></gpxtpx:TrackPointExtension></extensions>
      </trkpt>
      <trkpt lat="-11.638783133936" lon="166.9760041597">
        <ele>14.2</ele>
        <time>2026-05-06T14:00:27Z</time>
        <extensions><gpxtpx:TrackPointExtension><gpxtpx:hr>118</gpxtpx:hr></gpxtpx:TrackPointExtension></extensions>
      </trkpt>
      <trkpt lat="-11.638707277741" lon="166.97599804091">
        <ele>14.2</ele>
        <time>2026-05-06T14:00:28Z</time>
        <extensions><gpxtpx:TrackPointExtension><gpxtpx:hr>116</gpxtpx:hr></gpxtpx:TrackPointExtension></extensions>
      </trkpt>
      <trkpt lat="-11.638631253908" lon="166.97599535871">
        <ele>14.2</ele>
        <time>2026-05-06T14:00:29Z</time>
        <extensions><gpxtpx:TrackPointExtension><gpxtpx:hr>115</gpxtpx:hr></gpxtpx:TrackPointExtension></extensions>
      </trkpt>
      <trkpt lat="-11.638555313894" lon="166.97599594544">
        <ele>14.2</ele>
        <time>2026-05-06T14:00:30Z</time>
        <extensions><gpxtpx:TrackPointExtension><gpxtpx:hr>115</gpxtpx:hr></gpxtpx:TrackPointExtension></extensions>
      </trkpt>
      <trkpt lat="-11.638479709156" lon="166.97600030403">
        <ele>14.2</ele>
        <time>2026-05-06T14:00:31Z</time>
        <extensions><gpxtpx:TrackPointExtension><gpxtpx:hr>116</gpxtpx:hr></gpxtpx:TrackPointExtension></extensions>
      </trkpt>
      <trkpt lat="-11.638405026427" lon="166.97600893738">
        <ele>14.2</ele>
        <time>2026-05-06T14:00:32Z</time>
        <extensions><gpxtpx:TrackPointExtension><gpxtpx:hr>116</gpxtpx:hr></gpxtpx:TrackPointExtension></extensions>
      </trkpt>
      <trkpt lat="-11.638331768621" lon="166.9760240248">
        <ele>14.4</ele>
        <time>2026-05-06T14:00:33Z</time>
        <extensions><gpxtpx:TrackPointExtension><gpxtpx:hr>116</gpxtpx:hr></gpxtpx:TrackPointExtension></extensions>
      </trkpt>
      <trkpt lat="-11.638260857747" lon="166.97604724267">
        <ele>14.4</ele>
        <time>2026-05-06T14:00:34Z</time>
        <extensions><gpxtpx:TrackPointExtension><gpxtpx:hr>117</gpxtpx:hr></gpxtpx:TrackPointExtension></extensions>
      </trkpt>
      <trkpt lat="-11.638193215814" lon="166.97607850715">
        <ele>14.4</ele>
        <time>2026-05-06T14:00:35Z</time>
        <extensions><gpxtpx:TrackPointExtension><gpxtpx:hr>118</gpxtpx:hr></gpxtpx:TrackPointExtension></extensions>
      </trkpt>
      <trkpt lat="-11.638131776487" lon="166.97612058429">
        <ele>14.6</ele>
        <time>2026-05-06T14:00:36Z</time>
        <extensions><gpxtpx:TrackPointExtension><gpxtpx:hr>118</gpxtpx:hr></gpxtpx:TrackPointExtension></extensions>
      </trkpt>
      <trkpt lat="-11.638079054336" lon="166.97617347408">
        <ele>14.6</ele>
        <time>2026-05-06T14:00:37Z</time>
        <extensions><gpxtpx:TrackPointExtension><gpxtpx:hr>119</gpxtpx:hr></gpxtpx:TrackPointExtension></extensions>
      </trkpt>
      <trkpt lat="-11.638034211171" lon="166.97623256648">
        <ele>14.6</ele>
        <time>2026-05-06T14:00:38Z</time>
        <extensions><gpxtpx:TrackPointExtension><gpxtpx:hr>120</gpxtpx:hr></gpxtpx:TrackPointExtension></extensions>
      </trkpt>
      <trkpt lat="-11.638001940856" lon="166.97629819675">
        <ele>14.8</ele>
        <time>2026-05-06T14:00:39Z</time>
        <extensions><gpxtpx:TrackPointExtension><gpxtpx:hr>121</gpxtpx:hr></gpxtpx:TrackPointExtension></extensions>
      </trkpt>
      <trkpt lat="-11.637986434341" lon="166.97636902381">
        <ele>14.8</ele>
        <time>2026-05-06T14:00:40Z</time>
        <extensions><gpxtpx:TrackPointExtension><gpxtpx:hr>121</gpxtpx:hr></gpxtpx:TrackPointExtension></extensions>
      </trkpt>
      <trkpt lat="-11.637981572839" lon="166.97644026996">
        <ele>15</ele>
        <time>2026-05-06T14:00:41Z</time>
        <extensions><gpxtpx:TrackPointExtension><gpxtpx:hr>122</gpxtpx:hr></gpxtpx:TrackPointExtension></extensions>
      </trkpt>
      <trkpt lat="-11.637992301671" lon="166.97650975591">
        <ele>15</ele>
        <time>2026-05-06T14:00:42Z</time>
        <extensions><gpxtpx:TrackPointExtension><gpxtpx:hr>123</gpxtpx:hr></gpxtpx:TrackPointExtension></extensions>
      </trkpt>
      <trkpt lat="-11.638016944457" lon="166.97657496709">
        <ele>15</ele>
        <time>2026-05-06T14:00:43Z</time>
        <extensions><gpxtpx:TrackPointExtension><gpxtpx:hr>123</gpxtpx:hr></gpxtpx:TrackPointExtension></extensions>
      </trkpt>
      <trkpt lat="-11.638049633867" lon="166.97663607114">
        <ele>15.2</ele>
        <time>2026-05-06T14:00:44Z</time>
        <extensions><gpxtpx:TrackPointExtension><gpxtpx:hr>125</gpxtpx:hr></gpxtpx:TrackPointExtension></extensions>
      </trkpt>
      <trkpt lat="-11.638087436236" lon="166.97669415771">
        <ele>15.2</ele>
        <time>2026-05-06T14:00:45Z</time>
        <extensions><gpxtpx:TrackPointExtension><gpxtpx:hr>125</gpxtpx:hr></gpxtpx:TrackPointExtension></extensions>
      </trkpt>
      <trkpt lat="-11.638126747347" lon="166.97675098699">
        <ele>15.2</ele>
        <time>2026-05-06T14:00:46Z</time>
        <extensions><gpxtpx:TrackPointExtension><gpxtpx:hr>126</gpxtpx:hr></gpxtpx:TrackPointExtension></extensions>
      </trkpt>
      <trkpt lat="-11.638165639363" lon="166.97680781627">
        <ele>15.4</ele>
        <time>2026-05-06T14:00:47Z</time>
        <extensions><gpxtpx:TrackPointExtension><gpxtpx:hr>126</gpxtpx:hr></gpxtpx:TrackPointExtension></extensions>
      </trkpt>
      <trkpt lat="-11.638205034293" lon="166.97686405882">
        <ele>15.4</ele>
        <time>2026-05-06T14:00:48Z</time>
        <extensions><gpxtpx:TrackPointExtension><gpxtpx:hr>126</gpxtpx:hr></gpxtpx:TrackPointExtension></extensions>
      </trkpt>
      <trkpt lat="-11.638244010128" lon="166.97692055283">
        <ele>15.4</ele>
        <time>2026-05-06T14:00:49Z</time>
        <extensions><gpxtpx:TrackPointExtension><gpxtpx:hr>127</gpxtpx:hr></gpxtpx:TrackPointExtension></extensions>
      </trkpt>
      <trkpt lat="-11.638282650687" lon="166.97697696302">
        <ele>15.4</ele>
        <time>2026-05-06T14:00:50Z</time>
        <extensions><gpxtpx:TrackPointExtension><gpxtpx:hr>127</gpxtpx:hr></gpxtpx:TrackPointExtension></extensions>
      </trkpt>
      <trkpt lat="-11.638321123608" lon="166.97703345702">
        <ele>15.6</ele>
        <time>2026-05-06T14:00:51Z</time>
        <extensions><gpxtpx:TrackPointExtension><gpxtpx:hr>127</gpxtpx:hr></gpxtpx:TrackPointExtension></extensions>
      </trkpt>
      <trkpt lat="-11.638355489398" lon="166.97709254942">
        <ele>15.6</ele>
        <time>2026-05-06T14:00:52Z</time>
        <extensions><gpxtpx:TrackPointExtension><gpxtpx:hr>127</gpxtpx:hr></gpxtpx:TrackPointExtension></extensions>
      </trkpt>
      <trkpt lat="-11.638385999514" lon="166.97715382111">
        <ele>15.6</ele>
        <time>2026-05-06T14:00:53Z</time>
        <extensions><gpxtpx:TrackPointExtension><gpxtpx:hr>127</gpxtpx:hr></gpxtpx:TrackPointExtension></extensions>
      </trkpt>
      <trkpt lat="-11.638415419983" lon="166.97721567953">
        <ele>15.6</ele>
        <time>2026-05-06T14:00:54Z</time>
        <extensions><gpxtpx:TrackPointExtension><gpxtpx:hr>127</gpxtpx:hr></gpxtpx:TrackPointExtension></extensions>
      </trkpt>
      <trkpt lat="-11.63844668447" lon="166.9772768674">
        <ele>15.6</ele>
        <time>2026-05-06T14:00:55Z</time>
        <extensions><gpxtpx:TrackPointExtension><gpxtpx:hr>127</gpxtpx:hr></gpxtpx:TrackPointExtension></extensions>
      </trkpt>
      <trkpt lat="-11.638481720812" lon="166.97733679798">
        <ele>15.6</ele>
        <time>2026-05-06T14:00:56Z</time>
        <extensions><gpxtpx:TrackPointExtension><gpxtpx:hr>128</gpxtpx:hr></gpxtpx:TrackPointExtension></extensions>
      </trkpt>
      <trkpt lat="-11.63851709243" lon="166.97739756676">
        <ele>15.6</ele>
        <time>2026-05-06T14:00:57Z</time>
        <extensions><gpxtpx:TrackPointExtension><gpxtpx:hr>128</gpxtpx:hr></gpxtpx:TrackPointExtension></extensions>
      </trkpt>
      <trkpt lat="-11.638553386057" lon="166.97745892227">
        <ele>15.6</ele>
        <time>2026-05-06T14:00:58Z</time>
        <extensions><gpxtpx:TrackPointExtension><gpxtpx:hr>128</gpxtpx:hr></gpxtpx:TrackPointExtension></extensions>
      </trkpt>
      <trkpt lat="-11.63859252953" lon="166.97751935576">
        <ele>15.4</ele>
        <time>2026-05-06T14:00:59Z</time>
        <extensions><gpxtpx:TrackPointExtension><gpxtpx:hr>128</gpxtpx:hr></gpxtpx:TrackPointExtension></extensions>
      </trkpt>
      <trkpt lat="-11.638636283048" lon="166.97757769379">
        <ele>15.4</ele>
        <time>2026-05-06T14:01:00Z</time>
        <extensions><gpxtpx:TrackPointExtension><gpxtpx:hr>128</gpxtpx:hr></gpxtpx:TrackPointExtension></extensions>
      </trkpt>
      <trkpt lat="-11.638685149525" lon="166.97763301433">
        <ele>15.2</ele>
        <time>2026-05-06T14:01:01Z</time>
        <extensions><gpxtpx:TrackPointExtension><gpxtpx:hr>128</gpxtpx:hr></gpxtpx:TrackPointExtension></extensions>
      </trkpt>
      <trkpt lat="-11.638740721522" lon="166.97768297045">
        <ele>15.2</ele>
        <time>2026-05-06T14:01:02Z</time>
        <extensions><gpxtpx:TrackPointExtension><gpxtpx:hr>127</gpxtpx:hr></gpxtpx:TrackPointExtension></extensions>
      </trkpt>
      <trkpt lat="-11.638799897736" lon="166.97772999291">
        <ele>15.2</ele>
        <time>2026-05-06T14:01:03Z</time>
        <extensions><gpxtpx:TrackPointExtension><gpxtpx:hr>127</gpxtpx:hr></gpxtpx:TrackPointExtension></extensions>
      </trkpt>
      <trkpt lat="-11.638861504701" lon="166.97777575809">
        <ele>15</ele>
        <time>2026-05-06T14:01:04Z</time>
        <extensions><gpxtpx:TrackPointExtension><gpxtpx:hr>128</gpxtpx:hr></gpxtpx:TrackPointExtension></extensions>
      </trkpt>
      <trkpt lat="-11.638925123322" lon="166.97782026597">
        <ele>15</ele>
        <time>2026-05-06T14:01:05Z</time>
        <extensions><gpxtpx:TrackPointExtension><gpxtpx:hr>128</gpxtpx:hr></gpxtpx:TrackPointExtension></extensions>
      </trkpt>
      <trkpt lat="-11.638990753599" lon="166.97786343276">
        <ele>14.8</ele>
        <time>2026-05-06T14:01:06Z</time>
        <extensions><gpxtpx:TrackPointExtension><gpxtpx:hr>128</gpxtpx:hr></gpxtpx:TrackPointExtension></extensions>
      </trkpt>
      <trkpt lat="-11.639059317541" lon="166.97790433643">
        <ele>14.6</ele>
        <time>2026-05-06T14:01:07Z</time>
        <extensions><gpxtpx:TrackPointExtension><gpxtpx:hr>128</gpxtpx:hr></gpxtpx:TrackPointExtension></extensions>
      </trkpt>
      <trkpt lat="-11.639130479872" lon="166.97794264171">
        <ele>14.6</ele>
        <time>2026-05-06T14:01:08Z</time>
        <extensions><gpxtpx:TrackPointExtension><gpxtpx:hr>127</gpxtpx:hr></gpxtpx:TrackPointExtension></extensions>
      </trkpt>
      <trkpt lat="-11.639204324411" lon="166.97797818097">
        <ele>14.4</ele>
        <time>2026-05-06T14:01:09Z</time>
        <extensions><gpxtpx:TrackPointExtension><gpxtpx:hr>127</gpxtpx:hr></gpxtpx:TrackPointExtension></extensions>
      </trkpt>
      <trkpt lat="-11.639281605529" lon="166.97800843963">
        <ele>14.4</ele>
        <time>2026-05-06T14:01:10Z</time>
        <extensions><gpxtpx:TrackPointExtension><gpxtpx:hr>126</gpxtpx:hr></gpxtpx:TrackPointExtension></extensions>
      </trkpt>
      <trkpt lat="-11.63936198795" lon="166.9780325795">
        <ele>14.2</ele>
        <time>2026-05-06T14:01:11Z</time>
        <extensions><gpxtpx:TrackPointExtension><gpxtpx:hr>125</gpxtpx:hr></gpxtpx:TrackPointExtension></extensions>
      </trkpt>
      <trkpt lat="-11.639444884941" lon="166.97805169023">
        <ele>14</ele>
        <time>2026-05-06T14:01:12Z</time>
        <extensions><gpxtpx:TrackPointExtension><gpxtpx:hr>124</gpxtpx:hr></gpxtpx:TrackPointExtension></extensions>
      </trkpt>
      <trkpt lat="-11.639529793588" lon="166.97806543655">
        <ele>14</ele>
        <time>2026-05-06T14:01:13Z</time>
        <extensions><gpxtpx:TrackPointExtension><gpxtpx:hr>124</gpxtpx:hr></gpxtpx:TrackPointExtension></extensions>
      </trkpt>
      <trkpt lat="-11.639616043339" lon="166.97807675211">
        <ele>13.8</ele>
        <time>2026-05-06T14:01:14Z</time>
        <extensions><gpxtpx:TrackPointExtension><gpxtpx:hr>123</gpxtpx:hr></gpxtpx:TrackPointExtension></extensions>
      </trkpt>
      <trkpt lat="-11.639701790176" lon="166.97808546929">
        <ele>13.6</ele>
        <time>2026-05-06T14:01:15Z</time>
        <extensions><gpxtpx:TrackPointExtension><gpxtpx:hr>123</gpxtpx:hr></gpxtpx:TrackPointExtension></extensions>
      </trkpt>
      <trkpt lat="-11.63979281761" lon="166.97809544375">
        <ele>13.6</ele>
        <time>2026-05-06T14:01:16Z</time>
        <extensions><gpxtpx:TrackPointExtension><gpxtpx:hr>123</gpxtpx:hr></gpxtpx:TrackPointExtension></extensions>
      </trkpt>
      <trkpt lat="-11.639877139524" lon="166.97811095027">
        <ele>13.4</ele>
        <time>2026-05-06T14:01:17Z</time>
        <extensions><gpxtpx:TrackPointExtension><gpxtpx:hr>122</gpxtpx:hr></gpxtpx:TrackPointExtension></extensions>
      </trkpt>
      <trkpt lat="-11.639966825854" lon="166.97813291084">
        <ele>13.4</ele>
        <time>2026-05-06T14:01:18Z</time>
        <extensions><gpxtpx:TrackPointExtension><gpxtpx:hr>122</gpxtpx:hr></gpxtpx:TrackPointExtension></extensions>
      </trkpt>
      <trkpt lat="-11.640048297922" lon="166.97815755363">
        <ele>13.2</ele>
        <time>2026-05-06T14:01:19Z</time>
        <extensions><gpxtpx:TrackPointExtension><gpxtpx:hr>122</gpxtpx:hr></gpxtpx:TrackPointExtension></extensions>
      </trkpt>
      <trkpt lat="-11.640131949284" lon="166.9781949369">
        <ele>13.2</ele>
        <time>2026-05-06T14:01:20Z</time>
        <extensions><gpxtpx:TrackPointExtension><gpxtpx:hr>121</gpxtpx:hr></gpxtpx:TrackPointExtension></extensions>
      </trkpt>
      <trkpt lat="-11.640207889298" lon="166.97823793605">
        <ele>13.2</ele>
        <time>2026-05-06T14:01:21Z</time>
        <extensions><gpxtpx:TrackPointExtension><gpxtpx:hr>121</gpxtpx:hr></gpxtpx:TrackPointExtension></extensions>
      </trkpt>
      <trkpt lat="-11.640282488208" lon="166.97828110284">
        <ele>13.2</ele>
        <time>2026-05-06T14:01:22Z</time>
        <extensions><gpxtpx:TrackPointExtension><gpxtpx:hr>121</gpxtpx:hr></gpxtpx:TrackPointExtension></extensions>
      </trkpt>
      <trkpt lat="-11.640354572548" lon="166.97832116832">
        <ele>13.2</ele>
        <time>2026-05-06T14:01:23Z</time>
        <extensions><gpxtpx:TrackPointExtension><gpxtpx:hr>121</gpxtpx:hr></gpxtpx:TrackPointExtension></extensions>
      </trkpt>
      <trkpt lat="-11.640432608037" lon="166.9783625749">
        <ele>13.2</ele>
        <time>2026-05-06T14:01:24Z</time>
        <extensions><gpxtpx:TrackPointExtension><gpxtpx:hr>120</gpxtpx:hr></gpxtpx:TrackPointExtension></extensions>
      </trkpt>
      <trkpt lat="-11.640504524739" lon="166.97839937145">
        <ele>13.2</ele>
        <time>2026-05-06T14:01:25Z</time>
        <extensions><gpxtpx:TrackPointExtension><gpxtpx:hr>120</gpxtpx:hr></gpxtpx:TrackPointExtension></extensions>
      </trkpt>
      <trkpt lat="-11.640579794201" lon="166.97843851492">
        <ele>13.2</ele>
        <time>2026-05-06T14:01:26Z</time>
        <extensions><gpxtpx:TrackPointExtension><gpxtpx:hr>120</gpxtpx:hr></gpxtpx:TrackPointExtension></extensions>
      </trkpt>
      <trkpt lat="-11.640652465274" lon="166.97848025678">
        <ele>13.2</ele>
        <time>2026-05-06T14:01:27Z</time>
        <extensions><gpxtpx:TrackPointExtension><gpxtpx:hr>120</gpxtpx:hr></gpxtpx:TrackPointExtension></extensions>
      </trkpt>
      <trkpt lat="-11.640723292329" lon="166.97852468085">
        <ele>13.2</ele>
        <time>2026-05-06T14:01:28Z</time>
        <extensions><gpxtpx:TrackPointExtension><gpxtpx:hr>120</gpxtpx:hr></gpxtpx:TrackPointExtension></extensions>
      </trkpt>
      <trkpt lat="-11.640791856271" lon="166.97857170331">
        <ele>13.2</ele>
        <time>2026-05-06T14:01:29Z</time>
        <extensions><gpxtpx:TrackPointExtension><gpxtpx:hr>120</gpxtpx:hr></gpxtpx:TrackPointExtension></extensions>
      </trkpt>
      <trkpt lat="-11.640856229263" lon="166.97862350345">
        <ele>13.2</ele>
        <time>2026-05-06T14:01:30Z</time>
        <extensions><gpxtpx:TrackPointExtension><gpxtpx:hr>120</gpxtpx:hr></gpxtpx:TrackPointExtension></extensions>
      </trkpt>
      <trkpt lat="-11.640912723269" lon="166.97868393695">
        <ele>13.2</ele>
        <time>2026-05-06T14:01:31Z</time>
        <extensions><gpxtpx:TrackPointExtension><gpxtpx:hr>120</gpxtpx:hr></gpxtpx:TrackPointExtension></extensions>
      </trkpt>
      <trkpt lat="-11.640959075176" lon="166.97875275235">
        <ele>13.2</ele>
        <time>2026-05-06T14:01:32Z</time>
        <extensions><gpxtpx:TrackPointExtension><gpxtpx:hr>120</gpxtpx:hr></gpxtpx:TrackPointExtension></extensions>
      </trkpt>
      <trkpt lat="-11.640996877545" lon="166.97882668071">
        <ele>13.2</ele>
        <time>2026-05-06T14:01:33Z</time>
        <extensions><gpxtpx:TrackPointExtension><gpxtpx:hr>120</gpxtpx:hr></gpxtpx:TrackPointExtension></extensions>
      </trkpt>
      <trkpt lat="-11.641028812584" lon="166.97890329127">
        <ele>13.2</ele>
        <time>2026-05-06T14:01:34Z</time>
        <extensions><gpxtpx:TrackPointExtension><gpxtpx:hr>120</gpxtpx:hr></gpxtpx:TrackPointExtension></extensions>
      </trkpt>
      <trkpt lat="-11.641056053759" lon="166.97898182968">
        <ele>13.2</ele>
        <time>2026-05-06T14:01:35Z</time>
        <extensions><gpxtpx:TrackPointExtension><gpxtpx:hr>119</gpxtpx:hr></gpxtpx:TrackPointExtension></extensions>
      </trkpt>
      <trkpt lat="-11.641078349613" lon="166.97906380466">
        <ele>13.2</ele>
        <time>2026-05-06T14:01:36Z</time>
        <extensions><gpxtpx:TrackPointExtension><gpxtpx:hr>120</gpxtpx:hr></gpxtpx:TrackPointExtension></extensions>
      </trkpt>
      <trkpt lat="-11.641094275223" lon="166.97914184015">
        <ele>13.2</ele>
        <time>2026-05-06T14:01:37Z</time>
        <extensions><gpxtpx:TrackPointExtension><gpxtpx:hr>120</gpxtpx:hr></gpxtpx:TrackPointExtension></extensions>
      </trkpt>
      <trkpt lat="-11.641105758426" lon="166.9792263297">
        <ele>13.2</ele>
        <time>2026-05-06T14:01:38Z</time>
        <extensions><gpxtpx:TrackPointExtension><gpxtpx:hr>120</gpxtpx:hr></gpxtpx:TrackPointExtension></extensions>
      </trkpt>
      <trkpt lat="-11.641111541937" lon="166.97931006488">
        <ele>13.2</ele>
        <time>2026-05-06T14:01:39Z</time>
        <extensions><gpxtpx:TrackPointExtension><gpxtpx:hr>120</gpxtpx:hr></gpxtpx:TrackPointExtension></extensions>
      </trkpt>
      <trkpt lat="-11.641111541937" lon="166.97939371624">
        <ele>13.2</ele>
        <time>2026-05-06T14:01:40Z</time>
        <extensions><gpxtpx:TrackPointExtension><gpxtpx:hr>121</gpxtpx:hr></gpxtpx:TrackPointExtension></extensions>
      </trkpt>
      <trkpt lat="-11.641106596616" lon="166.97947703233">
        <ele>13.2</ele>
        <time>2026-05-06T14:01:41Z</time>
        <extensions><gpxtpx:TrackPointExtension><gpxtpx:hr>122</gpxtpx:hr></gpxtpx:TrackPointExtension></extensions>
      </trkpt>
      <trkpt lat="-11.64109787944" lon="166.97955992932">
        <ele>13.2</ele>
        <time>2026-05-06T14:01:42Z</time>
        <extensions><gpxtpx:TrackPointExtension><gpxtpx:hr>123</gpxtpx:hr></gpxtpx:TrackPointExtension></extensions>
      </trkpt>
      <trkpt lat="-11.641086228599" lon="166.97964265867">
        <ele>13.2</ele>
        <time>2026-05-06T14:01:43Z</time>
        <extensions><gpxtpx:TrackPointExtension><gpxtpx:hr>125</gpxtpx:hr></gpxtpx:TrackPointExtension></extensions>
      </trkpt>
      <trkpt lat="-11.641070722084" lon="166.97972488511">
        <ele>13.2</ele>
        <time>2026-05-06T14:01:44Z</time>
        <extensions><gpxtpx:TrackPointExtension><gpxtpx:hr>126</gpxtpx:hr></gpxtpx:TrackPointExtension></extensions>
      </trkpt>
      <trkpt lat="-11.641051024619" lon="166.97980618954">
        <ele>13.2</ele>
        <time>2026-05-06T14:01:45Z</time>
        <extensions><gpxtpx:TrackPointExtension><gpxtpx:hr>126</gpxtpx:hr></gpxtpx:TrackPointExtension></extensions>
      </trkpt>
      <trkpt lat="-11.641028477308" lon="166.97988640432">
        <ele>13.2</ele>
        <time>2026-05-06T14:01:46Z</time>
        <extensions><gpxtpx:TrackPointExtension><gpxtpx:hr>127</gpxtpx:hr></gpxtpx:TrackPointExtension></extensions>
      </trkpt>
      <trkpt lat="-11.641004253617" lon="166.97996594856">
        <ele>13.2</ele>
        <time>2026-05-06T14:01:47Z</time>
        <extensions><gpxtpx:TrackPointExtension><gpxtpx:hr>127</gpxtpx:hr></gpxtpx:TrackPointExtension></extensions>
      </trkpt>
      <trkpt lat="-11.640977850632" lon="166.9800446546">
        <ele>13.2</ele>
        <time>2026-05-06T14:01:48Z</time>
        <extensions><gpxtpx:TrackPointExtension><gpxtpx:hr>127</gpxtpx:hr></gpxtpx:TrackPointExtension></extensions>
      </trkpt>
      <trkpt lat="-11.640949352172" lon="166.98012235481">
        <ele>13.2</ele>
        <time>2026-05-06T14:01:49Z</time>
        <extensions><gpxtpx:TrackPointExtension><gpxtpx:hr>127</gpxtpx:hr></gpxtpx:TrackPointExtension></extensions>
      </trkpt>
      <trkpt lat="-11.640919261151" lon="166.98019904919">
        <ele>13.2</ele>
        <time>2026-05-06T14:01:50Z</time>
        <extensions><gpxtpx:TrackPointExtension><gpxtpx:hr>128</gpxtpx:hr></gpxtpx:TrackPointExtension></extensions>
      </trkpt>
      <trkpt lat="-11.640887577569" lon="166.98027515685">
        <ele>13.2</ele>
        <time>2026-05-06T14:01:51Z</time>
        <extensions><gpxtpx:TrackPointExtension><gpxtpx:hr>128</gpxtpx:hr></gpxtpx:TrackPointExtension></extensions>
      </trkpt>
      <trkpt lat="-11.640853714693" lon="166.98035000721">
        <ele>13.2</ele>
        <time>2026-05-06T14:01:52Z</time>
        <extensions><gpxtpx:TrackPointExtension><gpxtpx:hr>128</gpxtpx:hr></gpxtpx:TrackPointExtension></extensions>
      </trkpt>
      <trkpt lat="-11.640819516541" lon="166.98042443849">
        <ele>13.2</ele>
        <time>2026-05-06T14:01:53Z</time>
        <extensions><gpxtpx:TrackPointExtension><gpxtpx:hr>128</gpxtpx:hr></gpxtpx:TrackPointExtension></extensions>
      </trkpt>
      <trkpt lat="-11.640784731656" lon="166.98049803157">
        <ele>13.2</ele>
        <time>2026-05-06T14:01:54Z</time>
        <extensions><gpxtpx:TrackPointExtension><gpxtpx:hr>128</gpxtpx:hr></gpxtpx:TrackPointExtension></extensions>
      </trkpt>
      <trkpt lat="-11.640748940943" lon="166.98057087028">
        <ele>13.4</ele>
        <time>2026-05-06T14:01:55Z</time>
        <extensions><gpxtpx:TrackPointExtension><gpxtpx:hr>128</gpxtpx:hr></gpxtpx:TrackPointExtension></extensions>
      </trkpt>
      <trkpt lat="-11.640712395859" lon="166.98064278698">
        <ele>13.4</ele>
        <time>2026-05-06T14:01:56Z</time>
        <extensions><gpxtpx:TrackPointExtension><gpxtpx:hr>128</gpxtpx:hr></gpxtpx:TrackPointExtension></extensions>
      </trkpt>
      <trkpt lat="-11.640675096404" lon="166.98071394931">
        <ele>13.4</ele>
        <time>2026-05-06T14:01:57Z</time>
        <extensions><gpxtpx:TrackPointExtension><gpxtpx:hr>128</gpxtpx:hr></gpxtpx:TrackPointExtension></extensions>
      </trkpt>
      <trkpt lat="-11.640636455845" lon="166.98078377054">
        <ele>13.4</ele>
        <time>2026-05-06T14:01:58Z</time>
        <extensions><gpxtpx:TrackPointExtension><gpxtpx:hr>128</gpxtpx:hr></gpxtpx:TrackPointExtension></extensions>
      </trkpt>
      <trkpt lat="-11.640596306544" lon="166.9808519992">
        <ele>13.4</ele>
        <time>2026-05-06T14:01:59Z</time>
        <extensions><gpxtpx:TrackPointExtension><gpxtpx:hr>128</gpxtpx:hr></gpxtpx:TrackPointExtension></extensions>
      </trkpt>
      <trkpt lat="-11.64055557051" lon="166.98091913822">
        <ele>13.4</ele>
        <time>2026-05-06T14:02:00Z</time>
        <extensions><gpxtpx:TrackPointExtension><gpxtpx:hr>128</gpxtpx:hr></gpxtpx:TrackPointExtension></extensions>
      </trkpt>
      <trkpt lat="-11.640512990458" lon="166.98098468468">
        <ele>13.4</ele>
        <time>2026-05-06T14:02:01Z</time>
        <extensions><gpxtpx:TrackPointExtension><gpxtpx:hr>128</gpxtpx:hr></gpxtpx:TrackPointExtension></extensions>
      </trkpt>
      <trkpt lat="-11.640467644379" lon="166.98104763275">
        <ele>13.6</ele>
        <time>2026-05-06T14:02:02Z</time>
        <extensions><gpxtpx:TrackPointExtension><gpxtpx:hr>129</gpxtpx:hr></gpxtpx:TrackPointExtension></extensions>
      </trkpt>
      <trkpt lat="-11.640420202825" lon="166.98110831771">
        <ele>13.6</ele>
        <time>2026-05-06T14:02:03Z</time>
        <extensions><gpxtpx:TrackPointExtension><gpxtpx:hr>129</gpxtpx:hr></gpxtpx:TrackPointExtension></extensions>
      </trkpt>
      <trkpt lat="-11.640371001072" lon="166.98116699101">
        <ele>13.6</ele>
        <time>2026-05-06T14:02:04Z</time>
        <extensions><gpxtpx:TrackPointExtension><gpxtpx:hr>129</gpxtpx:hr></gpxtpx:TrackPointExtension></extensions>
      </trkpt>
      <trkpt lat="-11.640321044948" lon="166.98122264682">
        <ele>13.6</ele>
        <time>2026-05-06T14:02:05Z</time>
        <extensions><gpxtpx:TrackPointExtension><gpxtpx:hr>128</gpxtpx:hr></gpxtpx:TrackPointExtension></extensions>
      </trkpt>
      <trkpt lat="-11.640267484607" lon="166.98127863791">
        <ele>13.6</ele>
        <time>2026-05-06T14:02:06Z</time>
        <extensions><gpxtpx:TrackPointExtension><gpxtpx:hr>128</gpxtpx:hr></gpxtpx:TrackPointExtension></extensions>
      </trkpt>
      <trkpt lat="-11.640213505171" lon="166.98133177916">
        <ele>13.8</ele>
        <time>2026-05-06T14:02:07Z</time>
        <extensions><gpxtpx:TrackPointExtension><gpxtpx:hr>128</gpxtpx:hr></gpxtpx:TrackPointExtension></extensions>
      </trkpt>
      <trkpt lat="-11.640158603726" lon="166.9813835793">
        <ele>13.8</ele>
        <time>2026-05-06T14:02:08Z</time>
        <extensions><gpxtpx:TrackPointExtension><gpxtpx:hr>128</gpxtpx:hr></gpxtpx:TrackPointExtension></extensions>
      </trkpt>
      <trkpt lat="-11.640103115548" lon="166.98143437362">
        <ele>13.8</ele>
        <time>2026-05-06T14:02:09Z</time>
        <extensions><gpxtpx:TrackPointExtension><gpxtpx:hr>128</gpxtpx:hr></gpxtpx:TrackPointExtension></extensions>
      </trkpt>
      <trkpt lat="-11.640047208275" lon="166.98148449738">
        <ele>13.8</ele>
        <time>2026-05-06T14:02:10Z</time>
        <extensions><gpxtpx:TrackPointExtension><gpxtpx:hr>127</gpxtpx:hr></gpxtpx:TrackPointExtension></extensions>
      </trkpt>
      <trkpt lat="-11.639990798088" lon="166.98153395059">
        <ele>13.8</ele>
        <time>2026-05-06T14:02:11Z</time>
        <extensions><gpxtpx:TrackPointExtension><gpxtpx:hr>127</gpxtpx:hr></gpxtpx:TrackPointExtension></extensions>
      </trkpt>
      <trkpt lat="-11.639934220263" lon="166.98158306852">
        <ele>14</ele>
        <time>2026-05-06T14:02:12Z</time>
        <extensions><gpxtpx:TrackPointExtension><gpxtpx:hr>128</gpxtpx:hr></gpxtpx:TrackPointExtension></extensions>
      </trkpt>
      <trkpt lat="-11.639878480628" lon="166.98163285701">
        <ele>14</ele>
        <time>2026-05-06T14:02:13Z</time>
        <extensions><gpxtpx:TrackPointExtension><gpxtpx:hr>128</gpxtpx:hr></gpxtpx:TrackPointExtension></extensions>
      </trkpt>
      <trkpt lat="-11.639821148432" lon="166.98168264549">
        <ele>14</ele>
        <time>2026-05-06T14:02:14Z</time>
        <extensions><gpxtpx:TrackPointExtension><gpxtpx:hr>128</gpxtpx:hr></gpxtpx:TrackPointExtension></extensions>
      </trkpt>
      <trkpt lat="-11.639766582263" lon="166.98172857831">
        <ele>14</ele>
        <time>2026-05-06T14:02:15Z</time>
        <extensions><gpxtpx:TrackPointExtension><gpxtpx:hr>128</gpxtpx:hr></gpxtpx:TrackPointExtension></extensions>
      </trkpt>
      <trkpt lat="-11.639708663334" lon="166.98177484639">
        <ele>14</ele>
        <time>2026-05-06T14:02:16Z</time>
        <extensions><gpxtpx:TrackPointExtension><gpxtpx:hr>129</gpxtpx:hr></gpxtpx:TrackPointExtension></extensions>
      </trkpt>
      <trkpt lat="-11.639645631446" lon="166.98181876755">
        <ele>14.2</ele>
        <time>2026-05-06T14:02:17Z</time>
        <extensions><gpxtpx:TrackPointExtension><gpxtpx:hr>129</gpxtpx:hr></gpxtpx:TrackPointExtension></extensions>
      </trkpt>
      <trkpt lat="-11.639586455232" lon="166.98185724047">
        <ele>14.2</ele>
        <time>2026-05-06T14:02:18Z</time>
        <extensions><gpxtpx:TrackPointExtension><gpxtpx:hr>129</gpxtpx:hr></gpxtpx:TrackPointExtension></extensions>
      </trkpt>
      <trkpt lat="-11.639523339525" lon="166.98189470756">
        <ele>14.2</ele>
        <time>2026-05-06T14:02:19Z</time>
        <extensions><gpxtpx:TrackPointExtension><gpxtpx:hr>129</gpxtpx:hr></gpxtpx:TrackPointExtension></extensions>
      </trkpt>
      <trkpt lat="-11.639460223818" lon="166.9819319232">
        <ele>14.2</ele>
        <time>2026-05-06T14:02:20Z</time>
        <extensions><gpxtpx:TrackPointExtension><gpxtpx:hr>129</gpxtpx:hr></gpxtpx:TrackPointExtension></extensions>
      </trkpt>
      <trkpt lat="-11.639397778663" lon="166.98197022848">
        <ele>14.2</ele>
        <time>2026-05-06T14:02:21Z</time>
        <extensions><gpxtpx:TrackPointExtension><gpxtpx:hr>130</gpxtpx:hr></gpxtpx:TrackPointExtension></extensions>
      </trkpt>
      <trkpt lat="-11.639337345164" lon="166.98201448491">
        <ele>14.2</ele>
        <time>2026-05-06T14:02:22Z</time>
        <extensions><gpxtpx:TrackPointExtension><gpxtpx:hr>130</gpxtpx:hr></gpxtpx:TrackPointExtension></extensions>
      </trkpt>
      <trkpt lat="-11.639283701004" lon="166.98206217793">
        <ele>14.2</ele>
        <time>2026-05-06T14:02:23Z</time>
        <extensions><gpxtpx:TrackPointExtension><gpxtpx:hr>129</gpxtpx:hr></gpxtpx:TrackPointExtension></extensions>
      </trkpt>
      <trkpt lat="-11.639238271106" lon="166.9821194263">
        <ele>14.4</ele>
        <time>2026-05-06T14:02:24Z</time>
        <extensions><gpxtpx:TrackPointExtension><gpxtpx:hr>130</gpxtpx:hr></gpxtpx:TrackPointExtension></extensions>
      </trkpt>
      <trkpt lat="-11.639207006619" lon="166.9821869006">
        <ele>14.4</ele>
        <time>2026-05-06T14:02:25Z</time>
        <extensions><gpxtpx:TrackPointExtension><gpxtpx:hr>130</gpxtpx:hr></gpxtpx:TrackPointExtension></extensions>
      </trkpt>
      <trkpt lat="-11.639189991362" lon="166.98225890112">
        <ele>14.4</ele>
        <time>2026-05-06T14:02:26Z</time>
        <extensions><gpxtpx:TrackPointExtension><gpxtpx:hr>130</gpxtpx:hr></gpxtpx:TrackPointExtension></extensions>
      </trkpt>
      <trkpt lat="-11.639181693281" lon="166.98233442204">
        <ele>14.4</ele>
        <time>2026-05-06T14:02:27Z</time>
        <extensions><gpxtpx:TrackPointExtension><gpxtpx:hr>131</gpxtpx:hr></gpxtpx:TrackPointExtension></extensions>
      </trkpt>
      <trkpt lat="-11.6391817771" lon="166.98240801512">
        <ele>14.6</ele>
        <time>2026-05-06T14:02:28Z</time>
        <extensions><gpxtpx:TrackPointExtension><gpxtpx:hr>131</gpxtpx:hr></gpxtpx:TrackPointExtension></extensions>
      </trkpt>
      <trkpt lat="-11.63918680624" lon="166.98248110529">
        <ele>14.6</ele>
        <time>2026-05-06T14:02:29Z</time>
        <extensions><gpxtpx:TrackPointExtension><gpxtpx:hr>131</gpxtpx:hr></gpxtpx:TrackPointExtension></extensions>
      </trkpt>
      <trkpt lat="-11.639195858692" lon="166.98255344109">
        <ele>14.6</ele>
        <time>2026-05-06T14:02:30Z</time>
        <extensions><gpxtpx:TrackPointExtension><gpxtpx:hr>132</gpxtpx:hr></gpxtpx:TrackPointExtension></extensions>
      </trkpt>
      <trkpt lat="-11.639208263904" lon="166.98262485487">
        <ele>14.6</ele>
        <time>2026-05-06T14:02:31Z</time>
        <extensions><gpxtpx:TrackPointExtension><gpxtpx:hr>132</gpxtpx:hr></gpxtpx:TrackPointExtension></extensions>
      </trkpt>
      <trkpt lat="-11.639223267505" lon="166.98269677158">
        <ele>14.8</ele>
        <time>2026-05-06T14:02:32Z</time>
        <extensions><gpxtpx:TrackPointExtension><gpxtpx:hr>132</gpxtpx:hr></gpxtpx:TrackPointExtension></extensions>
      </trkpt>
      <trkpt lat="-11.63924128859" lon="166.98277111903">
        <ele>14.8</ele>
        <time>2026-05-06T14:02:33Z</time>
        <extensions><gpxtpx:TrackPointExtension><gpxtpx:hr>132</gpxtpx:hr></gpxtpx:TrackPointExtension></extensions>
      </trkpt>
      <trkpt lat="-11.639257968571" lon="166.98283524056">
        <ele>14.8</ele>
        <time>2026-05-06T14:02:34Z</time>
        <extensions><gpxtpx:TrackPointExtension><gpxtpx:hr>131</gpxtpx:hr></gpxtpx:TrackPointExtension></extensions>
      </trkpt>
      <trkpt lat="-11.639277163122" lon="166.98290263104">
        <ele>14.8</ele>
        <time>2026-05-06T14:02:35Z</time>
        <extensions><gpxtpx:TrackPointExtension><gpxtpx:hr>131</gpxtpx:hr></gpxtpx:TrackPointExtension></extensions>
      </trkpt>
      <trkpt lat="-11.639297950234" lon="166.98297245227">
        <ele>14.8</ele>
        <time>2026-05-06T14:02:36Z</time>
        <extensions><gpxtpx:TrackPointExtension><gpxtpx:hr>131</gpxtpx:hr></gpxtpx:TrackPointExtension></extensions>
      </trkpt>
      <trkpt lat="-11.639319407898" lon="166.98304218967">
        <ele>14.8</ele>
        <time>2026-05-06T14:02:37Z</time>
        <extensions><gpxtpx:TrackPointExtension><gpxtpx:hr>130</gpxtpx:hr></gpxtpx:TrackPointExtension></extensions>
      </trkpt>
      <trkpt lat="-11.639340865562" lon="166.98310907724">
        <ele>14.8</ele>
        <time>2026-05-06T14:02:38Z</time>
        <extensions><gpxtpx:TrackPointExtension><gpxtpx:hr>130</gpxtpx:hr></gpxtpx:TrackPointExtension></extensions>
      </trkpt>
      <trkpt lat="-11.639364083425" lon="166.98317722208">
        <ele>14.8</ele>
        <time>2026-05-06T14:02:39Z</time>
        <extensions><gpxtpx:TrackPointExtension><gpxtpx:hr>130</gpxtpx:hr></gpxtpx:TrackPointExtension></extensions>
      </trkpt>
      <trkpt lat="-11.639389564401" lon="166.98324553457">
        <ele>14.6</ele>
        <time>2026-05-06T14:02:40Z</time>
        <extensions><gpxtpx:TrackPointExtension><gpxtpx:hr>130</gpxtpx:hr></gpxtpx:TrackPointExtension></extensions>
      </trkpt>
      <trkpt lat="-11.63941814668" lon="166.98331334414">
        <ele>14.6</ele>
        <time>2026-05-06T14:02:41Z</time>
        <extensions><gpxtpx:TrackPointExtension><gpxtpx:hr>130</gpxtpx:hr></gpxtpx:TrackPointExtension></extensions>
      </trkpt>
    </trkseg>
  </trk>
</gpx>